GFSGL_prec_precacc12_015.txt.gz
Total_Precipitation_Accumulation
0.00 0.00 0.00 0.00 0.00 0.00 0.00 0.00 0.00 0.00 0.00 0.00 0.00 0.00 0.00 0.00 0.00 0.00 0.00 0.00 0.00 0.00 0.00 0.00 0.00 0.00 0.00 0.00 0.00 0.00 0.00 0.00 0.00 0.00 0.00 0.00 0.00 0.00 0.00 0.00 0.00 0.00 0.00
0.00 0.00 0.00 0.00 0.00 0.00 0.00 0.00 0.00 0.00 0.00 0.00 0.00 0.00 0.00 0.00 0.00 0.00 0.00 0.00 0.00 0.00 0.00 0.00 0.00 0.00 0.01 0.01 0.00 0.01 0.00 0.01 0.01 0.00 0.00 0.00 0.00 0.00 0.01 0.00 0.00 0.00 0.00
0.00 0.00 0.00 0.00 0.00 0.00 0.00 0.00 0.00 0.00 0.00 0.00 0.00 0.00 0.00 0.01 0.00 0.00 0.00 0.00 0.00 0.00 0.00 0.00 0.00 0.00 0.01 0.02 0.02 0.02 0.01 0.02 0.05 0.04 0.01 0.01 0.00 0.00 0.00 0.00 0.00 0.00 0.00
0.00 0.00 0.00 0.00 0.00 0.00 0.00 0.00 0.00 0.00 0.00 0.00 0.00 0.00 0.01 0.01 0.03 0.04 0.04 0.03 0.01 0.02 0.01 0.00 0.00 0.01 0.02 0.02 0.02 0.04 0.06 0.13 0.19 0.17 0.10 0.05 0.01 0.00 0.00 0.00 0.00 0.00 0.00
0.00 0.00 0.00 0.00 0.00 0.00 0.00 0.00 0.00 0.00 0.00 0.00 0.00 0.00 0.01 0.02 0.04 0.05 0.04 0.09 0.10 0.08 0.03 0.01 0.00 0.03 0.05 0.11 0.11 0.08 0.04 0.07 0.06 0.06 0.04 0.02 0.00 0.00 0.01 0.00 0.01 0.00 0.00
0.00 0.00 0.00 0.00 0.00 0.00 0.00 0.00 0.00 0.00 0.00 0.00 0.01 0.02 0.05 0.04 0.03 0.03 0.10 0.18 0.22 0.18 0.11 0.08 0.01 0.04 0.10 0.12 0.10 0.06 0.03 0.06 0.11 0.10 0.06 0.01 0.01 0.02 0.01 0.01 0.00 0.00 0.00
0.00 0.00 0.00 0.00 0.00 0.00 0.00 0.00 0.00 0.00 0.00 0.00 0.03 0.06 0.12 0.11 0.16 0.25 0.32 0.22 0.24 0.11 0.09 0.09 0.02 0.07 0.15 0.07 0.14 0.19 0.05 0.06 0.09 0.12 0.04 0.01 0.02 0.04 0.03 0.01 0.00 0.00 0.00
0.00 0.00 0.00 0.00 0.00 0.00 0.00 0.00 0.00 0.00 0.00 0.01 0.02 0.09 0.22 0.38 0.57 0.45 0.39 0.24 0.19 0.08 0.07 0.05 0.05 0.08 0.13 0.16 0.19 0.11 0.10 0.10 0.13 0.09 0.03 0.01 0.02 0.03 0.02 0.00 0.00 0.00 0.00
0.00 0.00 0.00 0.00 0.00 0.00 0.00 0.00 0.01 0.02 0.13 0.28 0.52 0.50 0.42 0.32 0.23 0.13 0.13 0.07 0.08 0.07 0.04 0.05 0.07 0.06 0.26 0.33 0.12 0.04 0.04 0.04 0.05 0.08 0.09 0.05 0.03 0.01 0.01 0.00 0.00 0.00 0.00
0.00 0.00 0.00 0.00 0.00 0.00 0.03 0.04 0.17 0.37 0.32 0.17 0.14 0.10 0.07 0.06 0.10 0.09 0.05 0.02 0.03 0.02 0.05 0.05 0.21 0.05 0.15 0.14 0.05 0.02 0.04 0.14 0.05 0.04 0.02 0.01 0.00 0.00 0.00 0.00 0.00 0.00 0.00
0.00 0.00 0.00 0.00 0.01 0.10 0.18 0.16 0.21 0.23 0.06 0.03 0.05 0.08 0.12 0.08 0.07 0.03 0.01 0.02 0.01 0.01 0.02 0.04 0.03 0.05 0.06 0.08 0.13 0.14 0.11 0.06 0.01 0.00 0.00 0.00 0.00 0.00 0.00 0.00 0.00 0.00 0.00
0.00 0.00 0.00 0.01 0.03 0.11 0.18 0.18 0.17 0.07 0.01 0.02 0.04 0.10 0.19 0.13 0.09 0.02 0.01 0.01 0.00 0.00 0.01 0.05 0.07 0.09 0.25 0.22 0.14 0.06 0.01 0.00 0.00 0.00 0.00 0.00 0.00 0.00 0.00 0.00 0.00 0.00 0.00
0.00 0.00 0.00 0.00 0.02 0.07 0.14 0.09 0.03 0.06 0.07 0.06 0.15 0.17 0.20 0.15 0.10 0.02 0.02 0.02 0.01 0.01 0.01 0.06 0.11 0.09 0.06 0.02 0.00 0.00 0.00 0.00 0.00 0.00 0.00 0.00 0.00 0.00 0.00 0.00 0.00 0.00 0.00
0.00 0.00 0.00 0.02 0.09 0.13 0.27 0.10 0.10 0.19 0.23 0.19 0.35 0.41 0.34 0.23 0.08 0.02 0.01 0.03 0.01 0.01 0.02 0.03 0.03 0.02 0.00 0.00 0.00 0.00 0.00 0.00 0.00 0.00 0.00 0.00 0.00 0.00 0.00 0.00 0.00 0.00 0.00
0.12 0.24 0.30 0.30 0.22 0.15 0.33 0.29 0.38 0.58 0.53 0.48 0.50 0.36 0.17 0.05 0.02 0.02 0.01 0.00 0.00 0.01 0.01 0.00 0.00 0.00 0.00 0.00 0.00 0.00 0.00 0.00 0.00 0.00 0.00 0.00 0.00 0.00 0.00 0.00 0.00 0.00 0.00
0.27 0.28 0.29 0.27 0.37 0.43 0.47 0.49 0.56 0.63 0.52 0.37 0.33 0.27 0.15 0.07 0.03 0.02 0.01 0.01 0.00 0.00 0.00 0.00 0.00 0.00 0.00 0.00 0.00 0.00 0.00 0.00 0.00 0.00 0.00 0.00 0.00 0.00 0.00 0.00 0.00 0.00 0.00
0.13 0.11 0.16 0.27 0.35 0.46 0.60 0.59 0.52 0.48 0.37 0.23 0.14 0.07 0.01 0.00 0.02 0.01 0.00 0.00 0.00 0.00 0.00 0.00 0.00 0.00 0.00 0.00 0.00 0.00 0.00 0.00 0.00 0.00 0.00 0.00 0.00 0.00 0.00 0.00 0.00 0.00 0.00
0.60 0.59 0.49 0.46 0.53 0.35 0.30 0.26 0.23 0.23 0.22 0.17 0.05 0.00 0.00 0.00 0.00 0.00 0.00 0.00 0.00 0.00 0.00 0.00 0.00 0.00 0.00 0.00 0.00 0.00 0.00 0.00 0.00 0.00 0.00 0.00 0.00 0.00 0.00 0.00 0.00 0.00 0.00
1.39 0.82 0.66 0.62 0.50 0.47 0.44 0.26 0.07 0.04 0.02 0.02 0.00 0.00 0.00 0.00 0.01 0.00 0.00 0.00 0.00 0.00 0.00 0.00 0.00 0.00 0.00 0.00 0.00 0.00 0.00 0.00 0.00 0.00 0.00 0.00 0.00 0.00 0.00 0.00 0.00 0.00 0.00
1.10 1.09 0.62 0.45 0.34 0.31 0.34 0.21 0.09 0.07 0.04 0.02 0.01 0.00 0.00 0.00 0.00 0.00 0.00 0.00 0.00 0.00 0.00 0.00 0.00 0.00 0.00 0.00 0.00 0.00 0.00 0.00 0.00 0.00 0.00 0.00 0.00 0.00 0.00 0.00 0.00 0.00 0.00
0.55 0.43 0.39 0.31 0.20 0.16 0.17 0.15 0.11 0.09 0.09 0.06 0.04 0.01 0.00 0.00 0.00 0.00 0.00 0.00 0.00 0.00 0.00 0.00 0.00 0.00 0.00 0.00 0.00 0.00 0.00 0.00 0.00 0.00 0.00 0.00 0.00 0.00 0.00 0.00 0.00 0.00 0.00
0.21 0.13 0.16 0.25 0.23 0.22 0.17 0.11 0.06 0.07 0.07 0.05 0.03 0.00 0.00 0.00 0.00 0.00 0.00 0.00 0.00 0.00 0.00 0.00 0.00 0.00 0.00 0.00 0.00 0.00 0.00 0.00 0.00 0.00 0.00 0.00 0.00 0.00 0.00 0.00 0.00 0.00 0.00
0.16 0.13 0.13 0.14 0.16 0.18 0.21 0.17 0.09 0.07 0.07 0.03 0.03 0.01 0.00 0.00 0.00 0.00 0.00 0.00 0.00 0.00 0.00 0.00 0.00 0.00 0.00 0.00 0.00 0.00 0.00 0.00 0.00 0.00 0.00 0.00 0.00 0.00 0.00 0.00 0.00 0.00 0.00
0.17 0.17 0.19 0.18 0.17 0.11 0.11 0.11 0.10 0.10 0.10 0.04 0.01 0.00 0.00 0.00 0.00 0.00 0.00 0.00 0.00 0.00 0.00 0.00 0.00 0.00 0.00 0.00 0.00 0.00 0.00 0.00 0.00 0.00 0.00 0.00 0.00 0.00 0.00 0.00 0.00 0.00 0.00
0.11 0.11 0.15 0.12 0.10 0.07 0.07 0.06 0.04 0.02 0.03 0.03 0.01 0.01 0.00 0.00 0.00 0.00 0.00 0.00 0.00 0.00 0.00 0.00 0.00 0.00 0.00 0.00 0.00 0.00 0.00 0.00 0.00 0.00 0.00 0.00 0.00 0.00 0.00 0.00 0.00 0.00 0.00
0.13 0.13 0.15 0.11 0.04 0.02 0.01 0.01 0.01 0.01 0.02 0.01 0.02 0.01 0.01 0.00 0.00 0.00 0.00 0.00 0.00 0.00 0.00 0.00 0.00 0.00 0.00 0.00 0.00 0.00 0.00 0.00 0.00 0.00 0.00 0.00 0.00 0.00 0.00 0.00 0.00 0.00 0.00

GFSGL_prec_precacc12_018.txt.gz
Total_Precipitation_Accumulation
0.00 0.00 0.00 0.00 0.00 0.00 0.00 0.00 0.00 0.00 0.00 0.00 0.00 0.00 0.00 0.00 0.00 0.00 0.00 0.00 0.00 0.00 0.00 0.00 0.00 0.00 0.00 0.00 0.00 0.00 0.00 0.00 0.00 0.00 0.00 0.00 0.00 0.00 0.00 0.00 0.00 0.00 0.00
0.00 0.00 0.00 0.00 0.00 0.00 0.00 0.00 0.00 0.00 0.00 0.00 0.00 0.00 0.00 0.00 0.00 0.00 0.00 0.00 0.00 0.00 0.00 0.00 0.00 0.00 0.00 0.00 0.00 0.00 0.00 0.01 0.01 0.00 0.00 0.00 0.00 0.00 0.00 0.00 0.00 0.00 0.00
0.00 0.00 0.00 0.00 0.00 0.00 0.00 0.00 0.00 0.00 0.00 0.00 0.00 0.00 0.00 0.01 0.00 0.00 0.00 0.00 0.00 0.04 0.02 0.00 0.00 0.00 0.00 0.00 0.00 0.00 0.00 0.01 0.01 0.02 0.00 0.01 0.00 0.00 0.00 0.00 0.00 0.00 0.00
0.00 0.00 0.00 0.00 0.00 0.00 0.00 0.00 0.00 0.00 0.00 0.00 0.00 0.00 0.01 0.01 0.03 0.04 0.05 0.04 0.02 0.10 0.05 0.02 0.01 0.00 0.00 0.00 0.00 0.01 0.01 0.04 0.06 0.02 0.03 0.04 0.02 0.00 0.00 0.00 0.00 0.00 0.00
0.00 0.00 0.00 0.00 0.00 0.00 0.00 0.00 0.00 0.00 0.00 0.00 0.00 0.00 0.01 0.02 0.04 0.05 0.05 0.10 0.12 0.14 0.07 0.05 0.06 0.01 0.00 0.01 0.03 0.04 0.01 0.03 0.04 0.04 0.03 0.01 0.00 0.00 0.00 0.00 0.00 0.00 0.00
0.00 0.00 0.00 0.00 0.00 0.00 0.00 0.00 0.00 0.00 0.00 0.00 0.00 0.02 0.04 0.04 0.03 0.03 0.10 0.18 0.24 0.20 0.16 0.19 0.11 0.06 0.02 0.03 0.06 0.06 0.04 0.04 0.10 0.09 0.04 0.00 0.01 0.00 0.00 0.00 0.00 0.00 0.00
0.00 0.00 0.00 0.00 0.00 0.00 0.00 0.00 0.00 0.00 0.00 0.00 0.00 0.04 0.12 0.11 0.16 0.25 0.32 0.22 0.24 0.12 0.12 0.13 0.12 0.08 0.08 0.06 0.14 0.19 0.07 0.06 0.08 0.12 0.03 0.00 0.00 0.00 0.00 0.00 0.00 0.00 0.00
0.00 0.00 0.00 0.00 0.00 0.00 0.00 0.00 0.00 0.00 0.00 0.01 0.01 0.08 0.22 0.38 0.57 0.45 0.39 0.24 0.20 0.10 0.05 0.04 0.06 0.09 0.10 0.14 0.18 0.11 0.09 0.08 0.08 0.05 0.01 0.00 0.00 0.01 0.02 0.00 0.00 0.00 0.00
0.00 0.00 0.00 0.00 0.00 0.00 0.00 0.00 0.00 0.01 0.12 0.27 0.51 0.49 0.42 0.32 0.22 0.12 0.12 0.07 0.09 0.10 0.05 0.03 0.04 0.05 0.18 0.26 0.12 0.04 0.03 0.03 0.03 0.03 0.06 0.03 0.03 0.01 0.01 0.00 0.00 0.00 0.00
0.00 0.00 0.00 0.00 0.00 0.00 0.03 0.04 0.17 0.37 0.31 0.17 0.14 0.08 0.05 0.05 0.09 0.07 0.05 0.02 0.03 0.02 0.03 0.02 0.02 0.03 0.12 0.13 0.05 0.02 0.02 0.11 0.03 0.03 0.01 0.00 0.00 0.00 0.00 0.00 0.00 0.00 0.00
0.00 0.00 0.00 0.00 0.01 0.10 0.18 0.16 0.21 0.23 0.05 0.03 0.05 0.07 0.10 0.04 0.04 0.06 0.01 0.02 0.01 0.02 0.01 0.01 0.00 0.02 0.05 0.07 0.12 0.14 0.10 0.05 0.01 0.00 0.00 0.00 0.00 0.00 0.00 0.00 0.00 0.00 0.00
0.00 0.00 0.00 0.00 0.03 0.11 0.17 0.18 0.17 0.07 0.01 0.02 0.04 0.08 0.14 0.06 0.12 0.10 0.03 0.06 0.04 0.00 0.00 0.02 0.02 0.06 0.16 0.19 0.14 0.06 0.01 0.00 0.00 0.00 0.00 0.00 0.00 0.00 0.00 0.00 0.00 0.00 0.00
0.00 0.00 0.00 0.00 0.02 0.06 0.13 0.09 0.03 0.06 0.06 0.05 0.14 0.14 0.21 0.24 0.27 0.25 0.26 0.23 0.08 0.02 0.01 0.02 0.07 0.07 0.04 0.02 0.00 0.00 0.00 0.00 0.00 0.00 0.00 0.00 0.00 0.00 0.00 0.00 0.00 0.00 0.00
0.00 0.00 0.00 0.02 0.08 0.12 0.26 0.10 0.10 0.19 0.23 0.21 0.36 0.50 0.55 0.50 0.44 0.32 0.21 0.08 0.01 0.01 0.02 0.02 0.03 0.02 0.00 0.00 0.00 0.00 0.00 0.00 0.00 0.00 0.00 0.00 0.00 0.00 0.00 0.00 0.00 0.00 0.00
0.12 0.24 0.30 0.30 0.21 0.15 0.32 0.29 0.38 0.57 0.57 0.60 0.66 0.57 0.46 0.38 0.33 0.28 0.20 0.08 0.02 0.00 0.00 0.00 0.00 0.00 0.00 0.00 0.00 0.00 0.00 0.00 0.00 0.00 0.00 0.00 0.00 0.00 0.00 0.00 0.00 0.00 0.00
0.27 0.27 0.28 0.26 0.35 0.42 0.47 0.51 0.61 0.73 0.72 0.65 0.63 0.70 0.70 0.81 0.99 0.95 0.57 0.21 0.07 0.01 0.00 0.00 0.00 0.00 0.00 0.00 0.00 0.00 0.00 0.00 0.00 0.00 0.00 0.00 0.00 0.00 0.00 0.00 0.00 0.00 0.00
0.12 0.10 0.15 0.26 0.34 0.46 0.60 0.60 0.57 0.72 0.62 0.56 0.61 0.47 0.41 0.36 0.32 0.16 0.09 0.07 0.03 0.00 0.00 0.00 0.00 0.00 0.00 0.00 0.00 0.00 0.00 0.00 0.00 0.00 0.00 0.00 0.00 0.00 0.00 0.00 0.00 0.00 0.00
0.60 0.62 0.57 0.50 0.55 0.39 0.35 0.41 0.41 0.44 0.41 0.37 0.40 0.29 0.20 0.16 0.14 0.09 0.04 0.01 0.00 0.00 0.00 0.00 0.00 0.00 0.00 0.00 0.00 0.00 0.00 0.00 0.00 0.00 0.00 0.00 0.00 0.00 0.00 0.00 0.00 0.00 0.00
1.43 0.87 0.83 1.03 1.17 0.97 0.88 0.73 0.44 0.30 0.18 0.15 0.10 0.07 0.05 0.04 0.05 0.04 0.03 0.02 0.01 0.00 0.00 0.00 0.00 0.00 0.00 0.00 0.00 0.00 0.00 0.00 0.00 0.00 0.00 0.00 0.00 0.00 0.00 0.00 0.00 0.00 0.00
1.30 1.61 1.29 1.48 2.45 2.55 1.57 0.91 0.74 0.80 0.59 0.37 0.16 0.07 0.04 0.02 0.01 0.01 0.01 0.01 0.00 0.00 0.00 0.00 0.00 0.00 0.00 0.00 0.00 0.00 0.00 0.00 0.00 0.00 0.00 0.00 0.00 0.00 0.00 0.00 0.00 0.00 0.00
0.64 0.73 0.75 0.82 0.94 0.92 0.79 0.51 0.34 0.38 0.37 0.26 0.18 0.05 0.01 0.01 0.02 0.03 0.00 0.00 0.00 0.00 0.00 0.00 0.00 0.00 0.00 0.00 0.00 0.00 0.00 0.00 0.00 0.00 0.00 0.00 0.00 0.00 0.00 0.00 0.00 0.00 0.00
0.42 0.40 0.43 0.52 0.47 0.45 0.37 0.29 0.19 0.20 0.19 0.16 0.11 0.05 0.03 0.02 0.02 0.01 0.01 0.00 0.00 0.00 0.00 0.00 0.00 0.00 0.00 0.00 0.00 0.00 0.00 0.00 0.00 0.00 0.00 0.00 0.00 0.00 0.00 0.00 0.00 0.00 0.00
0.16 0.19 0.21 0.24 0.28 0.34 0.34 0.30 0.20 0.17 0.16 0.09 0.06 0.04 0.05 0.04 0.02 0.01 0.02 0.01 0.00 0.00 0.00 0.00 0.00 0.00 0.00 0.00 0.00 0.00 0.00 0.00 0.00 0.00 0.00 0.00 0.00 0.00 0.00 0.00 0.00 0.00 0.00
0.16 0.16 0.17 0.19 0.19 0.17 0.15 0.14 0.13 0.13 0.12 0.07 0.04 0.03 0.03 0.02 0.01 0.01 0.01 0.00 0.00 0.00 0.00 0.00 0.00 0.00 0.00 0.00 0.00 0.00 0.00 0.00 0.00 0.00 0.00 0.00 0.00 0.00 0.00 0.00 0.00 0.00 0.00
0.07 0.09 0.14 0.12 0.10 0.11 0.11 0.08 0.08 0.04 0.06 0.08 0.07 0.07 0.06 0.02 0.00 0.00 0.00 0.00 0.00 0.00 0.00 0.00 0.00 0.00 0.00 0.00 0.00 0.00 0.00 0.00 0.00 0.00 0.00 0.00 0.00 0.00 0.00 0.00 0.00 0.00 0.00
0.09 0.10 0.14 0.12 0.06 0.03 0.02 0.02 0.04 0.06 0.09 0.06 0.05 0.07 0.10 0.06 0.01 0.00 0.00 0.00 0.00 0.00 0.00 0.00 0.00 0.00 0.00 0.00 0.00 0.00 0.00 0.00 0.00 0.00 0.00 0.00 0.00 0.00 0.00 0.00 0.00 0.00 0.00

GFSGL_prec_precacc12_021.txt.gz
Total_Precipitation_Accumulation
0.00 0.00 0.00 0.00 0.00 0.00 0.00 0.00 0.00 0.00 0.00 0.00 0.00 0.00 0.00 0.00 0.00 0.00 0.00 0.00 0.00 0.00 0.00 0.00 0.00 0.00 0.00 0.00 0.00 0.00 0.00 0.00 0.00 0.00 0.00 0.00 0.00 0.00 0.00 0.00 0.00 0.00 0.00
0.00 0.00 0.00 0.00 0.00 0.00 0.00 0.00 0.00 0.00 0.00 0.00 0.00 0.00 0.00 0.00 0.00 0.00 0.00 0.00 0.00 0.00 0.00 0.00 0.00 0.00 0.00 0.00 0.00 0.00 0.00 0.00 0.00 0.00 0.00 0.00 0.00 0.00 0.00 0.00 0.00 0.00 0.00
0.00 0.00 0.00 0.00 0.00 0.00 0.00 0.00 0.00 0.00 0.00 0.00 0.00 0.00 0.00 0.01 0.00 0.00 0.00 0.00 0.00 0.04 0.02 0.00 0.00 0.00 0.00 0.00 0.00 0.00 0.00 0.00 0.01 0.02 0.00 0.00 0.00 0.00 0.00 0.00 0.00 0.00 0.00
0.00 0.00 0.00 0.00 0.00 0.00 0.00 0.00 0.00 0.00 0.00 0.00 0.00 0.00 0.01 0.01 0.03 0.04 0.05 0.04 0.02 0.10 0.05 0.02 0.01 0.00 0.00 0.00 0.00 0.00 0.00 0.03 0.01 0.01 0.00 0.02 0.01 0.00 0.00 0.00 0.00 0.00 0.00
0.00 0.00 0.00 0.00 0.00 0.00 0.00 0.00 0.00 0.00 0.00 0.00 0.00 0.00 0.01 0.01 0.04 0.05 0.05 0.10 0.12 0.14 0.07 0.05 0.07 0.03 0.00 0.00 0.00 0.01 0.00 0.00 0.01 0.02 0.03 0.01 0.00 0.00 0.00 0.00 0.00 0.00 0.00
0.00 0.00 0.00 0.00 0.00 0.00 0.00 0.00 0.00 0.00 0.00 0.00 0.00 0.01 0.03 0.04 0.02 0.03 0.10 0.18 0.24 0.20 0.16 0.20 0.11 0.07 0.03 0.02 0.04 0.05 0.04 0.04 0.09 0.07 0.04 0.00 0.02 0.01 0.00 0.00 0.00 0.00 0.00
0.00 0.00 0.00 0.00 0.00 0.00 0.00 0.00 0.00 0.00 0.00 0.00 0.00 0.03 0.10 0.07 0.14 0.25 0.32 0.22 0.24 0.12 0.12 0.11 0.11 0.07 0.08 0.06 0.10 0.14 0.05 0.06 0.08 0.11 0.03 0.01 0.01 0.01 0.00 0.00 0.00 0.00 0.00
0.00 0.00 0.00 0.00 0.00 0.00 0.00 0.00 0.00 0.00 0.00 0.01 0.01 0.06 0.18 0.34 0.55 0.43 0.39 0.24 0.20 0.10 0.04 0.02 0.04 0.08 0.09 0.10 0.08 0.03 0.07 0.08 0.07 0.05 0.00 0.03 0.01 0.00 0.00 0.01 0.01 0.00 0.00
0.00 0.00 0.00 0.00 0.00 0.00 0.00 0.00 0.00 0.00 0.04 0.23 0.48 0.45 0.38 0.29 0.18 0.10 0.12 0.06 0.08 0.09 0.05 0.02 0.03 0.04 0.09 0.13 0.04 0.03 0.03 0.02 0.03 0.01 0.03 0.03 0.02 0.00 0.00 0.00 0.00 0.00 0.00
0.00 0.00 0.00 0.00 0.00 0.00 0.00 0.00 0.00 0.08 0.13 0.08 0.11 0.06 0.02 0.02 0.05 0.04 0.04 0.02 0.03 0.02 0.03 0.03 0.05 0.07 0.08 0.07 0.03 0.02 0.01 0.04 0.03 0.02 0.01 0.00 0.00 0.00 0.00 0.00 0.00 0.00 0.00
0.00 0.00 0.00 0.00 0.00 0.00 0.00 0.01 0.08 0.17 0.03 0.01 0.04 0.06 0.08 0.04 0.04 0.06 0.01 0.02 0.01 0.02 0.02 0.00 0.05 0.05 0.02 0.03 0.10 0.14 0.10 0.04 0.01 0.00 0.00 0.00 0.00 0.00 0.00 0.00 0.00 0.00 0.00
0.00 0.00 0.00 0.00 0.00 0.00 0.02 0.10 0.17 0.07 0.01 0.02 0.04 0.08 0.14 0.06 0.12 0.10 0.03 0.06 0.06 0.02 0.03 0.03 0.02 0.06 0.13 0.13 0.13 0.06 0.01 0.00 0.00 0.00 0.00 0.00 0.00 0.00 0.00 0.00 0.00 0.00 0.00
0.00 0.00 0.00 0.00 0.00 0.00 0.06 0.08 0.03 0.06 0.07 0.05 0.14 0.15 0.21 0.23 0.27 0.25 0.27 0.30 0.24 0.15 0.12 0.11 0.07 0.06 0.05 0.02 0.00 0.00 0.00 0.00 0.00 0.00 0.00 0.00 0.00 0.00 0.00 0.00 0.00 0.00 0.00
0.00 0.00 0.00 0.02 0.07 0.11 0.24 0.09 0.10 0.19 0.23 0.21 0.37 0.52 0.56 0.50 0.45 0.38 0.35 0.28 0.21 0.18 0.18 0.16 0.11 0.07 0.01 0.00 0.00 0.00 0.00 0.00 0.00 0.00 0.00 0.00 0.00 0.00 0.00 0.00 0.00 0.00 0.00
0.02 0.12 0.23 0.28 0.21 0.14 0.32 0.29 0.38 0.57 0.57 0.59 0.66 0.58 0.47 0.43 0.42 0.48 0.52 0.56 0.65 0.76 0.76 0.57 0.34 0.12 0.00 0.00 0.00 0.00 0.00 0.00 0.00 0.00 0.00 0.00 0.00 0.00 0.00 0.00 0.00 0.00 0.00
0.19 0.19 0.23 0.25 0.35 0.42 0.47 0.51 0.62 0.74 0.72 0.65 0.64 0.70 0.77 0.88 1.14 1.29 1.44 1.20 0.78 0.53 0.39 0.25 0.15 0.08 0.01 0.00 0.00 0.00 0.00 0.00 0.00 0.00 0.00 0.00 0.00 0.00 0.00 0.00 0.00 0.00 0.00
0.12 0.10 0.15 0.27 0.34 0.46 0.60 0.61 0.57 0.74 0.65 0.59 0.63 0.53 0.55 0.48 0.50 0.48 0.54 0.47 0.25 0.13 0.09 0.05 0.00 0.00 0.00 0.00 0.00 0.00 0.00 0.00 0.00 0.00 0.00 0.00 0.00 0.00 0.00 0.00 0.00 0.00 0.00
0.60 0.62 0.58 0.50 0.56 0.40 0.35 0.41 0.42 0.45 0.45 0.51 0.59 0.49 0.40 0.39 0.35 0.27 0.25 0.21 0.13 0.06 0.04 0.02 0.00 0.00 0.00 0.00 0.00 0.00 0.00 0.00 0.00 0.00 0.00 0.00 0.00 0.00 0.00 0.00 0.00 0.00 0.00
1.43 0.86 0.82 1.00 1.12 0.98 0.99 0.92 0.66 0.49 0.29 0.27 0.29 0.30 0.26 0.21 0.16 0.11 0.08 0.08 0.08 0.05 0.02 0.03 0.03 0.03 0.01 0.00 0.00 0.00 0.00 0.00 0.00 0.00 0.00 0.00 0.00 0.00 0.00 0.00 0.00 0.00 0.00
1.27 1.53 1.22 1.37 2.30 2.64 2.51 2.11 1.88 1.79 1.45 1.10 0.57 0.33 0.32 0.25 0.22 0.19 0.16 0.15 0.13 0.08 0.04 0.03 0.02 0.01 0.00 0.00 0.00 0.00 0.00 0.00 0.00 0.00 0.00 0.00 0.00 0.00 0.00 0.00 0.00 0.00 0.00
0.50 0.63 0.65 0.74 0.87 0.98 1.43 1.67 1.83 2.01 2.01 1.97 1.49 0.57 0.17 0.15 0.15 0.14 0.09 0.09 0.09 0.05 0.02 0.01 0.00 0.00 0.00 0.00 0.00 0.00 0.00 0.00 0.00 0.00 0.00 0.00 0.00 0.00 0.00 0.00 0.00 0.00 0.00
0.40 0.36 0.39 0.50 0.44 0.43 0.39 0.37 0.34 0.47 0.54 0.58 0.48 0.22 0.15 0.11 0.10 0.10 0.11 0.08 0.05 0.02 0.00 0.00 0.00 0.00 0.00 0.00 0.00 0.00 0.00 0.00 0.00 0.00 0.00 0.00 0.00 0.00 0.00 0.00 0.00 0.00 0.00
0.12 0.15 0.14 0.19 0.25 0.31 0.35 0.32 0.24 0.21 0.20 0.16 0.13 0.11 0.12 0.10 0.08 0.08 0.08 0.05 0.02 0.00 0.00 0.00 0.00 0.00 0.00 0.00 0.00 0.00 0.00 0.00 0.00 0.00 0.00 0.00 0.00 0.00 0.00 0.00 0.00 0.00 0.00
0.08 0.06 0.10 0.16 0.17 0.16 0.16 0.15 0.15 0.15 0.16 0.13 0.10 0.09 0.09 0.07 0.07 0.05 0.03 0.02 0.00 0.00 0.00 0.00 0.00 0.00 0.00 0.00 0.00 0.00 0.00 0.00 0.00 0.00 0.00 0.00 0.00 0.00 0.00 0.00 0.00 0.00 0.00
0.02 0.02 0.06 0.08 0.09 0.10 0.12 0.09 0.07 0.04 0.07 0.08 0.07 0.08 0.10 0.05 0.01 0.02 0.01 0.00 0.00 0.00 0.00 0.00 0.00 0.00 0.00 0.00 0.00 0.00 0.00 0.00 0.00 0.00 0.00 0.00 0.00 0.00 0.00 0.00 0.00 0.00 0.00
0.04 0.06 0.10 0.08 0.04 0.02 0.02 0.06 0.13 0.20 0.23 0.19 0.12 0.09 0.11 0.11 0.06 0.03 0.02 0.01 0.00 0.00 0.00 0.00 0.00 0.00 0.00 0.00 0.00 0.00 0.00 0.00 0.00 0.00 0.00 0.00 0.00 0.00 0.00 0.00 0.00 0.00 0.00

GFSGL_prec_precacc12_027.txt.gz
Total_Precipitation_Accumulation
0.00 0.00 0.00 0.00 0.00 0.00 0.00 0.00 0.00 0.00 0.00 0.00 0.00 0.00 0.00 0.00 0.00 0.00 0.00 0.00 0.00 0.00 0.00 0.00 0.00 0.00 0.00 0.00 0.00 0.00 0.00 0.00 0.00 0.00 0.00 0.00 0.00 0.00 0.00 0.00 0.00 0.00 0.00
0.00 0.00 0.00 0.00 0.00 0.00 0.00 0.00 0.00 0.00 0.00 0.00 0.00 0.00 0.00 0.00 0.00 0.00 0.00 0.00 0.00 0.00 0.00 0.00 0.00 0.00 0.00 0.00 0.00 0.00 0.00 0.00 0.00 0.00 0.00 0.00 0.00 0.00 0.00 0.00 0.00 0.00 0.00
0.00 0.00 0.00 0.00 0.00 0.00 0.00 0.00 0.00 0.00 0.00 0.00 0.00 0.00 0.00 0.00 0.00 0.00 0.00 0.00 0.00 0.04 0.02 0.00 0.00 0.00 0.00 0.00 0.00 0.00 0.00 0.00 0.00 0.00 0.00 0.00 0.00 0.00 0.01 0.00 0.00 0.00 0.00
0.00 0.00 0.00 0.00 0.00 0.00 0.00 0.00 0.00 0.00 0.00 0.00 0.00 0.00 0.00 0.00 0.00 0.00 0.00 0.01 0.01 0.07 0.04 0.02 0.01 0.00 0.00 0.00 0.00 0.00 0.00 0.00 0.00 0.00 0.00 0.01 0.01 0.00 0.00 0.00 0.01 0.00 0.00
0.00 0.00 0.00 0.00 0.00 0.00 0.00 0.00 0.00 0.00 0.00 0.00 0.00 0.00 0.00 0.00 0.00 0.00 0.00 0.01 0.02 0.06 0.04 0.04 0.07 0.03 0.00 0.00 0.00 0.00 0.00 0.00 0.00 0.00 0.00 0.00 0.00 0.00 0.00 0.00 0.00 0.00 0.00
0.00 0.00 0.00 0.00 0.00 0.00 0.00 0.00 0.00 0.00 0.00 0.00 0.00 0.00 0.00 0.00 0.00 0.00 0.00 0.00 0.01 0.02 0.06 0.12 0.11 0.07 0.02 0.00 0.00 0.00 0.02 0.00 0.00 0.00 0.00 0.00 0.02 0.02 0.00 0.00 0.00 0.00 0.00
0.00 0.00 0.00 0.00 0.00 0.00 0.00 0.00 0.00 0.00 0.00 0.00 0.00 0.00 0.00 0.00 0.00 0.00 0.00 0.00 0.00 0.01 0.04 0.06 0.10 0.05 0.04 0.02 0.02 0.01 0.02 0.02 0.01 0.00 0.00 0.01 0.01 0.03 0.01 0.04 0.01 0.01 0.01
0.00 0.00 0.00 0.00 0.00 0.00 0.00 0.00 0.00 0.00 0.00 0.00 0.00 0.00 0.00 0.00 0.00 0.00 0.00 0.00 0.00 0.02 0.01 0.01 0.02 0.02 0.02 0.04 0.04 0.01 0.04 0.02 0.04 0.01 0.00 0.04 0.04 0.02 0.06 0.06 0.06 0.01 0.00
0.00 0.00 0.00 0.00 0.00 0.00 0.00 0.00 0.00 0.00 0.00 0.00 0.00 0.00 0.00 0.00 0.00 0.00 0.00 0.00 0.01 0.03 0.02 0.01 0.00 0.00 0.03 0.05 0.01 0.01 0.03 0.03 0.07 0.05 0.01 0.01 0.00 0.00 0.02 0.01 0.01 0.00 0.00
0.00 0.00 0.00 0.00 0.00 0.00 0.00 0.00 0.00 0.00 0.00 0.00 0.00 0.00 0.00 0.00 0.00 0.00 0.00 0.00 0.00 0.01 0.03 0.02 0.04 0.06 0.05 0.04 0.02 0.00 0.01 0.01 0.02 0.02 0.01 0.00 0.00 0.00 0.00 0.00 0.00 0.00 0.00
0.00 0.00 0.00 0.00 0.00 0.00 0.00 0.00 0.00 0.00 0.00 0.00 0.00 0.00 0.00 0.00 0.01 0.04 0.00 0.00 0.01 0.02 0.02 0.00 0.05 0.05 0.03 0.08 0.10 0.01 0.03 0.02 0.00 0.00 0.01 0.01 0.00 0.00 0.00 0.00 0.00 0.00 0.00
0.00 0.00 0.00 0.00 0.00 0.00 0.00 0.00 0.00 0.00 0.01 0.01 0.01 0.00 0.00 0.01 0.07 0.08 0.02 0.06 0.06 0.02 0.03 0.03 0.02 0.07 0.05 0.15 0.13 0.06 0.06 0.04 0.01 0.00 0.01 0.01 0.00 0.00 0.00 0.00 0.00 0.00 0.00
0.00 0.00 0.00 0.00 0.00 0.00 0.00 0.00 0.01 0.01 0.01 0.01 0.01 0.02 0.06 0.13 0.20 0.23 0.27 0.30 0.24 0.15 0.11 0.12 0.09 0.06 0.08 0.11 0.09 0.06 0.06 0.04 0.01 0.01 0.01 0.00 0.00 0.00 0.00 0.00 0.00 0.00 0.00
0.00 0.00 0.00 0.00 0.00 0.00 0.00 0.00 0.00 0.00 0.00 0.02 0.05 0.18 0.29 0.34 0.39 0.38 0.35 0.28 0.26 0.22 0.18 0.20 0.16 0.12 0.13 0.12 0.11 0.09 0.05 0.03 0.03 0.02 0.02 0.02 0.02 0.01 0.00 0.00 0.00 0.00 0.00
0.00 0.00 0.00 0.00 0.00 0.00 0.00 0.00 0.00 0.01 0.06 0.15 0.21 0.26 0.33 0.40 0.43 0.51 0.53 0.57 0.71 0.88 0.91 0.80 0.69 0.62 0.48 0.32 0.23 0.18 0.11 0.05 0.04 0.02 0.02 0.02 0.02 0.00 0.00 0.00 0.00 0.00 0.00
0.00 0.00 0.00 0.00 0.00 0.00 0.00 0.01 0.06 0.11 0.21 0.30 0.33 0.46 0.65 0.83 1.14 1.29 1.49 1.29 0.94 0.78 0.74 0.61 0.47 0.38 0.33 0.33 0.28 0.20 0.15 0.12 0.09 0.08 0.04 0.03 0.01 0.00 0.00 0.00 0.00 0.00 0.00
0.00 0.00 0.00 0.00 0.00 0.00 0.00 0.02 0.06 0.26 0.29 0.37 0.50 0.48 0.55 0.48 0.50 0.50 0.59 0.64 0.49 0.43 0.33 0.31 0.28 0.30 0.39 0.45 0.46 0.42 0.30 0.22 0.16 0.09 0.02 0.01 0.00 0.00 0.00 0.00 0.00 0.00 0.00
0.00 0.03 0.08 0.05 0.04 0.06 0.08 0.17 0.20 0.23 0.24 0.34 0.56 0.51 0.42 0.42 0.42 0.34 0.36 0.40 0.35 0.24 0.22 0.18 0.18 0.21 0.22 0.28 0.30 0.23 0.12 0.07 0.06 0.02 0.01 0.00 0.00 0.00 0.00 0.00 0.00 0.00 0.00
0.05 0.04 0.17 0.42 0.72 0.63 0.61 0.67 0.61 0.46 0.30 0.30 0.33 0.41 0.41 0.42 0.41 0.36 0.42 0.38 0.41 0.34 0.29 0.28 0.20 0.16 0.12 0.13 0.13 0.10 0.06 0.02 0.02 0.01 0.00 0.00 0.00 0.00 0.00 0.00 0.00 0.00 0.00
0.19 0.52 0.68 1.03 2.11 2.44 2.26 1.94 1.83 1.75 1.44 1.22 1.03 1.07 1.06 1.02 1.00 0.88 0.85 0.92 0.96 0.76 0.69 0.80 0.72 0.50 0.23 0.15 0.11 0.06 0.03 0.01 0.01 0.01 0.00 0.00 0.00 0.00 0.00 0.00 0.00 0.00 0.00
0.09 0.30 0.36 0.51 0.76 0.85 1.28 1.54 1.73 1.93 1.92 2.00 2.03 1.93 1.95 2.16 1.99 2.00 2.22 2.10 1.76 1.73 1.67 1.73 1.88 1.89 1.59 0.75 0.19 0.03 0.01 0.00 0.00 0.00 0.00 0.00 0.00 0.00 0.00 0.00 0.00 0.00 0.00
0.21 0.28 0.28 0.29 0.25 0.23 0.22 0.27 0.28 0.41 0.48 0.57 0.73 0.76 0.73 0.68 0.79 0.92 1.20 1.28 1.28 1.19 1.12 1.07 0.86 0.75 0.70 0.36 0.10 0.02 0.01 0.00 0.00 0.00 0.00 0.00 0.00 0.00 0.00 0.00 0.00 0.00 0.00
0.01 0.07 0.09 0.12 0.14 0.17 0.16 0.16 0.16 0.14 0.14 0.13 0.12 0.17 0.26 0.25 0.24 0.17 0.17 0.17 0.19 0.22 0.25 0.30 0.27 0.21 0.17 0.10 0.04 0.02 0.01 0.00 0.00 0.00 0.00 0.00 0.00 0.00 0.00 0.00 0.00 0.00 0.00
0.01 0.00 0.00 0.01 0.03 0.07 0.07 0.05 0.05 0.06 0.07 0.09 0.10 0.11 0.16 0.17 0.21 0.16 0.13 0.12 0.12 0.13 0.13 0.18 0.16 0.13 0.10 0.06 0.04 0.01 0.00 0.00 0.00 0.00 0.00 0.00 0.00 0.00 0.00 0.00 0.00 0.00 0.00
0.00 0.00 0.00 0.01 0.02 0.06 0.08 0.05 0.06 0.03 0.04 0.06 0.08 0.10 0.12 0.08 0.06 0.07 0.07 0.06 0.04 0.03 0.05 0.05 0.03 0.02 0.02 0.00 0.00 0.00 0.00 0.00 0.00 0.00 0.00 0.00 0.00 0.00 0.00 0.00 0.00 0.00 0.00
0.00 0.01 0.01 0.02 0.02 0.01 0.02 0.05 0.12 0.19 0.21 0.19 0.11 0.08 0.11 0.12 0.07 0.03 0.03 0.02 0.01 0.01 0.00 0.00 0.00 0.00 0.00 0.00 0.00 0.00 0.00 0.00 0.00 0.00 0.00 0.00 0.00 0.00 0.00 0.00 0.00 0.00 0.00

GFSGL_prec_precacc12_030.txt.gz
Total_Precipitation_Accumulation
0.00 0.00 0.00 0.00 0.00 0.00 0.00 0.00 0.00 0.00 0.00 0.00 0.00 0.00 0.00 0.00 0.00 0.00 0.00 0.00 0.00 0.00 0.00 0.00 0.00 0.00 0.00 0.00 0.00 0.00 0.00 0.00 0.00 0.00 0.00 0.00 0.00 0.00 0.00 0.00 0.00 0.00 0.00
0.00 0.00 0.00 0.00 0.00 0.00 0.00 0.00 0.00 0.00 0.00 0.00 0.00 0.00 0.00 0.00 0.00 0.00 0.00 0.00 0.00 0.00 0.00 0.00 0.00 0.00 0.00 0.00 0.00 0.00 0.00 0.00 0.00 0.00 0.00 0.00 0.00 0.00 0.00 0.00 0.00 0.00 0.00
0.00 0.00 0.00 0.00 0.00 0.00 0.00 0.00 0.00 0.00 0.00 0.00 0.00 0.00 0.00 0.00 0.00 0.00 0.00 0.00 0.00 0.00 0.00 0.00 0.00 0.00 0.00 0.00 0.00 0.00 0.00 0.00 0.00 0.00 0.00 0.00 0.00 0.00 0.01 0.00 0.00 0.00 0.00
0.00 0.00 0.00 0.00 0.00 0.00 0.00 0.00 0.00 0.00 0.00 0.00 0.00 0.00 0.00 0.00 0.00 0.00 0.00 0.00 0.00 0.00 0.00 0.00 0.00 0.00 0.00 0.00 0.00 0.00 0.00 0.00 0.00 0.00 0.00 0.00 0.00 0.00 0.00 0.00 0.02 0.00 0.00
0.00 0.00 0.00 0.00 0.00 0.00 0.00 0.00 0.00 0.00 0.00 0.00 0.00 0.00 0.00 0.00 0.00 0.00 0.00 0.00 0.00 0.00 0.00 0.00 0.01 0.01 0.00 0.00 0.00 0.00 0.00 0.00 0.00 0.00 0.00 0.00 0.00 0.00 0.00 0.00 0.00 0.00 0.00
0.00 0.00 0.00 0.00 0.00 0.00 0.00 0.00 0.00 0.00 0.00 0.00 0.00 0.00 0.00 0.00 0.00 0.00 0.00 0.00 0.00 0.00 0.00 0.00 0.00 0.00 0.01 0.00 0.00 0.00 0.00 0.00 0.00 0.00 0.00 0.00 0.02 0.02 0.00 0.00 0.00 0.00 0.01
0.00 0.00 0.00 0.00 0.00 0.00 0.00 0.00 0.00 0.00 0.00 0.00 0.00 0.00 0.00 0.00 0.00 0.00 0.00 0.00 0.00 0.00 0.00 0.00 0.00 0.00 0.02 0.02 0.02 0.01 0.00 0.01 0.01 0.00 0.00 0.01 0.01 0.03 0.01 0.04 0.02 0.02 0.02
0.00 0.00 0.00 0.00 0.00 0.00 0.00 0.00 0.00 0.00 0.00 0.00 0.00 0.00 0.00 0.00 0.00 0.00 0.00 0.00 0.00 0.00 0.00 0.00 0.00 0.00 0.01 0.04 0.04 0.01 0.04 0.02 0.04 0.01 0.00 0.04 0.04 0.03 0.06 0.07 0.07 0.01 0.00
0.00 0.00 0.00 0.00 0.00 0.00 0.00 0.00 0.00 0.00 0.00 0.00 0.00 0.00 0.00 0.00 0.00 0.00 0.00 0.00 0.00 0.00 0.00 0.00 0.00 0.00 0.03 0.05 0.01 0.01 0.03 0.02 0.06 0.05 0.01 0.01 0.04 0.04 0.02 0.01 0.01 0.00 0.00
0.00 0.00 0.00 0.00 0.00 0.00 0.00 0.00 0.00 0.00 0.00 0.00 0.00 0.00 0.00 0.00 0.00 0.00 0.00 0.00 0.00 0.00 0.01 0.01 0.04 0.06 0.05 0.04 0.02 0.00 0.01 0.01 0.02 0.02 0.01 0.00 0.01 0.02 0.02 0.00 0.00 0.00 0.00
0.00 0.00 0.00 0.00 0.00 0.00 0.00 0.00 0.00 0.00 0.00 0.00 0.00 0.00 0.00 0.00 0.00 0.00 0.00 0.00 0.00 0.00 0.01 0.00 0.05 0.05 0.03 0.08 0.10 0.01 0.03 0.02 0.00 0.01 0.01 0.01 0.01 0.01 0.02 0.01 0.00 0.00 0.00
0.00 0.00 0.00 0.00 0.00 0.00 0.00 0.00 0.00 0.01 0.01 0.01 0.01 0.00 0.00 0.00 0.00 0.00 0.00 0.00 0.02 0.02 0.03 0.03 0.02 0.07 0.05 0.15 0.13 0.06 0.06 0.04 0.02 0.01 0.02 0.01 0.02 0.01 0.01 0.01 0.00 0.00 0.00
0.00 0.00 0.00 0.00 0.00 0.00 0.00 0.00 0.01 0.02 0.01 0.01 0.01 0.00 0.00 0.00 0.00 0.00 0.01 0.07 0.15 0.13 0.11 0.12 0.09 0.06 0.08 0.11 0.08 0.06 0.07 0.06 0.04 0.03 0.02 0.01 0.01 0.01 0.01 0.01 0.00 0.00 0.00
0.00 0.00 0.00 0.00 0.00 0.00 0.00 0.00 0.00 0.00 0.01 0.00 0.00 0.02 0.02 0.01 0.02 0.07 0.14 0.21 0.24 0.22 0.18 0.20 0.16 0.13 0.15 0.13 0.11 0.09 0.09 0.07 0.07 0.06 0.05 0.04 0.03 0.02 0.02 0.01 0.00 0.00 0.00
0.00 0.00 0.00 0.00 0.00 0.00 0.00 0.00 0.00 0.00 0.00 0.00 0.00 0.00 0.03 0.06 0.10 0.23 0.33 0.49 0.69 0.89 0.94 0.80 0.69 0.65 0.53 0.35 0.23 0.19 0.13 0.09 0.08 0.05 0.06 0.06 0.06 0.05 0.03 0.01 0.00 0.00 0.00
0.00 0.00 0.00 0.00 0.00 0.00 0.00 0.00 0.00 0.00 0.02 0.01 0.01 0.03 0.09 0.07 0.17 0.36 0.93 1.10 0.88 0.78 0.76 0.61 0.47 0.38 0.34 0.33 0.29 0.22 0.18 0.18 0.16 0.17 0.15 0.12 0.09 0.06 0.07 0.06 0.03 0.00 0.00
0.00 0.00 0.00 0.00 0.00 0.00 0.00 0.00 0.01 0.02 0.04 0.04 0.03 0.07 0.15 0.13 0.20 0.36 0.51 0.59 0.47 0.42 0.33 0.31 0.28 0.31 0.39 0.45 0.47 0.46 0.38 0.38 0.43 0.44 0.45 0.47 0.46 0.34 0.15 0.04 0.00 0.00 0.00
0.00 0.00 0.00 0.01 0.01 0.02 0.01 0.02 0.02 0.02 0.05 0.14 0.22 0.23 0.22 0.26 0.28 0.26 0.32 0.39 0.35 0.24 0.22 0.20 0.20 0.23 0.24 0.30 0.33 0.30 0.29 0.34 0.45 0.52 0.58 0.58 0.53 0.31 0.07 0.01 0.00 0.00 0.00
0.00 0.00 0.00 0.00 0.02 0.11 0.17 0.20 0.23 0.19 0.13 0.16 0.23 0.34 0.36 0.38 0.37 0.32 0.39 0.36 0.40 0.35 0.31 0.33 0.31 0.29 0.25 0.26 0.28 0.31 0.28 0.20 0.22 0.24 0.26 0.24 0.12 0.07 0.05 0.02 0.00 0.00 0.00
0.00 0.00 0.00 0.00 0.00 0.19 1.03 1.24 1.18 1.01 0.88 0.87 0.88 1.00 1.03 1.00 0.98 0.87 0.84 0.90 0.96 0.78 0.70 0.82 0.81 0.71 0.64 0.67 0.65 0.62 0.64 0.67 0.59 0.54 0.47 0.34 0.07 0.02 0.00 0.00 0.00 0.00 0.00
0.00 0.00 0.00 0.00 0.01 0.10 0.65 1.18 1.49 1.64 1.65 1.80 1.88 1.90 1.94 2.15 1.97 1.97 2.22 2.10 1.76 1.73 1.68 1.74 1.89 1.98 2.04 2.09 2.12 2.08 2.09 2.21 2.20 1.76 1.10 0.44 0.07 0.00 0.00 0.00 0.00 0.00 0.00
0.00 0.00 0.00 0.00 0.00 0.00 0.02 0.09 0.16 0.27 0.36 0.47 0.65 0.71 0.70 0.65 0.77 0.91 1.19 1.28 1.28 1.19 1.13 1.07 0.87 0.79 0.89 1.02 1.09 1.09 1.07 1.05 0.91 0.63 0.33 0.11 0.03 0.01 0.00 0.00 0.00 0.00 0.00
0.00 0.00 0.00 0.01 0.01 0.01 0.02 0.03 0.05 0.04 0.05 0.07 0.08 0.14 0.22 0.21 0.22 0.17 0.16 0.17 0.20 0.23 0.27 0.32 0.30 0.26 0.23 0.21 0.16 0.16 0.18 0.13 0.12 0.10 0.05 0.02 0.01 0.00 0.00 0.00 0.00 0.00 0.00
0.00 0.00 0.00 0.00 0.00 0.01 0.02 0.02 0.02 0.03 0.04 0.06 0.07 0.09 0.13 0.16 0.20 0.16 0.13 0.13 0.13 0.15 0.16 0.21 0.19 0.20 0.14 0.11 0.08 0.07 0.06 0.05 0.06 0.06 0.03 0.01 0.00 0.00 0.00 0.00 0.00 0.00 0.00
0.00 0.00 0.00 0.00 0.00 0.01 0.03 0.03 0.01 0.01 0.01 0.01 0.02 0.04 0.06 0.05 0.06 0.08 0.08 0.07 0.04 0.03 0.05 0.07 0.05 0.05 0.07 0.05 0.04 0.03 0.03 0.01 0.00 0.00 0.00 0.00 0.00 0.00 0.00 0.00 0.00 0.00 0.00
0.00 0.00 0.00 0.00 0.00 0.00 0.01 0.03 0.09 0.14 0.14 0.14 0.07 0.02 0.02 0.06 0.06 0.03 0.03 0.02 0.01 0.01 0.00 0.00 0.00 0.00 0.03 0.01 0.00 0.00 0.00 0.00 0.00 0.00 0.00 0.00 0.00 0.00 0.00 0.00 0.00 0.00 0.00

GFSGL_prec_precacc12_033.txt.gz
Total_Precipitation_Accumulation
0.00 0.00 0.00 0.00 0.00 0.00 0.00 0.00 0.00 0.00 0.00 0.00 0.00 0.00 0.00 0.00 0.00 0.00 0.00 0.00 0.00 0.00 0.00 0.00 0.00 0.00 0.00 0.00 0.00 0.00 0.00 0.00 0.00 0.00 0.00 0.00 0.00 0.00 0.00 0.00 0.00 0.00 0.00
0.00 0.00 0.00 0.00 0.00 0.00 0.00 0.00 0.00 0.00 0.00 0.00 0.00 0.00 0.00 0.00 0.00 0.00 0.00 0.00 0.00 0.00 0.00 0.00 0.00 0.00 0.00 0.00 0.00 0.00 0.00 0.00 0.00 0.00 0.00 0.00 0.00 0.00 0.00 0.00 0.00 0.00 0.00
0.00 0.00 0.00 0.00 0.00 0.00 0.00 0.00 0.00 0.00 0.00 0.00 0.00 0.00 0.00 0.00 0.00 0.00 0.00 0.00 0.00 0.00 0.00 0.00 0.00 0.00 0.00 0.00 0.00 0.00 0.00 0.00 0.00 0.00 0.00 0.00 0.00 0.00 0.01 0.00 0.00 0.00 0.00
0.00 0.00 0.00 0.00 0.00 0.00 0.00 0.00 0.00 0.00 0.00 0.00 0.00 0.00 0.00 0.00 0.00 0.00 0.00 0.00 0.00 0.00 0.00 0.00 0.00 0.00 0.00 0.00 0.00 0.00 0.00 0.00 0.00 0.00 0.00 0.00 0.00 0.00 0.00 0.00 0.02 0.00 0.00
0.00 0.00 0.00 0.00 0.00 0.00 0.00 0.00 0.00 0.00 0.00 0.00 0.00 0.00 0.00 0.00 0.00 0.00 0.00 0.00 0.00 0.00 0.00 0.00 0.00 0.00 0.00 0.00 0.00 0.00 0.00 0.00 0.00 0.00 0.00 0.00 0.00 0.00 0.00 0.00 0.00 0.00 0.00
0.00 0.00 0.00 0.00 0.00 0.00 0.00 0.00 0.00 0.00 0.00 0.00 0.00 0.00 0.00 0.00 0.00 0.00 0.00 0.00 0.00 0.00 0.00 0.00 0.00 0.00 0.00 0.00 0.00 0.00 0.00 0.00 0.00 0.00 0.00 0.00 0.00 0.01 0.00 0.00 0.00 0.00 0.01
0.00 0.00 0.00 0.00 0.00 0.00 0.00 0.00 0.00 0.00 0.00 0.00 0.00 0.00 0.00 0.00 0.00 0.00 0.00 0.00 0.00 0.00 0.00 0.00 0.00 0.00 0.00 0.01 0.02 0.01 0.00 0.01 0.01 0.00 0.00 0.00 0.01 0.02 0.01 0.04 0.01 0.02 0.02
0.00 0.00 0.00 0.00 0.00 0.00 0.00 0.00 0.00 0.00 0.00 0.00 0.00 0.00 0.00 0.00 0.00 0.00 0.00 0.00 0.00 0.00 0.00 0.00 0.00 0.00 0.01 0.04 0.04 0.01 0.04 0.02 0.04 0.01 0.00 0.01 0.04 0.03 0.06 0.05 0.05 0.02 0.00
0.00 0.00 0.00 0.00 0.00 0.00 0.00 0.00 0.00 0.00 0.00 0.00 0.00 0.00 0.00 0.00 0.00 0.00 0.00 0.00 0.00 0.00 0.00 0.00 0.00 0.00 0.03 0.05 0.01 0.01 0.03 0.02 0.06 0.05 0.01 0.01 0.04 0.04 0.02 0.01 0.01 0.01 0.01
0.00 0.00 0.00 0.00 0.00 0.00 0.00 0.00 0.00 0.00 0.00 0.00 0.00 0.00 0.00 0.00 0.00 0.00 0.00 0.00 0.00 0.00 0.00 0.00 0.00 0.01 0.04 0.03 0.02 0.00 0.01 0.01 0.02 0.02 0.01 0.00 0.01 0.02 0.02 0.00 0.01 0.01 0.01
0.00 0.00 0.00 0.00 0.00 0.00 0.00 0.00 0.00 0.00 0.00 0.00 0.00 0.00 0.00 0.00 0.00 0.00 0.00 0.00 0.00 0.00 0.00 0.00 0.00 0.00 0.02 0.07 0.10 0.01 0.03 0.02 0.00 0.01 0.01 0.01 0.01 0.02 0.03 0.03 0.02 0.02 0.02
0.00 0.00 0.00 0.00 0.00 0.00 0.00 0.00 0.00 0.01 0.01 0.01 0.01 0.01 0.00 0.00 0.00 0.00 0.00 0.00 0.01 0.01 0.00 0.00 0.00 0.01 0.02 0.14 0.13 0.06 0.06 0.05 0.02 0.01 0.02 0.01 0.02 0.02 0.01 0.03 0.03 0.02 0.00
0.00 0.00 0.00 0.00 0.00 0.00 0.00 0.00 0.01 0.01 0.01 0.01 0.01 0.01 0.01 0.01 0.01 0.00 0.00 0.00 0.00 0.01 0.00 0.00 0.03 0.02 0.06 0.10 0.08 0.06 0.07 0.07 0.05 0.03 0.02 0.01 0.01 0.01 0.03 0.03 0.04 0.03 0.01
0.00 0.00 0.00 0.00 0.00 0.00 0.00 0.00 0.00 0.00 0.01 0.01 0.01 0.01 0.01 0.01 0.00 0.00 0.00 0.00 0.04 0.04 0.01 0.04 0.06 0.08 0.15 0.13 0.11 0.09 0.10 0.08 0.08 0.07 0.05 0.04 0.06 0.07 0.05 0.04 0.04 0.06 0.05
0.00 0.00 0.00 0.00 0.00 0.00 0.00 0.00 0.00 0.00 0.00 0.01 0.01 0.00 0.00 0.00 0.01 0.03 0.01 0.01 0.06 0.13 0.19 0.24 0.37 0.54 0.53 0.36 0.24 0.19 0.14 0.10 0.09 0.07 0.12 0.16 0.13 0.08 0.08 0.10 0.07 0.07 0.08
0.00 0.00 0.00 0.00 0.00 0.00 0.00 0.00 0.00 0.00 0.03 0.00 0.01 0.02 0.01 0.02 0.03 0.02 0.07 0.12 0.18 0.25 0.38 0.36 0.33 0.31 0.33 0.33 0.30 0.23 0.19 0.20 0.19 0.31 0.43 0.40 0.30 0.21 0.20 0.17 0.12 0.09 0.10
0.00 0.00 0.00 0.00 0.00 0.00 0.00 0.00 0.01 0.01 0.01 0.00 0.01 0.02 0.01 0.01 0.01 0.04 0.06 0.19 0.25 0.31 0.24 0.26 0.27 0.31 0.40 0.47 0.50 0.49 0.42 0.42 0.52 0.61 0.66 0.72 0.74 0.66 0.62 0.52 0.51 0.47 0.44
0.00 0.00 0.00 0.01 0.00 0.01 0.02 0.02 0.01 0.01 0.01 0.00 0.02 0.03 0.02 0.03 0.07 0.08 0.12 0.20 0.22 0.17 0.18 0.18 0.20 0.23 0.27 0.34 0.38 0.35 0.35 0.43 0.57 0.68 0.80 0.84 0.83 0.70 0.57 0.41 0.31 0.24 0.12
0.00 0.00 0.00 0.01 0.01 0.01 0.02 0.01 0.01 0.02 0.03 0.05 0.05 0.12 0.16 0.22 0.26 0.26 0.34 0.30 0.33 0.31 0.28 0.30 0.29 0.26 0.25 0.28 0.31 0.36 0.38 0.33 0.37 0.44 0.55 0.62 0.58 0.45 0.45 0.45 0.47 0.39 0.17
0.00 0.00 0.00 0.00 0.00 0.00 0.00 0.01 0.00 0.00 0.01 0.12 0.47 0.74 0.75 0.77 0.78 0.70 0.69 0.77 0.84 0.69 0.66 0.79 0.79 0.70 0.64 0.67 0.65 0.62 0.67 0.80 0.93 1.13 1.37 1.85 2.56 2.79 2.54 1.96 1.30 0.87 0.47
0.00 0.00 0.00 0.00 0.00 0.00 0.00 0.00 0.00 0.00 0.00 0.08 0.58 1.38 1.78 2.01 1.85 1.86 2.13 2.01 1.67 1.68 1.66 1.73 1.89 1.98 2.04 2.09 2.12 2.10 2.15 2.34 2.71 2.99 3.12 2.94 2.49 1.91 1.39 1.00 0.72 0.43 0.19
0.00 0.00 0.00 0.00 0.00 0.00 0.00 0.00 0.00 0.00 0.01 0.04 0.27 0.54 0.58 0.57 0.69 0.83 1.09 1.20 1.24 1.17 1.13 1.08 0.87 0.79 0.89 1.02 1.09 1.09 1.08 1.13 1.06 0.92 0.87 0.87 0.85 0.75 0.59 0.52 0.31 0.15 0.05
0.00 0.00 0.00 0.00 0.00 0.00 0.00 0.00 0.00 0.00 0.00 0.00 0.01 0.07 0.15 0.16 0.16 0.11 0.10 0.13 0.18 0.23 0.28 0.33 0.30 0.26 0.24 0.22 0.17 0.17 0.18 0.14 0.13 0.14 0.15 0.18 0.21 0.18 0.14 0.15 0.07 0.01 0.00
0.00 0.00 0.00 0.00 0.00 0.00 0.00 0.00 0.00 0.00 0.00 0.01 0.02 0.03 0.07 0.10 0.15 0.12 0.11 0.11 0.13 0.15 0.16 0.21 0.20 0.20 0.15 0.11 0.08 0.07 0.06 0.06 0.07 0.07 0.04 0.02 0.05 0.07 0.03 0.02 0.00 0.00 0.00
0.00 0.00 0.00 0.00 0.00 0.00 0.00 0.00 0.00 0.00 0.00 0.01 0.02 0.03 0.03 0.03 0.05 0.06 0.06 0.06 0.04 0.03 0.05 0.07 0.05 0.05 0.07 0.05 0.05 0.03 0.03 0.02 0.02 0.01 0.00 0.00 0.00 0.00 0.00 0.00 0.00 0.00 0.00
0.00 0.00 0.00 0.00 0.00 0.00 0.00 0.00 0.00 0.00 0.00 0.01 0.01 0.00 0.01 0.01 0.01 0.00 0.01 0.01 0.01 0.01 0.00 0.00 0.00 0.00 0.03 0.03 0.02 0.00 0.00 0.00 0.00 0.00 0.00 0.00 0.00 0.00 0.00 0.00 0.00 0.00 0.00

GFSGL_prec_precacc12_036.txt.gz
Total_Precipitation_Accumulation
0.00 0.00 0.00 0.00 0.00 0.00 0.00 0.00 0.00 0.00 0.00 0.00 0.00 0.00 0.00 0.00 0.00 0.00 0.00 0.00 0.00 0.00 0.00 0.00 0.00 0.00 0.00 0.00 0.00 0.00 0.00 0.00 0.00 0.00 0.00 0.00 0.00 0.00 0.00 0.00 0.00 0.00 0.00
0.00 0.00 0.00 0.00 0.00 0.00 0.00 0.00 0.00 0.00 0.00 0.00 0.00 0.00 0.00 0.00 0.00 0.00 0.00 0.00 0.00 0.00 0.00 0.00 0.00 0.00 0.00 0.00 0.00 0.00 0.00 0.00 0.00 0.00 0.00 0.00 0.00 0.00 0.00 0.00 0.00 0.00 0.00
0.00 0.00 0.00 0.00 0.00 0.00 0.00 0.00 0.00 0.00 0.00 0.00 0.00 0.00 0.00 0.00 0.00 0.00 0.00 0.00 0.00 0.00 0.00 0.00 0.00 0.00 0.00 0.00 0.00 0.00 0.00 0.00 0.00 0.00 0.00 0.00 0.00 0.00 0.01 0.00 0.00 0.00 0.00
0.00 0.00 0.00 0.00 0.00 0.00 0.00 0.00 0.00 0.00 0.00 0.00 0.00 0.00 0.00 0.00 0.00 0.00 0.00 0.00 0.00 0.00 0.00 0.00 0.00 0.00 0.00 0.00 0.00 0.00 0.00 0.00 0.00 0.00 0.00 0.00 0.00 0.00 0.00 0.00 0.01 0.00 0.00
0.00 0.00 0.00 0.00 0.00 0.00 0.00 0.00 0.00 0.00 0.00 0.00 0.00 0.00 0.00 0.00 0.00 0.00 0.00 0.00 0.00 0.00 0.00 0.00 0.00 0.00 0.00 0.00 0.00 0.00 0.00 0.00 0.00 0.00 0.00 0.00 0.00 0.00 0.00 0.00 0.00 0.00 0.00
0.00 0.00 0.00 0.00 0.00 0.00 0.00 0.00 0.00 0.00 0.00 0.00 0.00 0.00 0.00 0.00 0.00 0.00 0.00 0.00 0.00 0.00 0.00 0.00 0.00 0.00 0.00 0.00 0.00 0.00 0.00 0.00 0.00 0.00 0.00 0.00 0.00 0.00 0.00 0.00 0.00 0.00 0.01
0.00 0.00 0.00 0.00 0.00 0.00 0.00 0.00 0.00 0.00 0.00 0.00 0.00 0.00 0.00 0.00 0.00 0.00 0.00 0.00 0.00 0.00 0.00 0.00 0.00 0.00 0.00 0.00 0.00 0.00 0.00 0.01 0.01 0.00 0.00 0.00 0.00 0.00 0.00 0.01 0.01 0.01 0.02
0.00 0.00 0.00 0.00 0.00 0.00 0.00 0.00 0.00 0.00 0.00 0.00 0.00 0.00 0.00 0.00 0.00 0.00 0.00 0.00 0.00 0.00 0.00 0.00 0.00 0.00 0.00 0.00 0.00 0.00 0.01 0.01 0.04 0.01 0.00 0.00 0.01 0.02 0.03 0.03 0.03 0.01 0.00
0.00 0.00 0.00 0.00 0.00 0.00 0.00 0.00 0.00 0.00 0.00 0.00 0.00 0.00 0.00 0.00 0.00 0.00 0.00 0.00 0.00 0.00 0.00 0.00 0.00 0.00 0.00 0.00 0.00 0.00 0.00 0.01 0.05 0.05 0.01 0.00 0.04 0.04 0.01 0.01 0.01 0.01 0.01
0.00 0.00 0.00 0.00 0.00 0.00 0.00 0.00 0.00 0.00 0.00 0.00 0.00 0.00 0.00 0.00 0.00 0.00 0.00 0.00 0.00 0.00 0.00 0.00 0.00 0.00 0.00 0.00 0.00 0.00 0.00 0.00 0.01 0.01 0.01 0.00 0.01 0.02 0.02 0.00 0.01 0.01 0.01
0.00 0.00 0.00 0.00 0.00 0.00 0.00 0.00 0.00 0.00 0.00 0.00 0.00 0.00 0.00 0.00 0.00 0.00 0.00 0.01 0.01 0.00 0.00 0.00 0.00 0.00 0.00 0.00 0.00 0.00 0.00 0.01 0.01 0.01 0.02 0.02 0.02 0.03 0.03 0.03 0.02 0.02 0.02
0.00 0.00 0.00 0.00 0.00 0.00 0.00 0.00 0.00 0.00 0.01 0.00 0.01 0.00 0.00 0.00 0.00 0.00 0.00 0.01 0.01 0.02 0.00 0.00 0.00 0.00 0.00 0.00 0.00 0.00 0.01 0.04 0.04 0.03 0.03 0.02 0.05 0.09 0.07 0.09 0.16 0.11 0.04
0.00 0.00 0.00 0.00 0.00 0.00 0.00 0.00 0.00 0.01 0.01 0.01 0.01 0.01 0.01 0.01 0.02 0.00 0.00 0.00 0.00 0.02 0.01 0.00 0.00 0.00 0.00 0.00 0.00 0.00 0.02 0.08 0.08 0.06 0.04 0.02 0.04 0.11 0.11 0.11 0.20 0.21 0.15
0.00 0.00 0.00 0.00 0.00 0.00 0.00 0.00 0.00 0.00 0.01 0.02 0.02 0.02 0.02 0.01 0.01 0.00 0.00 0.00 0.00 0.01 0.01 0.02 0.01 0.03 0.03 0.01 0.01 0.03 0.07 0.08 0.10 0.09 0.09 0.09 0.12 0.14 0.10 0.12 0.17 0.25 0.25
0.00 0.00 0.00 0.00 0.00 0.00 0.00 0.00 0.00 0.00 0.01 0.01 0.01 0.01 0.01 0.00 0.00 0.01 0.01 0.00 0.00 0.03 0.06 0.04 0.07 0.17 0.14 0.07 0.04 0.06 0.08 0.09 0.10 0.11 0.23 0.36 0.37 0.28 0.19 0.17 0.20 0.25 0.27
0.00 0.00 0.00 0.00 0.00 0.00 0.00 0.00 0.00 0.00 0.02 0.01 0.01 0.02 0.01 0.02 0.02 0.02 0.03 0.03 0.02 0.02 0.08 0.06 0.12 0.16 0.20 0.23 0.23 0.18 0.18 0.23 0.23 0.36 0.52 0.53 0.50 0.42 0.34 0.26 0.23 0.21 0.22
0.00 0.00 0.00 0.00 0.00 0.00 0.00 0.00 0.00 0.00 0.00 0.00 0.01 0.01 0.01 0.01 0.01 0.01 0.02 0.02 0.04 0.03 0.02 0.06 0.08 0.13 0.28 0.37 0.46 0.50 0.46 0.47 0.58 0.66 0.69 0.74 0.78 0.76 0.74 0.64 0.62 0.60 0.61
0.00 0.00 0.00 0.00 0.00 0.01 0.02 0.01 0.00 0.00 0.00 0.00 0.00 0.01 0.01 0.01 0.02 0.03 0.04 0.05 0.06 0.03 0.02 0.05 0.12 0.18 0.25 0.33 0.37 0.35 0.35 0.43 0.58 0.70 0.83 0.90 0.95 0.90 0.86 0.83 0.79 0.86 0.88
0.00 0.00 0.00 0.01 0.01 0.02 0.03 0.02 0.01 0.02 0.02 0.02 0.01 0.01 0.01 0.01 0.03 0.06 0.09 0.09 0.16 0.19 0.16 0.20 0.23 0.24 0.24 0.27 0.31 0.36 0.38 0.33 0.37 0.44 0.56 0.65 0.66 0.64 0.70 0.74 0.97 1.39 1.87
0.00 0.00 0.00 0.00 0.00 0.00 0.01 0.03 0.02 0.01 0.02 0.04 0.02 0.01 0.01 0.00 0.00 0.03 0.16 0.49 0.70 0.61 0.60 0.75 0.78 0.69 0.63 0.64 0.64 0.62 0.67 0.80 0.93 1.13 1.37 1.88 2.58 2.94 3.02 2.90 2.91 2.93 2.87
0.00 0.00 0.00 0.00 0.00 0.00 0.00 0.01 0.00 0.01 0.01 0.01 0.00 0.00 0.01 0.00 0.01 0.03 0.20 0.65 1.23 1.60 1.62 1.72 1.87 1.97 2.01 2.07 2.12 2.10 2.15 2.34 2.71 2.99 3.12 2.94 2.49 1.92 1.46 1.28 1.27 1.24 1.11
0.00 0.00 0.00 0.00 0.00 0.00 0.00 0.00 0.00 0.00 0.00 0.00 0.00 0.00 0.01 0.01 0.01 0.03 0.13 0.51 1.00 1.13 1.11 1.05 0.85 0.79 0.88 1.02 1.10 1.10 1.08 1.13 1.06 0.92 0.87 0.87 0.85 0.76 0.64 0.65 0.57 0.47 0.40
0.00 0.00 0.00 0.00 0.00 0.00 0.00 0.00 0.00 0.00 0.00 0.00 0.00 0.00 0.01 0.01 0.01 0.02 0.04 0.07 0.13 0.20 0.27 0.31 0.27 0.25 0.23 0.22 0.17 0.17 0.18 0.14 0.13 0.14 0.15 0.18 0.21 0.18 0.14 0.18 0.12 0.06 0.05
0.00 0.00 0.00 0.00 0.00 0.00 0.00 0.00 0.00 0.00 0.00 0.00 0.00 0.00 0.01 0.01 0.02 0.02 0.03 0.05 0.08 0.12 0.15 0.19 0.19 0.20 0.15 0.11 0.09 0.08 0.06 0.06 0.07 0.07 0.04 0.02 0.05 0.08 0.04 0.03 0.00 0.00 0.00
0.00 0.00 0.00 0.00 0.00 0.00 0.00 0.00 0.00 0.00 0.00 0.00 0.00 0.00 0.00 0.00 0.01 0.02 0.02 0.03 0.03 0.03 0.05 0.07 0.06 0.05 0.07 0.05 0.05 0.03 0.03 0.03 0.02 0.01 0.00 0.00 0.00 0.00 0.00 0.00 0.00 0.00 0.00
0.01 0.00 0.00 0.00 0.00 0.00 0.00 0.00 0.00 0.00 0.00 0.00 0.00 0.00 0.00 0.00 0.00 0.00 0.00 0.00 0.00 0.00 0.00 0.00 0.00 0.01 0.04 0.03 0.03 0.00 0.00 0.00 0.00 0.00 0.00 0.00 0.00 0.00 0.00 0.00 0.00 0.00 0.00

GFSGL_prec_precacc12_042.txt.gz
Total_Precipitation_Accumulation
0.00 0.00 0.00 0.00 0.00 0.00 0.00 0.00 0.00 0.00 0.00 0.00 0.00 0.00 0.00 0.00 0.00 0.00 0.00 0.00 0.00 0.00 0.00 0.00 0.00 0.00 0.00 0.00 0.00 0.00 0.00 0.00 0.00 0.00 0.00 0.00 0.00 0.00 0.00 0.00 0.00 0.00 0.00
0.00 0.00 0.00 0.00 0.00 0.00 0.00 0.00 0.00 0.00 0.00 0.00 0.00 0.00 0.00 0.00 0.00 0.00 0.00 0.00 0.00 0.00 0.00 0.00 0.00 0.00 0.00 0.00 0.00 0.00 0.00 0.00 0.00 0.00 0.00 0.00 0.00 0.00 0.00 0.00 0.00 0.00 0.00
0.00 0.00 0.00 0.00 0.00 0.00 0.00 0.00 0.00 0.00 0.00 0.00 0.00 0.00 0.00 0.00 0.00 0.00 0.00 0.00 0.00 0.00 0.00 0.00 0.00 0.00 0.00 0.00 0.00 0.00 0.00 0.00 0.00 0.00 0.00 0.00 0.00 0.00 0.00 0.00 0.00 0.00 0.00
0.00 0.00 0.00 0.00 0.00 0.00 0.00 0.00 0.00 0.00 0.00 0.00 0.00 0.00 0.00 0.00 0.00 0.00 0.00 0.00 0.00 0.00 0.00 0.00 0.00 0.00 0.00 0.00 0.00 0.00 0.00 0.00 0.00 0.00 0.00 0.00 0.00 0.00 0.00 0.00 0.00 0.00 0.00
0.00 0.00 0.00 0.00 0.00 0.00 0.00 0.00 0.00 0.00 0.00 0.00 0.00 0.00 0.00 0.00 0.00 0.00 0.00 0.00 0.00 0.00 0.00 0.00 0.00 0.00 0.00 0.00 0.00 0.00 0.00 0.00 0.00 0.00 0.00 0.00 0.00 0.00 0.00 0.00 0.00 0.00 0.00
0.00 0.00 0.00 0.00 0.00 0.00 0.00 0.00 0.00 0.00 0.00 0.00 0.00 0.00 0.00 0.00 0.00 0.00 0.00 0.00 0.00 0.00 0.00 0.00 0.00 0.00 0.00 0.00 0.00 0.00 0.00 0.00 0.00 0.00 0.00 0.00 0.00 0.00 0.00 0.00 0.00 0.00 0.00
0.00 0.00 0.00 0.00 0.00 0.00 0.00 0.00 0.00 0.00 0.00 0.00 0.00 0.00 0.00 0.00 0.00 0.00 0.00 0.00 0.00 0.00 0.00 0.00 0.00 0.00 0.00 0.00 0.00 0.00 0.00 0.00 0.00 0.00 0.00 0.00 0.00 0.00 0.00 0.00 0.00 0.00 0.00
0.00 0.00 0.00 0.00 0.00 0.00 0.00 0.00 0.00 0.00 0.00 0.00 0.00 0.00 0.00 0.00 0.00 0.00 0.00 0.00 0.00 0.00 0.00 0.00 0.00 0.00 0.00 0.00 0.00 0.00 0.00 0.00 0.00 0.00 0.00 0.00 0.00 0.00 0.00 0.00 0.00 0.00 0.00
0.00 0.00 0.00 0.00 0.00 0.00 0.00 0.00 0.00 0.00 0.00 0.00 0.00 0.00 0.00 0.00 0.00 0.00 0.00 0.00 0.00 0.00 0.00 0.00 0.00 0.00 0.00 0.00 0.00 0.00 0.00 0.00 0.00 0.00 0.00 0.00 0.00 0.00 0.00 0.01 0.01 0.03 0.01
0.00 0.00 0.00 0.00 0.00 0.00 0.00 0.00 0.00 0.00 0.00 0.00 0.00 0.00 0.00 0.00 0.00 0.00 0.00 0.00 0.00 0.00 0.00 0.00 0.00 0.00 0.00 0.00 0.00 0.01 0.00 0.01 0.01 0.02 0.04 0.03 0.02 0.02 0.01 0.02 0.12 0.09 0.04
0.00 0.00 0.00 0.00 0.00 0.00 0.00 0.00 0.00 0.00 0.00 0.00 0.00 0.00 0.00 0.00 0.00 0.00 0.00 0.01 0.01 0.00 0.00 0.00 0.00 0.00 0.00 0.00 0.01 0.01 0.01 0.02 0.05 0.03 0.01 0.01 0.06 0.09 0.06 0.05 0.18 0.27 0.17
0.00 0.00 0.00 0.00 0.00 0.00 0.00 0.00 0.00 0.00 0.00 0.00 0.00 0.00 0.00 0.00 0.00 0.00 0.00 0.01 0.01 0.03 0.01 0.00 0.00 0.00 0.00 0.00 0.01 0.03 0.01 0.03 0.06 0.09 0.08 0.02 0.04 0.08 0.07 0.09 0.22 0.27 0.24
0.00 0.00 0.00 0.00 0.00 0.00 0.00 0.00 0.00 0.00 0.00 0.00 0.01 0.01 0.01 0.01 0.02 0.01 0.00 0.00 0.00 0.03 0.02 0.01 0.01 0.01 0.01 0.01 0.01 0.02 0.04 0.10 0.16 0.14 0.09 0.03 0.05 0.11 0.12 0.13 0.22 0.26 0.22
0.00 0.00 0.00 0.00 0.00 0.00 0.00 0.00 0.00 0.00 0.01 0.01 0.02 0.02 0.02 0.02 0.02 0.01 0.01 0.01 0.02 0.04 0.04 0.04 0.02 0.03 0.04 0.03 0.03 0.03 0.04 0.08 0.08 0.06 0.06 0.08 0.12 0.17 0.13 0.14 0.21 0.30 0.33
0.00 0.00 0.00 0.00 0.00 0.00 0.00 0.00 0.00 0.00 0.01 0.01 0.01 0.01 0.01 0.01 0.00 0.01 0.01 0.02 0.03 0.04 0.04 0.03 0.03 0.04 0.04 0.02 0.02 0.03 0.04 0.04 0.05 0.08 0.18 0.31 0.32 0.25 0.20 0.20 0.24 0.32 0.39
0.00 0.00 0.00 0.00 0.00 0.00 0.00 0.00 0.01 0.01 0.01 0.01 0.01 0.01 0.00 0.01 0.02 0.02 0.02 0.02 0.03 0.03 0.01 0.01 0.01 0.01 0.01 0.02 0.02 0.03 0.04 0.06 0.07 0.20 0.38 0.42 0.42 0.37 0.29 0.26 0.30 0.31 0.31
0.00 0.00 0.00 0.00 0.00 0.00 0.00 0.00 0.00 0.00 0.01 0.00 0.01 0.02 0.02 0.01 0.01 0.01 0.01 0.01 0.02 0.02 0.01 0.01 0.01 0.00 0.01 0.02 0.04 0.06 0.08 0.09 0.16 0.22 0.24 0.27 0.32 0.42 0.61 0.63 0.68 0.70 0.68
0.00 0.00 0.00 0.00 0.00 0.01 0.02 0.01 0.00 0.00 0.00 0.00 0.01 0.02 0.02 0.01 0.00 0.00 0.01 0.01 0.01 0.01 0.00 0.00 0.00 0.01 0.02 0.04 0.05 0.06 0.06 0.09 0.14 0.18 0.26 0.32 0.42 0.60 0.79 0.82 0.79 0.87 0.93
0.00 0.00 0.00 0.01 0.01 0.02 0.03 0.02 0.01 0.02 0.02 0.02 0.01 0.01 0.02 0.01 0.02 0.02 0.01 0.00 0.00 0.00 0.00 0.00 0.00 0.00 0.01 0.02 0.03 0.05 0.10 0.13 0.15 0.20 0.30 0.41 0.54 0.57 0.65 0.72 0.97 1.40 1.88
0.00 0.00 0.00 0.00 0.00 0.00 0.01 0.04 0.03 0.03 0.03 0.04 0.03 0.01 0.01 0.01 0.00 0.00 0.00 0.00 0.00 0.00 0.00 0.00 0.00 0.00 0.00 0.00 0.01 0.01 0.04 0.13 0.33 0.59 0.90 1.54 2.51 2.91 3.02 2.90 2.91 2.94 2.88
0.00 0.00 0.00 0.00 0.00 0.00 0.00 0.01 0.01 0.01 0.03 0.02 0.01 0.02 0.02 0.01 0.01 0.00 0.00 0.00 0.00 0.00 0.00 0.00 0.00 0.00 0.00 0.00 0.01 0.02 0.07 0.14 0.51 1.23 2.02 2.50 2.42 1.92 1.46 1.28 1.27 1.24 1.11
0.00 0.00 0.00 0.00 0.00 0.00 0.00 0.00 0.00 0.00 0.01 0.01 0.00 0.02 0.02 0.00 0.00 0.00 0.00 0.00 0.00 0.00 0.00 0.01 0.01 0.00 0.00 0.00 0.00 0.00 0.02 0.08 0.15 0.29 0.55 0.76 0.82 0.75 0.64 0.65 0.57 0.47 0.40
0.00 0.00 0.00 0.00 0.00 0.00 0.00 0.00 0.00 0.00 0.00 0.00 0.00 0.00 0.00 0.00 0.00 0.00 0.00 0.00 0.00 0.00 0.01 0.01 0.01 0.00 0.00 0.01 0.00 0.01 0.01 0.01 0.01 0.05 0.10 0.16 0.20 0.18 0.14 0.18 0.12 0.06 0.05
0.00 0.00 0.00 0.00 0.00 0.00 0.00 0.00 0.01 0.01 0.01 0.00 0.00 0.00 0.00 0.00 0.00 0.00 0.00 0.00 0.00 0.00 0.00 0.00 0.01 0.00 0.00 0.00 0.00 0.01 0.00 0.01 0.02 0.01 0.01 0.01 0.04 0.09 0.04 0.03 0.00 0.00 0.00
0.00 0.00 0.00 0.00 0.01 0.00 0.01 0.02 0.03 0.03 0.02 0.01 0.01 0.00 0.00 0.00 0.00 0.00 0.00 0.00 0.00 0.00 0.00 0.00 0.00 0.00 0.00 0.00 0.01 0.01 0.01 0.02 0.02 0.01 0.00 0.00 0.00 0.00 0.00 0.00 0.00 0.00 0.00
0.04 0.02 0.01 0.01 0.00 0.00 0.01 0.01 0.02 0.02 0.01 0.01 0.01 0.00 0.00 0.00 0.00 0.00 0.00 0.00 0.00 0.00 0.00 0.00 0.00 0.00 0.01 0.02 0.03 0.02 0.01 0.01 0.01 0.01 0.00 0.00 0.00 0.00 0.00 0.00 0.00 0.01 0.01

GFSGL_prec_precacc12_045.txt.gz
Total_Precipitation_Accumulation
0.00 0.00 0.00 0.00 0.00 0.00 0.00 0.00 0.00 0.00 0.00 0.00 0.00 0.00 0.00 0.00 0.00 0.00 0.00 0.00 0.00 0.00 0.00 0.00 0.00 0.00 0.00 0.00 0.00 0.00 0.00 0.00 0.00 0.00 0.00 0.00 0.00 0.00 0.00 0.00 0.00 0.00 0.00
0.00 0.00 0.00 0.00 0.00 0.00 0.00 0.00 0.00 0.00 0.00 0.00 0.00 0.00 0.00 0.00 0.00 0.00 0.00 0.00 0.00 0.00 0.00 0.00 0.00 0.00 0.00 0.00 0.00 0.00 0.00 0.00 0.00 0.00 0.00 0.00 0.00 0.00 0.00 0.00 0.00 0.00 0.00
0.00 0.00 0.00 0.00 0.00 0.00 0.00 0.00 0.00 0.00 0.00 0.00 0.00 0.00 0.00 0.00 0.00 0.00 0.00 0.00 0.00 0.00 0.00 0.00 0.00 0.00 0.00 0.00 0.00 0.00 0.00 0.00 0.00 0.00 0.00 0.00 0.00 0.00 0.00 0.00 0.00 0.00 0.00
0.00 0.00 0.00 0.00 0.00 0.00 0.00 0.00 0.00 0.00 0.00 0.00 0.00 0.00 0.00 0.00 0.00 0.00 0.00 0.00 0.00 0.00 0.00 0.00 0.00 0.00 0.00 0.00 0.00 0.00 0.00 0.00 0.00 0.00 0.00 0.00 0.00 0.00 0.00 0.00 0.00 0.00 0.00
0.00 0.00 0.00 0.00 0.00 0.00 0.00 0.00 0.00 0.00 0.00 0.00 0.00 0.00 0.00 0.00 0.00 0.00 0.00 0.00 0.00 0.00 0.00 0.00 0.00 0.00 0.00 0.00 0.00 0.00 0.00 0.00 0.00 0.00 0.00 0.00 0.00 0.00 0.00 0.00 0.00 0.00 0.00
0.00 0.00 0.00 0.00 0.00 0.00 0.00 0.00 0.00 0.00 0.00 0.00 0.00 0.00 0.00 0.00 0.00 0.00 0.00 0.00 0.00 0.00 0.00 0.00 0.00 0.00 0.00 0.00 0.00 0.00 0.00 0.00 0.00 0.00 0.00 0.00 0.00 0.00 0.00 0.00 0.00 0.00 0.00
0.00 0.00 0.00 0.00 0.00 0.00 0.00 0.00 0.00 0.00 0.00 0.00 0.00 0.00 0.00 0.00 0.00 0.00 0.00 0.00 0.00 0.00 0.00 0.00 0.00 0.00 0.00 0.00 0.00 0.00 0.00 0.00 0.00 0.00 0.00 0.00 0.00 0.00 0.00 0.00 0.00 0.00 0.00
0.00 0.00 0.00 0.00 0.00 0.00 0.00 0.00 0.00 0.00 0.00 0.00 0.00 0.00 0.00 0.00 0.00 0.00 0.00 0.00 0.00 0.00 0.00 0.00 0.00 0.00 0.00 0.00 0.00 0.00 0.00 0.00 0.00 0.00 0.00 0.00 0.00 0.00 0.00 0.01 0.01 0.00 0.00
0.00 0.00 0.00 0.00 0.00 0.00 0.00 0.00 0.00 0.00 0.00 0.00 0.00 0.00 0.00 0.00 0.00 0.00 0.00 0.00 0.00 0.00 0.00 0.00 0.00 0.00 0.00 0.00 0.00 0.00 0.00 0.00 0.00 0.00 0.00 0.00 0.00 0.00 0.00 0.02 0.02 0.03 0.00
0.00 0.00 0.00 0.00 0.00 0.00 0.00 0.00 0.00 0.00 0.00 0.00 0.00 0.00 0.00 0.00 0.00 0.00 0.00 0.00 0.00 0.00 0.00 0.00 0.00 0.00 0.00 0.00 0.00 0.01 0.00 0.01 0.01 0.02 0.04 0.04 0.02 0.03 0.02 0.02 0.14 0.12 0.05
0.00 0.00 0.00 0.00 0.00 0.00 0.00 0.00 0.00 0.00 0.00 0.00 0.00 0.00 0.00 0.00 0.00 0.00 0.00 0.01 0.00 0.00 0.00 0.00 0.00 0.00 0.00 0.00 0.01 0.01 0.01 0.02 0.06 0.03 0.02 0.02 0.07 0.10 0.07 0.04 0.18 0.28 0.17
0.00 0.00 0.00 0.00 0.00 0.00 0.00 0.00 0.00 0.00 0.00 0.00 0.00 0.00 0.00 0.00 0.00 0.00 0.00 0.00 0.01 0.02 0.01 0.00 0.00 0.00 0.00 0.00 0.00 0.03 0.01 0.03 0.07 0.11 0.09 0.04 0.06 0.09 0.07 0.08 0.22 0.28 0.25
0.00 0.00 0.00 0.00 0.00 0.00 0.00 0.00 0.00 0.00 0.00 0.00 0.00 0.00 0.00 0.00 0.01 0.01 0.00 0.00 0.00 0.02 0.02 0.01 0.01 0.01 0.01 0.01 0.02 0.02 0.05 0.11 0.18 0.18 0.16 0.08 0.08 0.12 0.11 0.11 0.18 0.24 0.22
0.00 0.00 0.00 0.00 0.00 0.00 0.00 0.00 0.00 0.00 0.00 0.00 0.00 0.01 0.01 0.01 0.01 0.01 0.01 0.01 0.02 0.03 0.04 0.04 0.02 0.03 0.04 0.04 0.04 0.06 0.10 0.17 0.16 0.10 0.09 0.08 0.10 0.12 0.11 0.11 0.17 0.24 0.28
0.00 0.00 0.00 0.00 0.00 0.00 0.00 0.00 0.00 0.00 0.00 0.00 0.01 0.01 0.00 0.00 0.00 0.01 0.01 0.02 0.03 0.04 0.03 0.02 0.02 0.04 0.05 0.03 0.02 0.03 0.04 0.05 0.07 0.07 0.12 0.21 0.25 0.22 0.15 0.11 0.17 0.25 0.30
0.00 0.00 0.00 0.00 0.00 0.00 0.00 0.00 0.01 0.01 0.01 0.01 0.01 0.00 0.00 0.00 0.00 0.01 0.02 0.02 0.02 0.03 0.01 0.01 0.01 0.01 0.01 0.02 0.01 0.02 0.03 0.05 0.04 0.06 0.09 0.14 0.21 0.22 0.16 0.15 0.21 0.23 0.20
0.00 0.01 0.03 0.03 0.01 0.00 0.00 0.00 0.00 0.01 0.01 0.00 0.01 0.01 0.01 0.01 0.01 0.01 0.01 0.01 0.02 0.01 0.01 0.01 0.01 0.00 0.00 0.01 0.01 0.02 0.04 0.05 0.06 0.04 0.03 0.02 0.04 0.10 0.14 0.14 0.17 0.23 0.24
0.00 0.02 0.06 0.04 0.04 0.01 0.00 0.00 0.00 0.00 0.00 0.00 0.01 0.02 0.02 0.01 0.00 0.00 0.01 0.01 0.01 0.01 0.00 0.00 0.00 0.00 0.00 0.00 0.00 0.00 0.00 0.00 0.01 0.02 0.03 0.06 0.13 0.21 0.30 0.42 0.48 0.63 0.80
0.00 0.00 0.00 0.01 0.00 0.00 0.00 0.01 0.01 0.01 0.01 0.01 0.00 0.01 0.02 0.01 0.01 0.01 0.01 0.00 0.00 0.00 0.00 0.00 0.00 0.00 0.00 0.00 0.00 0.00 0.00 0.00 0.00 0.00 0.01 0.02 0.08 0.19 0.25 0.29 0.50 1.01 1.71
0.00 0.00 0.00 0.00 0.00 0.00 0.01 0.03 0.03 0.03 0.02 0.04 0.03 0.01 0.01 0.01 0.00 0.00 0.00 0.00 0.00 0.00 0.00 0.00 0.00 0.00 0.00 0.00 0.01 0.01 0.01 0.01 0.01 0.00 0.01 0.04 0.03 0.15 0.48 0.95 1.61 2.07 2.41
0.00 0.00 0.00 0.00 0.00 0.00 0.00 0.01 0.01 0.01 0.03 0.02 0.01 0.02 0.02 0.01 0.01 0.00 0.00 0.00 0.00 0.00 0.00 0.00 0.00 0.00 0.00 0.00 0.00 0.01 0.01 0.01 0.00 0.00 0.00 0.00 0.00 0.01 0.08 0.28 0.55 0.81 0.92
0.00 0.00 0.00 0.00 0.00 0.00 0.00 0.00 0.00 0.00 0.01 0.01 0.00 0.02 0.01 0.00 0.00 0.00 0.00 0.00 0.00 0.00 0.00 0.00 0.00 0.00 0.00 0.00 0.00 0.00 0.01 0.00 0.00 0.00 0.00 0.00 0.00 0.01 0.05 0.13 0.27 0.32 0.35
0.00 0.00 0.00 0.00 0.00 0.00 0.00 0.00 0.00 0.00 0.00 0.00 0.00 0.00 0.00 0.00 0.00 0.00 0.00 0.00 0.00 0.00 0.00 0.00 0.00 0.00 0.00 0.00 0.00 0.00 0.01 0.00 0.00 0.01 0.00 0.00 0.00 0.00 0.01 0.04 0.05 0.06 0.05
0.00 0.00 0.00 0.00 0.00 0.00 0.00 0.00 0.01 0.01 0.01 0.01 0.01 0.01 0.01 0.00 0.00 0.00 0.00 0.00 0.00 0.00 0.00 0.00 0.00 0.00 0.00 0.00 0.00 0.01 0.00 0.00 0.00 0.00 0.00 0.00 0.00 0.02 0.01 0.02 0.01 0.00 0.00
0.00 0.00 0.00 0.00 0.01 0.00 0.01 0.02 0.03 0.03 0.02 0.01 0.01 0.00 0.00 0.00 0.00 0.00 0.00 0.00 0.00 0.00 0.00 0.00 0.00 0.00 0.00 0.00 0.00 0.00 0.00 0.01 0.01 0.00 0.00 0.00 0.00 0.00 0.01 0.01 0.01 0.02 0.02
0.04 0.03 0.02 0.01 0.00 0.00 0.01 0.01 0.02 0.02 0.02 0.01 0.01 0.00 0.00 0.00 0.00 0.00 0.00 0.00 0.00 0.00 0.00 0.00 0.00 0.00 0.00 0.01 0.01 0.02 0.01 0.01 0.01 0.01 0.00 0.00 0.00 0.00 0.00 0.00 0.00 0.01 0.01

GFSGL_prec_precacc12_048.txt.gz
Total_Precipitation_Accumulation
0.00 0.00 0.00 0.00 0.00 0.00 0.00 0.00 0.00 0.00 0.00 0.00 0.00 0.00 0.00 0.00 0.00 0.00 0.00 0.00 0.00 0.00 0.00 0.00 0.00 0.00 0.00 0.00 0.00 0.00 0.00 0.00 0.00 0.00 0.00 0.00 0.00 0.00 0.00 0.00 0.00 0.00 0.00
0.00 0.00 0.00 0.00 0.00 0.00 0.00 0.00 0.00 0.00 0.00 0.00 0.00 0.00 0.00 0.00 0.00 0.00 0.00 0.00 0.00 0.00 0.00 0.00 0.00 0.00 0.00 0.00 0.00 0.00 0.00 0.00 0.00 0.00 0.00 0.00 0.00 0.00 0.00 0.00 0.00 0.00 0.00
0.00 0.00 0.00 0.00 0.00 0.00 0.00 0.00 0.00 0.00 0.00 0.00 0.00 0.00 0.00 0.00 0.00 0.00 0.00 0.00 0.00 0.00 0.00 0.00 0.00 0.00 0.00 0.00 0.00 0.00 0.00 0.00 0.00 0.00 0.00 0.00 0.00 0.00 0.00 0.00 0.00 0.00 0.00
0.00 0.00 0.00 0.00 0.00 0.00 0.00 0.00 0.00 0.00 0.00 0.00 0.00 0.00 0.00 0.00 0.00 0.00 0.00 0.00 0.00 0.00 0.00 0.00 0.00 0.00 0.00 0.00 0.00 0.00 0.00 0.00 0.00 0.00 0.00 0.00 0.00 0.00 0.00 0.00 0.00 0.00 0.00
0.00 0.00 0.00 0.00 0.00 0.00 0.00 0.00 0.00 0.00 0.00 0.00 0.00 0.00 0.00 0.00 0.00 0.00 0.00 0.00 0.00 0.00 0.00 0.00 0.00 0.00 0.00 0.00 0.00 0.00 0.00 0.00 0.00 0.00 0.00 0.00 0.00 0.00 0.00 0.00 0.00 0.00 0.00
0.00 0.00 0.00 0.00 0.00 0.00 0.00 0.00 0.00 0.00 0.00 0.00 0.00 0.00 0.00 0.00 0.00 0.00 0.00 0.00 0.00 0.00 0.00 0.00 0.00 0.00 0.00 0.00 0.00 0.00 0.00 0.00 0.00 0.00 0.00 0.00 0.00 0.00 0.00 0.00 0.00 0.00 0.00
0.00 0.00 0.00 0.00 0.00 0.00 0.00 0.00 0.00 0.00 0.00 0.00 0.00 0.00 0.00 0.00 0.00 0.00 0.00 0.00 0.00 0.00 0.00 0.00 0.00 0.00 0.00 0.00 0.00 0.00 0.00 0.00 0.00 0.00 0.00 0.00 0.00 0.00 0.00 0.00 0.01 0.01 0.02
0.00 0.00 0.00 0.00 0.00 0.00 0.00 0.00 0.00 0.00 0.00 0.00 0.00 0.00 0.00 0.00 0.00 0.00 0.00 0.00 0.00 0.00 0.00 0.00 0.00 0.00 0.00 0.00 0.00 0.00 0.00 0.00 0.00 0.00 0.00 0.00 0.00 0.00 0.01 0.03 0.03 0.01 0.00
0.00 0.00 0.00 0.00 0.00 0.00 0.00 0.00 0.00 0.00 0.00 0.00 0.00 0.00 0.00 0.00 0.00 0.00 0.00 0.00 0.00 0.00 0.00 0.00 0.00 0.00 0.00 0.00 0.00 0.00 0.00 0.00 0.00 0.00 0.00 0.00 0.00 0.00 0.00 0.02 0.02 0.03 0.00
0.00 0.00 0.00 0.00 0.00 0.00 0.00 0.00 0.00 0.00 0.00 0.00 0.00 0.00 0.00 0.00 0.00 0.00 0.00 0.00 0.00 0.00 0.00 0.00 0.00 0.00 0.00 0.00 0.00 0.01 0.00 0.01 0.01 0.02 0.04 0.04 0.02 0.03 0.02 0.02 0.15 0.13 0.07
0.00 0.00 0.00 0.00 0.00 0.00 0.00 0.00 0.00 0.00 0.00 0.00 0.00 0.00 0.00 0.00 0.00 0.00 0.00 0.00 0.00 0.00 0.00 0.00 0.00 0.00 0.00 0.00 0.01 0.01 0.01 0.02 0.05 0.04 0.02 0.02 0.06 0.09 0.08 0.05 0.19 0.29 0.18
0.00 0.00 0.00 0.00 0.00 0.00 0.00 0.00 0.00 0.00 0.00 0.00 0.00 0.00 0.00 0.00 0.00 0.00 0.00 0.00 0.00 0.01 0.00 0.00 0.00 0.00 0.00 0.00 0.00 0.02 0.01 0.02 0.06 0.10 0.09 0.05 0.04 0.04 0.04 0.06 0.10 0.20 0.24
0.00 0.00 0.00 0.00 0.00 0.00 0.00 0.00 0.00 0.00 0.00 0.00 0.00 0.00 0.00 0.00 0.00 0.00 0.00 0.00 0.00 0.01 0.01 0.01 0.01 0.01 0.01 0.01 0.02 0.02 0.05 0.09 0.16 0.19 0.19 0.10 0.07 0.06 0.06 0.04 0.03 0.06 0.09
0.00 0.00 0.00 0.00 0.00 0.00 0.00 0.00 0.00 0.00 0.00 0.00 0.00 0.00 0.00 0.00 0.00 0.00 0.01 0.01 0.02 0.03 0.03 0.03 0.02 0.03 0.03 0.03 0.04 0.05 0.09 0.17 0.19 0.15 0.12 0.09 0.07 0.06 0.06 0.03 0.04 0.05 0.08
0.00 0.00 0.00 0.00 0.00 0.00 0.00 0.00 0.00 0.00 0.00 0.00 0.00 0.00 0.00 0.00 0.00 0.01 0.01 0.01 0.02 0.03 0.03 0.02 0.02 0.04 0.05 0.03 0.01 0.02 0.04 0.06 0.09 0.09 0.04 0.02 0.01 0.02 0.03 0.04 0.04 0.07 0.11
0.00 0.00 0.00 0.00 0.00 0.00 0.00 0.00 0.02 0.02 0.01 0.01 0.01 0.01 0.00 0.00 0.00 0.00 0.00 0.01 0.02 0.02 0.01 0.01 0.02 0.02 0.01 0.01 0.00 0.01 0.01 0.02 0.02 0.01 0.00 0.00 0.00 0.01 0.02 0.06 0.09 0.11 0.09
0.02 0.03 0.03 0.03 0.02 0.09 0.16 0.09 0.05 0.06 0.05 0.01 0.01 0.01 0.01 0.00 0.00 0.00 0.00 0.01 0.02 0.02 0.01 0.01 0.01 0.00 0.00 0.00 0.00 0.00 0.00 0.00 0.00 0.00 0.00 0.00 0.00 0.00 0.02 0.02 0.06 0.10 0.07
0.01 0.09 0.09 0.06 0.12 0.11 0.30 0.32 0.21 0.14 0.05 0.03 0.01 0.02 0.01 0.00 0.00 0.00 0.01 0.01 0.01 0.01 0.00 0.00 0.00 0.00 0.00 0.00 0.00 0.00 0.00 0.00 0.00 0.00 0.00 0.00 0.00 0.00 0.00 0.00 0.00 0.01 0.05
0.00 0.00 0.01 0.01 0.02 0.01 0.04 0.07 0.11 0.05 0.02 0.04 0.01 0.01 0.04 0.03 0.01 0.01 0.01 0.00 0.00 0.00 0.00 0.00 0.00 0.00 0.00 0.00 0.00 0.00 0.00 0.00 0.01 0.00 0.00 0.00 0.00 0.00 0.00 0.00 0.00 0.01 0.02
0.00 0.00 0.01 0.01 0.01 0.01 0.00 0.01 0.02 0.01 0.01 0.00 0.01 0.01 0.01 0.02 0.00 0.00 0.00 0.00 0.00 0.00 0.00 0.00 0.00 0.01 0.00 0.00 0.01 0.01 0.01 0.01 0.01 0.00 0.01 0.01 0.01 0.01 0.00 0.01 0.01 0.01 0.01
0.00 0.01 0.01 0.02 0.02 0.02 0.00 0.01 0.02 0.01 0.01 0.02 0.01 0.02 0.02 0.01 0.01 0.00 0.00 0.00 0.00 0.00 0.00 0.00 0.00 0.00 0.00 0.00 0.00 0.01 0.01 0.01 0.00 0.00 0.00 0.00 0.00 0.01 0.01 0.01 0.01 0.01 0.00
0.00 0.00 0.01 0.01 0.01 0.03 0.05 0.03 0.01 0.01 0.02 0.01 0.01 0.02 0.01 0.00 0.00 0.00 0.00 0.00 0.00 0.00 0.00 0.00 0.00 0.00 0.00 0.00 0.00 0.00 0.00 0.00 0.00 0.00 0.00 0.00 0.00 0.00 0.01 0.01 0.02 0.01 0.01
0.00 0.00 0.00 0.00 0.00 0.01 0.02 0.03 0.03 0.02 0.01 0.01 0.01 0.00 0.00 0.00 0.00 0.00 0.00 0.00 0.00 0.00 0.00 0.00 0.00 0.00 0.00 0.00 0.00 0.00 0.01 0.00 0.00 0.00 0.00 0.00 0.00 0.00 0.00 0.01 0.01 0.01 0.01
0.00 0.00 0.00 0.00 0.00 0.00 0.01 0.01 0.01 0.02 0.02 0.01 0.01 0.01 0.01 0.01 0.00 0.00 0.00 0.00 0.00 0.00 0.00 0.00 0.00 0.00 0.00 0.00 0.00 0.00 0.00 0.00 0.00 0.00 0.00 0.00 0.00 0.01 0.01 0.00 0.01 0.01 0.01
0.00 0.00 0.00 0.00 0.01 0.00 0.01 0.02 0.03 0.03 0.02 0.01 0.01 0.00 0.00 0.00 0.00 0.00 0.00 0.00 0.00 0.00 0.00 0.00 0.00 0.00 0.00 0.00 0.00 0.00 0.00 0.01 0.01 0.00 0.00 0.00 0.00 0.00 0.01 0.01 0.01 0.02 0.03
0.03 0.03 0.02 0.01 0.01 0.00 0.01 0.01 0.02 0.02 0.02 0.01 0.01 0.00 0.00 0.00 0.00 0.00 0.00 0.00 0.00 0.00 0.00 0.00 0.00 0.00 0.00 0.00 0.00 0.01 0.01 0.01 0.01 0.01 0.00 0.00 0.00 0.00 0.00 0.00 0.00 0.01 0.01

GFSGL_prec_precacc12_051.txt.gz
Total_Precipitation_Accumulation
0.00 0.00 0.00 0.00 0.00 0.00 0.00 0.00 0.00 0.00 0.00 0.00 0.00 0.00 0.00 0.00 0.00 0.00 0.00 0.00 0.00 0.00 0.00 0.00 0.00 0.00 0.00 0.00 0.00 0.00 0.00 0.00 0.00 0.00 0.00 0.00 0.00 0.00 0.00 0.00 0.00 0.00 0.00
0.00 0.00 0.00 0.00 0.00 0.00 0.00 0.00 0.00 0.00 0.00 0.00 0.00 0.00 0.00 0.00 0.00 0.00 0.00 0.00 0.00 0.00 0.00 0.00 0.00 0.00 0.00 0.00 0.00 0.00 0.00 0.00 0.00 0.00 0.00 0.00 0.00 0.00 0.00 0.00 0.00 0.00 0.00
0.00 0.00 0.00 0.00 0.00 0.00 0.00 0.00 0.00 0.00 0.00 0.00 0.00 0.00 0.00 0.00 0.00 0.00 0.00 0.00 0.00 0.00 0.00 0.00 0.00 0.00 0.00 0.00 0.00 0.00 0.00 0.00 0.00 0.00 0.00 0.00 0.00 0.00 0.00 0.00 0.00 0.00 0.00
0.00 0.00 0.00 0.00 0.00 0.00 0.00 0.00 0.00 0.00 0.00 0.00 0.00 0.00 0.00 0.00 0.00 0.00 0.00 0.00 0.00 0.00 0.00 0.00 0.00 0.00 0.00 0.00 0.00 0.00 0.00 0.00 0.00 0.00 0.00 0.00 0.00 0.00 0.00 0.00 0.00 0.00 0.00
0.00 0.00 0.00 0.00 0.00 0.00 0.00 0.00 0.00 0.00 0.00 0.00 0.00 0.00 0.00 0.00 0.00 0.00 0.00 0.00 0.00 0.00 0.00 0.00 0.00 0.00 0.00 0.00 0.00 0.00 0.00 0.00 0.00 0.00 0.00 0.00 0.00 0.00 0.00 0.00 0.00 0.00 0.00
0.00 0.00 0.00 0.00 0.00 0.00 0.00 0.00 0.00 0.00 0.00 0.00 0.00 0.00 0.00 0.00 0.00 0.00 0.00 0.00 0.00 0.00 0.00 0.00 0.00 0.00 0.00 0.00 0.00 0.00 0.00 0.00 0.00 0.00 0.00 0.00 0.00 0.00 0.00 0.00 0.00 0.00 0.00
0.00 0.00 0.00 0.00 0.00 0.00 0.00 0.00 0.00 0.00 0.00 0.00 0.00 0.00 0.00 0.00 0.00 0.00 0.00 0.00 0.00 0.00 0.00 0.00 0.00 0.00 0.00 0.00 0.00 0.00 0.00 0.00 0.00 0.00 0.00 0.00 0.00 0.00 0.00 0.00 0.01 0.02 0.03
0.00 0.00 0.00 0.00 0.00 0.00 0.00 0.00 0.00 0.00 0.00 0.00 0.00 0.00 0.00 0.00 0.00 0.00 0.00 0.00 0.00 0.00 0.00 0.00 0.00 0.00 0.00 0.00 0.00 0.00 0.00 0.00 0.00 0.00 0.00 0.00 0.00 0.00 0.02 0.04 0.05 0.03 0.01
0.00 0.00 0.00 0.00 0.00 0.00 0.00 0.00 0.00 0.00 0.00 0.00 0.00 0.00 0.00 0.00 0.00 0.00 0.00 0.00 0.00 0.00 0.00 0.00 0.00 0.00 0.00 0.00 0.00 0.00 0.00 0.00 0.00 0.00 0.00 0.00 0.00 0.00 0.00 0.02 0.02 0.02 0.01
0.00 0.00 0.00 0.00 0.00 0.00 0.00 0.00 0.00 0.00 0.00 0.00 0.00 0.00 0.00 0.00 0.00 0.00 0.00 0.00 0.00 0.00 0.00 0.00 0.00 0.00 0.00 0.00 0.00 0.00 0.00 0.01 0.01 0.02 0.01 0.02 0.02 0.04 0.02 0.02 0.08 0.11 0.08
0.00 0.00 0.00 0.00 0.00 0.00 0.00 0.00 0.00 0.00 0.00 0.00 0.00 0.00 0.00 0.00 0.00 0.00 0.00 0.00 0.00 0.00 0.00 0.00 0.00 0.00 0.00 0.00 0.00 0.00 0.01 0.01 0.02 0.03 0.03 0.02 0.03 0.05 0.08 0.09 0.10 0.11 0.09
0.00 0.00 0.00 0.00 0.00 0.00 0.00 0.00 0.00 0.00 0.00 0.00 0.00 0.00 0.00 0.00 0.00 0.00 0.00 0.00 0.00 0.00 0.00 0.00 0.00 0.00 0.00 0.00 0.00 0.02 0.01 0.01 0.03 0.05 0.05 0.05 0.05 0.04 0.04 0.06 0.05 0.07 0.09
0.00 0.00 0.00 0.00 0.00 0.00 0.00 0.00 0.00 0.00 0.00 0.00 0.00 0.00 0.00 0.00 0.00 0.00 0.00 0.00 0.00 0.00 0.00 0.00 0.00 0.01 0.01 0.01 0.01 0.02 0.03 0.07 0.11 0.15 0.16 0.10 0.06 0.05 0.06 0.04 0.03 0.05 0.05
0.00 0.00 0.00 0.00 0.00 0.00 0.00 0.00 0.00 0.00 0.00 0.00 0.00 0.00 0.00 0.00 0.00 0.00 0.01 0.00 0.00 0.01 0.01 0.01 0.01 0.02 0.02 0.02 0.03 0.05 0.09 0.16 0.17 0.13 0.10 0.07 0.04 0.02 0.02 0.02 0.01 0.01 0.02
0.00 0.00 0.00 0.00 0.00 0.00 0.00 0.00 0.00 0.00 0.00 0.00 0.00 0.00 0.00 0.00 0.00 0.00 0.01 0.01 0.01 0.01 0.01 0.01 0.02 0.03 0.04 0.03 0.02 0.03 0.04 0.05 0.08 0.08 0.06 0.05 0.02 0.01 0.01 0.00 0.00 0.01 0.01
0.00 0.00 0.00 0.00 0.00 0.00 0.00 0.01 0.10 0.10 0.06 0.02 0.05 0.03 0.01 0.01 0.03 0.01 0.01 0.01 0.03 0.01 0.00 0.00 0.01 0.02 0.02 0.02 0.01 0.01 0.01 0.01 0.02 0.01 0.01 0.00 0.00 0.00 0.00 0.00 0.00 0.00 0.00
0.03 0.03 0.03 0.03 0.02 0.10 0.17 0.10 0.05 0.07 0.13 0.09 0.20 0.20 0.19 0.19 0.12 0.06 0.08 0.02 0.01 0.02 0.00 0.00 0.01 0.00 0.00 0.00 0.00 0.00 0.00 0.00 0.00 0.00 0.00 0.00 0.00 0.00 0.00 0.00 0.00 0.00 0.00
0.03 0.11 0.10 0.06 0.12 0.11 0.34 0.42 0.28 0.20 0.15 0.08 0.10 0.10 0.13 0.29 0.16 0.18 0.17 0.08 0.02 0.00 0.00 0.00 0.00 0.00 0.00 0.00 0.00 0.00 0.00 0.00 0.00 0.00 0.00 0.00 0.00 0.00 0.00 0.00 0.00 0.00 0.00
0.03 0.02 0.02 0.03 0.04 0.07 0.11 0.15 0.20 0.17 0.23 0.18 0.15 0.14 0.17 0.10 0.05 0.02 0.02 0.01 0.02 0.02 0.02 0.04 0.02 0.00 0.00 0.00 0.00 0.00 0.00 0.00 0.01 0.00 0.00 0.00 0.00 0.00 0.00 0.00 0.00 0.01 0.01
0.07 0.02 0.01 0.01 0.02 0.01 0.03 0.04 0.04 0.01 0.01 0.02 0.01 0.01 0.03 0.03 0.04 0.06 0.05 0.13 0.15 0.04 0.02 0.01 0.00 0.01 0.00 0.00 0.01 0.01 0.01 0.01 0.01 0.01 0.01 0.01 0.01 0.01 0.01 0.01 0.01 0.01 0.01
0.07 0.02 0.01 0.02 0.03 0.03 0.02 0.02 0.03 0.01 0.00 0.00 0.00 0.01 0.03 0.02 0.04 0.06 0.06 0.09 0.03 0.01 0.00 0.00 0.00 0.00 0.00 0.00 0.00 0.00 0.01 0.01 0.00 0.00 0.00 0.00 0.00 0.01 0.01 0.01 0.01 0.01 0.01
0.01 0.02 0.02 0.01 0.02 0.06 0.08 0.08 0.03 0.02 0.02 0.02 0.02 0.03 0.04 0.02 0.02 0.02 0.01 0.02 0.01 0.01 0.00 0.00 0.00 0.00 0.00 0.00 0.00 0.00 0.00 0.00 0.00 0.00 0.00 0.00 0.00 0.00 0.01 0.02 0.03 0.02 0.02
0.01 0.02 0.01 0.01 0.02 0.07 0.07 0.09 0.09 0.05 0.04 0.04 0.04 0.04 0.05 0.01 0.01 0.01 0.00 0.00 0.00 0.00 0.00 0.00 0.00 0.00 0.00 0.00 0.00 0.00 0.00 0.00 0.00 0.00 0.00 0.00 0.00 0.00 0.00 0.01 0.01 0.02 0.02
0.00 0.00 0.01 0.01 0.01 0.02 0.04 0.04 0.07 0.09 0.09 0.05 0.04 0.04 0.04 0.02 0.01 0.01 0.00 0.00 0.00 0.00 0.00 0.00 0.00 0.00 0.00 0.00 0.00 0.00 0.00 0.00 0.00 0.00 0.00 0.00 0.00 0.00 0.00 0.00 0.01 0.01 0.01
0.00 0.00 0.00 0.00 0.01 0.00 0.01 0.02 0.04 0.06 0.08 0.05 0.03 0.01 0.02 0.02 0.01 0.01 0.01 0.00 0.00 0.00 0.00 0.00 0.00 0.00 0.00 0.00 0.00 0.00 0.00 0.00 0.00 0.00 0.00 0.00 0.00 0.00 0.00 0.01 0.01 0.02 0.03
0.00 0.01 0.01 0.01 0.01 0.01 0.01 0.01 0.02 0.04 0.03 0.02 0.02 0.01 0.00 0.00 0.00 0.00 0.00 0.00 0.00 0.00 0.00 0.00 0.00 0.00 0.00 0.00 0.00 0.00 0.00 0.00 0.00 0.01 0.00 0.00 0.00 0.00 0.00 0.00 0.00 0.01 0.01

GFSGL_prec_precacc12_054.txt.gz
Total_Precipitation_Accumulation
0.00 0.00 0.00 0.00 0.00 0.00 0.00 0.00 0.00 0.00 0.00 0.00 0.00 0.00 0.00 0.00 0.00 0.00 0.00 0.01 0.01 0.00 0.00 0.00 0.00 0.00 0.00 0.00 0.00 0.00 0.00 0.00 0.00 0.00 0.00 0.00 0.00 0.00 0.00 0.00 0.00 0.00 0.00
0.00 0.00 0.00 0.00 0.00 0.00 0.00 0.00 0.00 0.00 0.00 0.00 0.00 0.00 0.00 0.00 0.00 0.00 0.00 0.00 0.00 0.00 0.00 0.00 0.00 0.00 0.00 0.00 0.00 0.00 0.00 0.00 0.00 0.00 0.00 0.00 0.00 0.00 0.00 0.00 0.00 0.00 0.00
0.00 0.00 0.00 0.00 0.00 0.00 0.00 0.00 0.00 0.00 0.00 0.00 0.00 0.00 0.00 0.00 0.00 0.00 0.00 0.00 0.00 0.00 0.00 0.00 0.00 0.00 0.00 0.00 0.00 0.00 0.00 0.00 0.00 0.00 0.00 0.00 0.00 0.00 0.00 0.00 0.00 0.00 0.00
0.00 0.00 0.00 0.00 0.00 0.00 0.00 0.00 0.00 0.00 0.00 0.00 0.00 0.00 0.00 0.00 0.00 0.00 0.00 0.00 0.00 0.00 0.00 0.00 0.00 0.00 0.00 0.00 0.00 0.00 0.00 0.00 0.00 0.00 0.00 0.00 0.00 0.00 0.00 0.00 0.00 0.00 0.00
0.00 0.00 0.00 0.00 0.00 0.00 0.00 0.00 0.00 0.00 0.00 0.00 0.00 0.00 0.00 0.00 0.00 0.00 0.00 0.00 0.00 0.00 0.00 0.00 0.00 0.00 0.00 0.00 0.00 0.00 0.00 0.00 0.00 0.00 0.00 0.00 0.00 0.00 0.00 0.00 0.00 0.00 0.00
0.00 0.00 0.00 0.00 0.00 0.00 0.00 0.00 0.00 0.00 0.00 0.00 0.00 0.00 0.00 0.00 0.00 0.00 0.00 0.00 0.00 0.00 0.00 0.00 0.00 0.00 0.00 0.00 0.00 0.00 0.00 0.00 0.00 0.00 0.00 0.00 0.00 0.00 0.00 0.00 0.00 0.00 0.00
0.00 0.00 0.00 0.00 0.00 0.00 0.00 0.00 0.00 0.00 0.00 0.00 0.00 0.00 0.00 0.00 0.00 0.00 0.00 0.00 0.00 0.00 0.00 0.00 0.00 0.00 0.00 0.00 0.00 0.00 0.00 0.00 0.00 0.00 0.00 0.00 0.00 0.00 0.00 0.00 0.01 0.02 0.04
0.00 0.00 0.00 0.00 0.00 0.00 0.00 0.00 0.00 0.00 0.00 0.00 0.00 0.00 0.00 0.00 0.00 0.00 0.00 0.00 0.00 0.00 0.00 0.00 0.00 0.00 0.00 0.00 0.00 0.00 0.00 0.00 0.00 0.00 0.00 0.00 0.00 0.00 0.02 0.04 0.06 0.04 0.02
0.00 0.00 0.00 0.00 0.00 0.00 0.00 0.00 0.00 0.00 0.00 0.00 0.00 0.00 0.00 0.00 0.00 0.00 0.00 0.00 0.00 0.00 0.00 0.00 0.00 0.00 0.00 0.00 0.00 0.00 0.00 0.00 0.00 0.00 0.00 0.00 0.00 0.00 0.00 0.01 0.01 0.02 0.01
0.00 0.00 0.00 0.00 0.00 0.00 0.00 0.00 0.00 0.00 0.00 0.00 0.00 0.00 0.00 0.00 0.00 0.00 0.00 0.00 0.00 0.00 0.00 0.00 0.00 0.00 0.00 0.00 0.00 0.00 0.00 0.00 0.00 0.00 0.00 0.01 0.01 0.03 0.01 0.00 0.04 0.07 0.07
0.00 0.00 0.00 0.00 0.00 0.00 0.00 0.00 0.00 0.00 0.00 0.00 0.00 0.00 0.00 0.00 0.00 0.00 0.00 0.00 0.00 0.00 0.00 0.00 0.00 0.00 0.00 0.00 0.00 0.00 0.00 0.00 0.00 0.01 0.02 0.02 0.04 0.08 0.11 0.09 0.10 0.12 0.05
0.00 0.00 0.00 0.00 0.00 0.00 0.00 0.00 0.00 0.00 0.00 0.00 0.00 0.00 0.00 0.00 0.00 0.00 0.00 0.00 0.00 0.00 0.00 0.00 0.00 0.00 0.00 0.00 0.00 0.00 0.00 0.00 0.01 0.02 0.02 0.04 0.05 0.05 0.04 0.06 0.05 0.07 0.09
0.00 0.00 0.00 0.00 0.00 0.00 0.00 0.00 0.00 0.00 0.00 0.00 0.00 0.00 0.00 0.00 0.00 0.00 0.00 0.00 0.00 0.00 0.00 0.00 0.00 0.00 0.00 0.00 0.00 0.01 0.02 0.03 0.05 0.09 0.13 0.09 0.06 0.04 0.05 0.02 0.01 0.05 0.07
0.00 0.00 0.00 0.00 0.00 0.00 0.00 0.00 0.00 0.00 0.00 0.00 0.00 0.00 0.00 0.00 0.00 0.00 0.00 0.00 0.00 0.00 0.00 0.00 0.00 0.01 0.01 0.01 0.02 0.03 0.07 0.12 0.15 0.13 0.10 0.07 0.04 0.01 0.01 0.01 0.01 0.01 0.00
0.00 0.00 0.00 0.00 0.00 0.00 0.00 0.00 0.00 0.00 0.01 0.00 0.00 0.00 0.00 0.00 0.00 0.00 0.00 0.00 0.00 0.00 0.00 0.00 0.00 0.01 0.02 0.01 0.01 0.02 0.04 0.05 0.08 0.08 0.06 0.05 0.02 0.01 0.01 0.01 0.00 0.00 0.00
0.00 0.00 0.00 0.00 0.00 0.00 0.01 0.01 0.10 0.10 0.06 0.01 0.05 0.03 0.01 0.01 0.03 0.01 0.01 0.01 0.03 0.03 0.01 0.00 0.00 0.00 0.00 0.00 0.00 0.01 0.01 0.02 0.02 0.01 0.01 0.00 0.00 0.00 0.00 0.00 0.00 0.00 0.00
0.04 0.03 0.03 0.03 0.02 0.10 0.17 0.10 0.05 0.07 0.12 0.09 0.19 0.20 0.19 0.20 0.13 0.08 0.11 0.04 0.07 0.19 0.05 0.01 0.00 0.00 0.00 0.00 0.00 0.00 0.00 0.00 0.00 0.00 0.00 0.00 0.00 0.00 0.00 0.00 0.00 0.00 0.00
0.06 0.12 0.10 0.06 0.12 0.11 0.34 0.43 0.29 0.20 0.16 0.10 0.11 0.12 0.15 0.31 0.18 0.25 0.33 0.47 0.37 0.30 0.08 0.06 0.04 0.01 0.00 0.00 0.00 0.00 0.00 0.00 0.00 0.00 0.00 0.00 0.00 0.00 0.00 0.00 0.00 0.00 0.00
0.14 0.16 0.10 0.16 0.17 0.13 0.12 0.16 0.25 0.20 0.32 0.35 0.31 0.30 0.29 0.17 0.15 0.13 0.14 0.17 0.13 0.22 0.10 0.14 0.14 0.06 0.06 0.03 0.02 0.02 0.01 0.01 0.01 0.00 0.00 0.00 0.00 0.00 0.00 0.00 0.00 0.01 0.00
0.21 0.23 0.12 0.36 0.48 0.38 0.16 0.13 0.20 0.12 0.06 0.04 0.10 0.17 0.10 0.07 0.14 0.30 0.45 0.46 0.72 0.59 0.44 0.28 0.23 0.17 0.12 0.06 0.03 0.02 0.01 0.01 0.01 0.01 0.01 0.01 0.01 0.01 0.01 0.01 0.01 0.01 0.00
0.27 0.32 0.24 0.20 0.18 0.22 0.22 0.15 0.13 0.04 0.02 0.02 0.02 0.03 0.03 0.03 0.08 0.17 0.27 0.54 0.88 0.91 0.70 0.30 0.14 0.08 0.04 0.02 0.01 0.00 0.00 0.00 0.00 0.00 0.00 0.00 0.00 0.01 0.01 0.01 0.01 0.01 0.01
0.19 0.22 0.18 0.16 0.15 0.19 0.13 0.08 0.03 0.02 0.02 0.03 0.03 0.03 0.04 0.04 0.03 0.03 0.03 0.06 0.13 0.18 0.18 0.08 0.03 0.00 0.01 0.00 0.00 0.00 0.00 0.00 0.00 0.00 0.00 0.00 0.00 0.00 0.00 0.02 0.03 0.03 0.02
0.09 0.17 0.21 0.19 0.11 0.11 0.09 0.09 0.10 0.06 0.05 0.04 0.04 0.04 0.05 0.02 0.02 0.03 0.03 0.06 0.08 0.08 0.06 0.02 0.01 0.00 0.00 0.00 0.00 0.00 0.00 0.00 0.00 0.00 0.00 0.00 0.00 0.00 0.00 0.01 0.01 0.02 0.02
0.01 0.04 0.08 0.13 0.20 0.15 0.10 0.07 0.07 0.11 0.11 0.07 0.04 0.05 0.05 0.04 0.04 0.05 0.02 0.01 0.00 0.00 0.01 0.01 0.00 0.00 0.00 0.00 0.00 0.00 0.00 0.00 0.00 0.00 0.00 0.00 0.00 0.00 0.00 0.00 0.01 0.01 0.01
0.02 0.01 0.01 0.02 0.06 0.27 0.30 0.22 0.16 0.13 0.13 0.11 0.09 0.05 0.03 0.03 0.03 0.04 0.02 0.01 0.00 0.00 0.00 0.00 0.00 0.00 0.00 0.00 0.00 0.00 0.00 0.00 0.00 0.00 0.00 0.00 0.00 0.00 0.00 0.00 0.01 0.02 0.03
0.02 0.03 0.04 0.03 0.03 0.02 0.05 0.10 0.08 0.09 0.09 0.11 0.12 0.10 0.08 0.06 0.04 0.02 0.02 0.01 0.01 0.00 0.00 0.00 0.00 0.00 0.00 0.00 0.00 0.00 0.00 0.00 0.00 0.00 0.00 0.00 0.00 0.00 0.00 0.00 0.00 0.00 0.00

GFSGL_prec_precacc12_057.txt.gz
Total_Precipitation_Accumulation
0.00 0.00 0.00 0.00 0.00 0.00 0.00 0.00 0.00 0.00 0.00 0.00 0.00 0.00 0.00 0.00 0.00 0.00 0.00 0.01 0.01 0.00 0.00 0.00 0.00 0.00 0.00 0.00 0.00 0.00 0.00 0.00 0.00 0.00 0.00 0.00 0.00 0.00 0.00 0.00 0.00 0.00 0.01
0.00 0.00 0.00 0.00 0.00 0.00 0.00 0.00 0.00 0.00 0.00 0.00 0.00 0.00 0.00 0.00 0.00 0.00 0.00 0.00 0.00 0.00 0.00 0.00 0.00 0.00 0.00 0.00 0.00 0.00 0.00 0.00 0.00 0.00 0.00 0.00 0.00 0.00 0.00 0.00 0.00 0.00 0.01
0.00 0.00 0.00 0.00 0.00 0.00 0.00 0.00 0.00 0.00 0.00 0.00 0.00 0.00 0.00 0.00 0.00 0.00 0.00 0.00 0.00 0.00 0.00 0.00 0.00 0.00 0.00 0.00 0.00 0.00 0.00 0.00 0.00 0.00 0.00 0.00 0.00 0.00 0.00 0.00 0.00 0.00 0.00
0.00 0.00 0.00 0.00 0.00 0.00 0.00 0.00 0.00 0.00 0.00 0.00 0.00 0.00 0.00 0.00 0.00 0.00 0.00 0.00 0.00 0.00 0.00 0.00 0.00 0.00 0.00 0.00 0.00 0.00 0.00 0.00 0.00 0.00 0.00 0.00 0.00 0.00 0.00 0.00 0.00 0.00 0.00
0.00 0.00 0.00 0.00 0.00 0.00 0.00 0.00 0.00 0.00 0.00 0.00 0.00 0.00 0.00 0.00 0.00 0.00 0.00 0.00 0.00 0.00 0.00 0.00 0.00 0.00 0.00 0.00 0.00 0.00 0.00 0.00 0.00 0.00 0.00 0.00 0.00 0.00 0.00 0.00 0.00 0.00 0.00
0.00 0.00 0.00 0.00 0.00 0.00 0.00 0.00 0.00 0.00 0.00 0.00 0.00 0.00 0.00 0.00 0.00 0.00 0.00 0.00 0.00 0.00 0.00 0.00 0.00 0.00 0.00 0.00 0.00 0.00 0.00 0.00 0.00 0.00 0.00 0.00 0.00 0.00 0.00 0.00 0.00 0.00 0.00
0.00 0.00 0.00 0.00 0.00 0.00 0.00 0.00 0.00 0.00 0.00 0.00 0.00 0.00 0.00 0.00 0.00 0.00 0.00 0.00 0.00 0.00 0.00 0.00 0.00 0.00 0.00 0.00 0.00 0.00 0.00 0.00 0.00 0.00 0.00 0.00 0.00 0.00 0.00 0.00 0.01 0.02 0.04
0.00 0.00 0.00 0.00 0.00 0.00 0.00 0.00 0.00 0.00 0.00 0.00 0.00 0.00 0.00 0.00 0.00 0.00 0.00 0.00 0.00 0.00 0.00 0.00 0.00 0.00 0.00 0.00 0.00 0.00 0.00 0.00 0.00 0.00 0.00 0.00 0.00 0.00 0.01 0.03 0.05 0.04 0.03
0.00 0.00 0.00 0.00 0.00 0.00 0.00 0.00 0.00 0.00 0.00 0.00 0.00 0.00 0.00 0.00 0.00 0.00 0.00 0.00 0.00 0.00 0.00 0.00 0.00 0.00 0.00 0.00 0.00 0.00 0.00 0.00 0.00 0.00 0.00 0.00 0.00 0.00 0.00 0.00 0.00 0.01 0.02
0.00 0.00 0.00 0.00 0.00 0.00 0.00 0.00 0.00 0.00 0.00 0.00 0.00 0.00 0.00 0.00 0.00 0.00 0.00 0.00 0.00 0.00 0.00 0.00 0.00 0.00 0.00 0.00 0.00 0.00 0.00 0.00 0.00 0.00 0.00 0.01 0.01 0.03 0.00 0.00 0.01 0.04 0.05
0.01 0.00 0.00 0.00 0.00 0.00 0.00 0.00 0.00 0.00 0.00 0.00 0.00 0.00 0.00 0.00 0.00 0.00 0.00 0.00 0.00 0.00 0.00 0.00 0.00 0.00 0.00 0.00 0.00 0.00 0.00 0.00 0.00 0.01 0.01 0.01 0.02 0.06 0.09 0.08 0.09 0.09 0.04
0.04 0.03 0.00 0.00 0.00 0.00 0.00 0.00 0.00 0.00 0.00 0.00 0.00 0.00 0.00 0.00 0.00 0.00 0.00 0.00 0.00 0.00 0.00 0.00 0.00 0.00 0.00 0.00 0.00 0.00 0.00 0.00 0.00 0.01 0.01 0.02 0.03 0.03 0.03 0.05 0.04 0.04 0.08
0.00 0.05 0.02 0.00 0.00 0.00 0.00 0.00 0.00 0.00 0.00 0.00 0.00 0.00 0.00 0.00 0.00 0.00 0.00 0.00 0.00 0.00 0.00 0.00 0.00 0.00 0.00 0.00 0.00 0.00 0.00 0.00 0.01 0.04 0.06 0.05 0.03 0.04 0.04 0.01 0.01 0.04 0.06
0.00 0.00 0.01 0.00 0.00 0.00 0.00 0.00 0.00 0.00 0.00 0.00 0.00 0.00 0.00 0.00 0.00 0.00 0.00 0.00 0.00 0.00 0.00 0.00 0.00 0.00 0.00 0.00 0.00 0.00 0.00 0.02 0.06 0.08 0.07 0.06 0.04 0.01 0.01 0.01 0.01 0.01 0.00
0.00 0.00 0.00 0.00 0.00 0.00 0.00 0.00 0.00 0.00 0.01 0.00 0.00 0.00 0.00 0.00 0.00 0.00 0.00 0.00 0.00 0.00 0.00 0.00 0.00 0.00 0.00 0.00 0.00 0.01 0.02 0.03 0.05 0.07 0.06 0.05 0.02 0.01 0.01 0.01 0.01 0.00 0.00
0.01 0.00 0.00 0.00 0.00 0.00 0.01 0.01 0.10 0.10 0.06 0.01 0.04 0.03 0.01 0.01 0.03 0.01 0.00 0.01 0.03 0.03 0.01 0.00 0.00 0.00 0.00 0.00 0.00 0.01 0.01 0.02 0.03 0.02 0.01 0.01 0.00 0.00 0.00 0.00 0.00 0.00 0.00
0.04 0.02 0.00 0.00 0.01 0.10 0.17 0.10 0.05 0.06 0.12 0.09 0.19 0.20 0.19 0.20 0.13 0.08 0.11 0.04 0.07 0.19 0.05 0.01 0.00 0.00 0.01 0.00 0.00 0.01 0.01 0.01 0.01 0.00 0.00 0.00 0.00 0.00 0.00 0.00 0.00 0.00 0.00
0.09 0.14 0.05 0.02 0.08 0.11 0.35 0.43 0.29 0.21 0.18 0.11 0.11 0.12 0.15 0.31 0.19 0.26 0.35 0.51 0.39 0.34 0.17 0.17 0.13 0.17 0.18 0.16 0.12 0.13 0.09 0.06 0.02 0.01 0.00 0.00 0.00 0.00 0.00 0.00 0.00 0.00 0.00
0.18 0.22 0.16 0.22 0.21 0.16 0.13 0.16 0.26 0.25 0.37 0.37 0.33 0.35 0.34 0.22 0.18 0.16 0.21 0.27 0.30 0.44 0.37 0.43 0.39 0.35 0.36 0.36 0.45 0.36 0.21 0.16 0.07 0.02 0.00 0.01 0.00 0.00 0.00 0.00 0.00 0.00 0.00
0.24 0.25 0.15 0.42 0.73 0.66 0.44 0.23 0.23 0.14 0.11 0.17 0.23 0.36 0.24 0.15 0.19 0.34 0.61 0.63 0.79 0.66 0.60 0.54 0.47 0.44 0.53 0.49 0.39 0.24 0.17 0.13 0.08 0.04 0.02 0.01 0.01 0.01 0.00 0.00 0.01 0.01 0.00
0.33 0.39 0.34 0.32 0.31 0.39 0.55 0.66 0.57 0.28 0.12 0.15 0.20 0.21 0.17 0.11 0.13 0.20 0.29 0.58 0.93 0.99 0.93 0.80 0.93 0.79 0.55 0.39 0.24 0.14 0.06 0.05 0.03 0.03 0.01 0.00 0.00 0.00 0.01 0.01 0.01 0.01 0.01
0.35 0.36 0.34 0.35 0.33 0.35 0.26 0.42 0.91 0.76 0.39 0.26 0.20 0.15 0.16 0.10 0.05 0.03 0.03 0.07 0.14 0.20 0.24 0.30 0.29 0.31 0.31 0.21 0.14 0.10 0.07 0.04 0.03 0.01 0.00 0.00 0.00 0.00 0.00 0.01 0.02 0.02 0.02
0.15 0.38 0.40 0.41 0.33 0.37 0.32 0.36 0.36 0.48 0.79 0.54 0.15 0.09 0.06 0.03 0.02 0.03 0.03 0.07 0.08 0.09 0.07 0.04 0.03 0.03 0.05 0.09 0.08 0.06 0.04 0.03 0.01 0.00 0.00 0.00 0.00 0.00 0.00 0.00 0.01 0.01 0.02
0.05 0.12 0.27 0.33 0.38 0.27 0.23 0.18 0.18 0.21 0.18 0.18 0.09 0.06 0.05 0.03 0.04 0.05 0.02 0.01 0.02 0.01 0.01 0.03 0.04 0.02 0.04 0.05 0.02 0.01 0.01 0.00 0.00 0.00 0.00 0.00 0.00 0.00 0.00 0.00 0.00 0.00 0.01
0.04 0.02 0.04 0.11 0.20 0.47 0.54 0.33 0.21 0.20 0.18 0.14 0.12 0.08 0.04 0.03 0.04 0.04 0.04 0.02 0.01 0.01 0.02 0.02 0.02 0.02 0.02 0.01 0.00 0.00 0.00 0.00 0.00 0.00 0.00 0.00 0.00 0.00 0.00 0.00 0.00 0.00 0.00
0.02 0.02 0.03 0.03 0.04 0.08 0.34 0.60 0.67 0.52 0.46 0.40 0.27 0.18 0.14 0.11 0.07 0.04 0.02 0.02 0.02 0.02 0.02 0.03 0.02 0.02 0.02 0.03 0.01 0.00 0.00 0.00 0.00 0.00 0.00 0.00 0.00 0.00 0.00 0.00 0.00 0.00 0.00

GFSGL_prec_precacc12_060.txt.gz
Total_Precipitation_Accumulation
0.00 0.00 0.00 0.00 0.00 0.00 0.00 0.00 0.00 0.00 0.00 0.00 0.00 0.00 0.00 0.00 0.00 0.00 0.00 0.01 0.01 0.00 0.00 0.00 0.00 0.00 0.00 0.00 0.00 0.00 0.00 0.00 0.00 0.00 0.00 0.00 0.00 0.00 0.00 0.00 0.00 0.00 0.01
0.00 0.00 0.00 0.00 0.00 0.00 0.00 0.00 0.00 0.00 0.00 0.00 0.00 0.00 0.00 0.00 0.00 0.00 0.00 0.00 0.00 0.00 0.00 0.00 0.00 0.00 0.00 0.00 0.00 0.00 0.00 0.00 0.00 0.00 0.00 0.00 0.00 0.00 0.00 0.00 0.00 0.00 0.01
0.00 0.00 0.00 0.00 0.00 0.00 0.00 0.00 0.00 0.00 0.00 0.00 0.00 0.00 0.00 0.00 0.00 0.00 0.00 0.00 0.00 0.00 0.00 0.00 0.00 0.00 0.00 0.00 0.00 0.00 0.00 0.00 0.00 0.00 0.00 0.00 0.00 0.00 0.00 0.00 0.00 0.00 0.00
0.00 0.00 0.00 0.00 0.00 0.00 0.00 0.00 0.00 0.00 0.00 0.00 0.00 0.00 0.00 0.00 0.00 0.00 0.00 0.00 0.00 0.00 0.00 0.00 0.00 0.00 0.00 0.00 0.00 0.00 0.00 0.00 0.00 0.00 0.00 0.00 0.00 0.00 0.00 0.00 0.00 0.00 0.00
0.00 0.00 0.00 0.00 0.00 0.00 0.00 0.00 0.00 0.00 0.00 0.00 0.00 0.00 0.00 0.00 0.00 0.00 0.00 0.00 0.00 0.00 0.00 0.00 0.00 0.00 0.00 0.00 0.00 0.00 0.00 0.00 0.00 0.00 0.00 0.00 0.00 0.00 0.00 0.00 0.00 0.00 0.00
0.00 0.00 0.00 0.00 0.00 0.00 0.00 0.00 0.00 0.00 0.00 0.00 0.00 0.00 0.00 0.00 0.00 0.00 0.00 0.00 0.00 0.00 0.00 0.00 0.00 0.00 0.00 0.00 0.00 0.00 0.00 0.00 0.00 0.00 0.00 0.00 0.00 0.00 0.00 0.00 0.00 0.00 0.00
0.01 0.00 0.00 0.00 0.00 0.00 0.00 0.00 0.00 0.00 0.00 0.00 0.00 0.00 0.00 0.00 0.00 0.00 0.00 0.00 0.00 0.00 0.00 0.00 0.00 0.00 0.00 0.00 0.00 0.00 0.00 0.00 0.00 0.00 0.00 0.00 0.00 0.00 0.00 0.00 0.00 0.01 0.02
0.08 0.01 0.00 0.00 0.00 0.00 0.00 0.00 0.00 0.00 0.00 0.00 0.00 0.00 0.00 0.00 0.00 0.00 0.00 0.00 0.00 0.00 0.00 0.00 0.00 0.00 0.00 0.00 0.00 0.00 0.00 0.00 0.00 0.00 0.00 0.00 0.00 0.00 0.00 0.01 0.02 0.03 0.03
0.05 0.02 0.00 0.00 0.00 0.00 0.00 0.00 0.00 0.00 0.00 0.00 0.00 0.00 0.00 0.00 0.00 0.00 0.00 0.00 0.00 0.00 0.00 0.00 0.00 0.00 0.00 0.00 0.00 0.00 0.00 0.00 0.00 0.00 0.00 0.00 0.00 0.00 0.00 0.00 0.00 0.02 0.02
0.07 0.02 0.04 0.00 0.00 0.00 0.00 0.00 0.00 0.00 0.00 0.00 0.00 0.00 0.00 0.00 0.00 0.00 0.00 0.00 0.00 0.00 0.00 0.00 0.00 0.00 0.00 0.00 0.00 0.00 0.00 0.00 0.00 0.00 0.00 0.00 0.01 0.02 0.00 0.00 0.01 0.03 0.04
0.11 0.10 0.07 0.00 0.00 0.00 0.00 0.00 0.00 0.00 0.00 0.00 0.00 0.00 0.00 0.00 0.00 0.00 0.00 0.00 0.00 0.00 0.00 0.00 0.00 0.00 0.00 0.00 0.00 0.00 0.00 0.00 0.00 0.00 0.01 0.01 0.02 0.06 0.08 0.07 0.09 0.09 0.04
0.10 0.11 0.04 0.00 0.00 0.00 0.00 0.00 0.00 0.00 0.00 0.00 0.00 0.00 0.00 0.00 0.00 0.00 0.00 0.00 0.00 0.00 0.00 0.00 0.00 0.00 0.00 0.00 0.00 0.00 0.00 0.00 0.00 0.00 0.00 0.00 0.01 0.02 0.01 0.02 0.02 0.04 0.07
0.06 0.09 0.08 0.05 0.01 0.00 0.00 0.01 0.00 0.00 0.00 0.00 0.00 0.00 0.00 0.00 0.00 0.00 0.00 0.00 0.00 0.00 0.00 0.00 0.00 0.00 0.00 0.00 0.00 0.00 0.00 0.00 0.00 0.00 0.01 0.02 0.01 0.00 0.01 0.01 0.01 0.04 0.06
0.11 0.06 0.08 0.14 0.07 0.04 0.01 0.05 0.01 0.00 0.00 0.00 0.00 0.00 0.00 0.00 0.00 0.00 0.00 0.00 0.00 0.00 0.00 0.00 0.00 0.00 0.00 0.00 0.00 0.00 0.00 0.00 0.00 0.01 0.00 0.01 0.01 0.01 0.01 0.01 0.01 0.01 0.00
0.00 0.03 0.08 0.10 0.13 0.10 0.05 0.04 0.02 0.01 0.01 0.00 0.00 0.00 0.00 0.00 0.00 0.00 0.00 0.00 0.00 0.01 0.09 0.03 0.00 0.00 0.00 0.00 0.00 0.01 0.02 0.00 0.00 0.01 0.03 0.04 0.02 0.02 0.02 0.01 0.01 0.00 0.00
0.00 0.00 0.01 0.05 0.05 0.03 0.03 0.01 0.10 0.11 0.07 0.02 0.07 0.02 0.01 0.01 0.03 0.01 0.00 0.00 0.03 0.06 0.10 0.00 0.00 0.00 0.00 0.00 0.00 0.00 0.01 0.01 0.01 0.01 0.02 0.02 0.02 0.00 0.00 0.00 0.00 0.00 0.00
0.02 0.00 0.00 0.00 0.01 0.01 0.01 0.01 0.00 0.02 0.09 0.09 0.20 0.20 0.19 0.20 0.13 0.09 0.14 0.07 0.08 0.24 0.06 0.01 0.00 0.01 0.01 0.01 0.00 0.01 0.01 0.02 0.03 0.07 0.12 0.14 0.06 0.00 0.00 0.00 0.00 0.00 0.00
0.08 0.07 0.02 0.00 0.00 0.01 0.05 0.11 0.07 0.06 0.12 0.08 0.11 0.12 0.15 0.31 0.19 0.26 0.40 0.58 0.42 0.35 0.17 0.17 0.14 0.18 0.20 0.16 0.15 0.19 0.20 0.23 0.28 0.33 0.32 0.20 0.10 0.02 0.00 0.00 0.00 0.00 0.00
0.18 0.22 0.16 0.23 0.22 0.16 0.12 0.14 0.16 0.20 0.35 0.33 0.32 0.35 0.32 0.23 0.19 0.18 0.24 0.28 0.30 0.44 0.37 0.43 0.39 0.37 0.39 0.37 0.49 0.64 0.77 0.82 0.78 0.68 0.41 0.22 0.16 0.08 0.04 0.02 0.00 0.00 0.00
0.24 0.26 0.15 0.44 0.80 0.80 0.64 0.39 0.25 0.15 0.12 0.18 0.24 0.36 0.32 0.24 0.26 0.45 0.75 0.73 0.80 0.66 0.60 0.56 0.54 0.52 0.62 0.55 0.50 0.52 0.50 0.43 0.38 0.36 0.27 0.18 0.11 0.04 0.01 0.00 0.00 0.00 0.00
0.33 0.39 0.34 0.30 0.31 0.42 0.68 0.90 0.69 0.34 0.19 0.24 0.24 0.30 0.35 0.26 0.33 0.53 0.54 0.73 0.99 1.03 1.00 0.95 1.08 0.93 0.65 0.47 0.29 0.17 0.11 0.09 0.06 0.05 0.04 0.04 0.04 0.04 0.03 0.01 0.01 0.01 0.01
0.36 0.37 0.33 0.35 0.33 0.34 0.25 0.46 1.03 0.83 0.50 0.40 0.40 0.51 0.62 0.40 0.33 0.26 0.17 0.26 0.34 0.40 0.44 0.45 0.43 0.44 0.39 0.24 0.15 0.11 0.07 0.05 0.03 0.03 0.03 0.02 0.03 0.02 0.01 0.00 0.01 0.01 0.01
0.17 0.41 0.44 0.43 0.34 0.38 0.36 0.44 0.47 0.61 0.94 0.96 0.68 0.47 0.36 0.24 0.21 0.17 0.12 0.18 0.20 0.21 0.17 0.11 0.07 0.06 0.06 0.10 0.09 0.06 0.04 0.03 0.02 0.01 0.02 0.01 0.01 0.01 0.00 0.00 0.00 0.01 0.01
0.13 0.19 0.32 0.39 0.43 0.33 0.30 0.29 0.36 0.35 0.29 0.33 0.32 0.31 0.24 0.16 0.12 0.11 0.05 0.03 0.03 0.03 0.03 0.04 0.05 0.03 0.06 0.07 0.05 0.04 0.02 0.01 0.01 0.00 0.00 0.00 0.00 0.00 0.00 0.00 0.00 0.00 0.00
0.12 0.10 0.12 0.27 0.46 0.60 0.63 0.43 0.33 0.38 0.31 0.20 0.18 0.15 0.11 0.09 0.09 0.08 0.05 0.02 0.02 0.02 0.02 0.03 0.03 0.02 0.03 0.01 0.01 0.01 0.00 0.00 0.01 0.00 0.00 0.00 0.00 0.00 0.00 0.00 0.00 0.00 0.00
0.40 0.20 0.10 0.07 0.20 0.51 0.95 1.04 0.89 0.80 0.68 0.60 0.37 0.26 0.23 0.23 0.19 0.15 0.11 0.08 0.06 0.04 0.03 0.03 0.03 0.04 0.03 0.04 0.02 0.01 0.01 0.00 0.00 0.00 0.00 0.00 0.00 0.00 0.00 0.00 0.00 0.00 0.00

GFSGL_prec_precacc12_063.txt.gz
Total_Precipitation_Accumulation
0.00 0.00 0.00 0.00 0.00 0.00 0.00 0.00 0.00 0.00 0.00 0.00 0.00 0.00 0.01 0.00 0.00 0.00 0.00 0.01 0.01 0.00 0.00 0.00 0.00 0.00 0.00 0.00 0.00 0.00 0.00 0.00 0.00 0.00 0.00 0.00 0.00 0.00 0.00 0.00 0.00 0.00 0.01
0.00 0.00 0.00 0.00 0.00 0.00 0.00 0.00 0.00 0.00 0.00 0.01 0.00 0.00 0.00 0.00 0.00 0.00 0.00 0.00 0.00 0.00 0.00 0.00 0.00 0.00 0.00 0.00 0.00 0.00 0.00 0.00 0.00 0.00 0.00 0.00 0.00 0.00 0.00 0.00 0.00 0.00 0.01
0.00 0.00 0.00 0.00 0.00 0.00 0.00 0.00 0.00 0.00 0.00 0.00 0.00 0.00 0.00 0.00 0.00 0.00 0.00 0.00 0.00 0.00 0.00 0.00 0.00 0.00 0.00 0.00 0.00 0.00 0.00 0.00 0.00 0.00 0.00 0.00 0.00 0.00 0.00 0.00 0.00 0.00 0.00
0.00 0.00 0.00 0.00 0.00 0.00 0.00 0.00 0.00 0.00 0.00 0.00 0.00 0.00 0.00 0.00 0.00 0.00 0.00 0.00 0.00 0.00 0.00 0.00 0.00 0.00 0.00 0.00 0.00 0.00 0.00 0.00 0.00 0.00 0.00 0.00 0.00 0.00 0.00 0.00 0.00 0.00 0.00
0.01 0.00 0.00 0.00 0.00 0.00 0.00 0.00 0.00 0.00 0.00 0.00 0.00 0.00 0.00 0.00 0.00 0.00 0.00 0.00 0.00 0.00 0.00 0.00 0.00 0.00 0.00 0.00 0.00 0.00 0.00 0.00 0.00 0.00 0.00 0.00 0.00 0.00 0.00 0.00 0.00 0.00 0.00
0.00 0.01 0.02 0.00 0.00 0.00 0.00 0.00 0.00 0.00 0.00 0.00 0.00 0.00 0.00 0.00 0.00 0.00 0.00 0.00 0.00 0.00 0.00 0.00 0.00 0.00 0.00 0.00 0.00 0.00 0.00 0.00 0.00 0.00 0.00 0.00 0.00 0.00 0.00 0.00 0.00 0.00 0.00
0.01 0.01 0.01 0.01 0.00 0.00 0.00 0.00 0.00 0.00 0.00 0.00 0.00 0.00 0.00 0.00 0.00 0.00 0.00 0.00 0.00 0.00 0.00 0.00 0.00 0.00 0.00 0.00 0.00 0.00 0.00 0.00 0.00 0.00 0.00 0.00 0.00 0.00 0.00 0.00 0.00 0.00 0.01
0.08 0.01 0.00 0.00 0.00 0.00 0.00 0.00 0.00 0.00 0.00 0.00 0.00 0.00 0.00 0.00 0.00 0.00 0.00 0.00 0.00 0.00 0.00 0.00 0.00 0.00 0.00 0.00 0.00 0.00 0.00 0.00 0.00 0.00 0.00 0.00 0.00 0.00 0.00 0.00 0.01 0.01 0.02
0.06 0.02 0.00 0.00 0.00 0.00 0.00 0.00 0.00 0.00 0.00 0.00 0.00 0.00 0.00 0.00 0.00 0.00 0.00 0.00 0.00 0.00 0.00 0.00 0.00 0.00 0.00 0.00 0.00 0.00 0.00 0.00 0.00 0.00 0.00 0.00 0.00 0.00 0.00 0.00 0.00 0.02 0.02
0.07 0.02 0.04 0.01 0.00 0.00 0.00 0.01 0.00 0.00 0.00 0.00 0.00 0.00 0.00 0.00 0.00 0.00 0.00 0.00 0.00 0.00 0.00 0.00 0.00 0.00 0.00 0.00 0.00 0.00 0.00 0.00 0.00 0.00 0.00 0.00 0.00 0.01 0.00 0.00 0.00 0.03 0.03
0.11 0.10 0.07 0.02 0.03 0.04 0.05 0.04 0.03 0.01 0.00 0.00 0.00 0.00 0.00 0.00 0.00 0.00 0.00 0.00 0.00 0.00 0.00 0.00 0.00 0.00 0.00 0.00 0.00 0.00 0.00 0.00 0.00 0.00 0.00 0.00 0.01 0.03 0.04 0.02 0.04 0.06 0.03
0.10 0.11 0.04 0.02 0.04 0.07 0.03 0.03 0.04 0.02 0.01 0.00 0.00 0.00 0.00 0.00 0.00 0.00 0.00 0.00 0.00 0.00 0.00 0.00 0.00 0.00 0.00 0.00 0.00 0.00 0.00 0.00 0.00 0.00 0.00 0.00 0.00 0.01 0.00 0.00 0.02 0.02 0.04
0.06 0.09 0.08 0.05 0.02 0.04 0.02 0.02 0.00 0.00 0.00 0.00 0.00 0.00 0.00 0.00 0.00 0.00 0.00 0.00 0.00 0.00 0.00 0.00 0.00 0.00 0.00 0.00 0.00 0.00 0.00 0.00 0.00 0.00 0.00 0.00 0.00 0.00 0.00 0.00 0.01 0.02 0.05
0.11 0.06 0.08 0.14 0.07 0.05 0.04 0.08 0.01 0.00 0.00 0.00 0.00 0.00 0.00 0.00 0.00 0.00 0.00 0.00 0.00 0.00 0.00 0.00 0.00 0.00 0.00 0.00 0.00 0.00 0.00 0.00 0.00 0.00 0.00 0.00 0.00 0.00 0.00 0.01 0.01 0.01 0.01
0.00 0.03 0.08 0.11 0.14 0.11 0.06 0.07 0.04 0.02 0.04 0.01 0.01 0.01 0.01 0.00 0.01 0.00 0.00 0.00 0.00 0.01 0.13 0.04 0.00 0.00 0.00 0.00 0.00 0.00 0.01 0.00 0.00 0.00 0.00 0.01 0.01 0.01 0.02 0.01 0.01 0.01 0.01
0.00 0.00 0.01 0.06 0.11 0.08 0.06 0.04 0.07 0.08 0.06 0.05 0.13 0.01 0.02 0.05 0.02 0.01 0.00 0.00 0.02 0.09 0.14 0.00 0.00 0.00 0.00 0.00 0.00 0.00 0.01 0.01 0.01 0.01 0.01 0.01 0.02 0.02 0.05 0.06 0.01 0.00 0.00
0.01 0.00 0.00 0.00 0.02 0.06 0.05 0.01 0.01 0.04 0.04 0.06 0.07 0.07 0.07 0.04 0.05 0.06 0.10 0.08 0.09 0.26 0.06 0.01 0.00 0.01 0.01 0.01 0.00 0.01 0.01 0.02 0.03 0.07 0.12 0.18 0.19 0.15 0.09 0.08 0.02 0.00 0.00
0.06 0.06 0.01 0.00 0.00 0.01 0.03 0.05 0.02 0.01 0.03 0.04 0.06 0.09 0.07 0.06 0.06 0.10 0.32 0.64 0.43 0.35 0.17 0.18 0.16 0.20 0.21 0.17 0.16 0.21 0.21 0.23 0.28 0.33 0.33 0.26 0.23 0.18 0.09 0.05 0.04 0.01 0.00
0.15 0.20 0.15 0.22 0.21 0.13 0.08 0.08 0.08 0.10 0.14 0.19 0.18 0.23 0.20 0.17 0.17 0.22 0.42 0.38 0.32 0.43 0.37 0.44 0.42 0.41 0.41 0.38 0.52 0.67 0.84 0.87 0.83 0.70 0.47 0.26 0.20 0.12 0.06 0.04 0.02 0.02 0.00
0.16 0.24 0.15 0.44 0.79 0.79 0.63 0.40 0.25 0.14 0.11 0.16 0.24 0.36 0.33 0.32 0.28 0.50 0.81 0.75 0.72 0.66 0.60 0.57 0.58 0.59 0.71 0.66 0.65 0.67 0.64 0.54 0.49 0.45 0.37 0.21 0.13 0.05 0.02 0.01 0.01 0.01 0.01
0.27 0.38 0.34 0.30 0.31 0.40 0.67 0.90 0.69 0.34 0.19 0.26 0.27 0.34 0.46 0.32 0.31 0.52 0.56 0.80 1.04 1.09 1.04 0.99 1.13 0.99 0.75 0.60 0.41 0.28 0.24 0.23 0.18 0.16 0.11 0.06 0.04 0.04 0.03 0.03 0.04 0.06 0.06
0.34 0.35 0.32 0.34 0.32 0.31 0.22 0.41 1.02 0.83 0.49 0.39 0.39 0.51 0.62 0.39 0.32 0.29 0.23 0.29 0.39 0.46 0.54 0.58 0.60 0.64 0.64 0.48 0.34 0.25 0.21 0.15 0.10 0.07 0.05 0.03 0.03 0.04 0.05 0.06 0.06 0.05 0.03
0.16 0.39 0.43 0.42 0.32 0.33 0.31 0.38 0.40 0.58 0.91 0.93 0.66 0.49 0.36 0.25 0.26 0.31 0.25 0.31 0.37 0.33 0.29 0.26 0.22 0.22 0.22 0.22 0.18 0.13 0.09 0.07 0.04 0.02 0.02 0.01 0.01 0.02 0.02 0.02 0.01 0.01 0.00
0.15 0.20 0.32 0.39 0.44 0.32 0.27 0.25 0.31 0.28 0.22 0.29 0.29 0.29 0.23 0.18 0.16 0.22 0.21 0.24 0.21 0.16 0.10 0.11 0.14 0.14 0.16 0.14 0.08 0.06 0.04 0.02 0.01 0.00 0.01 0.01 0.01 0.00 0.00 0.00 0.00 0.00 0.00
0.18 0.19 0.20 0.30 0.48 0.60 0.65 0.44 0.34 0.38 0.29 0.18 0.17 0.16 0.11 0.10 0.10 0.11 0.08 0.07 0.05 0.06 0.05 0.04 0.03 0.03 0.03 0.02 0.01 0.01 0.00 0.00 0.01 0.01 0.00 0.00 0.00 0.00 0.00 0.00 0.00 0.00 0.00
0.59 0.35 0.24 0.21 0.27 0.56 1.02 1.09 0.93 0.89 0.80 0.74 0.57 0.37 0.31 0.29 0.24 0.19 0.15 0.11 0.08 0.06 0.06 0.07 0.06 0.05 0.03 0.04 0.02 0.02 0.01 0.01 0.00 0.00 0.00 0.00 0.00 0.00 0.00 0.00 0.00 0.00 0.00

GFSGL_prec_precacc12_066.txt.gz
Total_Precipitation_Accumulation
0.00 0.00 0.00 0.00 0.00 0.00 0.00 0.00 0.00 0.00 0.00 0.00 0.00 0.02 0.02 0.03 0.02 0.00 0.00 0.00 0.00 0.00 0.00 0.00 0.00 0.00 0.00 0.00 0.00 0.00 0.00 0.00 0.00 0.00 0.00 0.00 0.00 0.00 0.00 0.00 0.00 0.00 0.01
0.00 0.00 0.00 0.00 0.00 0.00 0.00 0.00 0.00 0.00 0.00 0.01 0.00 0.00 0.00 0.00 0.02 0.00 0.01 0.00 0.00 0.00 0.00 0.00 0.00 0.00 0.00 0.00 0.00 0.00 0.00 0.00 0.00 0.00 0.00 0.00 0.00 0.00 0.00 0.00 0.00 0.00 0.01
0.00 0.00 0.00 0.00 0.00 0.00 0.00 0.00 0.00 0.00 0.00 0.00 0.00 0.00 0.00 0.00 0.00 0.00 0.00 0.00 0.00 0.00 0.00 0.00 0.00 0.00 0.00 0.00 0.00 0.00 0.00 0.00 0.00 0.00 0.00 0.00 0.00 0.00 0.00 0.00 0.00 0.00 0.00
0.00 0.00 0.00 0.00 0.00 0.00 0.00 0.00 0.00 0.00 0.00 0.00 0.00 0.00 0.00 0.00 0.00 0.00 0.00 0.00 0.00 0.00 0.00 0.00 0.00 0.00 0.00 0.00 0.00 0.00 0.00 0.00 0.00 0.00 0.00 0.00 0.00 0.00 0.00 0.00 0.00 0.00 0.00
0.01 0.00 0.00 0.00 0.00 0.00 0.00 0.00 0.00 0.00 0.00 0.00 0.00 0.00 0.00 0.00 0.00 0.00 0.00 0.00 0.00 0.00 0.00 0.00 0.00 0.00 0.00 0.00 0.00 0.00 0.00 0.00 0.00 0.00 0.00 0.00 0.00 0.00 0.00 0.00 0.00 0.00 0.00
0.00 0.01 0.02 0.00 0.00 0.00 0.00 0.00 0.00 0.00 0.00 0.00 0.00 0.00 0.00 0.00 0.00 0.00 0.00 0.00 0.00 0.00 0.00 0.00 0.00 0.00 0.00 0.00 0.00 0.00 0.00 0.00 0.00 0.00 0.00 0.00 0.00 0.00 0.00 0.00 0.00 0.00 0.00
0.01 0.03 0.03 0.02 0.00 0.00 0.00 0.00 0.00 0.00 0.00 0.00 0.00 0.00 0.00 0.00 0.00 0.00 0.00 0.00 0.00 0.00 0.00 0.00 0.00 0.00 0.00 0.00 0.00 0.00 0.00 0.00 0.00 0.00 0.00 0.00 0.00 0.00 0.00 0.00 0.00 0.00 0.00
0.08 0.01 0.00 0.03 0.01 0.01 0.00 0.00 0.00 0.00 0.00 0.00 0.00 0.00 0.00 0.00 0.00 0.00 0.00 0.00 0.00 0.00 0.00 0.00 0.00 0.00 0.00 0.00 0.00 0.00 0.00 0.00 0.00 0.00 0.00 0.00 0.00 0.00 0.00 0.00 0.00 0.00 0.01
0.06 0.02 0.00 0.00 0.01 0.02 0.00 0.01 0.00 0.00 0.00 0.00 0.00 0.00 0.00 0.00 0.00 0.00 0.00 0.00 0.00 0.00 0.00 0.00 0.00 0.00 0.00 0.00 0.00 0.00 0.00 0.00 0.00 0.00 0.00 0.00 0.00 0.00 0.00 0.00 0.00 0.01 0.02
0.07 0.02 0.04 0.01 0.00 0.00 0.01 0.03 0.02 0.00 0.00 0.00 0.00 0.00 0.00 0.00 0.00 0.00 0.00 0.00 0.00 0.00 0.00 0.00 0.00 0.00 0.00 0.00 0.00 0.00 0.00 0.00 0.00 0.00 0.00 0.00 0.00 0.00 0.00 0.00 0.00 0.02 0.02
0.11 0.10 0.07 0.02 0.03 0.04 0.06 0.05 0.04 0.03 0.03 0.00 0.00 0.00 0.00 0.00 0.00 0.00 0.00 0.00 0.00 0.00 0.00 0.00 0.00 0.00 0.00 0.00 0.00 0.00 0.00 0.00 0.00 0.00 0.00 0.00 0.00 0.00 0.00 0.00 0.00 0.00 0.02
0.11 0.11 0.04 0.02 0.04 0.08 0.03 0.04 0.07 0.06 0.02 0.00 0.00 0.00 0.00 0.00 0.00 0.00 0.00 0.00 0.00 0.00 0.00 0.00 0.00 0.00 0.00 0.00 0.00 0.00 0.00 0.00 0.00 0.00 0.00 0.00 0.00 0.00 0.00 0.00 0.00 0.01 0.02
0.07 0.10 0.09 0.05 0.02 0.04 0.03 0.06 0.02 0.01 0.00 0.00 0.00 0.00 0.00 0.00 0.00 0.00 0.00 0.00 0.00 0.00 0.00 0.00 0.00 0.00 0.00 0.00 0.00 0.00 0.00 0.00 0.00 0.00 0.00 0.00 0.00 0.00 0.00 0.00 0.00 0.00 0.01
0.11 0.06 0.08 0.14 0.08 0.06 0.04 0.08 0.01 0.00 0.00 0.00 0.00 0.00 0.00 0.00 0.00 0.00 0.00 0.00 0.00 0.00 0.00 0.00 0.00 0.00 0.00 0.00 0.00 0.00 0.00 0.00 0.00 0.00 0.00 0.00 0.00 0.00 0.00 0.00 0.00 0.00 0.01
0.00 0.03 0.08 0.11 0.14 0.11 0.06 0.07 0.04 0.02 0.04 0.01 0.01 0.01 0.01 0.00 0.03 0.02 0.00 0.00 0.00 0.01 0.13 0.04 0.00 0.00 0.00 0.00 0.00 0.00 0.00 0.00 0.00 0.00 0.00 0.01 0.01 0.01 0.01 0.00 0.01 0.01 0.01
0.00 0.00 0.01 0.06 0.10 0.07 0.06 0.03 0.07 0.08 0.06 0.05 0.13 0.02 0.01 0.05 0.06 0.05 0.04 0.03 0.06 0.08 0.13 0.00 0.00 0.00 0.00 0.00 0.00 0.00 0.00 0.00 0.00 0.01 0.01 0.01 0.02 0.02 0.05 0.06 0.01 0.00 0.00
0.00 0.00 0.00 0.00 0.02 0.06 0.05 0.02 0.01 0.05 0.05 0.07 0.07 0.07 0.06 0.04 0.06 0.10 0.16 0.10 0.11 0.14 0.02 0.00 0.00 0.01 0.01 0.01 0.00 0.01 0.01 0.02 0.03 0.07 0.12 0.17 0.19 0.15 0.09 0.08 0.02 0.00 0.00
0.03 0.04 0.01 0.00 0.00 0.01 0.03 0.05 0.02 0.01 0.02 0.01 0.05 0.08 0.05 0.05 0.08 0.11 0.24 0.28 0.09 0.06 0.12 0.18 0.18 0.22 0.22 0.17 0.16 0.21 0.23 0.24 0.29 0.33 0.33 0.26 0.23 0.18 0.09 0.06 0.06 0.05 0.08
0.05 0.06 0.08 0.09 0.07 0.08 0.07 0.07 0.03 0.07 0.05 0.02 0.03 0.07 0.09 0.16 0.15 0.18 0.33 0.22 0.20 0.23 0.29 0.36 0.36 0.38 0.36 0.36 0.50 0.66 0.85 0.88 0.85 0.73 0.50 0.30 0.24 0.16 0.10 0.12 0.13 0.14 0.14
0.02 0.03 0.04 0.09 0.33 0.43 0.51 0.31 0.09 0.04 0.08 0.15 0.15 0.22 0.28 0.30 0.20 0.28 0.45 0.45 0.15 0.13 0.20 0.33 0.45 0.45 0.62 0.62 0.65 0.68 0.65 0.56 0.55 0.52 0.45 0.30 0.26 0.15 0.08 0.08 0.05 0.02 0.03
0.06 0.07 0.12 0.12 0.16 0.21 0.48 0.77 0.59 0.32 0.17 0.27 0.27 0.35 0.47 0.32 0.28 0.41 0.35 0.36 0.21 0.26 0.44 0.78 1.08 0.95 0.74 0.60 0.41 0.30 0.29 0.27 0.25 0.25 0.23 0.20 0.23 0.23 0.15 0.08 0.06 0.06 0.06
0.18 0.16 0.17 0.19 0.19 0.18 0.17 0.41 1.02 0.83 0.49 0.39 0.39 0.54 0.67 0.41 0.31 0.28 0.22 0.26 0.28 0.30 0.44 0.59 0.63 0.70 0.68 0.52 0.36 0.27 0.24 0.22 0.22 0.19 0.17 0.15 0.12 0.12 0.11 0.10 0.08 0.06 0.04
0.09 0.25 0.24 0.24 0.23 0.30 0.31 0.38 0.40 0.57 0.92 0.93 0.67 0.49 0.38 0.25 0.26 0.30 0.22 0.26 0.31 0.27 0.24 0.26 0.25 0.26 0.25 0.24 0.19 0.14 0.12 0.12 0.12 0.11 0.07 0.05 0.04 0.03 0.03 0.02 0.01 0.01 0.00
0.14 0.17 0.26 0.27 0.26 0.21 0.21 0.23 0.30 0.28 0.20 0.27 0.30 0.29 0.22 0.17 0.14 0.19 0.21 0.26 0.24 0.21 0.17 0.14 0.16 0.16 0.18 0.17 0.11 0.09 0.06 0.05 0.04 0.03 0.03 0.03 0.02 0.00 0.00 0.00 0.00 0.00 0.00
0.17 0.19 0.20 0.29 0.44 0.35 0.36 0.24 0.20 0.29 0.22 0.12 0.12 0.14 0.10 0.09 0.09 0.09 0.08 0.10 0.10 0.14 0.15 0.15 0.13 0.12 0.11 0.09 0.05 0.03 0.02 0.01 0.01 0.01 0.01 0.01 0.01 0.00 0.00 0.00 0.00 0.00 0.00
0.61 0.34 0.23 0.21 0.27 0.58 1.01 1.03 0.89 0.85 0.75 0.66 0.49 0.30 0.26 0.29 0.24 0.19 0.15 0.13 0.10 0.08 0.08 0.10 0.09 0.09 0.08 0.08 0.05 0.05 0.04 0.03 0.03 0.03 0.03 0.05 0.06 0.04 0.01 0.00 0.00 0.01 0.00

GFSGL_prec_precacc12_069.txt.gz
Total_Precipitation_Accumulation
0.00 0.00 0.00 0.00 0.00 0.00 0.00 0.00 0.00 0.00 0.00 0.00 0.00 0.02 0.02 0.03 0.02 0.02 0.00 0.00 0.00 0.00 0.00 0.00 0.00 0.00 0.00 0.00 0.00 0.00 0.00 0.00 0.00 0.00 0.00 0.00 0.00 0.00 0.00 0.00 0.00 0.00 0.00
0.00 0.00 0.00 0.00 0.00 0.00 0.00 0.00 0.00 0.00 0.00 0.01 0.00 0.00 0.00 0.00 0.02 0.01 0.06 0.00 0.00 0.00 0.00 0.00 0.00 0.00 0.00 0.00 0.00 0.00 0.00 0.00 0.00 0.00 0.00 0.00 0.00 0.00 0.00 0.00 0.00 0.00 0.00
0.00 0.00 0.00 0.00 0.00 0.00 0.00 0.00 0.00 0.00 0.00 0.00 0.00 0.00 0.00 0.00 0.00 0.00 0.02 0.02 0.00 0.00 0.00 0.00 0.00 0.00 0.00 0.00 0.00 0.00 0.00 0.00 0.00 0.00 0.00 0.00 0.00 0.00 0.00 0.00 0.00 0.00 0.00
0.00 0.00 0.00 0.00 0.00 0.00 0.00 0.00 0.00 0.00 0.00 0.00 0.00 0.00 0.00 0.00 0.00 0.00 0.00 0.00 0.00 0.00 0.00 0.00 0.00 0.00 0.00 0.01 0.00 0.00 0.00 0.00 0.00 0.00 0.00 0.00 0.00 0.00 0.00 0.00 0.00 0.00 0.00
0.01 0.00 0.00 0.00 0.00 0.00 0.00 0.00 0.00 0.00 0.00 0.00 0.00 0.00 0.00 0.00 0.00 0.00 0.00 0.00 0.00 0.00 0.00 0.00 0.00 0.00 0.00 0.00 0.00 0.00 0.00 0.00 0.00 0.00 0.00 0.00 0.00 0.00 0.00 0.00 0.00 0.00 0.00
0.01 0.01 0.02 0.00 0.00 0.00 0.00 0.00 0.00 0.00 0.00 0.00 0.00 0.00 0.00 0.00 0.00 0.00 0.00 0.00 0.00 0.00 0.00 0.00 0.00 0.00 0.00 0.00 0.00 0.00 0.00 0.00 0.00 0.00 0.00 0.00 0.00 0.00 0.00 0.00 0.00 0.00 0.00
0.02 0.03 0.03 0.02 0.00 0.00 0.00 0.00 0.00 0.00 0.00 0.00 0.00 0.00 0.00 0.00 0.00 0.00 0.00 0.00 0.00 0.00 0.00 0.00 0.00 0.00 0.00 0.00 0.00 0.00 0.00 0.00 0.00 0.00 0.00 0.00 0.00 0.00 0.00 0.00 0.00 0.00 0.00
0.09 0.01 0.00 0.03 0.01 0.01 0.00 0.00 0.00 0.00 0.00 0.00 0.00 0.00 0.00 0.00 0.00 0.00 0.00 0.00 0.00 0.00 0.00 0.00 0.00 0.00 0.00 0.00 0.00 0.00 0.00 0.00 0.00 0.00 0.00 0.00 0.00 0.00 0.00 0.00 0.00 0.00 0.01
0.06 0.03 0.00 0.00 0.01 0.02 0.00 0.01 0.01 0.00 0.00 0.00 0.00 0.00 0.00 0.00 0.00 0.00 0.00 0.00 0.00 0.00 0.00 0.00 0.00 0.00 0.00 0.00 0.00 0.00 0.00 0.00 0.00 0.00 0.00 0.00 0.00 0.00 0.00 0.00 0.00 0.01 0.01
0.09 0.03 0.04 0.01 0.00 0.00 0.02 0.04 0.02 0.00 0.00 0.00 0.00 0.00 0.00 0.00 0.00 0.00 0.00 0.00 0.00 0.00 0.00 0.00 0.00 0.00 0.00 0.00 0.00 0.00 0.00 0.00 0.00 0.00 0.00 0.00 0.00 0.00 0.00 0.00 0.00 0.01 0.01
0.11 0.11 0.08 0.03 0.03 0.04 0.06 0.06 0.06 0.04 0.03 0.00 0.00 0.00 0.00 0.00 0.00 0.00 0.00 0.00 0.00 0.00 0.00 0.00 0.00 0.00 0.00 0.00 0.00 0.00 0.00 0.00 0.00 0.00 0.00 0.00 0.00 0.00 0.00 0.00 0.00 0.00 0.01
0.07 0.08 0.04 0.03 0.05 0.08 0.03 0.05 0.08 0.07 0.03 0.01 0.00 0.00 0.00 0.00 0.00 0.00 0.00 0.00 0.00 0.00 0.00 0.00 0.00 0.00 0.00 0.00 0.00 0.00 0.00 0.00 0.00 0.00 0.00 0.00 0.00 0.00 0.00 0.00 0.00 0.00 0.01
0.07 0.05 0.07 0.06 0.02 0.04 0.03 0.06 0.04 0.04 0.03 0.04 0.00 0.00 0.00 0.00 0.00 0.00 0.00 0.00 0.00 0.00 0.00 0.00 0.00 0.00 0.00 0.00 0.00 0.00 0.00 0.00 0.00 0.00 0.00 0.00 0.00 0.00 0.00 0.00 0.00 0.00 0.01
0.11 0.06 0.07 0.14 0.08 0.06 0.05 0.08 0.01 0.00 0.01 0.01 0.00 0.00 0.00 0.00 0.00 0.00 0.00 0.00 0.00 0.00 0.00 0.00 0.00 0.00 0.00 0.00 0.00 0.00 0.00 0.00 0.00 0.00 0.00 0.00 0.00 0.00 0.00 0.00 0.00 0.00 0.01
0.00 0.03 0.08 0.11 0.14 0.11 0.06 0.07 0.04 0.02 0.04 0.01 0.01 0.01 0.01 0.00 0.04 0.03 0.01 0.01 0.00 0.01 0.13 0.04 0.00 0.00 0.00 0.00 0.00 0.00 0.00 0.00 0.00 0.00 0.00 0.00 0.01 0.01 0.01 0.00 0.00 0.00 0.01
0.00 0.00 0.01 0.06 0.10 0.07 0.06 0.03 0.07 0.09 0.09 0.05 0.16 0.05 0.02 0.05 0.08 0.09 0.09 0.07 0.11 0.11 0.13 0.00 0.00 0.00 0.00 0.00 0.00 0.00 0.00 0.00 0.00 0.00 0.01 0.01 0.02 0.02 0.05 0.05 0.01 0.00 0.00
0.01 0.00 0.00 0.00 0.02 0.06 0.05 0.02 0.01 0.04 0.06 0.09 0.09 0.11 0.08 0.06 0.07 0.17 0.30 0.21 0.18 0.15 0.02 0.00 0.00 0.01 0.01 0.01 0.00 0.00 0.00 0.00 0.02 0.07 0.12 0.17 0.19 0.15 0.09 0.08 0.02 0.00 0.00
0.01 0.01 0.00 0.00 0.00 0.01 0.02 0.05 0.02 0.01 0.00 0.01 0.05 0.08 0.07 0.08 0.12 0.22 0.41 0.29 0.06 0.02 0.04 0.07 0.10 0.06 0.04 0.02 0.04 0.09 0.14 0.18 0.27 0.33 0.33 0.26 0.23 0.18 0.09 0.06 0.06 0.05 0.09
0.00 0.00 0.01 0.03 0.03 0.05 0.06 0.06 0.02 0.02 0.00 0.00 0.00 0.02 0.04 0.17 0.22 0.31 0.36 0.13 0.03 0.01 0.02 0.08 0.11 0.09 0.09 0.04 0.08 0.32 0.64 0.74 0.79 0.71 0.50 0.29 0.25 0.17 0.10 0.12 0.13 0.15 0.16
0.00 0.01 0.01 0.03 0.09 0.15 0.23 0.21 0.06 0.02 0.02 0.02 0.02 0.03 0.13 0.26 0.20 0.28 0.33 0.31 0.08 0.05 0.05 0.07 0.20 0.19 0.22 0.21 0.31 0.48 0.49 0.44 0.47 0.48 0.43 0.30 0.26 0.16 0.10 0.10 0.07 0.04 0.04
0.00 0.01 0.02 0.01 0.03 0.05 0.15 0.26 0.16 0.09 0.07 0.14 0.09 0.17 0.34 0.29 0.32 0.50 0.45 0.44 0.22 0.21 0.22 0.29 0.29 0.25 0.25 0.25 0.19 0.18 0.23 0.23 0.22 0.22 0.22 0.20 0.23 0.24 0.18 0.12 0.11 0.10 0.10
0.01 0.02 0.01 0.01 0.01 0.03 0.05 0.07 0.14 0.09 0.12 0.16 0.22 0.41 0.55 0.38 0.37 0.36 0.30 0.33 0.35 0.37 0.42 0.39 0.39 0.42 0.39 0.33 0.25 0.21 0.19 0.18 0.19 0.18 0.17 0.15 0.12 0.12 0.12 0.13 0.12 0.11 0.08
0.04 0.03 0.06 0.03 0.02 0.05 0.08 0.12 0.13 0.15 0.17 0.43 0.56 0.45 0.37 0.26 0.29 0.36 0.31 0.32 0.37 0.35 0.30 0.30 0.28 0.30 0.23 0.20 0.12 0.09 0.08 0.09 0.12 0.11 0.07 0.05 0.05 0.05 0.04 0.03 0.03 0.02 0.01
0.11 0.09 0.07 0.08 0.08 0.10 0.09 0.13 0.20 0.18 0.14 0.16 0.25 0.28 0.23 0.17 0.15 0.21 0.25 0.30 0.28 0.24 0.23 0.20 0.22 0.18 0.18 0.18 0.16 0.11 0.07 0.06 0.05 0.03 0.04 0.04 0.03 0.02 0.01 0.01 0.01 0.00 0.00
0.16 0.18 0.17 0.20 0.31 0.15 0.13 0.14 0.16 0.22 0.18 0.09 0.10 0.12 0.10 0.09 0.09 0.09 0.09 0.10 0.11 0.15 0.15 0.14 0.13 0.12 0.12 0.15 0.13 0.07 0.07 0.07 0.05 0.05 0.05 0.03 0.03 0.02 0.02 0.02 0.02 0.02 0.02
0.61 0.35 0.24 0.21 0.26 0.52 0.72 0.53 0.29 0.43 0.39 0.38 0.34 0.23 0.21 0.25 0.21 0.18 0.16 0.14 0.10 0.08 0.08 0.08 0.07 0.08 0.07 0.07 0.08 0.12 0.13 0.11 0.08 0.07 0.06 0.07 0.07 0.07 0.07 0.08 0.09 0.10 0.09

GFSGL_prec_precacc12_072.txt.gz
Total_Precipitation_Accumulation
0.00 0.00 0.00 0.00 0.00 0.00 0.00 0.00 0.00 0.00 0.00 0.01 0.06 0.08 0.07 0.05 0.02 0.04 0.02 0.00 0.00 0.00 0.00 0.00 0.00 0.00 0.00 0.00 0.00 0.00 0.00 0.00 0.00 0.00 0.00 0.00 0.00 0.00 0.00 0.00 0.00 0.00 0.00
0.00 0.00 0.00 0.00 0.00 0.00 0.00 0.00 0.00 0.00 0.00 0.02 0.07 0.05 0.05 0.01 0.02 0.05 0.07 0.01 0.01 0.00 0.00 0.00 0.00 0.00 0.00 0.00 0.00 0.00 0.00 0.00 0.00 0.00 0.00 0.00 0.00 0.00 0.00 0.00 0.00 0.00 0.00
0.00 0.00 0.00 0.00 0.00 0.00 0.00 0.00 0.00 0.00 0.00 0.00 0.01 0.07 0.07 0.05 0.02 0.02 0.05 0.04 0.02 0.00 0.00 0.00 0.00 0.00 0.00 0.00 0.00 0.00 0.00 0.00 0.00 0.00 0.00 0.00 0.00 0.00 0.00 0.00 0.00 0.00 0.00
0.00 0.00 0.00 0.00 0.00 0.00 0.00 0.00 0.00 0.00 0.00 0.00 0.00 0.01 0.03 0.04 0.03 0.04 0.04 0.03 0.03 0.01 0.00 0.00 0.00 0.00 0.00 0.01 0.00 0.00 0.00 0.00 0.00 0.00 0.00 0.00 0.00 0.00 0.00 0.00 0.00 0.00 0.00
0.01 0.00 0.00 0.00 0.00 0.00 0.00 0.00 0.00 0.00 0.00 0.00 0.00 0.00 0.00 0.00 0.00 0.00 0.00 0.01 0.01 0.00 0.00 0.00 0.00 0.00 0.00 0.00 0.00 0.00 0.00 0.00 0.00 0.00 0.00 0.00 0.00 0.00 0.00 0.00 0.00 0.00 0.00
0.01 0.01 0.02 0.00 0.00 0.00 0.00 0.00 0.00 0.00 0.00 0.00 0.00 0.00 0.00 0.00 0.00 0.00 0.00 0.00 0.00 0.00 0.00 0.00 0.00 0.00 0.00 0.00 0.00 0.00 0.00 0.00 0.00 0.00 0.00 0.00 0.00 0.00 0.00 0.00 0.00 0.00 0.00
0.02 0.04 0.03 0.02 0.00 0.00 0.00 0.00 0.00 0.00 0.00 0.00 0.00 0.00 0.00 0.00 0.00 0.00 0.00 0.00 0.00 0.00 0.00 0.00 0.00 0.00 0.00 0.00 0.00 0.00 0.00 0.00 0.00 0.00 0.00 0.00 0.00 0.00 0.00 0.00 0.00 0.00 0.00
0.02 0.01 0.01 0.03 0.01 0.01 0.00 0.00 0.00 0.00 0.00 0.00 0.00 0.00 0.00 0.00 0.00 0.00 0.00 0.00 0.00 0.00 0.00 0.00 0.00 0.00 0.00 0.00 0.00 0.00 0.00 0.00 0.00 0.00 0.00 0.00 0.00 0.00 0.00 0.00 0.00 0.00 0.00
0.06 0.07 0.03 0.01 0.01 0.03 0.01 0.02 0.01 0.00 0.00 0.00 0.00 0.00 0.00 0.00 0.00 0.00 0.00 0.00 0.00 0.00 0.00 0.00 0.00 0.00 0.00 0.00 0.00 0.00 0.00 0.00 0.00 0.00 0.00 0.00 0.00 0.00 0.00 0.00 0.00 0.00 0.00
0.03 0.06 0.03 0.03 0.01 0.01 0.07 0.09 0.09 0.05 0.01 0.00 0.00 0.00 0.00 0.00 0.00 0.00 0.00 0.00 0.00 0.00 0.00 0.00 0.00 0.00 0.00 0.00 0.00 0.00 0.00 0.00 0.00 0.00 0.00 0.00 0.00 0.00 0.00 0.00 0.00 0.01 0.01
0.01 0.03 0.05 0.04 0.04 0.04 0.07 0.12 0.17 0.14 0.08 0.02 0.00 0.00 0.00 0.00 0.00 0.00 0.00 0.00 0.00 0.00 0.00 0.00 0.00 0.00 0.00 0.00 0.00 0.00 0.00 0.00 0.00 0.00 0.00 0.00 0.00 0.00 0.00 0.00 0.00 0.00 0.00
0.00 0.00 0.01 0.02 0.04 0.08 0.04 0.05 0.11 0.19 0.16 0.08 0.05 0.01 0.00 0.00 0.00 0.00 0.00 0.00 0.00 0.00 0.00 0.00 0.00 0.00 0.00 0.00 0.00 0.00 0.00 0.00 0.00 0.00 0.00 0.00 0.00 0.00 0.00 0.00 0.00 0.00 0.00
0.01 0.01 0.01 0.01 0.02 0.04 0.03 0.06 0.04 0.06 0.10 0.16 0.10 0.03 0.00 0.00 0.00 0.00 0.00 0.00 0.00 0.00 0.00 0.00 0.00 0.00 0.00 0.00 0.00 0.00 0.00 0.00 0.00 0.00 0.00 0.00 0.00 0.00 0.00 0.00 0.00 0.00 0.00
0.00 0.00 0.00 0.01 0.01 0.02 0.03 0.03 0.00 0.01 0.01 0.02 0.05 0.05 0.03 0.00 0.00 0.00 0.00 0.00 0.00 0.00 0.00 0.00 0.00 0.00 0.00 0.00 0.00 0.00 0.00 0.00 0.00 0.00 0.00 0.00 0.00 0.00 0.00 0.00 0.00 0.00 0.00
0.00 0.00 0.00 0.01 0.01 0.02 0.01 0.03 0.02 0.02 0.03 0.01 0.02 0.05 0.07 0.01 0.04 0.04 0.04 0.03 0.03 0.03 0.05 0.01 0.00 0.00 0.00 0.00 0.00 0.00 0.00 0.00 0.00 0.00 0.00 0.00 0.00 0.00 0.00 0.00 0.00 0.00 0.00
0.00 0.00 0.00 0.00 0.05 0.05 0.03 0.03 0.06 0.07 0.07 0.05 0.15 0.08 0.03 0.06 0.12 0.13 0.16 0.19 0.23 0.13 0.06 0.00 0.00 0.00 0.00 0.00 0.00 0.00 0.00 0.00 0.00 0.00 0.00 0.00 0.00 0.01 0.05 0.05 0.01 0.00 0.00
0.01 0.01 0.01 0.00 0.02 0.05 0.05 0.02 0.01 0.04 0.06 0.08 0.08 0.13 0.10 0.06 0.13 0.21 0.41 0.42 0.24 0.10 0.01 0.00 0.00 0.01 0.00 0.00 0.00 0.00 0.00 0.00 0.00 0.00 0.00 0.03 0.13 0.15 0.09 0.08 0.02 0.00 0.00
0.01 0.02 0.01 0.00 0.00 0.01 0.03 0.05 0.02 0.01 0.00 0.01 0.05 0.08 0.07 0.09 0.16 0.38 0.69 0.47 0.14 0.02 0.04 0.07 0.10 0.06 0.03 0.01 0.01 0.02 0.02 0.01 0.01 0.01 0.01 0.07 0.13 0.16 0.09 0.06 0.06 0.05 0.09
0.01 0.00 0.00 0.00 0.01 0.03 0.02 0.02 0.02 0.02 0.00 0.00 0.00 0.01 0.03 0.13 0.25 0.42 0.52 0.15 0.04 0.02 0.04 0.08 0.11 0.07 0.06 0.04 0.04 0.03 0.08 0.07 0.07 0.05 0.09 0.08 0.08 0.09 0.06 0.10 0.13 0.15 0.16
0.01 0.01 0.01 0.00 0.01 0.01 0.03 0.04 0.03 0.01 0.01 0.01 0.01 0.02 0.05 0.17 0.14 0.19 0.24 0.25 0.09 0.05 0.05 0.06 0.14 0.10 0.14 0.16 0.20 0.20 0.17 0.15 0.17 0.16 0.18 0.13 0.15 0.13 0.09 0.10 0.07 0.05 0.05
0.01 0.01 0.02 0.01 0.01 0.01 0.01 0.02 0.02 0.02 0.01 0.05 0.05 0.08 0.15 0.15 0.13 0.16 0.20 0.29 0.16 0.17 0.15 0.14 0.14 0.11 0.16 0.17 0.16 0.16 0.20 0.20 0.20 0.21 0.19 0.17 0.20 0.20 0.15 0.11 0.11 0.11 0.10
0.02 0.02 0.02 0.01 0.01 0.01 0.01 0.01 0.01 0.01 0.01 0.01 0.01 0.05 0.09 0.08 0.09 0.13 0.17 0.15 0.17 0.20 0.26 0.25 0.26 0.31 0.35 0.32 0.25 0.26 0.24 0.20 0.19 0.17 0.15 0.14 0.11 0.12 0.14 0.14 0.12 0.12 0.09
0.02 0.02 0.02 0.01 0.01 0.03 0.02 0.01 0.01 0.01 0.01 0.01 0.02 0.06 0.08 0.05 0.10 0.23 0.24 0.22 0.29 0.29 0.27 0.30 0.31 0.34 0.31 0.31 0.20 0.16 0.14 0.13 0.18 0.21 0.14 0.10 0.10 0.08 0.08 0.07 0.05 0.03 0.02
0.04 0.03 0.02 0.02 0.05 0.05 0.02 0.02 0.02 0.04 0.03 0.01 0.02 0.03 0.04 0.05 0.06 0.15 0.22 0.29 0.27 0.25 0.28 0.25 0.29 0.27 0.26 0.23 0.23 0.23 0.15 0.12 0.11 0.12 0.15 0.15 0.13 0.09 0.05 0.04 0.04 0.03 0.02
0.08 0.11 0.10 0.05 0.05 0.03 0.04 0.04 0.04 0.04 0.05 0.03 0.04 0.05 0.03 0.03 0.03 0.06 0.09 0.11 0.11 0.16 0.16 0.16 0.15 0.16 0.16 0.18 0.18 0.20 0.22 0.24 0.22 0.21 0.23 0.25 0.21 0.13 0.10 0.07 0.06 0.06 0.04
0.24 0.19 0.17 0.17 0.10 0.09 0.11 0.08 0.08 0.15 0.16 0.17 0.24 0.16 0.13 0.13 0.09 0.08 0.08 0.08 0.07 0.07 0.09 0.09 0.07 0.08 0.09 0.08 0.09 0.14 0.19 0.17 0.15 0.12 0.09 0.09 0.12 0.12 0.11 0.12 0.13 0.15 0.16

GFSGL_prec_precacc12_075.txt.gz
Total_Precipitation_Accumulation
0.00 0.00 0.00 0.00 0.00 0.00 0.00 0.00 0.00 0.00 0.00 0.03 0.07 0.08 0.07 0.05 0.02 0.04 0.02 0.00 0.00 0.00 0.00 0.00 0.00 0.00 0.00 0.00 0.00 0.00 0.00 0.00 0.00 0.00 0.00 0.00 0.00 0.00 0.00 0.00 0.00 0.00 0.00
0.00 0.00 0.00 0.00 0.00 0.00 0.00 0.00 0.00 0.00 0.00 0.03 0.07 0.05 0.05 0.01 0.02 0.05 0.07 0.01 0.01 0.00 0.00 0.00 0.00 0.00 0.00 0.00 0.00 0.00 0.00 0.00 0.00 0.00 0.00 0.00 0.00 0.00 0.00 0.00 0.00 0.00 0.00
0.00 0.00 0.00 0.00 0.00 0.00 0.00 0.00 0.00 0.00 0.00 0.00 0.01 0.07 0.07 0.06 0.05 0.07 0.07 0.04 0.02 0.00 0.00 0.00 0.00 0.00 0.00 0.00 0.00 0.00 0.00 0.00 0.00 0.00 0.00 0.00 0.00 0.00 0.00 0.00 0.00 0.00 0.00
0.02 0.00 0.00 0.00 0.00 0.00 0.00 0.00 0.00 0.00 0.00 0.00 0.00 0.01 0.03 0.04 0.03 0.05 0.10 0.05 0.03 0.01 0.00 0.00 0.00 0.00 0.00 0.01 0.00 0.00 0.00 0.00 0.00 0.00 0.00 0.00 0.00 0.00 0.00 0.00 0.00 0.00 0.00
0.04 0.02 0.03 0.00 0.00 0.00 0.00 0.00 0.00 0.00 0.00 0.00 0.00 0.00 0.00 0.00 0.00 0.00 0.00 0.02 0.02 0.00 0.00 0.00 0.00 0.00 0.00 0.00 0.00 0.00 0.00 0.00 0.00 0.00 0.00 0.00 0.00 0.00 0.00 0.00 0.00 0.00 0.00
0.08 0.05 0.01 0.00 0.01 0.01 0.00 0.00 0.00 0.00 0.00 0.00 0.00 0.00 0.00 0.00 0.00 0.00 0.00 0.00 0.01 0.00 0.00 0.00 0.00 0.00 0.00 0.00 0.00 0.00 0.00 0.00 0.00 0.00 0.00 0.00 0.00 0.00 0.00 0.00 0.00 0.00 0.00
0.09 0.04 0.03 0.01 0.00 0.01 0.02 0.01 0.00 0.00 0.00 0.00 0.00 0.00 0.00 0.00 0.00 0.00 0.00 0.00 0.00 0.00 0.01 0.00 0.00 0.00 0.00 0.00 0.00 0.00 0.00 0.00 0.00 0.00 0.00 0.00 0.00 0.00 0.00 0.00 0.00 0.00 0.00
0.03 0.01 0.01 0.03 0.01 0.01 0.02 0.03 0.01 0.00 0.00 0.00 0.00 0.00 0.00 0.00 0.00 0.00 0.00 0.00 0.00 0.00 0.00 0.00 0.01 0.00 0.00 0.00 0.00 0.00 0.00 0.00 0.00 0.00 0.00 0.00 0.00 0.00 0.00 0.00 0.00 0.00 0.00
0.07 0.11 0.07 0.02 0.02 0.04 0.02 0.05 0.05 0.02 0.00 0.00 0.00 0.00 0.00 0.00 0.00 0.00 0.00 0.00 0.00 0.00 0.00 0.00 0.00 0.00 0.00 0.00 0.00 0.00 0.00 0.00 0.00 0.00 0.00 0.00 0.00 0.00 0.00 0.00 0.00 0.00 0.00
0.04 0.07 0.05 0.06 0.03 0.04 0.08 0.10 0.13 0.10 0.04 0.02 0.01 0.00 0.00 0.00 0.00 0.00 0.00 0.00 0.00 0.00 0.00 0.00 0.00 0.00 0.00 0.00 0.00 0.00 0.00 0.00 0.00 0.00 0.00 0.00 0.00 0.00 0.00 0.00 0.00 0.00 0.00
0.01 0.03 0.05 0.02 0.02 0.01 0.02 0.09 0.16 0.19 0.16 0.09 0.04 0.03 0.02 0.01 0.00 0.00 0.00 0.00 0.00 0.00 0.00 0.00 0.00 0.00 0.00 0.00 0.00 0.00 0.00 0.00 0.00 0.00 0.00 0.00 0.00 0.00 0.00 0.00 0.00 0.00 0.00
0.00 0.00 0.01 0.01 0.01 0.01 0.01 0.02 0.07 0.21 0.24 0.19 0.17 0.09 0.05 0.03 0.01 0.00 0.00 0.00 0.00 0.00 0.00 0.00 0.00 0.00 0.00 0.00 0.00 0.00 0.00 0.00 0.00 0.00 0.00 0.00 0.00 0.00 0.00 0.00 0.00 0.00 0.00
0.01 0.01 0.01 0.01 0.01 0.00 0.01 0.05 0.04 0.06 0.12 0.23 0.22 0.13 0.09 0.08 0.02 0.00 0.01 0.01 0.00 0.00 0.00 0.00 0.00 0.00 0.00 0.00 0.00 0.00 0.00 0.00 0.00 0.00 0.00 0.00 0.00 0.00 0.00 0.00 0.00 0.01 0.00
0.00 0.00 0.00 0.01 0.01 0.01 0.01 0.00 0.00 0.00 0.01 0.02 0.11 0.17 0.17 0.11 0.06 0.03 0.03 0.08 0.08 0.02 0.00 0.00 0.00 0.00 0.00 0.00 0.00 0.00 0.00 0.00 0.00 0.00 0.00 0.00 0.00 0.00 0.00 0.00 0.00 0.00 0.00
0.00 0.00 0.00 0.00 0.00 0.00 0.00 0.00 0.00 0.00 0.00 0.00 0.02 0.09 0.16 0.11 0.07 0.22 0.27 0.25 0.22 0.13 0.08 0.00 0.00 0.00 0.00 0.00 0.00 0.00 0.00 0.00 0.00 0.00 0.00 0.00 0.00 0.00 0.00 0.00 0.00 0.00 0.00
0.00 0.00 0.00 0.00 0.00 0.00 0.00 0.00 0.00 0.01 0.03 0.01 0.05 0.07 0.03 0.05 0.27 0.34 0.39 0.51 0.64 0.46 0.20 0.00 0.00 0.00 0.00 0.00 0.00 0.00 0.00 0.00 0.00 0.00 0.00 0.00 0.00 0.00 0.00 0.00 0.00 0.00 0.00
0.02 0.01 0.01 0.00 0.00 0.00 0.00 0.00 0.00 0.01 0.02 0.03 0.02 0.06 0.04 0.03 0.11 0.22 0.49 0.64 0.51 0.38 0.06 0.00 0.00 0.01 0.00 0.00 0.00 0.00 0.00 0.00 0.00 0.00 0.00 0.00 0.00 0.00 0.00 0.00 0.00 0.00 0.00
0.01 0.02 0.01 0.00 0.00 0.00 0.00 0.00 0.00 0.00 0.00 0.00 0.00 0.01 0.03 0.06 0.13 0.38 0.65 0.41 0.17 0.05 0.04 0.06 0.07 0.03 0.01 0.00 0.00 0.00 0.01 0.01 0.01 0.01 0.00 0.00 0.00 0.00 0.00 0.01 0.02 0.04 0.09
0.01 0.01 0.00 0.00 0.01 0.00 0.00 0.00 0.00 0.00 0.00 0.00 0.00 0.00 0.01 0.12 0.22 0.36 0.33 0.06 0.01 0.01 0.03 0.03 0.06 0.03 0.04 0.03 0.02 0.01 0.04 0.04 0.05 0.04 0.07 0.09 0.06 0.06 0.04 0.08 0.11 0.13 0.16
0.01 0.02 0.01 0.01 0.01 0.01 0.00 0.00 0.00 0.00 0.01 0.01 0.00 0.01 0.01 0.07 0.08 0.08 0.13 0.10 0.03 0.01 0.02 0.03 0.10 0.04 0.05 0.04 0.06 0.08 0.07 0.12 0.16 0.14 0.13 0.22 0.26 0.24 0.25 0.26 0.19 0.14 0.07
0.01 0.01 0.03 0.02 0.01 0.01 0.01 0.01 0.00 0.01 0.01 0.03 0.02 0.03 0.02 0.06 0.10 0.12 0.12 0.13 0.08 0.10 0.11 0.10 0.13 0.11 0.08 0.09 0.07 0.08 0.10 0.14 0.16 0.17 0.18 0.17 0.23 0.22 0.17 0.13 0.14 0.13 0.13
0.02 0.03 0.02 0.02 0.02 0.01 0.01 0.01 0.01 0.01 0.01 0.01 0.01 0.03 0.06 0.08 0.08 0.09 0.09 0.09 0.11 0.14 0.16 0.14 0.15 0.21 0.24 0.24 0.24 0.23 0.19 0.17 0.21 0.23 0.21 0.24 0.23 0.16 0.13 0.15 0.20 0.18 0.11
0.04 0.02 0.03 0.02 0.02 0.04 0.03 0.01 0.01 0.01 0.01 0.01 0.01 0.01 0.03 0.03 0.04 0.07 0.10 0.09 0.12 0.17 0.15 0.15 0.18 0.26 0.30 0.35 0.28 0.21 0.14 0.13 0.22 0.28 0.19 0.16 0.21 0.21 0.17 0.16 0.22 0.21 0.14
0.03 0.03 0.02 0.03 0.06 0.06 0.04 0.03 0.02 0.04 0.03 0.01 0.02 0.02 0.01 0.01 0.01 0.03 0.05 0.08 0.09 0.11 0.20 0.19 0.19 0.16 0.17 0.21 0.25 0.24 0.14 0.11 0.12 0.15 0.17 0.16 0.15 0.14 0.13 0.12 0.15 0.16 0.11
0.02 0.02 0.02 0.04 0.04 0.03 0.03 0.03 0.02 0.02 0.02 0.03 0.03 0.03 0.02 0.01 0.01 0.02 0.04 0.06 0.08 0.11 0.14 0.15 0.15 0.15 0.15 0.18 0.19 0.21 0.24 0.27 0.25 0.23 0.24 0.26 0.23 0.16 0.17 0.16 0.13 0.09 0.08
0.05 0.04 0.04 0.03 0.03 0.03 0.04 0.03 0.03 0.04 0.04 0.04 0.05 0.05 0.06 0.07 0.05 0.04 0.04 0.05 0.05 0.05 0.05 0.05 0.05 0.07 0.08 0.07 0.10 0.15 0.20 0.20 0.17 0.16 0.12 0.12 0.13 0.13 0.13 0.13 0.16 0.17 0.17

GFSGL_prec_precacc12_078.txt.gz
Total_Precipitation_Accumulation
0.00 0.00 0.00 0.00 0.00 0.00 0.00 0.00 0.00 0.00 0.04 0.24 0.74 0.12 0.12 0.03 0.01 0.05 0.08 0.05 0.03 0.01 0.00 0.01 0.00 0.01 0.00 0.00 0.00 0.00 0.00 0.00 0.00 0.00 0.00 0.00 0.00 0.00 0.00 0.00 0.00 0.00 0.00
0.00 0.01 0.00 0.00 0.00 0.00 0.00 0.00 0.00 0.00 0.00 0.05 0.10 0.12 0.12 0.03 0.05 0.10 0.09 0.04 0.06 0.01 0.00 0.01 0.01 0.00 0.01 0.00 0.00 0.00 0.00 0.00 0.00 0.00 0.00 0.00 0.00 0.00 0.00 0.00 0.00 0.00 0.00
0.02 0.00 0.00 0.00 0.00 0.00 0.01 0.00 0.00 0.00 0.00 0.00 0.01 0.09 0.11 0.09 0.13 0.18 0.12 0.06 0.06 0.02 0.00 0.01 0.00 0.00 0.02 0.00 0.01 0.00 0.00 0.00 0.00 0.00 0.00 0.00 0.00 0.00 0.00 0.00 0.00 0.00 0.00
0.14 0.15 0.07 0.01 0.00 0.00 0.01 0.02 0.02 0.01 0.00 0.00 0.00 0.03 0.06 0.05 0.04 0.08 0.14 0.10 0.08 0.05 0.03 0.00 0.00 0.00 0.01 0.01 0.00 0.00 0.00 0.00 0.00 0.00 0.00 0.00 0.00 0.00 0.00 0.00 0.00 0.00 0.00
0.19 0.35 0.54 0.57 0.11 0.01 0.02 0.05 0.05 0.03 0.00 0.00 0.00 0.00 0.01 0.01 0.00 0.00 0.02 0.04 0.09 0.05 0.06 0.04 0.00 0.00 0.00 0.01 0.00 0.01 0.01 0.00 0.00 0.00 0.00 0.00 0.00 0.00 0.00 0.00 0.00 0.00 0.00
0.29 0.29 0.25 0.56 0.29 0.11 0.05 0.03 0.04 0.02 0.02 0.01 0.00 0.00 0.00 0.00 0.00 0.00 0.00 0.00 0.02 0.04 0.02 0.02 0.00 0.00 0.00 0.00 0.00 0.00 0.01 0.01 0.01 0.00 0.00 0.00 0.00 0.01 0.00 0.00 0.00 0.00 0.00
0.21 0.14 0.12 0.19 0.17 0.13 0.08 0.05 0.04 0.04 0.03 0.02 0.01 0.00 0.00 0.00 0.00 0.00 0.00 0.00 0.01 0.04 0.05 0.03 0.01 0.00 0.00 0.00 0.00 0.00 0.00 0.00 0.00 0.00 0.00 0.00 0.00 0.00 0.00 0.00 0.00 0.00 0.00
0.05 0.02 0.02 0.02 0.05 0.12 0.09 0.08 0.08 0.07 0.05 0.04 0.02 0.02 0.00 0.00 0.00 0.00 0.00 0.00 0.00 0.00 0.01 0.02 0.01 0.00 0.00 0.01 0.01 0.00 0.00 0.00 0.00 0.00 0.00 0.00 0.00 0.00 0.00 0.00 0.00 0.00 0.00
0.07 0.11 0.07 0.02 0.01 0.07 0.11 0.12 0.14 0.10 0.06 0.05 0.04 0.02 0.01 0.00 0.00 0.00 0.00 0.00 0.00 0.00 0.00 0.00 0.00 0.00 0.00 0.00 0.00 0.00 0.00 0.00 0.00 0.00 0.00 0.00 0.00 0.00 0.00 0.00 0.00 0.00 0.00
0.04 0.07 0.05 0.06 0.04 0.05 0.12 0.12 0.14 0.13 0.09 0.08 0.05 0.04 0.02 0.01 0.00 0.00 0.00 0.00 0.00 0.00 0.00 0.00 0.00 0.00 0.00 0.00 0.00 0.00 0.00 0.00 0.00 0.00 0.00 0.00 0.00 0.00 0.00 0.00 0.00 0.00 0.00
0.01 0.03 0.05 0.02 0.02 0.02 0.03 0.10 0.20 0.21 0.18 0.13 0.08 0.07 0.07 0.05 0.03 0.01 0.01 0.01 0.00 0.00 0.00 0.00 0.00 0.00 0.00 0.00 0.00 0.00 0.00 0.00 0.00 0.00 0.00 0.00 0.00 0.00 0.00 0.00 0.00 0.00 0.00
0.00 0.00 0.00 0.01 0.01 0.00 0.00 0.01 0.04 0.17 0.23 0.20 0.20 0.11 0.07 0.05 0.02 0.01 0.02 0.02 0.01 0.00 0.00 0.00 0.00 0.00 0.00 0.00 0.00 0.00 0.00 0.00 0.00 0.00 0.00 0.00 0.00 0.00 0.00 0.00 0.00 0.00 0.00
0.00 0.00 0.00 0.00 0.01 0.00 0.00 0.00 0.02 0.05 0.12 0.24 0.22 0.13 0.09 0.09 0.04 0.02 0.03 0.08 0.07 0.07 0.00 0.00 0.00 0.00 0.00 0.00 0.00 0.00 0.00 0.00 0.00 0.00 0.00 0.00 0.00 0.00 0.00 0.00 0.00 0.01 0.00
0.00 0.00 0.00 0.00 0.00 0.00 0.01 0.00 0.00 0.00 0.01 0.02 0.11 0.17 0.18 0.15 0.11 0.12 0.23 0.26 0.21 0.09 0.04 0.00 0.00 0.00 0.00 0.00 0.00 0.00 0.00 0.00 0.00 0.00 0.00 0.00 0.00 0.00 0.00 0.00 0.00 0.00 0.00
0.00 0.00 0.00 0.00 0.00 0.00 0.00 0.00 0.00 0.00 0.00 0.00 0.02 0.09 0.16 0.12 0.12 0.31 0.48 0.61 0.44 0.32 0.28 0.04 0.00 0.00 0.00 0.00 0.00 0.00 0.00 0.00 0.00 0.00 0.00 0.00 0.00 0.00 0.00 0.00 0.00 0.00 0.00
0.00 0.00 0.00 0.00 0.00 0.00 0.00 0.00 0.00 0.01 0.03 0.01 0.05 0.07 0.03 0.05 0.24 0.37 0.48 0.69 0.86 0.63 0.29 0.09 0.03 0.00 0.00 0.00 0.00 0.00 0.00 0.00 0.00 0.00 0.00 0.00 0.00 0.00 0.00 0.00 0.00 0.00 0.00
0.02 0.01 0.01 0.00 0.00 0.00 0.00 0.00 0.00 0.00 0.01 0.02 0.02 0.06 0.04 0.02 0.09 0.17 0.40 0.60 0.47 0.43 0.11 0.03 0.02 0.03 0.05 0.06 0.04 0.02 0.00 0.00 0.00 0.00 0.00 0.00 0.00 0.00 0.00 0.00 0.00 0.00 0.00
0.01 0.02 0.01 0.00 0.00 0.00 0.00 0.00 0.00 0.00 0.00 0.00 0.00 0.01 0.02 0.05 0.09 0.31 0.57 0.37 0.16 0.07 0.04 0.01 0.01 0.01 0.01 0.04 0.06 0.04 0.00 0.00 0.00 0.03 0.00 0.00 0.00 0.00 0.00 0.00 0.00 0.00 0.01
0.01 0.01 0.00 0.00 0.01 0.00 0.00 0.00 0.00 0.00 0.00 0.00 0.00 0.00 0.01 0.06 0.14 0.30 0.30 0.05 0.01 0.01 0.03 0.00 0.00 0.01 0.04 0.03 0.02 0.09 0.16 0.07 0.08 0.04 0.08 0.10 0.07 0.09 0.06 0.03 0.02 0.03 0.04
0.01 0.02 0.02 0.01 0.01 0.01 0.00 0.00 0.00 0.00 0.00 0.00 0.00 0.00 0.00 0.04 0.06 0.07 0.10 0.07 0.02 0.00 0.00 0.00 0.00 0.00 0.02 0.03 0.08 0.14 0.14 0.19 0.19 0.12 0.08 0.20 0.25 0.33 0.36 0.35 0.29 0.28 0.19
0.01 0.01 0.03 0.02 0.02 0.01 0.01 0.01 0.00 0.00 0.00 0.00 0.00 0.00 0.00 0.05 0.10 0.11 0.12 0.12 0.07 0.03 0.01 0.00 0.05 0.11 0.10 0.13 0.16 0.21 0.18 0.17 0.20 0.16 0.08 0.04 0.10 0.13 0.14 0.21 0.22 0.33 0.38
0.02 0.02 0.02 0.02 0.02 0.01 0.01 0.01 0.01 0.01 0.01 0.00 0.00 0.00 0.01 0.04 0.08 0.09 0.09 0.09 0.11 0.12 0.09 0.05 0.08 0.15 0.21 0.30 0.42 0.49 0.45 0.37 0.35 0.33 0.28 0.27 0.26 0.18 0.14 0.17 0.23 0.22 0.17
0.04 0.03 0.03 0.02 0.03 0.04 0.04 0.02 0.01 0.01 0.01 0.01 0.01 0.00 0.00 0.01 0.03 0.06 0.10 0.08 0.10 0.15 0.15 0.13 0.15 0.23 0.28 0.36 0.40 0.41 0.35 0.42 0.54 0.62 0.58 0.46 0.40 0.32 0.24 0.17 0.22 0.21 0.14
0.03 0.02 0.02 0.03 0.05 0.06 0.04 0.03 0.03 0.04 0.03 0.02 0.02 0.02 0.01 0.01 0.01 0.02 0.04 0.05 0.05 0.07 0.13 0.15 0.17 0.14 0.15 0.18 0.23 0.25 0.18 0.16 0.18 0.25 0.31 0.31 0.27 0.26 0.25 0.20 0.17 0.16 0.12
0.02 0.02 0.02 0.02 0.03 0.03 0.03 0.03 0.02 0.02 0.02 0.02 0.02 0.03 0.02 0.01 0.01 0.01 0.03 0.03 0.03 0.03 0.04 0.04 0.04 0.06 0.07 0.11 0.15 0.19 0.25 0.29 0.28 0.25 0.25 0.26 0.24 0.17 0.19 0.17 0.13 0.10 0.08
0.02 0.02 0.02 0.02 0.02 0.01 0.01 0.01 0.01 0.02 0.02 0.02 0.02 0.03 0.03 0.03 0.02 0.02 0.02 0.03 0.04 0.03 0.03 0.02 0.02 0.03 0.04 0.03 0.07 0.13 0.18 0.18 0.18 0.18 0.13 0.10 0.09 0.10 0.12 0.13 0.16 0.16 0.17

GFSGL_prec_precacc12_081.txt.gz
Total_Precipitation_Accumulation
0.04 0.05 0.05 0.05 0.02 0.02 0.03 0.02 0.04 0.06 0.12 0.27 0.80 0.13 0.14 0.06 0.02 0.04 0.09 0.05 0.03 0.01 0.00 0.01 0.00 0.01 0.00 0.00 0.00 0.00 0.00 0.00 0.00 0.00 0.00 0.00 0.00 0.00 0.00 0.00 0.00 0.00 0.00
0.16 0.16 0.09 0.05 0.05 0.07 0.02 0.01 0.00 0.02 0.03 0.07 0.10 0.12 0.13 0.05 0.08 0.12 0.04 0.04 0.07 0.01 0.00 0.01 0.01 0.00 0.01 0.00 0.00 0.00 0.00 0.00 0.00 0.00 0.00 0.00 0.00 0.00 0.00 0.00 0.00 0.00 0.00
0.16 0.17 0.20 0.19 0.13 0.10 0.06 0.00 0.01 0.01 0.03 0.01 0.02 0.10 0.12 0.10 0.14 0.18 0.11 0.05 0.07 0.02 0.01 0.01 0.00 0.00 0.02 0.00 0.01 0.00 0.00 0.00 0.00 0.00 0.00 0.00 0.00 0.00 0.00 0.00 0.00 0.00 0.00
0.36 0.32 0.30 0.24 0.20 0.17 0.11 0.05 0.02 0.02 0.01 0.01 0.00 0.03 0.06 0.05 0.04 0.08 0.14 0.11 0.09 0.05 0.03 0.01 0.01 0.00 0.01 0.01 0.00 0.00 0.00 0.00 0.00 0.00 0.00 0.00 0.00 0.00 0.00 0.00 0.00 0.00 0.00
0.38 0.49 0.89 1.18 0.54 0.43 0.26 0.20 0.11 0.04 0.01 0.00 0.00 0.00 0.01 0.01 0.00 0.00 0.02 0.04 0.09 0.05 0.06 0.04 0.01 0.00 0.00 0.01 0.00 0.01 0.01 0.00 0.00 0.00 0.00 0.00 0.00 0.00 0.00 0.00 0.00 0.00 0.00
0.41 0.41 0.38 0.92 0.81 0.62 0.59 0.29 0.15 0.08 0.04 0.03 0.02 0.00 0.00 0.00 0.00 0.00 0.00 0.00 0.02 0.04 0.02 0.02 0.00 0.01 0.00 0.00 0.00 0.00 0.01 0.01 0.01 0.00 0.00 0.00 0.00 0.01 0.00 0.00 0.00 0.00 0.00
0.27 0.31 0.33 0.35 0.22 0.15 0.21 0.27 0.24 0.13 0.10 0.06 0.03 0.01 0.03 0.01 0.00 0.00 0.00 0.00 0.01 0.04 0.05 0.03 0.01 0.00 0.00 0.00 0.00 0.00 0.00 0.00 0.00 0.00 0.00 0.00 0.00 0.00 0.00 0.00 0.00 0.00 0.00
0.05 0.04 0.06 0.16 0.13 0.16 0.16 0.23 0.28 0.21 0.13 0.09 0.07 0.07 0.04 0.01 0.00 0.00 0.00 0.00 0.00 0.00 0.01 0.02 0.01 0.00 0.00 0.01 0.01 0.00 0.00 0.00 0.00 0.00 0.00 0.00 0.00 0.00 0.00 0.00 0.00 0.00 0.00
0.06 0.11 0.08 0.03 0.03 0.08 0.14 0.19 0.22 0.17 0.11 0.07 0.05 0.06 0.06 0.02 0.03 0.01 0.04 0.08 0.01 0.00 0.00 0.00 0.00 0.00 0.00 0.00 0.00 0.00 0.00 0.00 0.00 0.00 0.00 0.00 0.00 0.00 0.00 0.00 0.00 0.00 0.00
0.02 0.05 0.05 0.06 0.04 0.05 0.12 0.13 0.18 0.24 0.16 0.13 0.09 0.06 0.04 0.02 0.04 0.05 0.08 0.15 0.12 0.02 0.00 0.00 0.00 0.00 0.00 0.00 0.00 0.00 0.00 0.00 0.00 0.00 0.00 0.00 0.00 0.00 0.00 0.00 0.00 0.00 0.00
0.00 0.01 0.04 0.02 0.02 0.02 0.02 0.10 0.20 0.22 0.24 0.20 0.13 0.10 0.07 0.05 0.04 0.03 0.06 0.05 0.08 0.10 0.01 0.00 0.00 0.00 0.00 0.00 0.00 0.00 0.00 0.00 0.00 0.00 0.00 0.00 0.00 0.00 0.00 0.00 0.00 0.00 0.00
0.00 0.00 0.00 0.00 0.00 0.00 0.00 0.01 0.03 0.16 0.22 0.22 0.23 0.13 0.07 0.05 0.04 0.04 0.08 0.06 0.09 0.14 0.02 0.00 0.00 0.00 0.00 0.00 0.00 0.00 0.00 0.00 0.00 0.00 0.00 0.00 0.00 0.00 0.00 0.00 0.00 0.00 0.00
0.00 0.00 0.00 0.00 0.00 0.00 0.00 0.00 0.00 0.02 0.10 0.19 0.22 0.13 0.09 0.09 0.05 0.07 0.12 0.16 0.12 0.15 0.05 0.04 0.02 0.01 0.00 0.00 0.00 0.00 0.00 0.00 0.00 0.00 0.00 0.00 0.00 0.00 0.00 0.00 0.00 0.01 0.00
0.00 0.00 0.00 0.00 0.00 0.00 0.00 0.00 0.00 0.00 0.00 0.02 0.11 0.17 0.18 0.15 0.12 0.14 0.26 0.27 0.24 0.13 0.07 0.02 0.03 0.02 0.00 0.00 0.00 0.00 0.00 0.00 0.00 0.00 0.00 0.00 0.00 0.00 0.00 0.00 0.00 0.00 0.00
0.00 0.00 0.00 0.00 0.00 0.00 0.00 0.00 0.00 0.00 0.00 0.00 0.02 0.09 0.16 0.12 0.11 0.33 0.52 0.63 0.45 0.37 0.37 0.11 0.06 0.02 0.00 0.00 0.00 0.00 0.00 0.00 0.00 0.00 0.00 0.00 0.00 0.00 0.00 0.00 0.00 0.00 0.00
0.00 0.00 0.00 0.00 0.00 0.00 0.00 0.00 0.00 0.00 0.00 0.00 0.01 0.04 0.03 0.05 0.22 0.32 0.43 0.65 0.81 0.62 0.29 0.10 0.05 0.00 0.00 0.00 0.00 0.01 0.00 0.00 0.00 0.00 0.00 0.00 0.00 0.00 0.00 0.00 0.00 0.00 0.00
0.01 0.00 0.01 0.00 0.00 0.00 0.00 0.00 0.00 0.00 0.00 0.00 0.00 0.01 0.02 0.01 0.07 0.09 0.25 0.49 0.40 0.41 0.11 0.03 0.02 0.03 0.05 0.09 0.05 0.03 0.03 0.07 0.09 0.04 0.01 0.00 0.00 0.00 0.00 0.00 0.00 0.00 0.00
0.00 0.01 0.00 0.00 0.00 0.00 0.00 0.00 0.00 0.00 0.00 0.00 0.00 0.00 0.00 0.01 0.04 0.18 0.39 0.33 0.16 0.07 0.02 0.01 0.00 0.00 0.01 0.04 0.06 0.05 0.01 0.02 0.14 0.27 0.14 0.06 0.07 0.05 0.02 0.00 0.00 0.00 0.00
0.01 0.01 0.00 0.00 0.00 0.00 0.00 0.00 0.00 0.00 0.00 0.00 0.00 0.00 0.00 0.00 0.04 0.14 0.20 0.04 0.01 0.01 0.03 0.00 0.00 0.00 0.01 0.02 0.04 0.14 0.20 0.09 0.19 0.29 0.34 0.43 0.38 0.35 0.16 0.08 0.04 0.04 0.04
0.01 0.02 0.01 0.01 0.01 0.01 0.00 0.00 0.00 0.00 0.00 0.00 0.00 0.00 0.00 0.00 0.00 0.02 0.05 0.03 0.02 0.00 0.00 0.00 0.00 0.00 0.01 0.02 0.06 0.13 0.16 0.24 0.23 0.19 0.16 0.46 0.59 0.73 0.65 0.52 0.34 0.37 0.35
0.01 0.01 0.02 0.02 0.01 0.01 0.01 0.01 0.01 0.00 0.00 0.00 0.00 0.00 0.00 0.00 0.00 0.00 0.00 0.00 0.00 0.00 0.00 0.00 0.05 0.10 0.09 0.13 0.16 0.21 0.23 0.24 0.28 0.28 0.31 0.28 0.34 0.47 0.43 0.45 0.35 0.46 0.52
0.02 0.02 0.02 0.02 0.02 0.01 0.01 0.01 0.01 0.01 0.01 0.01 0.00 0.00 0.00 0.00 0.00 0.00 0.00 0.01 0.02 0.04 0.04 0.03 0.07 0.13 0.21 0.28 0.40 0.45 0.45 0.43 0.50 0.61 0.58 0.63 0.67 0.57 0.50 0.49 0.56 0.50 0.44
0.03 0.02 0.02 0.02 0.02 0.03 0.03 0.02 0.01 0.01 0.01 0.01 0.01 0.00 0.00 0.00 0.00 0.00 0.00 0.01 0.04 0.06 0.07 0.07 0.09 0.17 0.25 0.33 0.39 0.41 0.35 0.42 0.58 0.70 0.80 0.92 1.00 0.93 0.87 0.87 0.82 0.50 0.34
0.03 0.02 0.02 0.02 0.04 0.05 0.04 0.03 0.02 0.04 0.03 0.02 0.02 0.01 0.01 0.01 0.00 0.00 0.00 0.00 0.00 0.02 0.07 0.07 0.07 0.09 0.10 0.13 0.16 0.22 0.17 0.15 0.18 0.26 0.31 0.38 0.52 0.69 0.69 0.59 0.48 0.36 0.24
0.01 0.01 0.02 0.02 0.02 0.03 0.03 0.03 0.02 0.02 0.02 0.02 0.02 0.02 0.02 0.01 0.01 0.01 0.01 0.02 0.01 0.02 0.02 0.02 0.02 0.05 0.05 0.05 0.08 0.15 0.19 0.23 0.24 0.22 0.21 0.24 0.22 0.17 0.20 0.21 0.18 0.15 0.11
0.01 0.02 0.02 0.02 0.02 0.01 0.01 0.01 0.01 0.01 0.01 0.01 0.02 0.02 0.02 0.02 0.01 0.01 0.01 0.02 0.02 0.01 0.02 0.01 0.01 0.01 0.02 0.02 0.03 0.05 0.09 0.10 0.13 0.14 0.10 0.07 0.08 0.07 0.07 0.06 0.08 0.08 0.10

GFSGL_prec_precacc12_084.txt.gz
Total_Precipitation_Accumulation
0.16 0.13 0.11 0.08 0.03 0.02 0.03 0.03 0.06 0.07 0.12 0.26 0.77 0.06 0.09 0.04 0.02 0.02 0.08 0.05 0.03 0.01 0.00 0.01 0.00 0.01 0.00 0.00 0.00 0.00 0.00 0.00 0.00 0.00 0.00 0.00 0.00 0.00 0.00 0.00 0.00 0.00 0.00
0.19 0.21 0.19 0.20 0.17 0.12 0.02 0.01 0.04 0.02 0.03 0.06 0.04 0.08 0.08 0.04 0.08 0.08 0.03 0.04 0.06 0.01 0.00 0.01 0.01 0.00 0.01 0.00 0.00 0.00 0.00 0.00 0.00 0.00 0.00 0.00 0.00 0.00 0.00 0.00 0.00 0.00 0.00
0.32 0.23 0.27 0.31 0.33 0.25 0.13 0.04 0.03 0.02 0.03 0.01 0.01 0.03 0.05 0.05 0.14 0.16 0.09 0.04 0.05 0.02 0.01 0.01 0.00 0.00 0.02 0.00 0.01 0.00 0.00 0.00 0.00 0.00 0.00 0.00 0.00 0.00 0.00 0.00 0.00 0.00 0.00
0.63 0.50 0.44 0.41 0.38 0.31 0.22 0.20 0.15 0.11 0.02 0.01 0.00 0.02 0.02 0.01 0.01 0.04 0.09 0.08 0.06 0.04 0.03 0.01 0.01 0.00 0.01 0.01 0.00 0.00 0.00 0.00 0.00 0.00 0.00 0.00 0.00 0.00 0.00 0.00 0.00 0.00 0.00
0.67 0.75 1.01 1.34 0.83 0.73 0.44 0.43 0.28 0.21 0.13 0.08 0.02 0.01 0.01 0.01 0.00 0.00 0.02 0.03 0.08 0.04 0.06 0.04 0.01 0.00 0.00 0.01 0.00 0.01 0.01 0.00 0.00 0.00 0.00 0.00 0.00 0.00 0.00 0.00 0.00 0.00 0.00
0.42 0.48 0.52 1.02 0.98 0.75 0.79 0.50 0.37 0.25 0.21 0.15 0.12 0.04 0.00 0.00 0.00 0.00 0.00 0.01 0.03 0.04 0.02 0.02 0.00 0.01 0.00 0.00 0.00 0.00 0.01 0.01 0.01 0.00 0.00 0.00 0.00 0.01 0.00 0.00 0.00 0.00 0.00
0.27 0.33 0.37 0.40 0.27 0.21 0.24 0.32 0.33 0.26 0.25 0.17 0.17 0.19 0.13 0.03 0.00 0.02 0.02 0.00 0.02 0.04 0.05 0.03 0.01 0.00 0.00 0.00 0.00 0.00 0.00 0.00 0.00 0.00 0.00 0.00 0.00 0.00 0.00 0.00 0.00 0.00 0.00
0.04 0.04 0.07 0.22 0.34 0.27 0.19 0.25 0.31 0.27 0.24 0.22 0.15 0.15 0.14 0.09 0.07 0.06 0.08 0.02 0.00 0.00 0.01 0.02 0.01 0.00 0.00 0.01 0.01 0.00 0.00 0.00 0.00 0.00 0.00 0.00 0.00 0.00 0.00 0.00 0.00 0.00 0.00
0.02 0.04 0.05 0.03 0.03 0.10 0.18 0.22 0.28 0.26 0.19 0.12 0.14 0.15 0.12 0.09 0.19 0.13 0.22 0.21 0.03 0.00 0.00 0.00 0.00 0.00 0.00 0.01 0.00 0.00 0.00 0.00 0.00 0.00 0.00 0.00 0.00 0.00 0.00 0.00 0.00 0.00 0.00
0.00 0.01 0.02 0.04 0.02 0.04 0.08 0.12 0.15 0.24 0.22 0.19 0.14 0.13 0.11 0.07 0.10 0.11 0.16 0.26 0.20 0.10 0.01 0.00 0.00 0.00 0.00 0.00 0.01 0.00 0.00 0.00 0.00 0.00 0.00 0.00 0.00 0.00 0.00 0.00 0.00 0.00 0.00
0.00 0.00 0.00 0.00 0.01 0.01 0.01 0.03 0.09 0.14 0.21 0.21 0.18 0.20 0.14 0.09 0.09 0.08 0.16 0.09 0.11 0.23 0.13 0.01 0.00 0.01 0.01 0.00 0.00 0.00 0.00 0.00 0.00 0.00 0.00 0.00 0.00 0.00 0.00 0.00 0.00 0.00 0.00
0.00 0.00 0.00 0.00 0.00 0.00 0.00 0.00 0.00 0.03 0.09 0.15 0.19 0.14 0.09 0.07 0.04 0.06 0.15 0.09 0.15 0.16 0.03 0.01 0.00 0.00 0.01 0.00 0.00 0.00 0.00 0.00 0.00 0.00 0.00 0.00 0.00 0.00 0.00 0.00 0.00 0.00 0.00
0.00 0.00 0.00 0.00 0.00 0.00 0.00 0.00 0.00 0.00 0.02 0.08 0.12 0.10 0.09 0.09 0.05 0.08 0.16 0.24 0.21 0.18 0.08 0.06 0.04 0.01 0.00 0.00 0.00 0.00 0.00 0.00 0.00 0.00 0.00 0.00 0.00 0.00 0.00 0.00 0.00 0.01 0.00
0.00 0.00 0.00 0.00 0.00 0.00 0.00 0.00 0.00 0.00 0.00 0.00 0.06 0.12 0.15 0.15 0.12 0.14 0.26 0.27 0.24 0.14 0.08 0.02 0.03 0.02 0.00 0.00 0.00 0.00 0.00 0.00 0.00 0.00 0.00 0.00 0.00 0.00 0.00 0.00 0.00 0.00 0.00
0.00 0.00 0.00 0.00 0.00 0.00 0.00 0.00 0.00 0.00 0.00 0.00 0.01 0.04 0.10 0.11 0.11 0.32 0.49 0.60 0.42 0.34 0.36 0.11 0.06 0.02 0.00 0.00 0.00 0.00 0.00 0.00 0.00 0.00 0.00 0.00 0.00 0.00 0.00 0.00 0.00 0.00 0.00
0.00 0.00 0.00 0.00 0.00 0.00 0.00 0.00 0.00 0.00 0.00 0.00 0.00 0.00 0.01 0.04 0.18 0.28 0.36 0.54 0.69 0.56 0.27 0.10 0.05 0.00 0.00 0.00 0.00 0.02 0.01 0.00 0.01 0.02 0.02 0.01 0.00 0.00 0.00 0.00 0.00 0.00 0.00
0.00 0.00 0.00 0.00 0.00 0.00 0.00 0.00 0.00 0.00 0.00 0.00 0.00 0.00 0.00 0.00 0.01 0.04 0.12 0.26 0.32 0.41 0.11 0.03 0.02 0.03 0.05 0.09 0.05 0.05 0.05 0.12 0.23 0.13 0.07 0.04 0.02 0.00 0.01 0.00 0.00 0.00 0.00
0.00 0.00 0.00 0.00 0.00 0.00 0.00 0.00 0.00 0.00 0.00 0.00 0.00 0.00 0.00 0.00 0.00 0.02 0.05 0.07 0.05 0.06 0.02 0.01 0.00 0.00 0.01 0.04 0.06 0.05 0.01 0.02 0.15 0.27 0.15 0.11 0.22 0.25 0.24 0.14 0.12 0.09 0.04
0.00 0.00 0.00 0.00 0.00 0.00 0.00 0.00 0.00 0.00 0.00 0.00 0.00 0.00 0.00 0.00 0.00 0.00 0.01 0.01 0.00 0.00 0.00 0.00 0.00 0.00 0.01 0.02 0.04 0.13 0.19 0.09 0.19 0.30 0.38 0.60 0.59 0.66 0.51 0.33 0.24 0.17 0.16
0.00 0.01 0.01 0.01 0.00 0.00 0.00 0.00 0.00 0.00 0.00 0.00 0.00 0.00 0.00 0.00 0.00 0.00 0.00 0.00 0.00 0.00 0.00 0.00 0.00 0.00 0.00 0.01 0.05 0.12 0.16 0.23 0.23 0.19 0.17 0.55 0.68 0.97 0.99 0.72 0.49 0.53 0.48
0.01 0.01 0.01 0.01 0.01 0.01 0.01 0.01 0.00 0.00 0.00 0.00 0.00 0.00 0.00 0.00 0.00 0.00 0.00 0.00 0.00 0.00 0.00 0.00 0.05 0.10 0.09 0.12 0.15 0.20 0.23 0.24 0.28 0.30 0.32 0.31 0.48 0.62 0.68 0.76 0.63 0.69 0.73
0.01 0.01 0.01 0.01 0.01 0.01 0.01 0.01 0.01 0.01 0.01 0.00 0.00 0.00 0.00 0.00 0.00 0.00 0.00 0.00 0.00 0.00 0.00 0.02 0.06 0.11 0.17 0.26 0.38 0.40 0.41 0.41 0.50 0.61 0.59 0.65 0.73 0.67 0.62 0.68 0.79 0.83 0.80
0.02 0.01 0.01 0.01 0.02 0.02 0.02 0.01 0.01 0.01 0.01 0.01 0.01 0.01 0.00 0.00 0.00 0.00 0.00 0.00 0.00 0.00 0.00 0.00 0.02 0.09 0.15 0.21 0.30 0.34 0.30 0.39 0.51 0.60 0.72 0.86 0.95 0.91 0.85 0.92 1.17 1.16 0.97
0.01 0.01 0.01 0.01 0.02 0.04 0.03 0.02 0.02 0.03 0.03 0.02 0.01 0.01 0.01 0.01 0.00 0.00 0.00 0.00 0.00 0.00 0.00 0.00 0.00 0.00 0.02 0.05 0.07 0.07 0.07 0.09 0.11 0.18 0.21 0.28 0.42 0.62 0.64 0.56 0.47 0.41 0.33
0.01 0.01 0.01 0.01 0.02 0.02 0.03 0.03 0.02 0.02 0.02 0.02 0.02 0.02 0.01 0.01 0.01 0.01 0.01 0.01 0.01 0.01 0.01 0.00 0.00 0.00 0.00 0.01 0.01 0.02 0.05 0.08 0.07 0.05 0.03 0.03 0.05 0.06 0.12 0.16 0.15 0.12 0.11
0.01 0.01 0.01 0.01 0.01 0.01 0.01 0.01 0.01 0.01 0.01 0.01 0.02 0.02 0.03 0.02 0.01 0.01 0.01 0.01 0.01 0.01 0.01 0.00 0.00 0.01 0.00 0.00 0.01 0.02 0.03 0.04 0.07 0.10 0.08 0.05 0.04 0.03 0.03 0.03 0.04 0.03 0.04

GFSGL_prec_precacc12_087.txt.gz
Total_Precipitation_Accumulation
0.18 0.14 0.11 0.08 0.03 0.05 0.03 0.03 0.07 0.12 0.16 0.25 0.77 0.07 0.09 0.04 0.02 0.02 0.07 0.05 0.02 0.01 0.00 0.01 0.00 0.01 0.00 0.00 0.00 0.00 0.00 0.00 0.00 0.00 0.00 0.00 0.00 0.00 0.00 0.00 0.00 0.00 0.00
0.24 0.22 0.19 0.20 0.17 0.15 0.06 0.03 0.07 0.03 0.05 0.12 0.05 0.07 0.08 0.04 0.08 0.08 0.03 0.04 0.06 0.01 0.00 0.01 0.01 0.00 0.00 0.00 0.00 0.00 0.00 0.00 0.00 0.00 0.00 0.00 0.00 0.00 0.00 0.00 0.00 0.00 0.00
0.50 0.28 0.27 0.31 0.33 0.26 0.16 0.09 0.06 0.05 0.09 0.08 0.05 0.06 0.05 0.05 0.12 0.12 0.08 0.04 0.05 0.02 0.01 0.02 0.00 0.00 0.01 0.00 0.01 0.00 0.00 0.00 0.00 0.00 0.00 0.00 0.00 0.00 0.00 0.00 0.00 0.00 0.00
1.13 0.78 0.47 0.43 0.41 0.35 0.26 0.23 0.16 0.12 0.04 0.03 0.03 0.06 0.04 0.01 0.00 0.03 0.06 0.11 0.09 0.04 0.04 0.03 0.02 0.00 0.01 0.01 0.00 0.00 0.00 0.00 0.00 0.00 0.00 0.00 0.00 0.00 0.00 0.00 0.00 0.00 0.00
0.76 0.97 1.16 1.37 0.87 0.82 0.56 0.57 0.36 0.23 0.13 0.09 0.03 0.02 0.02 0.01 0.00 0.00 0.04 0.08 0.10 0.05 0.06 0.04 0.01 0.00 0.00 0.01 0.00 0.01 0.01 0.00 0.00 0.00 0.00 0.00 0.00 0.00 0.00 0.00 0.00 0.00 0.00
0.35 0.47 0.63 1.13 1.00 0.76 0.83 0.58 0.45 0.36 0.33 0.24 0.15 0.08 0.05 0.03 0.04 0.02 0.00 0.01 0.04 0.04 0.02 0.02 0.00 0.01 0.00 0.00 0.00 0.00 0.02 0.01 0.01 0.00 0.00 0.00 0.00 0.01 0.00 0.00 0.00 0.00 0.00
0.20 0.31 0.37 0.44 0.34 0.24 0.24 0.31 0.33 0.28 0.28 0.24 0.30 0.33 0.22 0.10 0.09 0.10 0.06 0.01 0.02 0.04 0.05 0.03 0.01 0.00 0.00 0.00 0.00 0.00 0.00 0.01 0.01 0.00 0.00 0.00 0.00 0.00 0.00 0.00 0.00 0.00 0.00
0.03 0.04 0.07 0.22 0.34 0.27 0.20 0.24 0.31 0.27 0.24 0.25 0.21 0.25 0.32 0.28 0.26 0.17 0.22 0.06 0.00 0.00 0.00 0.02 0.01 0.00 0.00 0.01 0.01 0.00 0.00 0.00 0.00 0.00 0.00 0.00 0.00 0.00 0.00 0.00 0.00 0.00 0.00
0.00 0.01 0.03 0.03 0.02 0.09 0.17 0.21 0.27 0.26 0.19 0.14 0.17 0.20 0.16 0.25 0.40 0.34 0.35 0.30 0.07 0.02 0.02 0.00 0.01 0.00 0.01 0.05 0.03 0.00 0.00 0.00 0.00 0.00 0.00 0.00 0.00 0.00 0.00 0.00 0.00 0.00 0.00
0.00 0.00 0.00 0.00 0.01 0.02 0.06 0.11 0.10 0.19 0.20 0.18 0.16 0.15 0.14 0.14 0.19 0.21 0.28 0.36 0.27 0.20 0.04 0.00 0.02 0.01 0.01 0.02 0.01 0.00 0.00 0.00 0.00 0.00 0.00 0.00 0.00 0.00 0.00 0.00 0.00 0.00 0.00
0.00 0.00 0.00 0.00 0.00 0.00 0.01 0.03 0.07 0.07 0.13 0.16 0.15 0.17 0.13 0.10 0.12 0.11 0.20 0.16 0.17 0.33 0.17 0.04 0.01 0.03 0.03 0.00 0.00 0.00 0.00 0.00 0.00 0.00 0.00 0.00 0.00 0.00 0.00 0.00 0.00 0.00 0.00
0.00 0.00 0.00 0.00 0.00 0.00 0.00 0.00 0.00 0.00 0.01 0.04 0.07 0.07 0.05 0.03 0.03 0.06 0.16 0.10 0.16 0.16 0.03 0.02 0.03 0.04 0.02 0.03 0.00 0.01 0.01 0.01 0.00 0.00 0.00 0.00 0.00 0.00 0.00 0.00 0.00 0.00 0.00
0.00 0.00 0.00 0.00 0.00 0.00 0.00 0.00 0.00 0.00 0.00 0.00 0.00 0.00 0.01 0.02 0.03 0.08 0.15 0.23 0.20 0.18 0.08 0.06 0.04 0.01 0.00 0.00 0.00 0.00 0.01 0.00 0.00 0.00 0.00 0.00 0.00 0.00 0.00 0.00 0.00 0.00 0.00
0.00 0.00 0.00 0.00 0.00 0.00 0.00 0.00 0.00 0.00 0.00 0.00 0.00 0.00 0.01 0.04 0.05 0.11 0.23 0.19 0.16 0.12 0.08 0.02 0.03 0.02 0.00 0.00 0.00 0.00 0.00 0.00 0.00 0.00 0.00 0.00 0.00 0.00 0.00 0.00 0.00 0.00 0.00
0.00 0.00 0.00 0.00 0.00 0.00 0.00 0.00 0.00 0.00 0.00 0.00 0.00 0.00 0.00 0.01 0.07 0.14 0.27 0.38 0.24 0.24 0.30 0.11 0.06 0.02 0.00 0.00 0.00 0.00 0.00 0.00 0.00 0.00 0.00 0.00 0.00 0.00 0.00 0.00 0.00 0.00 0.00
0.00 0.00 0.00 0.00 0.00 0.00 0.00 0.00 0.00 0.00 0.00 0.00 0.00 0.00 0.00 0.00 0.01 0.07 0.12 0.21 0.27 0.20 0.08 0.09 0.05 0.00 0.00 0.00 0.00 0.02 0.01 0.00 0.01 0.03 0.06 0.04 0.02 0.01 0.00 0.00 0.00 0.00 0.00
0.00 0.00 0.00 0.00 0.00 0.00 0.00 0.00 0.00 0.00 0.00 0.00 0.00 0.00 0.00 0.00 0.00 0.00 0.00 0.01 0.04 0.11 0.05 0.03 0.02 0.03 0.05 0.09 0.05 0.05 0.05 0.12 0.23 0.13 0.07 0.06 0.05 0.02 0.01 0.00 0.00 0.00 0.00
0.00 0.00 0.00 0.00 0.00 0.00 0.00 0.00 0.00 0.00 0.00 0.00 0.00 0.00 0.00 0.00 0.00 0.00 0.00 0.00 0.00 0.02 0.02 0.00 0.00 0.00 0.01 0.04 0.06 0.05 0.01 0.02 0.15 0.27 0.15 0.11 0.22 0.25 0.25 0.15 0.15 0.11 0.07
0.00 0.00 0.00 0.00 0.00 0.00 0.00 0.00 0.00 0.00 0.00 0.00 0.00 0.00 0.00 0.00 0.00 0.00 0.00 0.00 0.00 0.00 0.00 0.00 0.00 0.00 0.01 0.02 0.04 0.13 0.18 0.06 0.16 0.28 0.34 0.54 0.58 0.69 0.53 0.33 0.28 0.25 0.22
0.00 0.00 0.00 0.00 0.00 0.00 0.00 0.00 0.00 0.00 0.00 0.00 0.00 0.00 0.00 0.00 0.00 0.00 0.00 0.00 0.00 0.00 0.00 0.00 0.00 0.00 0.00 0.01 0.05 0.10 0.11 0.15 0.13 0.12 0.13 0.44 0.58 0.88 0.87 0.59 0.38 0.45 0.47
0.00 0.00 0.00 0.00 0.00 0.00 0.01 0.01 0.00 0.00 0.00 0.00 0.00 0.00 0.00 0.00 0.00 0.00 0.00 0.00 0.00 0.00 0.00 0.00 0.00 0.04 0.06 0.08 0.12 0.17 0.19 0.17 0.21 0.24 0.30 0.31 0.49 0.64 0.68 0.74 0.58 0.63 0.67
0.00 0.00 0.00 0.01 0.00 0.01 0.00 0.01 0.01 0.01 0.01 0.00 0.00 0.00 0.00 0.00 0.00 0.00 0.00 0.00 0.00 0.00 0.00 0.00 0.00 0.01 0.03 0.11 0.21 0.29 0.32 0.35 0.42 0.53 0.53 0.57 0.63 0.63 0.61 0.62 0.67 0.74 0.80
0.00 0.00 0.00 0.00 0.01 0.01 0.01 0.01 0.01 0.01 0.01 0.01 0.01 0.01 0.00 0.00 0.00 0.00 0.00 0.00 0.00 0.00 0.00 0.00 0.00 0.00 0.01 0.04 0.14 0.23 0.27 0.36 0.46 0.53 0.68 0.81 0.86 0.78 0.76 0.83 1.00 0.98 0.85
0.00 0.00 0.00 0.00 0.01 0.01 0.01 0.01 0.01 0.03 0.02 0.01 0.01 0.01 0.01 0.01 0.00 0.00 0.00 0.00 0.00 0.00 0.00 0.00 0.00 0.00 0.00 0.00 0.01 0.04 0.07 0.09 0.11 0.15 0.18 0.26 0.41 0.59 0.58 0.49 0.36 0.29 0.24
0.00 0.00 0.00 0.00 0.00 0.01 0.01 0.01 0.01 0.01 0.01 0.01 0.02 0.01 0.01 0.01 0.01 0.01 0.01 0.01 0.01 0.01 0.01 0.00 0.00 0.00 0.00 0.00 0.00 0.01 0.03 0.05 0.05 0.05 0.03 0.02 0.02 0.03 0.04 0.07 0.08 0.10 0.09
0.00 0.00 0.00 0.00 0.01 0.01 0.01 0.01 0.01 0.00 0.01 0.01 0.01 0.01 0.02 0.01 0.01 0.01 0.01 0.01 0.01 0.01 0.01 0.00 0.00 0.01 0.00 0.00 0.00 0.01 0.02 0.02 0.05 0.08 0.07 0.03 0.02 0.02 0.01 0.01 0.01 0.02 0.03

GFSGL_prec_precacc12_090.txt.gz
Total_Precipitation_Accumulation
0.36 0.16 0.11 0.08 0.03 0.05 0.03 0.03 0.07 0.15 0.16 0.16 0.17 0.01 0.05 0.07 0.02 0.00 0.01 0.00 0.00 0.00 0.00 0.00 0.00 0.00 0.00 0.00 0.01 0.00 0.00 0.00 0.00 0.00 0.00 0.00 0.00 0.00 0.00 0.00 0.00 0.00 0.00
0.50 0.31 0.21 0.20 0.17 0.18 0.08 0.06 0.08 0.08 0.15 0.23 0.09 0.04 0.02 0.03 0.03 0.02 0.02 0.04 0.03 0.01 0.00 0.00 0.00 0.00 0.00 0.00 0.01 0.00 0.00 0.00 0.00 0.00 0.00 0.00 0.00 0.00 0.00 0.00 0.00 0.00 0.00
0.85 0.57 0.36 0.31 0.33 0.26 0.16 0.12 0.06 0.06 0.12 0.17 0.11 0.16 0.12 0.05 0.04 0.01 0.03 0.10 0.06 0.05 0.01 0.01 0.02 0.00 0.00 0.00 0.00 0.00 0.00 0.00 0.00 0.00 0.00 0.00 0.00 0.00 0.00 0.00 0.00 0.00 0.00
1.21 0.97 0.53 0.44 0.41 0.35 0.25 0.21 0.15 0.11 0.04 0.05 0.06 0.10 0.08 0.03 0.00 0.00 0.03 0.08 0.07 0.06 0.08 0.04 0.05 0.01 0.00 0.00 0.00 0.00 0.00 0.00 0.00 0.00 0.00 0.00 0.00 0.00 0.00 0.00 0.00 0.00 0.00
0.65 0.85 1.00 0.93 0.77 0.81 0.55 0.52 0.33 0.24 0.17 0.11 0.05 0.04 0.02 0.01 0.00 0.00 0.02 0.07 0.03 0.02 0.03 0.02 0.02 0.04 0.02 0.00 0.01 0.02 0.02 0.01 0.00 0.00 0.00 0.00 0.00 0.00 0.00 0.00 0.00 0.00 0.00
0.16 0.25 0.41 0.70 0.79 0.67 0.78 0.55 0.41 0.35 0.33 0.24 0.16 0.10 0.08 0.05 0.07 0.02 0.00 0.01 0.04 0.01 0.02 0.01 0.01 0.02 0.01 0.02 0.01 0.00 0.02 0.01 0.00 0.00 0.00 0.00 0.00 0.00 0.00 0.00 0.00 0.00 0.00
0.08 0.20 0.26 0.26 0.18 0.14 0.19 0.28 0.29 0.24 0.26 0.22 0.30 0.36 0.26 0.16 0.13 0.15 0.11 0.02 0.01 0.00 0.01 0.00 0.00 0.00 0.01 0.04 0.06 0.03 0.02 0.01 0.01 0.00 0.00 0.00 0.00 0.00 0.00 0.00 0.00 0.00 0.00
0.01 0.03 0.05 0.20 0.30 0.17 0.14 0.20 0.24 0.21 0.20 0.22 0.19 0.25 0.35 0.38 0.35 0.25 0.26 0.08 0.00 0.00 0.00 0.00 0.00 0.00 0.02 0.03 0.01 0.02 0.02 0.02 0.00 0.01 0.00 0.00 0.00 0.00 0.00 0.00 0.00 0.00 0.00
0.00 0.01 0.02 0.02 0.02 0.03 0.09 0.12 0.18 0.18 0.14 0.09 0.14 0.17 0.16 0.27 0.46 0.42 0.38 0.31 0.08 0.02 0.02 0.01 0.01 0.00 0.03 0.06 0.04 0.00 0.00 0.00 0.00 0.00 0.00 0.00 0.00 0.00 0.00 0.00 0.00 0.00 0.00
0.00 0.00 0.00 0.00 0.00 0.00 0.01 0.06 0.08 0.16 0.14 0.12 0.13 0.12 0.12 0.13 0.19 0.22 0.29 0.37 0.27 0.21 0.06 0.02 0.06 0.01 0.02 0.04 0.02 0.00 0.00 0.00 0.00 0.00 0.00 0.00 0.00 0.00 0.00 0.00 0.00 0.00 0.00
0.00 0.00 0.00 0.00 0.00 0.00 0.00 0.00 0.01 0.03 0.08 0.12 0.12 0.14 0.09 0.07 0.09 0.09 0.19 0.15 0.17 0.33 0.18 0.06 0.03 0.05 0.04 0.01 0.01 0.00 0.03 0.01 0.00 0.00 0.00 0.00 0.00 0.00 0.00 0.00 0.00 0.00 0.00
0.00 0.00 0.00 0.00 0.00 0.00 0.00 0.00 0.00 0.00 0.00 0.02 0.03 0.05 0.04 0.02 0.02 0.05 0.14 0.08 0.15 0.16 0.03 0.02 0.04 0.08 0.06 0.07 0.04 0.06 0.06 0.03 0.00 0.00 0.00 0.00 0.00 0.00 0.00 0.00 0.00 0.00 0.00
0.00 0.00 0.00 0.00 0.00 0.00 0.00 0.00 0.00 0.00 0.00 0.00 0.00 0.00 0.01 0.01 0.01 0.06 0.13 0.16 0.14 0.11 0.08 0.06 0.04 0.02 0.01 0.01 0.01 0.02 0.03 0.00 0.00 0.00 0.00 0.00 0.00 0.00 0.00 0.00 0.00 0.00 0.00
0.00 0.00 0.00 0.00 0.00 0.00 0.00 0.00 0.00 0.00 0.00 0.00 0.00 0.00 0.00 0.00 0.01 0.02 0.03 0.01 0.03 0.05 0.04 0.02 0.03 0.02 0.00 0.00 0.00 0.00 0.00 0.00 0.00 0.00 0.00 0.00 0.00 0.00 0.00 0.00 0.00 0.00 0.00
0.00 0.00 0.00 0.00 0.00 0.00 0.00 0.00 0.00 0.00 0.00 0.00 0.00 0.00 0.00 0.00 0.00 0.03 0.05 0.02 0.01 0.05 0.09 0.07 0.06 0.02 0.00 0.00 0.00 0.00 0.00 0.00 0.00 0.00 0.00 0.00 0.00 0.00 0.00 0.00 0.00 0.00 0.00
0.00 0.00 0.00 0.00 0.00 0.00 0.00 0.00 0.00 0.00 0.00 0.00 0.00 0.00 0.00 0.00 0.00 0.00 0.00 0.00 0.01 0.01 0.00 0.01 0.01 0.00 0.00 0.00 0.00 0.02 0.01 0.00 0.01 0.03 0.06 0.04 0.02 0.01 0.00 0.00 0.00 0.00 0.00
0.00 0.00 0.00 0.00 0.00 0.00 0.00 0.00 0.00 0.00 0.00 0.00 0.00 0.00 0.00 0.00 0.00 0.00 0.00 0.00 0.00 0.00 0.00 0.00 0.00 0.00 0.00 0.03 0.01 0.03 0.04 0.12 0.23 0.13 0.07 0.06 0.05 0.02 0.02 0.01 0.00 0.00 0.00
0.00 0.00 0.00 0.00 0.00 0.00 0.00 0.00 0.00 0.00 0.00 0.00 0.00 0.00 0.00 0.00 0.00 0.00 0.00 0.00 0.00 0.00 0.00 0.00 0.00 0.00 0.00 0.00 0.00 0.00 0.01 0.02 0.14 0.25 0.15 0.11 0.22 0.26 0.26 0.16 0.16 0.12 0.07
0.00 0.00 0.00 0.00 0.00 0.00 0.00 0.00 0.00 0.00 0.00 0.00 0.00 0.00 0.00 0.00 0.00 0.00 0.00 0.00 0.00 0.00 0.00 0.00 0.00 0.00 0.00 0.00 0.02 0.05 0.04 0.03 0.11 0.27 0.31 0.50 0.54 0.63 0.49 0.32 0.28 0.25 0.21
0.00 0.00 0.00 0.00 0.00 0.00 0.00 0.00 0.00 0.00 0.00 0.00 0.00 0.00 0.00 0.00 0.00 0.00 0.00 0.00 0.00 0.00 0.00 0.00 0.00 0.00 0.00 0.00 0.00 0.00 0.03 0.06 0.04 0.08 0.10 0.37 0.47 0.70 0.71 0.44 0.26 0.31 0.34
0.00 0.00 0.00 0.00 0.00 0.00 0.00 0.00 0.00 0.00 0.00 0.00 0.00 0.00 0.00 0.00 0.00 0.00 0.00 0.00 0.00 0.00 0.00 0.00 0.00 0.00 0.00 0.01 0.02 0.02 0.07 0.10 0.10 0.16 0.27 0.31 0.45 0.56 0.62 0.63 0.51 0.46 0.44
0.00 0.00 0.00 0.00 0.00 0.00 0.00 0.00 0.00 0.00 0.00 0.00 0.00 0.00 0.00 0.00 0.00 0.00 0.00 0.00 0.00 0.00 0.00 0.00 0.00 0.00 0.00 0.00 0.02 0.02 0.03 0.08 0.18 0.32 0.35 0.43 0.51 0.54 0.55 0.59 0.65 0.72 0.76
0.00 0.00 0.00 0.00 0.00 0.00 0.00 0.00 0.00 0.00 0.00 0.01 0.01 0.01 0.00 0.00 0.00 0.00 0.00 0.00 0.00 0.00 0.00 0.00 0.00 0.00 0.00 0.00 0.02 0.03 0.03 0.03 0.06 0.11 0.25 0.48 0.65 0.67 0.70 0.83 1.02 1.00 0.87
0.00 0.00 0.00 0.00 0.00 0.00 0.00 0.00 0.00 0.01 0.01 0.01 0.01 0.01 0.01 0.01 0.00 0.00 0.00 0.00 0.00 0.00 0.00 0.00 0.00 0.00 0.00 0.00 0.00 0.01 0.01 0.02 0.03 0.03 0.04 0.11 0.28 0.48 0.47 0.42 0.35 0.30 0.25
0.00 0.00 0.00 0.00 0.00 0.00 0.00 0.00 0.00 0.00 0.00 0.00 0.00 0.00 0.00 0.00 0.01 0.01 0.01 0.00 0.00 0.01 0.01 0.00 0.00 0.00 0.00 0.00 0.00 0.00 0.01 0.02 0.02 0.03 0.02 0.02 0.02 0.03 0.05 0.07 0.09 0.10 0.10
0.00 0.00 0.00 0.00 0.00 0.00 0.00 0.00 0.00 0.00 0.00 0.00 0.01 0.01 0.01 0.00 0.00 0.01 0.00 0.00 0.00 0.01 0.01 0.01 0.00 0.01 0.00 0.00 0.00 0.01 0.01 0.01 0.02 0.04 0.03 0.01 0.02 0.03 0.02 0.02 0.02 0.02 0.03

GFSGL_prec_precacc12_093.txt.gz
Total_Precipitation_Accumulation
0.47 0.18 0.11 0.10 0.07 0.06 0.02 0.01 0.05 0.12 0.09 0.15 0.12 0.00 0.05 0.12 0.04 0.05 0.03 0.01 0.00 0.00 0.00 0.00 0.00 0.00 0.00 0.00 0.01 0.00 0.00 0.00 0.00 0.00 0.00 0.00 0.00 0.00 0.00 0.00 0.00 0.00 0.00
0.48 0.45 0.25 0.22 0.18 0.16 0.08 0.05 0.08 0.07 0.12 0.21 0.10 0.04 0.06 0.11 0.08 0.05 0.04 0.05 0.06 0.03 0.01 0.00 0.00 0.00 0.00 0.00 0.01 0.00 0.00 0.00 0.00 0.00 0.00 0.00 0.00 0.00 0.00 0.00 0.00 0.00 0.00
0.98 0.69 0.38 0.26 0.26 0.19 0.13 0.12 0.05 0.05 0.15 0.20 0.12 0.18 0.17 0.09 0.03 0.01 0.05 0.14 0.11 0.11 0.04 0.02 0.02 0.00 0.00 0.00 0.00 0.00 0.00 0.00 0.00 0.00 0.00 0.00 0.00 0.00 0.00 0.00 0.00 0.00 0.00
1.23 1.27 0.59 0.31 0.26 0.21 0.15 0.18 0.14 0.10 0.04 0.05 0.07 0.10 0.09 0.06 0.02 0.01 0.03 0.08 0.11 0.16 0.15 0.09 0.07 0.01 0.00 0.01 0.00 0.00 0.00 0.00 0.00 0.00 0.00 0.00 0.00 0.00 0.00 0.00 0.00 0.00 0.00
0.54 0.84 0.84 0.51 0.40 0.40 0.31 0.37 0.28 0.23 0.16 0.10 0.05 0.04 0.03 0.04 0.05 0.04 0.03 0.07 0.04 0.11 0.10 0.06 0.05 0.09 0.02 0.00 0.01 0.06 0.05 0.03 0.00 0.00 0.00 0.00 0.00 0.00 0.00 0.00 0.00 0.00 0.00
0.05 0.13 0.29 0.36 0.42 0.26 0.24 0.29 0.30 0.29 0.31 0.23 0.15 0.11 0.09 0.06 0.09 0.03 0.01 0.01 0.04 0.01 0.03 0.10 0.11 0.06 0.01 0.02 0.01 0.01 0.04 0.05 0.05 0.02 0.00 0.00 0.01 0.01 0.00 0.00 0.00 0.00 0.00
0.05 0.03 0.05 0.10 0.14 0.16 0.08 0.07 0.10 0.15 0.20 0.20 0.29 0.35 0.25 0.17 0.14 0.16 0.11 0.02 0.02 0.02 0.03 0.05 0.07 0.01 0.03 0.10 0.13 0.04 0.02 0.02 0.02 0.03 0.01 0.01 0.01 0.02 0.02 0.01 0.00 0.00 0.00
0.02 0.01 0.01 0.06 0.21 0.13 0.07 0.05 0.05 0.07 0.12 0.17 0.15 0.19 0.31 0.37 0.35 0.25 0.26 0.08 0.00 0.00 0.01 0.02 0.02 0.04 0.09 0.09 0.07 0.06 0.08 0.05 0.03 0.02 0.00 0.00 0.01 0.02 0.02 0.00 0.00 0.00 0.00
0.01 0.00 0.02 0.01 0.00 0.02 0.05 0.05 0.09 0.11 0.09 0.07 0.12 0.14 0.10 0.24 0.43 0.40 0.33 0.23 0.07 0.02 0.02 0.02 0.03 0.01 0.07 0.08 0.04 0.00 0.00 0.00 0.00 0.00 0.00 0.00 0.00 0.00 0.00 0.00 0.00 0.00 0.00
0.00 0.00 0.00 0.00 0.00 0.00 0.01 0.04 0.03 0.05 0.07 0.07 0.08 0.09 0.10 0.12 0.16 0.16 0.22 0.22 0.15 0.20 0.09 0.03 0.10 0.05 0.12 0.10 0.03 0.01 0.00 0.00 0.00 0.00 0.00 0.00 0.00 0.00 0.00 0.00 0.00 0.00 0.00
0.00 0.00 0.00 0.00 0.00 0.00 0.00 0.00 0.00 0.01 0.03 0.05 0.08 0.11 0.09 0.06 0.09 0.08 0.15 0.11 0.10 0.23 0.17 0.07 0.04 0.11 0.12 0.12 0.08 0.07 0.06 0.03 0.04 0.01 0.00 0.00 0.00 0.00 0.00 0.00 0.00 0.00 0.00
0.00 0.00 0.00 0.00 0.00 0.00 0.00 0.00 0.00 0.00 0.00 0.00 0.01 0.04 0.03 0.01 0.00 0.02 0.07 0.05 0.07 0.02 0.01 0.02 0.04 0.10 0.07 0.11 0.09 0.11 0.09 0.04 0.01 0.00 0.00 0.00 0.00 0.00 0.00 0.00 0.00 0.00 0.00
0.00 0.00 0.00 0.00 0.00 0.00 0.00 0.00 0.00 0.00 0.00 0.00 0.00 0.00 0.01 0.01 0.00 0.02 0.04 0.08 0.08 0.03 0.03 0.02 0.02 0.01 0.01 0.01 0.01 0.02 0.04 0.00 0.00 0.00 0.00 0.00 0.00 0.00 0.00 0.00 0.00 0.00 0.00
0.00 0.00 0.00 0.00 0.00 0.00 0.00 0.00 0.00 0.00 0.00 0.00 0.00 0.00 0.00 0.00 0.00 0.00 0.00 0.00 0.00 0.00 0.01 0.00 0.00 0.00 0.00 0.00 0.00 0.00 0.00 0.00 0.00 0.00 0.00 0.00 0.00 0.00 0.00 0.00 0.00 0.00 0.00
0.00 0.00 0.00 0.00 0.00 0.00 0.00 0.00 0.00 0.00 0.00 0.00 0.00 0.00 0.00 0.00 0.00 0.00 0.00 0.00 0.00 0.00 0.00 0.00 0.00 0.00 0.00 0.00 0.00 0.00 0.00 0.00 0.00 0.00 0.00 0.00 0.00 0.00 0.00 0.00 0.00 0.00 0.00
0.00 0.00 0.00 0.00 0.00 0.00 0.00 0.00 0.00 0.00 0.00 0.00 0.00 0.00 0.00 0.00 0.00 0.00 0.00 0.00 0.00 0.00 0.00 0.00 0.00 0.00 0.00 0.00 0.00 0.01 0.00 0.00 0.01 0.03 0.06 0.04 0.02 0.01 0.00 0.00 0.00 0.00 0.00
0.00 0.00 0.00 0.00 0.00 0.00 0.00 0.00 0.00 0.00 0.00 0.00 0.00 0.00 0.00 0.00 0.00 0.00 0.00 0.00 0.00 0.00 0.00 0.00 0.00 0.00 0.00 0.00 0.00 0.02 0.01 0.05 0.15 0.10 0.06 0.06 0.05 0.02 0.02 0.01 0.00 0.00 0.00
0.00 0.00 0.00 0.00 0.00 0.00 0.00 0.00 0.00 0.00 0.00 0.00 0.00 0.00 0.00 0.00 0.00 0.00 0.00 0.00 0.00 0.00 0.00 0.00 0.00 0.00 0.00 0.00 0.00 0.00 0.00 0.00 0.00 0.01 0.01 0.06 0.16 0.21 0.25 0.16 0.16 0.13 0.09
0.00 0.00 0.00 0.00 0.00 0.00 0.00 0.00 0.00 0.00 0.00 0.00 0.00 0.00 0.00 0.00 0.00 0.00 0.00 0.00 0.00 0.00 0.00 0.00 0.00 0.00 0.00 0.00 0.00 0.00 0.00 0.00 0.00 0.01 0.04 0.17 0.23 0.35 0.40 0.27 0.26 0.23 0.20
0.00 0.00 0.00 0.00 0.00 0.00 0.00 0.00 0.00 0.00 0.00 0.00 0.00 0.00 0.00 0.00 0.00 0.00 0.00 0.00 0.00 0.00 0.00 0.00 0.00 0.00 0.00 0.00 0.00 0.00 0.00 0.00 0.00 0.01 0.02 0.11 0.12 0.29 0.41 0.27 0.20 0.21 0.19
0.00 0.00 0.00 0.00 0.00 0.00 0.00 0.00 0.00 0.00 0.00 0.00 0.00 0.00 0.00 0.00 0.00 0.00 0.00 0.00 0.00 0.00 0.00 0.00 0.00 0.00 0.00 0.00 0.00 0.01 0.01 0.01 0.02 0.04 0.05 0.08 0.21 0.21 0.30 0.37 0.34 0.31 0.29
0.00 0.00 0.00 0.00 0.00 0.00 0.00 0.00 0.00 0.00 0.00 0.00 0.00 0.00 0.00 0.00 0.00 0.00 0.00 0.00 0.00 0.00 0.00 0.00 0.00 0.00 0.00 0.00 0.00 0.00 0.01 0.02 0.03 0.04 0.05 0.07 0.10 0.16 0.18 0.25 0.30 0.41 0.46
0.00 0.00 0.00 0.00 0.00 0.00 0.00 0.00 0.00 0.00 0.00 0.00 0.00 0.00 0.00 0.00 0.00 0.00 0.00 0.00 0.00 0.00 0.00 0.00 0.00 0.00 0.00 0.00 0.01 0.02 0.03 0.02 0.02 0.02 0.03 0.02 0.04 0.06 0.06 0.14 0.42 0.72 0.67
0.00 0.00 0.00 0.00 0.00 0.00 0.00 0.00 0.00 0.00 0.00 0.00 0.00 0.00 0.00 0.00 0.00 0.00 0.00 0.00 0.00 0.00 0.00 0.00 0.00 0.00 0.00 0.00 0.00 0.01 0.01 0.02 0.03 0.02 0.02 0.02 0.02 0.05 0.03 0.03 0.05 0.11 0.14
0.00 0.00 0.00 0.00 0.00 0.00 0.00 0.00 0.00 0.00 0.00 0.00 0.00 0.00 0.00 0.00 0.00 0.00 0.00 0.00 0.00 0.00 0.00 0.00 0.00 0.00 0.00 0.00 0.00 0.00 0.01 0.03 0.02 0.03 0.02 0.02 0.02 0.02 0.02 0.02 0.03 0.04 0.05
0.00 0.00 0.00 0.00 0.00 0.00 0.00 0.00 0.00 0.00 0.00 0.00 0.00 0.00 0.00 0.00 0.00 0.00 0.00 0.00 0.00 0.00 0.00 0.00 0.00 0.01 0.00 0.00 0.00 0.01 0.01 0.01 0.02 0.04 0.03 0.01 0.02 0.02 0.02 0.02 0.02 0.02 0.03

GFSGL_prec_precacc12_096.txt.gz
Total_Precipitation_Accumulation
0.36 0.10 0.14 0.14 0.07 0.09 0.09 0.09 0.11 0.15 0.10 0.23 0.21 0.08 0.17 0.22 0.12 0.15 0.09 0.01 0.00 0.01 0.00 0.00 0.00 0.00 0.00 0.00 0.01 0.00 0.00 0.00 0.00 0.00 0.00 0.00 0.00 0.00 0.00 0.00 0.00 0.00 0.00
0.47 0.40 0.15 0.10 0.11 0.12 0.09 0.10 0.12 0.14 0.22 0.30 0.15 0.14 0.26 0.13 0.12 0.10 0.08 0.09 0.08 0.04 0.02 0.00 0.00 0.00 0.00 0.00 0.01 0.00 0.00 0.00 0.00 0.00 0.00 0.00 0.00 0.00 0.00 0.00 0.00 0.00 0.00
0.89 0.71 0.36 0.22 0.16 0.09 0.08 0.10 0.06 0.09 0.29 0.26 0.21 0.29 0.29 0.19 0.13 0.12 0.09 0.14 0.11 0.12 0.05 0.04 0.03 0.00 0.00 0.00 0.00 0.00 0.00 0.00 0.00 0.00 0.00 0.00 0.00 0.00 0.00 0.00 0.00 0.00 0.00
1.10 1.19 0.54 0.21 0.12 0.11 0.05 0.04 0.03 0.04 0.08 0.06 0.08 0.15 0.14 0.07 0.02 0.02 0.04 0.08 0.13 0.17 0.16 0.09 0.08 0.03 0.02 0.03 0.01 0.00 0.00 0.00 0.00 0.00 0.00 0.00 0.00 0.00 0.00 0.00 0.00 0.00 0.00
0.31 0.62 0.76 0.40 0.17 0.15 0.16 0.16 0.10 0.06 0.05 0.04 0.04 0.04 0.04 0.06 0.07 0.05 0.02 0.07 0.05 0.11 0.10 0.07 0.07 0.13 0.05 0.02 0.02 0.08 0.06 0.03 0.00 0.00 0.00 0.00 0.00 0.00 0.00 0.00 0.00 0.00 0.00
0.04 0.08 0.17 0.27 0.28 0.21 0.06 0.08 0.08 0.12 0.14 0.12 0.06 0.08 0.10 0.08 0.11 0.04 0.01 0.00 0.02 0.01 0.05 0.14 0.13 0.07 0.04 0.05 0.01 0.02 0.05 0.07 0.06 0.03 0.00 0.00 0.01 0.01 0.01 0.00 0.00 0.00 0.00
0.05 0.05 0.02 0.05 0.09 0.15 0.17 0.05 0.02 0.02 0.05 0.09 0.15 0.17 0.15 0.14 0.13 0.13 0.10 0.02 0.03 0.05 0.05 0.10 0.09 0.02 0.14 0.17 0.17 0.06 0.03 0.03 0.03 0.07 0.03 0.02 0.03 0.06 0.05 0.02 0.01 0.00 0.00
0.03 0.02 0.01 0.00 0.00 0.02 0.04 0.03 0.02 0.00 0.00 0.04 0.07 0.11 0.21 0.29 0.28 0.19 0.18 0.07 0.00 0.00 0.03 0.07 0.04 0.10 0.16 0.11 0.07 0.07 0.11 0.07 0.09 0.05 0.02 0.04 0.05 0.05 0.05 0.02 0.00 0.00 0.00
0.03 0.01 0.02 0.01 0.00 0.00 0.00 0.01 0.03 0.02 0.00 0.02 0.04 0.05 0.05 0.18 0.27 0.29 0.16 0.10 0.05 0.02 0.03 0.05 0.08 0.04 0.12 0.12 0.05 0.00 0.01 0.02 0.03 0.02 0.01 0.02 0.01 0.00 0.00 0.00 0.00 0.00 0.00
0.01 0.01 0.00 0.00 0.00 0.00 0.00 0.00 0.00 0.00 0.00 0.01 0.04 0.03 0.03 0.07 0.10 0.11 0.13 0.12 0.07 0.12 0.07 0.04 0.13 0.10 0.16 0.12 0.04 0.01 0.01 0.02 0.02 0.04 0.01 0.02 0.04 0.02 0.05 0.03 0.00 0.00 0.00
0.00 0.00 0.00 0.00 0.00 0.00 0.00 0.00 0.00 0.00 0.00 0.01 0.02 0.01 0.01 0.02 0.03 0.02 0.05 0.07 0.07 0.11 0.05 0.06 0.04 0.12 0.12 0.14 0.09 0.07 0.06 0.03 0.05 0.02 0.00 0.00 0.00 0.00 0.00 0.01 0.05 0.03 0.01
0.00 0.00 0.00 0.00 0.00 0.00 0.00 0.00 0.00 0.00 0.00 0.00 0.00 0.02 0.01 0.00 0.00 0.00 0.01 0.01 0.01 0.00 0.00 0.01 0.04 0.10 0.06 0.11 0.10 0.11 0.09 0.04 0.01 0.00 0.00 0.00 0.00 0.00 0.00 0.00 0.00 0.00 0.00
0.00 0.00 0.00 0.00 0.00 0.00 0.00 0.00 0.00 0.00 0.00 0.00 0.00 0.00 0.00 0.01 0.00 0.00 0.00 0.00 0.00 0.00 0.00 0.00 0.00 0.01 0.01 0.01 0.01 0.02 0.03 0.00 0.00 0.00 0.00 0.00 0.00 0.00 0.00 0.00 0.00 0.00 0.00
0.00 0.00 0.00 0.00 0.00 0.00 0.00 0.00 0.00 0.00 0.00 0.00 0.00 0.00 0.00 0.00 0.00 0.00 0.00 0.00 0.00 0.00 0.00 0.00 0.00 0.00 0.00 0.00 0.00 0.00 0.00 0.00 0.00 0.00 0.00 0.00 0.00 0.00 0.00 0.00 0.00 0.00 0.00
0.00 0.00 0.00 0.00 0.00 0.00 0.00 0.00 0.00 0.00 0.00 0.00 0.00 0.00 0.00 0.00 0.00 0.00 0.00 0.00 0.00 0.00 0.00 0.00 0.00 0.00 0.00 0.00 0.00 0.00 0.00 0.00 0.00 0.00 0.00 0.00 0.00 0.00 0.00 0.00 0.00 0.00 0.00
0.00 0.00 0.00 0.00 0.00 0.00 0.00 0.00 0.00 0.00 0.00 0.00 0.00 0.00 0.00 0.00 0.00 0.00 0.00 0.00 0.00 0.00 0.00 0.00 0.00 0.00 0.00 0.00 0.00 0.00 0.00 0.00 0.00 0.01 0.04 0.03 0.02 0.01 0.00 0.00 0.00 0.00 0.00
0.00 0.00 0.00 0.00 0.00 0.00 0.00 0.00 0.00 0.00 0.00 0.00 0.00 0.00 0.00 0.00 0.00 0.00 0.00 0.00 0.00 0.00 0.00 0.00 0.00 0.00 0.00 0.00 0.00 0.00 0.00 0.00 0.00 0.00 0.00 0.02 0.03 0.01 0.01 0.00 0.00 0.00 0.00
0.00 0.00 0.00 0.00 0.00 0.00 0.00 0.00 0.00 0.00 0.00 0.00 0.00 0.00 0.00 0.00 0.00 0.00 0.00 0.00 0.00 0.00 0.00 0.00 0.00 0.00 0.00 0.00 0.00 0.00 0.00 0.00 0.00 0.00 0.00 0.00 0.01 0.01 0.02 0.02 0.04 0.04 0.04
0.00 0.00 0.00 0.00 0.00 0.00 0.00 0.00 0.00 0.00 0.00 0.00 0.00 0.00 0.00 0.00 0.00 0.00 0.00 0.00 0.00 0.00 0.00 0.00 0.00 0.00 0.00 0.00 0.00 0.00 0.00 0.00 0.00 0.00 0.00 0.01 0.01 0.05 0.04 0.03 0.06 0.10 0.08
0.00 0.00 0.00 0.00 0.00 0.00 0.00 0.00 0.00 0.00 0.00 0.00 0.00 0.00 0.00 0.00 0.00 0.00 0.00 0.00 0.00 0.00 0.00 0.00 0.00 0.00 0.00 0.00 0.00 0.00 0.00 0.00 0.00 0.00 0.01 0.02 0.03 0.05 0.06 0.07 0.05 0.05 0.06
0.00 0.00 0.00 0.00 0.00 0.00 0.00 0.00 0.00 0.00 0.00 0.00 0.00 0.00 0.00 0.00 0.00 0.00 0.00 0.00 0.00 0.00 0.00 0.00 0.00 0.00 0.00 0.00 0.00 0.00 0.00 0.00 0.01 0.01 0.02 0.04 0.06 0.07 0.05 0.05 0.06 0.07 0.07
0.00 0.00 0.00 0.00 0.00 0.00 0.00 0.00 0.00 0.00 0.00 0.00 0.00 0.00 0.00 0.00 0.00 0.00 0.00 0.00 0.00 0.00 0.00 0.00 0.00 0.00 0.00 0.00 0.00 0.00 0.01 0.02 0.02 0.03 0.04 0.04 0.03 0.03 0.04 0.05 0.06 0.07 0.09
0.00 0.00 0.00 0.00 0.00 0.00 0.00 0.00 0.00 0.00 0.00 0.00 0.00 0.00 0.00 0.00 0.00 0.00 0.00 0.00 0.00 0.00 0.00 0.00 0.00 0.00 0.00 0.00 0.01 0.02 0.02 0.01 0.01 0.01 0.02 0.02 0.04 0.04 0.04 0.04 0.04 0.04 0.04
0.00 0.00 0.00 0.00 0.00 0.00 0.00 0.00 0.00 0.00 0.00 0.00 0.00 0.00 0.00 0.00 0.00 0.00 0.00 0.00 0.00 0.00 0.00 0.00 0.00 0.00 0.00 0.00 0.00 0.01 0.01 0.01 0.02 0.02 0.02 0.02 0.02 0.05 0.03 0.03 0.03 0.03 0.03
0.00 0.00 0.00 0.00 0.00 0.00 0.00 0.00 0.00 0.00 0.00 0.00 0.00 0.00 0.00 0.00 0.00 0.00 0.00 0.00 0.00 0.00 0.00 0.00 0.00 0.00 0.00 0.00 0.00 0.00 0.00 0.01 0.01 0.02 0.02 0.01 0.02 0.02 0.02 0.02 0.03 0.03 0.03
0.00 0.00 0.00 0.00 0.00 0.00 0.00 0.00 0.00 0.00 0.00 0.00 0.00 0.00 0.00 0.00 0.00 0.00 0.00 0.00 0.00 0.00 0.00 0.00 0.00 0.00 0.00 0.00 0.00 0.01 0.01 0.01 0.02 0.03 0.02 0.01 0.02 0.02 0.02 0.02 0.02 0.02 0.02

GFSGL_prec_precacc12_099.txt.gz
Total_Precipitation_Accumulation
0.37 0.16 0.25 0.14 0.08 0.06 0.08 0.09 0.10 0.11 0.15 0.27 0.20 0.08 0.17 0.22 0.12 0.15 0.09 0.03 0.01 0.01 0.00 0.00 0.00 0.00 0.00 0.00 0.01 0.00 0.00 0.00 0.00 0.00 0.00 0.00 0.00 0.00 0.00 0.00 0.00 0.00 0.00
0.47 0.47 0.25 0.11 0.12 0.11 0.07 0.09 0.09 0.14 0.21 0.30 0.20 0.26 0.27 0.13 0.12 0.15 0.08 0.09 0.08 0.04 0.02 0.00 0.00 0.00 0.00 0.00 0.01 0.00 0.00 0.00 0.00 0.00 0.00 0.00 0.00 0.00 0.00 0.00 0.00 0.00 0.00
0.78 0.77 0.48 0.25 0.20 0.12 0.12 0.06 0.04 0.08 0.25 0.19 0.19 0.33 0.29 0.20 0.15 0.14 0.08 0.14 0.11 0.12 0.05 0.03 0.03 0.00 0.00 0.00 0.00 0.00 0.00 0.00 0.00 0.00 0.00 0.00 0.00 0.00 0.00 0.00 0.00 0.00 0.00
0.61 0.98 0.58 0.22 0.10 0.11 0.08 0.08 0.03 0.04 0.08 0.03 0.05 0.12 0.12 0.09 0.05 0.02 0.02 0.04 0.10 0.16 0.15 0.08 0.06 0.03 0.02 0.03 0.01 0.00 0.00 0.00 0.00 0.00 0.00 0.00 0.00 0.00 0.00 0.00 0.00 0.00 0.00
0.19 0.40 0.61 0.39 0.15 0.09 0.10 0.12 0.13 0.08 0.07 0.05 0.07 0.08 0.06 0.08 0.23 0.20 0.05 0.01 0.02 0.12 0.10 0.07 0.07 0.15 0.06 0.02 0.01 0.10 0.08 0.05 0.00 0.00 0.00 0.00 0.00 0.00 0.00 0.00 0.00 0.00 0.00
0.07 0.08 0.07 0.19 0.33 0.30 0.15 0.12 0.07 0.06 0.06 0.04 0.10 0.16 0.22 0.17 0.15 0.11 0.06 0.04 0.05 0.04 0.07 0.16 0.15 0.12 0.05 0.05 0.02 0.02 0.06 0.10 0.07 0.04 0.00 0.01 0.02 0.02 0.01 0.01 0.00 0.00 0.00
0.09 0.07 0.02 0.02 0.04 0.14 0.18 0.13 0.09 0.09 0.05 0.04 0.04 0.08 0.19 0.17 0.10 0.07 0.06 0.02 0.08 0.12 0.12 0.17 0.10 0.05 0.15 0.18 0.19 0.10 0.05 0.04 0.03 0.10 0.05 0.02 0.06 0.07 0.07 0.03 0.03 0.02 0.01
0.05 0.02 0.00 0.00 0.00 0.01 0.01 0.01 0.02 0.01 0.00 0.01 0.02 0.01 0.03 0.10 0.09 0.07 0.04 0.03 0.03 0.12 0.17 0.18 0.12 0.21 0.26 0.16 0.10 0.10 0.12 0.09 0.13 0.09 0.05 0.06 0.07 0.09 0.08 0.06 0.03 0.01 0.00
0.07 0.04 0.00 0.00 0.00 0.00 0.00 0.00 0.00 0.01 0.00 0.01 0.01 0.00 0.00 0.01 0.06 0.07 0.03 0.01 0.05 0.08 0.15 0.19 0.15 0.10 0.15 0.10 0.03 0.01 0.02 0.05 0.10 0.11 0.03 0.03 0.01 0.01 0.03 0.01 0.00 0.00 0.00
0.07 0.04 0.01 0.00 0.00 0.00 0.00 0.00 0.00 0.00 0.00 0.01 0.01 0.00 0.00 0.00 0.01 0.01 0.01 0.01 0.00 0.03 0.07 0.05 0.11 0.10 0.15 0.10 0.04 0.01 0.01 0.02 0.04 0.06 0.02 0.02 0.04 0.03 0.12 0.09 0.09 0.07 0.06
0.01 0.01 0.01 0.00 0.00 0.00 0.00 0.00 0.00 0.00 0.00 0.00 0.01 0.00 0.00 0.00 0.00 0.00 0.00 0.00 0.00 0.00 0.01 0.03 0.03 0.10 0.11 0.14 0.09 0.07 0.06 0.03 0.05 0.02 0.00 0.00 0.00 0.00 0.00 0.04 0.16 0.10 0.06
0.00 0.00 0.00 0.00 0.00 0.00 0.00 0.00 0.00 0.00 0.00 0.00 0.00 0.00 0.00 0.00 0.00 0.00 0.00 0.00 0.00 0.00 0.00 0.00 0.02 0.06 0.05 0.08 0.09 0.10 0.07 0.03 0.01 0.00 0.00 0.00 0.00 0.00 0.00 0.00 0.00 0.00 0.00
0.00 0.00 0.00 0.00 0.00 0.00 0.00 0.00 0.00 0.00 0.00 0.00 0.00 0.00 0.00 0.00 0.00 0.00 0.00 0.00 0.00 0.00 0.00 0.00 0.00 0.01 0.01 0.01 0.01 0.02 0.02 0.00 0.00 0.00 0.00 0.00 0.00 0.00 0.00 0.00 0.00 0.00 0.00
0.00 0.00 0.00 0.00 0.00 0.00 0.00 0.00 0.00 0.00 0.00 0.00 0.00 0.00 0.00 0.00 0.00 0.00 0.00 0.00 0.00 0.00 0.00 0.00 0.00 0.00 0.00 0.00 0.00 0.00 0.00 0.00 0.00 0.00 0.00 0.00 0.00 0.00 0.00 0.00 0.00 0.00 0.00
0.00 0.00 0.00 0.00 0.00 0.00 0.00 0.00 0.00 0.00 0.00 0.00 0.00 0.00 0.00 0.00 0.00 0.00 0.00 0.00 0.00 0.00 0.00 0.00 0.00 0.00 0.00 0.00 0.00 0.00 0.00 0.00 0.00 0.00 0.00 0.00 0.00 0.00 0.00 0.00 0.00 0.00 0.00
0.00 0.00 0.00 0.00 0.00 0.00 0.00 0.00 0.00 0.00 0.00 0.00 0.00 0.00 0.00 0.00 0.00 0.00 0.00 0.00 0.00 0.00 0.00 0.00 0.00 0.00 0.00 0.00 0.00 0.00 0.00 0.00 0.00 0.00 0.00 0.00 0.00 0.00 0.00 0.00 0.00 0.00 0.00
0.00 0.00 0.00 0.00 0.00 0.00 0.00 0.00 0.00 0.00 0.00 0.00 0.00 0.00 0.00 0.00 0.00 0.00 0.00 0.00 0.00 0.00 0.00 0.00 0.00 0.00 0.00 0.00 0.00 0.00 0.00 0.00 0.00 0.00 0.00 0.00 0.00 0.00 0.00 0.00 0.00 0.00 0.00
0.00 0.00 0.00 0.00 0.00 0.00 0.00 0.00 0.00 0.00 0.00 0.00 0.00 0.00 0.00 0.00 0.00 0.00 0.00 0.00 0.00 0.00 0.00 0.00 0.00 0.00 0.00 0.00 0.00 0.00 0.00 0.00 0.00 0.00 0.00 0.00 0.01 0.01 0.01 0.01 0.01 0.02 0.02
0.00 0.00 0.00 0.00 0.00 0.00 0.00 0.00 0.00 0.00 0.00 0.00 0.00 0.00 0.00 0.00 0.00 0.00 0.00 0.00 0.00 0.00 0.00 0.00 0.00 0.00 0.00 0.00 0.00 0.00 0.00 0.00 0.00 0.00 0.00 0.01 0.01 0.01 0.02 0.02 0.02 0.02 0.02
0.00 0.00 0.00 0.00 0.00 0.00 0.00 0.00 0.00 0.00 0.00 0.00 0.00 0.00 0.00 0.00 0.00 0.00 0.00 0.00 0.00 0.00 0.00 0.00 0.00 0.00 0.00 0.00 0.00 0.00 0.00 0.00 0.00 0.00 0.00 0.00 0.01 0.01 0.02 0.03 0.03 0.03 0.03
0.00 0.00 0.00 0.00 0.00 0.00 0.00 0.00 0.00 0.00 0.00 0.00 0.00 0.00 0.00 0.00 0.00 0.00 0.00 0.00 0.00 0.00 0.00 0.00 0.00 0.00 0.00 0.00 0.00 0.00 0.00 0.00 0.00 0.00 0.00 0.01 0.01 0.02 0.03 0.04 0.04 0.04 0.04
0.00 0.00 0.00 0.00 0.00 0.00 0.00 0.00 0.00 0.00 0.00 0.00 0.00 0.00 0.00 0.00 0.00 0.00 0.00 0.00 0.00 0.00 0.00 0.00 0.00 0.00 0.00 0.00 0.00 0.00 0.01 0.01 0.01 0.01 0.02 0.01 0.01 0.01 0.02 0.03 0.04 0.05 0.05
0.00 0.00 0.00 0.00 0.00 0.00 0.00 0.00 0.00 0.00 0.00 0.00 0.00 0.00 0.00 0.00 0.00 0.00 0.00 0.00 0.00 0.00 0.00 0.00 0.00 0.00 0.00 0.00 0.00 0.00 0.01 0.01 0.01 0.01 0.01 0.01 0.02 0.02 0.03 0.03 0.03 0.04 0.04
0.00 0.00 0.00 0.00 0.00 0.00 0.00 0.00 0.00 0.00 0.00 0.00 0.00 0.00 0.00 0.00 0.00 0.00 0.00 0.00 0.00 0.00 0.00 0.00 0.00 0.00 0.00 0.00 0.00 0.00 0.00 0.00 0.01 0.01 0.02 0.01 0.01 0.02 0.02 0.02 0.03 0.03 0.03
0.00 0.00 0.00 0.00 0.00 0.00 0.00 0.00 0.00 0.00 0.00 0.00 0.00 0.00 0.00 0.00 0.00 0.00 0.00 0.00 0.00 0.00 0.00 0.00 0.00 0.00 0.00 0.00 0.00 0.00 0.00 0.00 0.00 0.00 0.01 0.01 0.01 0.02 0.02 0.02 0.02 0.03 0.02
0.02 0.00 0.00 0.00 0.00 0.00 0.00 0.00 0.00 0.00 0.00 0.00 0.00 0.00 0.00 0.00 0.00 0.00 0.00 0.00 0.00 0.00 0.00 0.00 0.00 0.00 0.00 0.00 0.00 0.00 0.00 0.00 0.00 0.00 0.00 0.00 0.01 0.02 0.01 0.01 0.02 0.02 0.01

GFSGL_prec_precacc12_102.txt.gz
Total_Precipitation_Accumulation
0.19 0.22 0.36 0.20 0.09 0.07 0.09 0.09 0.11 0.15 0.39 0.27 0.28 0.13 0.17 0.19 0.12 0.16 0.10 0.06 0.06 0.04 0.01 0.02 0.02 0.00 0.00 0.00 0.00 0.00 0.00 0.00 0.00 0.01 0.04 0.10 0.05 0.01 0.00 0.00 0.00 0.00 0.00
0.22 0.39 0.27 0.41 0.25 0.12 0.11 0.12 0.10 0.10 0.14 0.24 0.20 0.31 0.34 0.17 0.21 0.21 0.07 0.07 0.10 0.06 0.03 0.01 0.00 0.00 0.01 0.00 0.00 0.00 0.00 0.00 0.00 0.00 0.00 0.00 0.00 0.00 0.00 0.00 0.00 0.00 0.00
0.44 0.52 0.44 0.34 0.25 0.20 0.27 0.40 0.19 0.12 0.24 0.12 0.23 0.39 0.29 0.24 0.31 0.25 0.16 0.14 0.11 0.09 0.05 0.04 0.02 0.01 0.01 0.00 0.00 0.00 0.00 0.00 0.00 0.00 0.00 0.00 0.00 0.00 0.00 0.00 0.00 0.00 0.00
0.42 0.67 0.49 0.23 0.12 0.13 0.10 0.09 0.06 0.08 0.13 0.04 0.11 0.21 0.19 0.13 0.16 0.13 0.13 0.13 0.09 0.12 0.10 0.06 0.04 0.03 0.04 0.05 0.02 0.01 0.01 0.01 0.01 0.01 0.00 0.00 0.00 0.00 0.00 0.00 0.00 0.00 0.00
0.15 0.21 0.27 0.27 0.14 0.09 0.11 0.13 0.13 0.08 0.06 0.06 0.08 0.14 0.21 0.26 0.37 0.36 0.29 0.19 0.16 0.20 0.13 0.08 0.08 0.20 0.09 0.06 0.01 0.10 0.10 0.08 0.02 0.00 0.00 0.00 0.00 0.00 0.00 0.00 0.00 0.00 0.00
0.08 0.11 0.09 0.08 0.27 0.31 0.18 0.17 0.18 0.19 0.10 0.10 0.16 0.24 0.34 0.37 0.36 0.29 0.13 0.12 0.21 0.23 0.13 0.20 0.20 0.22 0.09 0.07 0.07 0.03 0.05 0.11 0.08 0.06 0.02 0.01 0.03 0.04 0.01 0.01 0.00 0.00 0.00
0.13 0.12 0.09 0.08 0.04 0.15 0.23 0.23 0.23 0.28 0.18 0.17 0.13 0.14 0.24 0.19 0.10 0.03 0.01 0.00 0.09 0.21 0.28 0.27 0.16 0.15 0.20 0.19 0.30 0.25 0.11 0.12 0.09 0.16 0.06 0.03 0.06 0.09 0.08 0.03 0.04 0.03 0.01
0.09 0.03 0.02 0.02 0.00 0.00 0.00 0.01 0.03 0.09 0.12 0.11 0.10 0.04 0.00 0.00 0.00 0.00 0.00 0.00 0.04 0.18 0.24 0.23 0.17 0.40 0.37 0.15 0.11 0.11 0.15 0.13 0.21 0.15 0.09 0.08 0.10 0.12 0.09 0.07 0.04 0.01 0.00
0.12 0.04 0.01 0.00 0.00 0.00 0.00 0.01 0.01 0.03 0.03 0.10 0.08 0.04 0.00 0.00 0.00 0.00 0.00 0.02 0.11 0.19 0.38 0.24 0.16 0.16 0.19 0.09 0.02 0.01 0.03 0.07 0.23 0.23 0.10 0.05 0.02 0.02 0.05 0.01 0.02 0.02 0.00
0.10 0.06 0.02 0.01 0.01 0.01 0.00 0.00 0.00 0.01 0.04 0.04 0.01 0.00 0.00 0.00 0.00 0.00 0.00 0.00 0.00 0.04 0.10 0.08 0.07 0.09 0.15 0.08 0.04 0.01 0.01 0.03 0.10 0.10 0.05 0.03 0.04 0.03 0.12 0.12 0.16 0.17 0.12
0.03 0.06 0.03 0.01 0.02 0.01 0.00 0.00 0.00 0.00 0.00 0.00 0.00 0.00 0.00 0.00 0.00 0.00 0.00 0.00 0.00 0.00 0.00 0.00 0.01 0.08 0.10 0.13 0.08 0.07 0.03 0.02 0.05 0.02 0.00 0.00 0.00 0.00 0.00 0.05 0.22 0.16 0.11
0.01 0.01 0.01 0.01 0.01 0.00 0.00 0.00 0.00 0.00 0.00 0.00 0.00 0.00 0.00 0.00 0.00 0.00 0.00 0.00 0.00 0.00 0.00 0.00 0.00 0.02 0.02 0.04 0.05 0.05 0.02 0.01 0.01 0.00 0.00 0.00 0.00 0.00 0.00 0.01 0.01 0.00 0.00
0.00 0.01 0.00 0.00 0.00 0.00 0.00 0.00 0.00 0.00 0.00 0.00 0.00 0.00 0.00 0.00 0.00 0.00 0.00 0.00 0.00 0.00 0.00 0.00 0.00 0.00 0.00 0.00 0.00 0.00 0.00 0.00 0.00 0.00 0.00 0.00 0.00 0.00 0.00 0.00 0.00 0.00 0.00
0.00 0.00 0.00 0.00 0.00 0.00 0.01 0.01 0.00 0.00 0.00 0.00 0.00 0.00 0.00 0.00 0.00 0.00 0.00 0.00 0.00 0.00 0.00 0.00 0.00 0.00 0.00 0.00 0.00 0.00 0.00 0.00 0.00 0.00 0.00 0.00 0.00 0.00 0.00 0.00 0.00 0.00 0.00
0.00 0.00 0.00 0.00 0.00 0.00 0.00 0.00 0.00 0.00 0.00 0.00 0.00 0.00 0.00 0.00 0.00 0.00 0.00 0.00 0.00 0.00 0.00 0.00 0.00 0.00 0.00 0.00 0.00 0.00 0.00 0.00 0.00 0.00 0.00 0.00 0.00 0.00 0.00 0.00 0.00 0.00 0.00
0.00 0.00 0.00 0.00 0.00 0.00 0.00 0.00 0.00 0.00 0.00 0.00 0.00 0.00 0.00 0.00 0.00 0.00 0.00 0.00 0.00 0.00 0.00 0.00 0.00 0.00 0.00 0.00 0.00 0.00 0.00 0.00 0.00 0.00 0.00 0.00 0.00 0.00 0.00 0.00 0.00 0.00 0.00
0.00 0.00 0.00 0.00 0.00 0.00 0.00 0.00 0.00 0.00 0.00 0.00 0.00 0.00 0.00 0.00 0.00 0.00 0.00 0.00 0.00 0.00 0.00 0.00 0.00 0.00 0.00 0.00 0.00 0.00 0.00 0.00 0.00 0.00 0.00 0.00 0.00 0.00 0.00 0.00 0.00 0.00 0.00
0.00 0.00 0.00 0.00 0.00 0.00 0.00 0.00 0.00 0.00 0.00 0.00 0.00 0.00 0.00 0.00 0.00 0.00 0.00 0.00 0.00 0.00 0.00 0.00 0.00 0.00 0.00 0.00 0.00 0.00 0.00 0.00 0.00 0.00 0.00 0.00 0.00 0.00 0.01 0.00 0.01 0.01 0.01
0.00 0.00 0.00 0.00 0.00 0.00 0.00 0.00 0.00 0.00 0.00 0.00 0.00 0.00 0.00 0.00 0.00 0.00 0.00 0.00 0.00 0.00 0.00 0.00 0.00 0.00 0.00 0.00 0.00 0.00 0.00 0.00 0.00 0.00 0.00 0.00 0.00 0.00 0.01 0.01 0.01 0.01 0.01
0.00 0.00 0.00 0.00 0.00 0.00 0.00 0.00 0.00 0.00 0.00 0.00 0.00 0.00 0.00 0.00 0.00 0.00 0.00 0.00 0.00 0.00 0.00 0.00 0.00 0.00 0.00 0.00 0.00 0.00 0.00 0.00 0.00 0.00 0.00 0.00 0.00 0.00 0.01 0.01 0.01 0.01 0.02
0.00 0.00 0.00 0.00 0.00 0.00 0.00 0.00 0.00 0.00 0.00 0.00 0.00 0.00 0.00 0.00 0.00 0.00 0.00 0.00 0.00 0.00 0.00 0.00 0.00 0.00 0.00 0.00 0.00 0.00 0.00 0.00 0.00 0.00 0.00 0.00 0.00 0.01 0.01 0.01 0.01 0.01 0.02
0.00 0.00 0.00 0.00 0.00 0.00 0.00 0.00 0.00 0.00 0.00 0.00 0.00 0.00 0.00 0.00 0.00 0.00 0.00 0.00 0.00 0.00 0.00 0.00 0.00 0.00 0.00 0.00 0.00 0.00 0.00 0.00 0.00 0.00 0.00 0.00 0.00 0.00 0.00 0.01 0.01 0.01 0.01
0.00 0.00 0.00 0.00 0.00 0.00 0.00 0.00 0.00 0.00 0.00 0.00 0.00 0.00 0.00 0.00 0.00 0.00 0.00 0.00 0.00 0.00 0.00 0.00 0.00 0.00 0.00 0.00 0.00 0.00 0.00 0.00 0.00 0.00 0.00 0.00 0.01 0.01 0.01 0.01 0.01 0.01 0.01
0.00 0.00 0.00 0.00 0.00 0.00 0.00 0.00 0.00 0.00 0.00 0.00 0.00 0.00 0.00 0.00 0.00 0.00 0.00 0.00 0.00 0.00 0.00 0.00 0.00 0.00 0.00 0.00 0.00 0.00 0.00 0.00 0.00 0.00 0.00 0.00 0.00 0.01 0.01 0.01 0.01 0.01 0.01
0.03 0.00 0.00 0.00 0.00 0.00 0.00 0.00 0.00 0.00 0.00 0.00 0.00 0.00 0.00 0.00 0.00 0.00 0.00 0.00 0.00 0.00 0.00 0.00 0.00 0.00 0.00 0.00 0.00 0.00 0.00 0.00 0.00 0.00 0.00 0.00 0.00 0.00 0.00 0.00 0.00 0.01 0.00
0.08 0.04 0.01 0.00 0.00 0.00 0.00 0.00 0.00 0.00 0.00 0.00 0.00 0.00 0.00 0.00 0.00 0.00 0.00 0.00 0.00 0.00 0.00 0.00 0.00 0.00 0.00 0.00 0.00 0.00 0.00 0.00 0.00 0.00 0.00 0.00 0.00 0.00 0.00 0.00 0.01 0.01 0.01

GFSGL_prec_precacc12_105.txt.gz
Total_Precipitation_Accumulation
0.05 0.26 0.46 0.18 0.06 0.05 0.09 0.10 0.12 0.19 0.41 0.28 0.31 0.22 0.16 0.12 0.10 0.11 0.07 0.06 0.06 0.04 0.01 0.02 0.03 0.00 0.00 0.00 0.00 0.00 0.00 0.00 0.00 0.02 0.06 0.10 0.05 0.01 0.00 0.00 0.00 0.00 0.00
0.21 0.29 0.25 0.45 0.36 0.16 0.14 0.14 0.13 0.12 0.15 0.25 0.20 0.33 0.32 0.11 0.14 0.16 0.06 0.07 0.09 0.05 0.03 0.03 0.01 0.00 0.01 0.00 0.00 0.00 0.00 0.00 0.00 0.00 0.00 0.00 0.00 0.00 0.00 0.00 0.00 0.00 0.00
0.26 0.35 0.35 0.32 0.32 0.32 0.30 0.46 0.23 0.14 0.20 0.09 0.23 0.37 0.24 0.21 0.32 0.25 0.16 0.13 0.09 0.07 0.05 0.04 0.02 0.02 0.01 0.00 0.00 0.00 0.00 0.00 0.00 0.00 0.00 0.00 0.00 0.00 0.00 0.00 0.00 0.00 0.01
0.18 0.21 0.21 0.21 0.19 0.20 0.13 0.12 0.08 0.12 0.14 0.04 0.11 0.21 0.20 0.19 0.28 0.21 0.30 0.30 0.10 0.06 0.06 0.04 0.04 0.07 0.07 0.05 0.01 0.01 0.01 0.01 0.01 0.01 0.00 0.00 0.01 0.00 0.00 0.01 0.00 0.00 0.01
0.07 0.08 0.08 0.11 0.09 0.09 0.11 0.13 0.15 0.09 0.10 0.08 0.11 0.15 0.26 0.49 0.53 0.56 0.45 0.38 0.21 0.19 0.15 0.07 0.23 0.25 0.15 0.11 0.03 0.07 0.07 0.05 0.02 0.00 0.00 0.00 0.01 0.00 0.00 0.01 0.00 0.00 0.00
0.06 0.10 0.09 0.09 0.13 0.25 0.20 0.17 0.18 0.19 0.13 0.20 0.28 0.29 0.36 0.45 0.50 0.40 0.17 0.16 0.27 0.29 0.24 0.20 0.19 0.21 0.14 0.16 0.15 0.05 0.06 0.07 0.04 0.05 0.02 0.01 0.04 0.05 0.01 0.01 0.00 0.00 0.00
0.09 0.11 0.09 0.10 0.06 0.13 0.22 0.23 0.23 0.28 0.19 0.24 0.18 0.18 0.23 0.18 0.10 0.02 0.01 0.01 0.09 0.23 0.29 0.27 0.20 0.17 0.33 0.24 0.40 0.32 0.19 0.17 0.13 0.20 0.09 0.03 0.06 0.10 0.08 0.03 0.04 0.03 0.01
0.09 0.04 0.03 0.02 0.00 0.00 0.00 0.01 0.03 0.09 0.15 0.18 0.15 0.06 0.01 0.00 0.00 0.00 0.00 0.00 0.05 0.21 0.32 0.29 0.24 0.40 0.31 0.08 0.05 0.07 0.09 0.15 0.23 0.16 0.11 0.13 0.11 0.13 0.09 0.07 0.04 0.01 0.00
0.12 0.06 0.02 0.00 0.00 0.00 0.00 0.01 0.01 0.03 0.04 0.14 0.09 0.04 0.00 0.00 0.00 0.00 0.00 0.02 0.15 0.27 0.47 0.23 0.16 0.16 0.15 0.07 0.02 0.01 0.03 0.09 0.26 0.23 0.11 0.07 0.06 0.03 0.05 0.01 0.02 0.02 0.00
0.12 0.11 0.05 0.02 0.01 0.01 0.00 0.00 0.00 0.01 0.05 0.05 0.01 0.00 0.00 0.00 0.00 0.00 0.00 0.00 0.00 0.04 0.08 0.07 0.03 0.06 0.05 0.02 0.02 0.00 0.01 0.03 0.11 0.10 0.06 0.03 0.04 0.03 0.13 0.12 0.16 0.18 0.12
0.05 0.09 0.06 0.02 0.03 0.01 0.00 0.00 0.00 0.00 0.00 0.00 0.00 0.00 0.00 0.00 0.00 0.00 0.00 0.00 0.00 0.00 0.00 0.00 0.00 0.01 0.02 0.02 0.01 0.00 0.00 0.00 0.01 0.01 0.00 0.00 0.00 0.00 0.01 0.05 0.22 0.16 0.11
0.01 0.02 0.03 0.02 0.01 0.00 0.00 0.00 0.00 0.00 0.00 0.00 0.00 0.00 0.00 0.00 0.00 0.00 0.00 0.00 0.00 0.00 0.00 0.00 0.00 0.00 0.00 0.00 0.00 0.00 0.00 0.00 0.00 0.00 0.00 0.00 0.00 0.00 0.00 0.01 0.01 0.00 0.00
0.00 0.01 0.00 0.00 0.00 0.00 0.00 0.00 0.00 0.00 0.00 0.00 0.00 0.00 0.00 0.00 0.00 0.00 0.00 0.00 0.00 0.00 0.00 0.00 0.00 0.00 0.00 0.00 0.00 0.00 0.00 0.00 0.00 0.00 0.00 0.00 0.00 0.00 0.00 0.00 0.00 0.00 0.00
0.00 0.00 0.00 0.00 0.00 0.00 0.01 0.01 0.01 0.00 0.00 0.00 0.00 0.00 0.00 0.00 0.00 0.00 0.00 0.00 0.00 0.00 0.00 0.00 0.00 0.00 0.00 0.00 0.00 0.00 0.00 0.00 0.00 0.00 0.00 0.00 0.00 0.00 0.00 0.00 0.00 0.00 0.00
0.00 0.00 0.00 0.00 0.00 0.00 0.00 0.00 0.00 0.00 0.00 0.00 0.00 0.00 0.00 0.00 0.00 0.00 0.00 0.00 0.00 0.00 0.00 0.00 0.00 0.00 0.00 0.00 0.00 0.00 0.00 0.00 0.00 0.00 0.00 0.00 0.00 0.00 0.00 0.00 0.00 0.00 0.00
0.00 0.00 0.00 0.00 0.00 0.00 0.00 0.00 0.00 0.00 0.00 0.00 0.00 0.00 0.00 0.00 0.00 0.00 0.00 0.00 0.00 0.00 0.00 0.00 0.00 0.00 0.00 0.00 0.00 0.00 0.00 0.00 0.00 0.00 0.00 0.00 0.00 0.00 0.00 0.00 0.00 0.00 0.00
0.00 0.00 0.00 0.00 0.00 0.00 0.00 0.00 0.00 0.00 0.00 0.00 0.00 0.00 0.00 0.00 0.00 0.00 0.00 0.00 0.00 0.00 0.00 0.00 0.00 0.00 0.00 0.00 0.00 0.00 0.00 0.00 0.00 0.00 0.00 0.00 0.00 0.00 0.00 0.00 0.00 0.00 0.00
0.00 0.00 0.00 0.00 0.00 0.00 0.00 0.00 0.00 0.00 0.00 0.00 0.00 0.00 0.00 0.00 0.00 0.00 0.00 0.00 0.00 0.00 0.00 0.00 0.00 0.00 0.00 0.00 0.00 0.00 0.00 0.00 0.00 0.00 0.00 0.00 0.00 0.00 0.00 0.00 0.00 0.00 0.00
0.00 0.00 0.00 0.00 0.00 0.00 0.00 0.00 0.00 0.00 0.00 0.00 0.00 0.00 0.00 0.00 0.00 0.00 0.00 0.00 0.00 0.00 0.00 0.00 0.00 0.00 0.00 0.00 0.00 0.00 0.00 0.00 0.00 0.00 0.00 0.00 0.00 0.00 0.00 0.00 0.00 0.00 0.00
0.00 0.00 0.00 0.00 0.00 0.00 0.00 0.00 0.00 0.00 0.00 0.00 0.00 0.00 0.00 0.00 0.00 0.00 0.00 0.00 0.00 0.00 0.00 0.00 0.00 0.00 0.00 0.00 0.00 0.00 0.00 0.00 0.00 0.00 0.00 0.00 0.00 0.00 0.00 0.00 0.00 0.00 0.00
0.00 0.00 0.00 0.00 0.00 0.00 0.00 0.00 0.00 0.00 0.00 0.00 0.00 0.00 0.00 0.00 0.00 0.00 0.00 0.00 0.00 0.00 0.00 0.00 0.00 0.00 0.00 0.00 0.00 0.00 0.00 0.00 0.00 0.00 0.00 0.00 0.00 0.00 0.00 0.00 0.00 0.00 0.00
0.01 0.00 0.00 0.00 0.00 0.00 0.00 0.00 0.00 0.00 0.00 0.00 0.00 0.00 0.00 0.00 0.00 0.00 0.00 0.00 0.00 0.00 0.00 0.00 0.00 0.00 0.00 0.00 0.00 0.00 0.00 0.00 0.00 0.00 0.00 0.00 0.00 0.00 0.00 0.00 0.00 0.00 0.00
0.06 0.04 0.01 0.00 0.00 0.00 0.00 0.00 0.00 0.00 0.00 0.00 0.00 0.00 0.00 0.00 0.00 0.00 0.00 0.00 0.00 0.00 0.00 0.00 0.00 0.00 0.00 0.00 0.00 0.00 0.00 0.00 0.00 0.00 0.00 0.00 0.00 0.00 0.00 0.00 0.00 0.00 0.00
0.07 0.05 0.03 0.01 0.00 0.00 0.00 0.00 0.00 0.00 0.00 0.00 0.00 0.00 0.00 0.00 0.00 0.00 0.00 0.00 0.00 0.00 0.00 0.00 0.00 0.00 0.00 0.00 0.00 0.00 0.00 0.00 0.00 0.00 0.00 0.00 0.00 0.00 0.00 0.00 0.00 0.00 0.00
0.14 0.11 0.07 0.02 0.00 0.00 0.00 0.00 0.00 0.00 0.00 0.00 0.00 0.00 0.00 0.00 0.00 0.00 0.00 0.00 0.00 0.00 0.00 0.00 0.00 0.00 0.00 0.00 0.00 0.00 0.00 0.00 0.00 0.00 0.00 0.00 0.00 0.00 0.00 0.00 0.00 0.00 0.00
0.15 0.17 0.12 0.07 0.02 0.00 0.00 0.00 0.00 0.00 0.00 0.00 0.00 0.00 0.00 0.00 0.00 0.00 0.00 0.00 0.00 0.00 0.00 0.00 0.00 0.00 0.00 0.00 0.00 0.00 0.00 0.00 0.00 0.00 0.00 0.00 0.00 0.00 0.00 0.00 0.00 0.00 0.00

GFSGL_prec_precacc12_108.txt.gz
Total_Precipitation_Accumulation
0.06 0.27 0.38 0.11 0.04 0.02 0.02 0.02 0.04 0.16 0.39 0.19 0.19 0.15 0.03 0.02 0.01 0.01 0.01 0.05 0.06 0.03 0.01 0.02 0.03 0.01 0.00 0.00 0.00 0.00 0.00 0.01 0.01 0.02 0.06 0.11 0.05 0.01 0.00 0.00 0.00 0.00 0.00
0.44 0.59 0.43 0.53 0.41 0.20 0.15 0.10 0.05 0.04 0.05 0.16 0.16 0.23 0.12 0.10 0.11 0.12 0.04 0.05 0.07 0.05 0.04 0.04 0.01 0.00 0.01 0.00 0.00 0.00 0.00 0.00 0.00 0.00 0.00 0.01 0.01 0.00 0.00 0.00 0.00 0.00 0.01
0.47 0.65 0.59 0.36 0.32 0.36 0.36 0.56 0.27 0.09 0.07 0.06 0.14 0.26 0.13 0.11 0.23 0.18 0.19 0.21 0.14 0.09 0.08 0.04 0.02 0.03 0.01 0.01 0.00 0.00 0.00 0.00 0.00 0.00 0.00 0.00 0.00 0.00 0.00 0.00 0.00 0.00 0.01
0.28 0.33 0.29 0.26 0.23 0.28 0.22 0.28 0.15 0.11 0.17 0.14 0.13 0.17 0.16 0.20 0.31 0.29 0.44 0.52 0.22 0.13 0.10 0.12 0.07 0.06 0.05 0.03 0.01 0.01 0.01 0.01 0.01 0.01 0.00 0.00 0.01 0.01 0.01 0.01 0.00 0.00 0.01
0.15 0.13 0.05 0.07 0.07 0.11 0.19 0.21 0.24 0.12 0.12 0.11 0.16 0.21 0.29 0.51 0.56 0.62 0.53 0.44 0.24 0.23 0.30 0.25 0.42 0.37 0.29 0.20 0.17 0.07 0.06 0.09 0.02 0.00 0.00 0.00 0.01 0.00 0.00 0.01 0.00 0.00 0.00
0.26 0.20 0.07 0.08 0.11 0.16 0.18 0.17 0.19 0.19 0.13 0.20 0.28 0.31 0.38 0.44 0.47 0.40 0.17 0.20 0.36 0.38 0.29 0.19 0.25 0.27 0.28 0.25 0.23 0.07 0.06 0.06 0.03 0.04 0.02 0.02 0.06 0.05 0.00 0.01 0.00 0.00 0.00
0.16 0.10 0.09 0.10 0.06 0.08 0.10 0.18 0.22 0.28 0.19 0.24 0.18 0.18 0.23 0.18 0.10 0.02 0.00 0.00 0.13 0.24 0.31 0.27 0.20 0.17 0.24 0.19 0.40 0.37 0.23 0.23 0.17 0.17 0.07 0.06 0.04 0.07 0.05 0.03 0.03 0.02 0.00
0.11 0.04 0.03 0.02 0.00 0.00 0.00 0.00 0.02 0.09 0.15 0.18 0.15 0.06 0.01 0.00 0.00 0.00 0.00 0.00 0.05 0.22 0.32 0.26 0.23 0.34 0.24 0.08 0.05 0.05 0.09 0.16 0.18 0.13 0.10 0.13 0.08 0.09 0.06 0.05 0.03 0.01 0.00
0.11 0.06 0.02 0.01 0.00 0.03 0.02 0.01 0.01 0.03 0.04 0.14 0.09 0.04 0.00 0.00 0.00 0.00 0.00 0.04 0.17 0.28 0.47 0.22 0.13 0.13 0.09 0.03 0.01 0.00 0.02 0.08 0.23 0.21 0.11 0.06 0.05 0.02 0.05 0.01 0.02 0.02 0.00
0.17 0.18 0.11 0.10 0.08 0.03 0.03 0.02 0.00 0.01 0.05 0.05 0.01 0.00 0.00 0.00 0.00 0.00 0.00 0.00 0.01 0.04 0.08 0.06 0.00 0.00 0.00 0.00 0.00 0.00 0.00 0.01 0.08 0.05 0.04 0.01 0.00 0.01 0.07 0.09 0.16 0.17 0.12
0.09 0.15 0.10 0.06 0.05 0.02 0.01 0.00 0.00 0.00 0.00 0.00 0.00 0.00 0.00 0.00 0.00 0.00 0.00 0.00 0.00 0.00 0.00 0.00 0.00 0.00 0.00 0.00 0.00 0.00 0.00 0.00 0.00 0.00 0.00 0.00 0.00 0.00 0.00 0.04 0.17 0.13 0.10
0.05 0.05 0.06 0.04 0.02 0.00 0.00 0.00 0.00 0.00 0.00 0.00 0.00 0.00 0.00 0.00 0.00 0.00 0.00 0.00 0.00 0.00 0.00 0.00 0.00 0.00 0.00 0.00 0.00 0.00 0.00 0.00 0.00 0.00 0.00 0.00 0.00 0.00 0.00 0.01 0.01 0.00 0.00
0.01 0.01 0.01 0.01 0.00 0.00 0.00 0.00 0.00 0.00 0.00 0.00 0.00 0.00 0.00 0.00 0.00 0.00 0.00 0.00 0.00 0.00 0.00 0.00 0.00 0.00 0.00 0.00 0.00 0.00 0.00 0.00 0.00 0.00 0.00 0.00 0.00 0.00 0.00 0.00 0.00 0.00 0.00
0.00 0.00 0.00 0.00 0.00 0.00 0.01 0.01 0.01 0.00 0.00 0.00 0.00 0.00 0.00 0.00 0.00 0.00 0.00 0.00 0.00 0.00 0.00 0.00 0.00 0.00 0.00 0.00 0.00 0.00 0.00 0.00 0.00 0.00 0.00 0.00 0.00 0.00 0.00 0.00 0.00 0.00 0.00
0.00 0.00 0.00 0.00 0.00 0.00 0.00 0.00 0.00 0.00 0.00 0.00 0.00 0.00 0.00 0.00 0.00 0.00 0.00 0.00 0.00 0.00 0.00 0.00 0.00 0.00 0.00 0.00 0.00 0.00 0.00 0.00 0.00 0.00 0.00 0.00 0.00 0.00 0.00 0.00 0.00 0.00 0.00
0.00 0.00 0.00 0.00 0.00 0.00 0.00 0.00 0.00 0.00 0.00 0.00 0.00 0.00 0.00 0.00 0.00 0.00 0.00 0.00 0.00 0.00 0.00 0.00 0.00 0.00 0.00 0.00 0.00 0.00 0.00 0.00 0.00 0.00 0.00 0.00 0.00 0.00 0.00 0.00 0.00 0.00 0.00
0.00 0.00 0.00 0.00 0.00 0.00 0.00 0.00 0.00 0.00 0.00 0.00 0.00 0.00 0.00 0.00 0.00 0.00 0.00 0.00 0.00 0.00 0.00 0.00 0.00 0.00 0.00 0.00 0.00 0.00 0.00 0.00 0.00 0.00 0.00 0.00 0.00 0.00 0.00 0.00 0.00 0.00 0.00
0.00 0.00 0.00 0.00 0.00 0.00 0.00 0.00 0.00 0.00 0.00 0.00 0.00 0.00 0.00 0.00 0.00 0.00 0.00 0.00 0.00 0.00 0.00 0.00 0.00 0.00 0.00 0.00 0.00 0.00 0.00 0.00 0.00 0.00 0.00 0.00 0.00 0.00 0.00 0.00 0.00 0.00 0.00
0.00 0.00 0.00 0.00 0.00 0.00 0.00 0.00 0.00 0.00 0.00 0.00 0.00 0.00 0.00 0.00 0.00 0.00 0.00 0.00 0.00 0.00 0.00 0.00 0.00 0.00 0.00 0.00 0.00 0.00 0.00 0.00 0.00 0.00 0.00 0.00 0.00 0.00 0.00 0.00 0.00 0.00 0.00
0.00 0.00 0.00 0.00 0.00 0.00 0.00 0.00 0.00 0.00 0.00 0.00 0.00 0.00 0.00 0.00 0.00 0.00 0.00 0.00 0.00 0.00 0.00 0.00 0.00 0.00 0.00 0.00 0.00 0.00 0.00 0.00 0.00 0.00 0.00 0.00 0.00 0.00 0.00 0.00 0.00 0.00 0.00
0.01 0.01 0.00 0.00 0.00 0.00 0.00 0.00 0.00 0.00 0.00 0.00 0.00 0.00 0.00 0.00 0.00 0.00 0.00 0.00 0.00 0.00 0.00 0.00 0.00 0.00 0.00 0.00 0.00 0.00 0.00 0.00 0.00 0.00 0.00 0.00 0.00 0.00 0.00 0.00 0.00 0.00 0.00
0.03 0.03 0.02 0.00 0.00 0.00 0.00 0.00 0.00 0.00 0.00 0.00 0.00 0.00 0.00 0.00 0.00 0.00 0.00 0.00 0.00 0.00 0.00 0.00 0.00 0.00 0.00 0.00 0.00 0.00 0.00 0.00 0.00 0.00 0.00 0.00 0.00 0.00 0.00 0.00 0.00 0.00 0.00
0.07 0.06 0.02 0.01 0.00 0.00 0.00 0.00 0.00 0.00 0.00 0.00 0.00 0.00 0.00 0.00 0.00 0.00 0.00 0.00 0.00 0.00 0.00 0.00 0.00 0.00 0.00 0.00 0.00 0.00 0.00 0.00 0.00 0.00 0.00 0.00 0.00 0.00 0.00 0.00 0.00 0.00 0.00
0.09 0.08 0.06 0.02 0.01 0.00 0.00 0.00 0.00 0.00 0.00 0.00 0.00 0.00 0.00 0.00 0.00 0.00 0.00 0.00 0.00 0.00 0.00 0.00 0.00 0.00 0.00 0.00 0.00 0.00 0.00 0.00 0.00 0.00 0.00 0.00 0.00 0.00 0.00 0.00 0.00 0.00 0.00
0.16 0.16 0.13 0.07 0.03 0.02 0.00 0.00 0.00 0.00 0.00 0.00 0.00 0.00 0.00 0.00 0.00 0.00 0.00 0.00 0.00 0.00 0.00 0.00 0.00 0.00 0.00 0.00 0.00 0.00 0.00 0.00 0.00 0.00 0.00 0.00 0.00 0.00 0.00 0.00 0.00 0.00 0.00
0.15 0.18 0.15 0.11 0.08 0.05 0.03 0.01 0.00 0.00 0.00 0.00 0.00 0.00 0.00 0.00 0.00 0.00 0.00 0.00 0.00 0.00 0.00 0.00 0.00 0.00 0.00 0.00 0.00 0.00 0.00 0.00 0.00 0.00 0.00 0.00 0.00 0.00 0.00 0.00 0.00 0.00 0.00

GFSGL_prec_precacc12_111.txt.gz
Total_Precipitation_Accumulation
0.03 0.21 0.27 0.11 0.04 0.02 0.02 0.02 0.04 0.15 0.31 0.14 0.19 0.15 0.03 0.02 0.01 0.01 0.01 0.04 0.05 0.03 0.01 0.02 0.03 0.01 0.00 0.00 0.00 0.01 0.00 0.01 0.01 0.02 0.06 0.11 0.05 0.01 0.00 0.00 0.00 0.00 0.00
0.48 0.66 0.49 0.63 0.47 0.19 0.14 0.10 0.05 0.04 0.04 0.08 0.08 0.12 0.11 0.10 0.12 0.07 0.03 0.05 0.07 0.05 0.04 0.05 0.01 0.00 0.01 0.00 0.01 0.00 0.00 0.00 0.00 0.00 0.00 0.01 0.01 0.00 0.00 0.00 0.00 0.00 0.01
0.51 0.68 0.71 0.53 0.48 0.54 0.43 0.59 0.28 0.07 0.05 0.06 0.13 0.18 0.13 0.11 0.22 0.28 0.22 0.21 0.14 0.09 0.08 0.04 0.03 0.04 0.02 0.03 0.02 0.00 0.00 0.00 0.00 0.00 0.00 0.00 0.00 0.00 0.00 0.00 0.00 0.00 0.01
0.32 0.31 0.39 0.48 0.37 0.32 0.34 0.36 0.26 0.22 0.29 0.15 0.20 0.22 0.16 0.18 0.30 0.36 0.48 0.55 0.22 0.13 0.10 0.12 0.07 0.08 0.11 0.07 0.04 0.04 0.03 0.04 0.01 0.01 0.00 0.00 0.01 0.01 0.01 0.01 0.00 0.00 0.01
0.21 0.16 0.13 0.17 0.22 0.14 0.24 0.29 0.28 0.19 0.16 0.10 0.12 0.22 0.38 0.51 0.41 0.49 0.50 0.44 0.23 0.26 0.30 0.25 0.43 0.38 0.30 0.21 0.21 0.11 0.08 0.16 0.04 0.00 0.00 0.00 0.01 0.00 0.01 0.01 0.00 0.00 0.00
0.31 0.33 0.23 0.24 0.12 0.08 0.12 0.10 0.16 0.17 0.11 0.18 0.21 0.24 0.28 0.40 0.41 0.31 0.12 0.16 0.32 0.36 0.29 0.19 0.27 0.23 0.28 0.26 0.22 0.07 0.07 0.11 0.07 0.08 0.06 0.03 0.08 0.05 0.00 0.01 0.00 0.00 0.00
0.23 0.23 0.21 0.27 0.12 0.08 0.08 0.11 0.18 0.22 0.16 0.22 0.16 0.13 0.10 0.09 0.04 0.00 0.00 0.00 0.10 0.23 0.25 0.20 0.19 0.14 0.22 0.19 0.38 0.32 0.27 0.31 0.21 0.17 0.08 0.05 0.03 0.05 0.03 0.01 0.01 0.01 0.00
0.38 0.31 0.12 0.09 0.02 0.00 0.00 0.00 0.01 0.09 0.15 0.18 0.13 0.06 0.01 0.00 0.00 0.00 0.00 0.00 0.03 0.17 0.26 0.21 0.18 0.23 0.14 0.03 0.02 0.03 0.08 0.17 0.17 0.10 0.07 0.11 0.06 0.05 0.03 0.01 0.01 0.00 0.00
0.41 0.20 0.11 0.03 0.01 0.03 0.02 0.01 0.02 0.02 0.04 0.14 0.08 0.04 0.00 0.00 0.00 0.00 0.00 0.04 0.15 0.24 0.39 0.12 0.06 0.08 0.05 0.00 0.00 0.00 0.00 0.05 0.17 0.13 0.09 0.06 0.05 0.02 0.02 0.00 0.01 0.02 0.00
0.91 0.34 0.14 0.12 0.11 0.05 0.09 0.09 0.05 0.01 0.04 0.04 0.01 0.00 0.00 0.00 0.00 0.00 0.00 0.00 0.01 0.02 0.06 0.06 0.01 0.00 0.00 0.00 0.00 0.00 0.00 0.01 0.07 0.04 0.03 0.01 0.00 0.00 0.01 0.03 0.08 0.11 0.06
0.51 0.50 0.30 0.20 0.15 0.07 0.10 0.09 0.08 0.03 0.00 0.00 0.00 0.00 0.00 0.00 0.00 0.00 0.00 0.00 0.00 0.00 0.00 0.00 0.00 0.00 0.00 0.00 0.00 0.00 0.00 0.00 0.00 0.00 0.00 0.00 0.00 0.00 0.00 0.01 0.06 0.06 0.05
0.35 0.39 0.32 0.20 0.11 0.02 0.02 0.02 0.01 0.01 0.00 0.00 0.00 0.00 0.00 0.00 0.00 0.00 0.00 0.00 0.00 0.00 0.00 0.00 0.00 0.00 0.00 0.00 0.00 0.00 0.00 0.00 0.00 0.00 0.00 0.00 0.00 0.00 0.00 0.01 0.00 0.00 0.00
0.10 0.07 0.05 0.02 0.01 0.01 0.01 0.00 0.00 0.00 0.00 0.00 0.00 0.00 0.00 0.00 0.00 0.00 0.00 0.00 0.00 0.00 0.00 0.00 0.00 0.00 0.00 0.00 0.00 0.00 0.00 0.00 0.00 0.00 0.00 0.00 0.00 0.00 0.00 0.00 0.00 0.00 0.00
0.00 0.00 0.00 0.01 0.00 0.00 0.01 0.01 0.01 0.00 0.00 0.00 0.00 0.00 0.00 0.00 0.00 0.00 0.00 0.00 0.00 0.00 0.00 0.00 0.00 0.00 0.00 0.00 0.00 0.00 0.00 0.00 0.00 0.00 0.00 0.00 0.00 0.00 0.00 0.00 0.00 0.00 0.00
0.00 0.00 0.00 0.00 0.00 0.00 0.00 0.00 0.00 0.00 0.00 0.00 0.00 0.00 0.00 0.00 0.00 0.00 0.00 0.00 0.00 0.00 0.00 0.00 0.00 0.00 0.00 0.00 0.00 0.00 0.00 0.00 0.00 0.00 0.00 0.00 0.00 0.00 0.00 0.00 0.00 0.00 0.00
0.00 0.00 0.00 0.00 0.00 0.00 0.00 0.00 0.00 0.00 0.00 0.00 0.00 0.00 0.00 0.00 0.00 0.00 0.00 0.00 0.00 0.00 0.00 0.00 0.00 0.00 0.00 0.00 0.00 0.00 0.00 0.00 0.00 0.00 0.00 0.00 0.00 0.00 0.00 0.00 0.00 0.00 0.00
0.00 0.00 0.00 0.00 0.00 0.00 0.00 0.00 0.00 0.00 0.00 0.00 0.00 0.00 0.00 0.00 0.00 0.00 0.00 0.00 0.00 0.00 0.00 0.00 0.00 0.00 0.00 0.00 0.00 0.00 0.00 0.00 0.00 0.00 0.00 0.00 0.00 0.00 0.00 0.00 0.00 0.00 0.00
0.00 0.00 0.00 0.00 0.00 0.00 0.00 0.00 0.00 0.00 0.00 0.00 0.00 0.00 0.00 0.00 0.00 0.00 0.00 0.00 0.00 0.00 0.00 0.00 0.00 0.00 0.00 0.00 0.00 0.00 0.00 0.00 0.00 0.00 0.00 0.00 0.00 0.00 0.00 0.00 0.00 0.00 0.00
0.00 0.00 0.00 0.00 0.00 0.00 0.00 0.00 0.00 0.00 0.00 0.00 0.00 0.00 0.00 0.00 0.00 0.00 0.00 0.00 0.00 0.00 0.00 0.00 0.00 0.00 0.00 0.00 0.00 0.00 0.00 0.00 0.00 0.00 0.00 0.00 0.00 0.00 0.00 0.00 0.00 0.00 0.00
0.00 0.00 0.00 0.00 0.00 0.00 0.00 0.00 0.00 0.00 0.00 0.00 0.00 0.00 0.00 0.00 0.00 0.00 0.00 0.00 0.00 0.00 0.00 0.00 0.00 0.00 0.00 0.00 0.00 0.00 0.00 0.00 0.00 0.00 0.00 0.00 0.00 0.00 0.00 0.00 0.00 0.00 0.00
0.02 0.01 0.00 0.00 0.00 0.00 0.00 0.00 0.00 0.00 0.00 0.00 0.00 0.00 0.00 0.00 0.00 0.00 0.00 0.00 0.00 0.00 0.00 0.00 0.00 0.00 0.00 0.00 0.00 0.00 0.00 0.00 0.00 0.00 0.00 0.00 0.00 0.00 0.00 0.00 0.00 0.00 0.00
0.03 0.03 0.02 0.01 0.00 0.00 0.00 0.00 0.00 0.00 0.00 0.00 0.00 0.00 0.00 0.00 0.00 0.00 0.00 0.00 0.00 0.00 0.00 0.00 0.00 0.00 0.00 0.00 0.00 0.00 0.00 0.00 0.00 0.00 0.00 0.00 0.00 0.00 0.00 0.00 0.00 0.00 0.00
0.07 0.06 0.02 0.01 0.00 0.00 0.00 0.00 0.00 0.00 0.00 0.00 0.00 0.00 0.00 0.00 0.00 0.00 0.00 0.00 0.00 0.00 0.00 0.00 0.00 0.00 0.00 0.00 0.00 0.00 0.00 0.00 0.00 0.00 0.00 0.00 0.00 0.00 0.00 0.00 0.00 0.00 0.00
0.09 0.08 0.06 0.02 0.01 0.01 0.00 0.00 0.00 0.00 0.00 0.00 0.00 0.00 0.00 0.00 0.00 0.00 0.00 0.00 0.00 0.00 0.00 0.00 0.00 0.00 0.00 0.00 0.00 0.00 0.00 0.00 0.00 0.00 0.00 0.00 0.00 0.00 0.00 0.00 0.00 0.00 0.00
0.16 0.16 0.13 0.07 0.03 0.02 0.01 0.00 0.01 0.01 0.01 0.00 0.00 0.00 0.00 0.00 0.00 0.00 0.00 0.00 0.00 0.00 0.00 0.00 0.00 0.00 0.00 0.00 0.00 0.00 0.00 0.00 0.00 0.00 0.00 0.00 0.00 0.00 0.00 0.00 0.00 0.00 0.00
0.14 0.18 0.15 0.11 0.08 0.05 0.04 0.04 0.04 0.03 0.02 0.01 0.00 0.00 0.00 0.00 0.00 0.00 0.00 0.00 0.00 0.00 0.00 0.00 0.00 0.00 0.00 0.00 0.00 0.00 0.00 0.00 0.00 0.00 0.00 0.00 0.00 0.00 0.00 0.00 0.00 0.00 0.00

GFSGL_prec_precacc12_114.txt.gz
Total_Precipitation_Accumulation
0.02 0.12 0.15 0.05 0.03 0.03 0.03 0.10 0.08 0.08 0.03 0.02 0.05 0.10 0.10 0.02 0.01 0.00 0.02 0.01 0.00 0.00 0.00 0.00 0.00 0.00 0.00 0.00 0.00 0.01 0.00 0.01 0.01 0.00 0.01 0.01 0.00 0.00 0.00 0.00 0.00 0.00 0.00
0.48 0.65 0.44 0.33 0.34 0.16 0.08 0.07 0.07 0.04 0.00 0.00 0.01 0.02 0.07 0.07 0.04 0.02 0.04 0.04 0.03 0.03 0.04 0.05 0.01 0.00 0.00 0.00 0.01 0.00 0.00 0.00 0.00 0.00 0.00 0.01 0.01 0.00 0.00 0.00 0.00 0.00 0.01
0.53 0.69 0.68 0.44 0.43 0.49 0.31 0.26 0.17 0.06 0.03 0.04 0.01 0.00 0.02 0.03 0.07 0.22 0.31 0.25 0.12 0.07 0.07 0.03 0.02 0.02 0.03 0.03 0.01 0.01 0.00 0.00 0.00 0.00 0.00 0.00 0.00 0.00 0.00 0.00 0.00 0.00 0.01
0.37 0.32 0.43 0.47 0.36 0.36 0.35 0.38 0.29 0.27 0.32 0.17 0.13 0.06 0.05 0.12 0.19 0.28 0.44 0.59 0.30 0.14 0.09 0.12 0.07 0.08 0.11 0.05 0.03 0.03 0.02 0.04 0.00 0.00 0.00 0.00 0.01 0.01 0.01 0.01 0.00 0.00 0.01
0.28 0.24 0.21 0.21 0.27 0.19 0.28 0.33 0.30 0.24 0.27 0.24 0.26 0.27 0.31 0.38 0.29 0.34 0.25 0.25 0.13 0.22 0.28 0.26 0.48 0.36 0.25 0.18 0.20 0.09 0.04 0.13 0.03 0.00 0.00 0.00 0.01 0.00 0.01 0.01 0.00 0.00 0.00
0.36 0.40 0.26 0.27 0.25 0.17 0.18 0.16 0.15 0.12 0.12 0.16 0.17 0.17 0.22 0.24 0.20 0.15 0.05 0.08 0.16 0.20 0.21 0.16 0.28 0.19 0.25 0.23 0.17 0.05 0.07 0.11 0.07 0.06 0.06 0.03 0.07 0.03 0.00 0.01 0.00 0.00 0.00
0.27 0.26 0.24 0.34 0.23 0.20 0.10 0.09 0.14 0.11 0.11 0.16 0.11 0.06 0.01 0.00 0.00 0.00 0.00 0.00 0.09 0.21 0.23 0.24 0.23 0.09 0.17 0.14 0.21 0.15 0.19 0.24 0.16 0.12 0.08 0.04 0.02 0.04 0.02 0.01 0.00 0.00 0.00
0.38 0.38 0.23 0.21 0.14 0.07 0.03 0.02 0.01 0.01 0.05 0.09 0.05 0.02 0.01 0.00 0.00 0.00 0.00 0.00 0.02 0.13 0.23 0.24 0.20 0.12 0.08 0.03 0.01 0.00 0.03 0.12 0.08 0.03 0.03 0.09 0.04 0.03 0.02 0.00 0.00 0.00 0.00
0.43 0.31 0.18 0.10 0.09 0.16 0.14 0.10 0.06 0.01 0.01 0.05 0.01 0.00 0.00 0.00 0.00 0.00 0.01 0.04 0.09 0.14 0.15 0.07 0.07 0.04 0.01 0.00 0.00 0.00 0.00 0.02 0.03 0.01 0.01 0.03 0.04 0.00 0.00 0.00 0.00 0.00 0.00
0.94 0.50 0.27 0.27 0.31 0.31 0.42 0.39 0.21 0.02 0.01 0.01 0.00 0.00 0.00 0.00 0.00 0.00 0.00 0.00 0.01 0.01 0.01 0.02 0.01 0.01 0.01 0.00 0.00 0.00 0.00 0.00 0.00 0.00 0.00 0.00 0.00 0.00 0.01 0.00 0.00 0.00 0.00
0.86 1.03 0.69 0.45 0.41 0.31 0.28 0.38 0.35 0.09 0.01 0.00 0.00 0.00 0.00 0.00 0.00 0.00 0.00 0.00 0.00 0.00 0.00 0.00 0.00 0.00 0.00 0.00 0.00 0.00 0.00 0.00 0.00 0.00 0.00 0.00 0.00 0.00 0.00 0.00 0.00 0.00 0.00
0.84 0.86 1.34 1.05 0.71 0.25 0.11 0.09 0.12 0.07 0.04 0.01 0.00 0.00 0.00 0.00 0.00 0.00 0.00 0.00 0.00 0.00 0.00 0.00 0.00 0.00 0.00 0.00 0.00 0.00 0.00 0.00 0.00 0.00 0.00 0.00 0.00 0.00 0.00 0.00 0.00 0.00 0.00
0.27 0.46 0.62 0.93 0.45 0.14 0.03 0.01 0.00 0.00 0.00 0.00 0.00 0.00 0.00 0.00 0.00 0.00 0.00 0.00 0.00 0.00 0.00 0.00 0.00 0.00 0.00 0.00 0.00 0.00 0.00 0.00 0.00 0.00 0.00 0.00 0.00 0.00 0.00 0.00 0.00 0.00 0.00
0.00 0.01 0.05 0.09 0.07 0.05 0.03 0.01 0.03 0.01 0.00 0.00 0.00 0.00 0.00 0.00 0.00 0.00 0.00 0.00 0.00 0.00 0.00 0.00 0.00 0.00 0.00 0.00 0.00 0.00 0.00 0.00 0.00 0.00 0.00 0.00 0.00 0.00 0.00 0.00 0.00 0.00 0.00
0.00 0.00 0.00 0.00 0.00 0.00 0.00 0.00 0.00 0.00 0.00 0.00 0.00 0.00 0.00 0.00 0.00 0.00 0.00 0.00 0.00 0.00 0.00 0.00 0.00 0.00 0.00 0.00 0.00 0.00 0.00 0.00 0.00 0.00 0.00 0.00 0.00 0.00 0.00 0.00 0.00 0.00 0.00
0.00 0.00 0.00 0.00 0.00 0.00 0.00 0.00 0.00 0.00 0.00 0.00 0.00 0.00 0.00 0.00 0.00 0.00 0.00 0.00 0.00 0.00 0.00 0.00 0.00 0.00 0.00 0.00 0.00 0.00 0.00 0.00 0.00 0.00 0.00 0.00 0.00 0.00 0.00 0.00 0.00 0.00 0.00
0.00 0.00 0.00 0.00 0.00 0.00 0.00 0.00 0.00 0.00 0.00 0.00 0.00 0.00 0.00 0.00 0.00 0.00 0.00 0.00 0.00 0.00 0.00 0.00 0.00 0.00 0.00 0.00 0.00 0.00 0.00 0.00 0.00 0.00 0.00 0.00 0.00 0.00 0.00 0.00 0.00 0.00 0.00
0.00 0.00 0.00 0.00 0.00 0.00 0.00 0.00 0.00 0.00 0.00 0.00 0.00 0.00 0.00 0.00 0.00 0.00 0.00 0.00 0.00 0.00 0.00 0.00 0.00 0.00 0.00 0.00 0.00 0.00 0.00 0.00 0.00 0.00 0.00 0.00 0.00 0.00 0.00 0.00 0.00 0.00 0.00
0.00 0.00 0.00 0.00 0.00 0.00 0.00 0.00 0.00 0.00 0.00 0.00 0.00 0.00 0.00 0.00 0.00 0.00 0.00 0.00 0.00 0.00 0.00 0.00 0.00 0.00 0.00 0.00 0.00 0.00 0.00 0.00 0.00 0.00 0.00 0.00 0.00 0.00 0.00 0.00 0.00 0.00 0.00
0.00 0.00 0.00 0.00 0.00 0.00 0.00 0.00 0.00 0.00 0.00 0.00 0.00 0.00 0.00 0.00 0.00 0.00 0.00 0.00 0.00 0.00 0.00 0.00 0.00 0.00 0.00 0.00 0.00 0.00 0.00 0.00 0.00 0.00 0.00 0.00 0.00 0.00 0.00 0.00 0.00 0.00 0.00
0.02 0.01 0.00 0.00 0.00 0.00 0.00 0.00 0.00 0.00 0.00 0.00 0.00 0.00 0.00 0.00 0.00 0.00 0.00 0.00 0.00 0.00 0.00 0.00 0.00 0.00 0.00 0.00 0.00 0.00 0.00 0.00 0.00 0.00 0.00 0.00 0.00 0.00 0.00 0.00 0.00 0.00 0.00
0.03 0.03 0.02 0.01 0.00 0.00 0.00 0.00 0.00 0.00 0.00 0.00 0.00 0.00 0.00 0.00 0.00 0.00 0.00 0.00 0.00 0.00 0.00 0.00 0.00 0.00 0.00 0.00 0.00 0.00 0.00 0.00 0.00 0.00 0.00 0.00 0.00 0.00 0.00 0.00 0.00 0.00 0.00
0.07 0.06 0.02 0.01 0.00 0.00 0.00 0.00 0.00 0.00 0.00 0.00 0.00 0.00 0.00 0.00 0.00 0.00 0.00 0.00 0.00 0.00 0.00 0.00 0.00 0.00 0.00 0.00 0.00 0.00 0.00 0.00 0.00 0.00 0.00 0.00 0.00 0.00 0.00 0.00 0.00 0.00 0.00
0.09 0.08 0.06 0.02 0.01 0.01 0.00 0.00 0.00 0.00 0.00 0.00 0.00 0.00 0.00 0.00 0.00 0.00 0.00 0.00 0.00 0.00 0.00 0.00 0.00 0.00 0.00 0.00 0.00 0.00 0.00 0.00 0.00 0.00 0.00 0.00 0.00 0.00 0.00 0.00 0.00 0.00 0.00
0.13 0.15 0.13 0.07 0.03 0.02 0.01 0.00 0.01 0.01 0.01 0.01 0.01 0.01 0.01 0.00 0.00 0.00 0.00 0.00 0.00 0.00 0.00 0.00 0.00 0.00 0.00 0.00 0.00 0.00 0.00 0.00 0.00 0.00 0.00 0.00 0.00 0.00 0.00 0.00 0.00 0.00 0.00
0.08 0.14 0.14 0.11 0.08 0.05 0.04 0.04 0.04 0.03 0.03 0.02 0.02 0.02 0.02 0.01 0.00 0.00 0.00 0.00 0.00 0.00 0.00 0.00 0.00 0.00 0.00 0.00 0.00 0.00 0.00 0.00 0.00 0.00 0.00 0.00 0.00 0.00 0.00 0.00 0.00 0.00 0.00

GFSGL_prec_precacc12_117.txt.gz
Total_Precipitation_Accumulation
0.00 0.01 0.00 0.00 0.00 0.04 0.05 0.10 0.10 0.04 0.00 0.00 0.01 0.00 0.08 0.00 0.00 0.00 0.05 0.04 0.01 0.01 0.00 0.00 0.00 0.00 0.00 0.00 0.00 0.01 0.00 0.00 0.00 0.00 0.00 0.00 0.00 0.00 0.00 0.00 0.00 0.00 0.00
0.34 0.46 0.34 0.22 0.17 0.08 0.03 0.04 0.04 0.03 0.00 0.00 0.00 0.00 0.03 0.05 0.03 0.02 0.03 0.05 0.07 0.07 0.06 0.04 0.01 0.00 0.02 0.03 0.01 0.01 0.01 0.00 0.00 0.00 0.00 0.01 0.01 0.00 0.00 0.00 0.00 0.00 0.01
0.43 0.57 0.55 0.32 0.29 0.34 0.26 0.20 0.14 0.04 0.02 0.03 0.01 0.00 0.00 0.01 0.04 0.23 0.34 0.24 0.13 0.08 0.08 0.04 0.04 0.02 0.11 0.09 0.08 0.08 0.02 0.01 0.03 0.01 0.00 0.00 0.00 0.00 0.00 0.00 0.00 0.00 0.00
0.36 0.31 0.42 0.40 0.26 0.26 0.33 0.35 0.27 0.24 0.31 0.16 0.13 0.06 0.03 0.04 0.06 0.22 0.32 0.43 0.26 0.11 0.14 0.15 0.13 0.09 0.21 0.17 0.14 0.11 0.07 0.11 0.07 0.04 0.02 0.00 0.00 0.00 0.00 0.00 0.00 0.00 0.00
0.33 0.27 0.25 0.26 0.27 0.19 0.28 0.33 0.28 0.23 0.24 0.22 0.25 0.31 0.30 0.18 0.14 0.12 0.10 0.05 0.07 0.14 0.20 0.41 0.50 0.49 0.39 0.24 0.26 0.16 0.12 0.22 0.14 0.09 0.07 0.04 0.04 0.02 0.03 0.00 0.00 0.00 0.00
0.39 0.52 0.44 0.34 0.27 0.15 0.16 0.17 0.16 0.12 0.10 0.08 0.07 0.15 0.26 0.18 0.09 0.08 0.06 0.06 0.10 0.13 0.10 0.08 0.26 0.25 0.24 0.16 0.10 0.05 0.07 0.17 0.16 0.13 0.17 0.12 0.09 0.04 0.00 0.00 0.00 0.00 0.00
0.31 0.34 0.32 0.37 0.23 0.19 0.11 0.11 0.17 0.15 0.15 0.13 0.11 0.13 0.06 0.02 0.02 0.01 0.00 0.00 0.08 0.18 0.20 0.20 0.15 0.07 0.05 0.04 0.05 0.07 0.11 0.18 0.11 0.05 0.05 0.04 0.02 0.01 0.00 0.00 0.00 0.00 0.00
0.47 0.50 0.31 0.32 0.28 0.18 0.10 0.04 0.04 0.06 0.09 0.12 0.04 0.02 0.02 0.02 0.01 0.00 0.00 0.00 0.01 0.10 0.14 0.16 0.11 0.08 0.07 0.03 0.01 0.00 0.02 0.07 0.04 0.01 0.00 0.03 0.01 0.00 0.00 0.00 0.00 0.00 0.00
0.55 0.47 0.31 0.19 0.16 0.23 0.20 0.21 0.19 0.09 0.05 0.10 0.05 0.01 0.00 0.00 0.00 0.00 0.01 0.03 0.05 0.07 0.07 0.07 0.07 0.04 0.01 0.00 0.00 0.00 0.00 0.00 0.00 0.00 0.00 0.01 0.00 0.00 0.00 0.00 0.00 0.00 0.01
1.02 0.64 0.59 0.57 0.40 0.36 0.50 0.51 0.44 0.31 0.17 0.15 0.10 0.02 0.00 0.00 0.00 0.00 0.00 0.00 0.00 0.01 0.01 0.02 0.01 0.01 0.01 0.00 0.00 0.00 0.00 0.00 0.00 0.00 0.00 0.00 0.00 0.00 0.00 0.00 0.00 0.00 0.00
0.96 1.08 0.74 0.70 0.62 0.50 0.54 0.69 0.73 0.62 0.43 0.18 0.11 0.04 0.01 0.00 0.00 0.00 0.00 0.00 0.00 0.00 0.00 0.00 0.00 0.00 0.00 0.00 0.00 0.00 0.00 0.00 0.00 0.00 0.00 0.00 0.00 0.00 0.00 0.00 0.00 0.00 0.00
1.04 1.14 1.52 1.15 1.13 0.97 0.98 0.92 0.58 0.57 0.36 0.12 0.04 0.01 0.00 0.00 0.00 0.00 0.00 0.00 0.00 0.00 0.00 0.00 0.00 0.00 0.00 0.00 0.00 0.00 0.00 0.00 0.00 0.00 0.00 0.00 0.00 0.00 0.00 0.00 0.00 0.00 0.00
0.34 0.51 0.72 1.21 0.93 0.89 0.72 0.56 0.41 0.26 0.09 0.03 0.00 0.00 0.00 0.00 0.00 0.00 0.00 0.00 0.00 0.00 0.00 0.00 0.00 0.00 0.00 0.00 0.00 0.00 0.00 0.00 0.00 0.00 0.00 0.00 0.00 0.00 0.00 0.00 0.00 0.00 0.00
0.04 0.03 0.08 0.18 0.17 0.21 0.19 0.16 0.18 0.20 0.12 0.04 0.01 0.01 0.01 0.00 0.00 0.00 0.00 0.00 0.00 0.00 0.00 0.00 0.00 0.00 0.00 0.00 0.00 0.00 0.00 0.00 0.00 0.00 0.00 0.00 0.00 0.00 0.00 0.00 0.00 0.00 0.00
0.00 0.00 0.00 0.00 0.02 0.05 0.06 0.06 0.04 0.06 0.05 0.04 0.01 0.00 0.00 0.00 0.00 0.00 0.00 0.00 0.00 0.00 0.00 0.00 0.00 0.00 0.00 0.00 0.00 0.00 0.00 0.00 0.00 0.00 0.00 0.00 0.00 0.00 0.00 0.00 0.00 0.00 0.00
0.00 0.00 0.00 0.00 0.00 0.00 0.00 0.00 0.00 0.00 0.00 0.00 0.00 0.00 0.00 0.00 0.00 0.00 0.00 0.00 0.00 0.00 0.00 0.00 0.00 0.00 0.00 0.00 0.00 0.00 0.00 0.00 0.00 0.00 0.00 0.00 0.00 0.00 0.00 0.00 0.00 0.00 0.00
0.00 0.00 0.00 0.00 0.00 0.00 0.00 0.00 0.00 0.00 0.00 0.00 0.00 0.00 0.00 0.00 0.00 0.00 0.00 0.00 0.00 0.00 0.00 0.00 0.00 0.00 0.00 0.00 0.00 0.00 0.00 0.00 0.00 0.00 0.00 0.00 0.00 0.00 0.00 0.00 0.00 0.00 0.00
0.00 0.00 0.00 0.00 0.00 0.00 0.00 0.00 0.00 0.00 0.00 0.00 0.00 0.00 0.00 0.00 0.00 0.00 0.00 0.00 0.00 0.00 0.00 0.00 0.00 0.00 0.00 0.00 0.00 0.00 0.00 0.00 0.00 0.00 0.00 0.00 0.00 0.00 0.00 0.00 0.00 0.00 0.00
0.00 0.00 0.00 0.00 0.00 0.00 0.00 0.00 0.00 0.00 0.00 0.00 0.00 0.00 0.00 0.00 0.00 0.00 0.00 0.00 0.00 0.00 0.00 0.00 0.00 0.00 0.00 0.00 0.00 0.00 0.00 0.00 0.00 0.00 0.00 0.00 0.00 0.00 0.00 0.00 0.00 0.00 0.00
0.00 0.00 0.00 0.00 0.00 0.00 0.00 0.00 0.00 0.00 0.00 0.00 0.00 0.00 0.00 0.00 0.00 0.00 0.00 0.00 0.00 0.00 0.00 0.00 0.00 0.00 0.00 0.00 0.00 0.00 0.00 0.00 0.00 0.00 0.00 0.00 0.00 0.00 0.00 0.00 0.00 0.00 0.00
0.02 0.01 0.00 0.00 0.00 0.00 0.00 0.00 0.00 0.00 0.00 0.00 0.00 0.00 0.00 0.00 0.00 0.00 0.00 0.00 0.00 0.00 0.00 0.00 0.00 0.00 0.00 0.00 0.00 0.00 0.00 0.00 0.00 0.00 0.00 0.00 0.00 0.00 0.00 0.00 0.00 0.00 0.00
0.02 0.03 0.02 0.01 0.00 0.00 0.00 0.00 0.00 0.00 0.00 0.00 0.00 0.00 0.00 0.00 0.00 0.00 0.00 0.00 0.00 0.00 0.00 0.00 0.00 0.00 0.00 0.00 0.00 0.00 0.00 0.00 0.00 0.00 0.00 0.00 0.00 0.00 0.00 0.00 0.00 0.00 0.00
0.01 0.01 0.01 0.01 0.00 0.00 0.00 0.00 0.00 0.00 0.00 0.00 0.00 0.00 0.00 0.00 0.00 0.00 0.00 0.00 0.00 0.00 0.00 0.00 0.00 0.00 0.00 0.00 0.00 0.00 0.00 0.00 0.00 0.00 0.00 0.00 0.00 0.00 0.00 0.00 0.00 0.00 0.00
0.02 0.03 0.02 0.01 0.01 0.01 0.00 0.00 0.00 0.00 0.00 0.00 0.00 0.00 0.00 0.00 0.00 0.00 0.00 0.00 0.00 0.00 0.00 0.00 0.00 0.00 0.00 0.00 0.00 0.00 0.00 0.00 0.00 0.00 0.00 0.00 0.00 0.00 0.00 0.00 0.00 0.00 0.00
0.02 0.04 0.06 0.04 0.03 0.02 0.01 0.00 0.01 0.01 0.01 0.01 0.01 0.01 0.01 0.01 0.01 0.01 0.01 0.00 0.00 0.00 0.00 0.00 0.00 0.00 0.00 0.00 0.00 0.00 0.00 0.00 0.00 0.00 0.00 0.00 0.00 0.00 0.00 0.00 0.00 0.00 0.00
0.00 0.01 0.03 0.04 0.06 0.05 0.04 0.04 0.04 0.03 0.03 0.02 0.02 0.02 0.02 0.02 0.02 0.01 0.01 0.00 0.00 0.00 0.00 0.00 0.00 0.00 0.00 0.00 0.00 0.00 0.00 0.00 0.00 0.00 0.00 0.00 0.00 0.00 0.00 0.00 0.00 0.00 0.00

GFSGL_prec_precacc12_120.txt.gz
Total_Precipitation_Accumulation
0.00 0.00 0.00 0.00 0.00 0.04 0.05 0.13 0.19 0.10 0.01 0.00 0.00 0.00 0.09 0.06 0.03 0.04 0.10 0.05 0.04 0.03 0.01 0.01 0.01 0.01 0.00 0.00 0.00 0.00 0.00 0.00 0.00 0.00 0.00 0.00 0.00 0.00 0.00 0.00 0.00 0.00 0.00
0.09 0.14 0.16 0.12 0.08 0.02 0.05 0.06 0.10 0.09 0.09 0.00 0.00 0.00 0.03 0.04 0.02 0.04 0.14 0.06 0.07 0.06 0.05 0.05 0.03 0.02 0.06 0.06 0.02 0.01 0.02 0.02 0.01 0.00 0.01 0.00 0.01 0.00 0.00 0.00 0.00 0.00 0.00
0.16 0.20 0.27 0.21 0.20 0.25 0.18 0.09 0.07 0.04 0.02 0.00 0.00 0.00 0.00 0.00 0.02 0.26 0.41 0.19 0.11 0.07 0.06 0.03 0.04 0.03 0.14 0.13 0.14 0.15 0.05 0.05 0.10 0.03 0.02 0.01 0.00 0.00 0.00 0.00 0.00 0.00 0.00
0.12 0.09 0.25 0.28 0.18 0.15 0.22 0.17 0.18 0.22 0.22 0.05 0.09 0.06 0.03 0.02 0.03 0.20 0.29 0.33 0.19 0.06 0.21 0.10 0.17 0.15 0.25 0.20 0.19 0.22 0.16 0.20 0.16 0.10 0.12 0.05 0.01 0.00 0.00 0.00 0.00 0.00 0.00
0.20 0.18 0.24 0.29 0.31 0.22 0.21 0.26 0.19 0.20 0.22 0.17 0.18 0.24 0.27 0.15 0.10 0.07 0.04 0.04 0.07 0.12 0.09 0.38 0.37 0.44 0.35 0.22 0.21 0.23 0.20 0.25 0.17 0.13 0.14 0.13 0.12 0.07 0.07 0.01 0.00 0.00 0.01
0.19 0.43 0.56 0.50 0.40 0.26 0.21 0.24 0.19 0.13 0.10 0.09 0.06 0.11 0.22 0.18 0.09 0.08 0.05 0.01 0.02 0.04 0.06 0.11 0.24 0.24 0.09 0.05 0.04 0.03 0.08 0.27 0.27 0.19 0.22 0.18 0.16 0.13 0.04 0.00 0.00 0.01 0.05
0.30 0.37 0.38 0.47 0.32 0.29 0.20 0.20 0.25 0.20 0.16 0.13 0.12 0.13 0.06 0.03 0.02 0.01 0.00 0.00 0.02 0.14 0.16 0.18 0.16 0.07 0.04 0.02 0.01 0.01 0.06 0.10 0.07 0.07 0.10 0.06 0.06 0.01 0.00 0.00 0.01 0.02 0.03
0.45 0.57 0.43 0.40 0.38 0.32 0.21 0.12 0.10 0.09 0.10 0.16 0.08 0.04 0.04 0.04 0.04 0.01 0.00 0.00 0.01 0.09 0.13 0.16 0.14 0.09 0.06 0.02 0.00 0.00 0.00 0.03 0.02 0.01 0.00 0.01 0.00 0.00 0.00 0.00 0.00 0.01 0.01
0.59 0.48 0.34 0.29 0.32 0.37 0.35 0.37 0.33 0.18 0.14 0.18 0.11 0.02 0.02 0.01 0.01 0.01 0.01 0.01 0.03 0.06 0.07 0.06 0.06 0.04 0.01 0.00 0.00 0.00 0.00 0.00 0.00 0.00 0.00 0.00 0.00 0.00 0.00 0.00 0.00 0.00 0.06
1.02 0.66 0.61 0.67 0.56 0.61 0.93 0.86 0.76 0.57 0.31 0.25 0.26 0.17 0.09 0.04 0.01 0.00 0.00 0.00 0.00 0.01 0.01 0.02 0.02 0.01 0.01 0.00 0.00 0.00 0.00 0.00 0.00 0.00 0.00 0.00 0.00 0.00 0.00 0.00 0.00 0.00 0.00
1.02 1.10 0.77 0.81 1.02 0.90 0.77 0.89 0.96 0.86 0.78 0.49 0.39 0.23 0.10 0.05 0.02 0.01 0.00 0.00 0.00 0.00 0.00 0.00 0.00 0.00 0.00 0.00 0.00 0.00 0.00 0.00 0.00 0.00 0.00 0.00 0.00 0.00 0.00 0.00 0.00 0.00 0.00
1.03 1.18 1.70 1.32 1.27 1.28 1.29 1.25 1.13 1.09 1.06 0.65 0.41 0.30 0.14 0.04 0.02 0.01 0.01 0.00 0.00 0.00 0.00 0.00 0.00 0.00 0.00 0.00 0.00 0.00 0.00 0.00 0.00 0.00 0.00 0.00 0.00 0.00 0.00 0.00 0.00 0.00 0.00
0.42 0.60 0.84 1.30 0.95 0.93 0.84 0.78 0.69 0.55 0.41 0.25 0.15 0.12 0.08 0.04 0.03 0.01 0.00 0.00 0.00 0.00 0.00 0.00 0.00 0.00 0.00 0.00 0.00 0.00 0.00 0.00 0.00 0.00 0.00 0.00 0.00 0.00 0.00 0.00 0.00 0.00 0.00
0.05 0.04 0.09 0.20 0.17 0.21 0.21 0.26 0.38 0.44 0.48 0.44 0.22 0.12 0.06 0.01 0.00 0.00 0.00 0.00 0.00 0.00 0.00 0.00 0.00 0.00 0.00 0.00 0.00 0.00 0.00 0.00 0.00 0.00 0.00 0.00 0.00 0.00 0.00 0.00 0.00 0.00 0.00
0.00 0.00 0.00 0.00 0.02 0.06 0.07 0.12 0.14 0.16 0.20 0.33 0.29 0.12 0.05 0.01 0.00 0.00 0.00 0.00 0.00 0.00 0.00 0.00 0.00 0.00 0.00 0.00 0.00 0.00 0.00 0.00 0.00 0.00 0.00 0.00 0.00 0.00 0.00 0.00 0.00 0.00 0.00
0.00 0.00 0.00 0.00 0.00 0.00 0.00 0.00 0.01 0.03 0.03 0.02 0.02 0.01 0.00 0.00 0.00 0.00 0.00 0.00 0.00 0.00 0.00 0.00 0.00 0.00 0.00 0.00 0.00 0.00 0.00 0.00 0.00 0.00 0.00 0.00 0.00 0.00 0.00 0.00 0.00 0.00 0.00
0.00 0.00 0.00 0.00 0.00 0.00 0.00 0.00 0.00 0.00 0.00 0.00 0.00 0.00 0.00 0.00 0.00 0.00 0.00 0.00 0.00 0.00 0.00 0.00 0.00 0.00 0.00 0.00 0.00 0.00 0.00 0.00 0.00 0.00 0.00 0.00 0.00 0.00 0.00 0.00 0.00 0.00 0.00
0.00 0.00 0.00 0.00 0.00 0.00 0.00 0.00 0.00 0.00 0.00 0.00 0.00 0.00 0.00 0.00 0.00 0.00 0.00 0.00 0.00 0.00 0.00 0.00 0.00 0.00 0.00 0.00 0.00 0.00 0.00 0.00 0.00 0.00 0.00 0.00 0.00 0.00 0.00 0.00 0.00 0.00 0.00
0.00 0.00 0.00 0.00 0.00 0.00 0.00 0.00 0.00 0.00 0.00 0.00 0.00 0.00 0.00 0.00 0.00 0.00 0.00 0.00 0.00 0.00 0.00 0.00 0.00 0.00 0.00 0.00 0.00 0.00 0.00 0.00 0.00 0.00 0.00 0.00 0.00 0.00 0.00 0.00 0.00 0.00 0.00
0.00 0.00 0.00 0.00 0.00 0.00 0.00 0.00 0.00 0.00 0.00 0.00 0.00 0.00 0.00 0.00 0.00 0.00 0.00 0.00 0.00 0.00 0.00 0.00 0.00 0.00 0.00 0.00 0.00 0.00 0.00 0.00 0.00 0.00 0.00 0.00 0.00 0.00 0.00 0.00 0.00 0.00 0.00
0.01 0.00 0.00 0.00 0.00 0.00 0.00 0.00 0.00 0.00 0.00 0.00 0.00 0.00 0.00 0.00 0.00 0.00 0.00 0.00 0.00 0.00 0.00 0.00 0.00 0.00 0.00 0.00 0.00 0.00 0.00 0.00 0.00 0.00 0.00 0.00 0.00 0.00 0.00 0.00 0.00 0.00 0.00
0.00 0.00 0.01 0.00 0.00 0.00 0.00 0.00 0.00 0.00 0.00 0.00 0.00 0.00 0.00 0.00 0.00 0.00 0.00 0.00 0.00 0.00 0.00 0.00 0.00 0.00 0.00 0.00 0.00 0.00 0.00 0.00 0.00 0.00 0.00 0.00 0.00 0.00 0.00 0.00 0.00 0.00 0.00
0.00 0.00 0.00 0.00 0.00 0.00 0.00 0.00 0.00 0.00 0.00 0.00 0.00 0.00 0.00 0.00 0.00 0.00 0.00 0.00 0.00 0.00 0.00 0.00 0.00 0.00 0.00 0.00 0.00 0.00 0.00 0.00 0.00 0.00 0.00 0.00 0.00 0.00 0.00 0.00 0.00 0.00 0.00
0.00 0.00 0.00 0.00 0.00 0.00 0.00 0.00 0.00 0.00 0.00 0.00 0.00 0.00 0.00 0.00 0.00 0.00 0.00 0.00 0.00 0.00 0.00 0.00 0.00 0.00 0.00 0.00 0.00 0.00 0.00 0.00 0.00 0.00 0.00 0.00 0.00 0.00 0.00 0.00 0.00 0.00 0.00
0.00 0.00 0.00 0.00 0.00 0.00 0.00 0.00 0.01 0.01 0.01 0.01 0.01 0.01 0.01 0.01 0.01 0.01 0.01 0.00 0.00 0.00 0.00 0.00 0.00 0.00 0.00 0.00 0.00 0.00 0.00 0.00 0.00 0.00 0.00 0.00 0.00 0.00 0.00 0.00 0.00 0.00 0.00
0.00 0.00 0.00 0.00 0.00 0.00 0.01 0.03 0.04 0.03 0.03 0.02 0.02 0.02 0.02 0.02 0.02 0.01 0.01 0.00 0.00 0.00 0.00 0.00 0.00 0.00 0.00 0.00 0.00 0.00 0.00 0.00 0.00 0.00 0.00 0.00 0.00 0.00 0.00 0.00 0.00 0.00 0.00

GFSGL_prec_precacc12_123.txt.gz
Total_Precipitation_Accumulation
0.00 0.00 0.00 0.00 0.00 0.04 0.06 0.18 0.24 0.16 0.09 0.05 0.04 0.08 0.15 0.10 0.09 0.14 0.15 0.05 0.06 0.05 0.01 0.01 0.01 0.01 0.00 0.00 0.00 0.00 0.00 0.00 0.00 0.00 0.00 0.00 0.00 0.00 0.00 0.00 0.00 0.00 0.04
0.00 0.00 0.00 0.00 0.00 0.00 0.05 0.08 0.17 0.15 0.17 0.09 0.09 0.06 0.09 0.08 0.09 0.15 0.20 0.09 0.13 0.11 0.05 0.03 0.03 0.01 0.07 0.06 0.01 0.02 0.02 0.02 0.01 0.01 0.01 0.00 0.02 0.01 0.00 0.00 0.00 0.01 0.01
0.05 0.06 0.02 0.01 0.01 0.04 0.04 0.04 0.08 0.08 0.05 0.06 0.10 0.07 0.05 0.05 0.03 0.17 0.44 0.21 0.15 0.11 0.06 0.03 0.03 0.03 0.14 0.14 0.15 0.15 0.05 0.09 0.20 0.14 0.04 0.02 0.13 0.13 0.04 0.00 0.00 0.01 0.04
0.05 0.05 0.08 0.04 0.03 0.07 0.05 0.03 0.06 0.10 0.11 0.04 0.05 0.06 0.06 0.02 0.02 0.18 0.31 0.32 0.23 0.12 0.31 0.20 0.24 0.23 0.28 0.26 0.23 0.28 0.24 0.22 0.21 0.16 0.21 0.10 0.02 0.13 0.22 0.04 0.08 0.07 0.05
0.13 0.13 0.13 0.17 0.16 0.20 0.14 0.13 0.10 0.11 0.15 0.16 0.18 0.18 0.17 0.15 0.10 0.07 0.08 0.07 0.09 0.13 0.16 0.43 0.38 0.48 0.51 0.37 0.32 0.30 0.25 0.20 0.21 0.21 0.22 0.20 0.15 0.08 0.11 0.03 0.01 0.01 0.10
0.16 0.31 0.41 0.36 0.37 0.28 0.19 0.27 0.23 0.16 0.13 0.11 0.09 0.11 0.18 0.14 0.08 0.09 0.06 0.01 0.01 0.04 0.07 0.13 0.24 0.28 0.08 0.03 0.05 0.07 0.11 0.25 0.30 0.22 0.24 0.23 0.20 0.17 0.10 0.03 0.00 0.05 0.15
0.25 0.24 0.25 0.33 0.30 0.30 0.23 0.32 0.37 0.32 0.26 0.20 0.20 0.20 0.13 0.07 0.03 0.01 0.00 0.00 0.01 0.12 0.18 0.24 0.25 0.12 0.08 0.02 0.01 0.00 0.00 0.01 0.04 0.09 0.14 0.15 0.13 0.13 0.03 0.04 0.06 0.09 0.12
0.22 0.33 0.37 0.37 0.44 0.42 0.31 0.22 0.18 0.13 0.15 0.22 0.14 0.12 0.12 0.08 0.05 0.02 0.01 0.00 0.00 0.05 0.07 0.11 0.24 0.18 0.09 0.02 0.00 0.00 0.00 0.00 0.00 0.00 0.00 0.05 0.00 0.00 0.00 0.01 0.01 0.04 0.05
0.36 0.34 0.27 0.31 0.35 0.44 0.44 0.47 0.39 0.24 0.19 0.23 0.14 0.04 0.04 0.03 0.05 0.02 0.02 0.02 0.01 0.02 0.02 0.02 0.06 0.06 0.02 0.00 0.00 0.00 0.00 0.00 0.00 0.00 0.00 0.00 0.00 0.00 0.00 0.00 0.01 0.04 0.14
0.44 0.56 0.60 0.69 0.59 0.64 0.97 1.10 1.00 0.88 0.61 0.42 0.37 0.27 0.15 0.06 0.05 0.01 0.00 0.01 0.02 0.01 0.00 0.01 0.01 0.02 0.02 0.00 0.00 0.01 0.01 0.00 0.00 0.00 0.00 0.00 0.00 0.00 0.00 0.00 0.00 0.00 0.01
0.77 0.89 0.68 0.75 1.00 0.98 0.99 1.17 1.24 1.27 1.28 1.01 0.81 0.45 0.23 0.09 0.04 0.03 0.02 0.02 0.03 0.03 0.01 0.00 0.00 0.00 0.00 0.00 0.00 0.00 0.00 0.00 0.00 0.00 0.00 0.00 0.00 0.00 0.00 0.00 0.00 0.00 0.00
0.94 0.94 1.55 1.28 1.26 1.31 1.35 1.41 1.40 1.39 1.28 0.98 0.96 0.83 0.48 0.22 0.11 0.08 0.06 0.02 0.01 0.01 0.00 0.00 0.00 0.00 0.00 0.00 0.00 0.00 0.00 0.00 0.00 0.00 0.00 0.00 0.00 0.00 0.00 0.00 0.00 0.00 0.00
0.46 0.68 1.01 1.66 1.12 0.96 0.85 0.81 0.81 0.69 0.48 0.32 0.33 0.40 0.35 0.25 0.18 0.11 0.05 0.03 0.02 0.01 0.01 0.01 0.00 0.00 0.00 0.00 0.00 0.00 0.00 0.00 0.00 0.00 0.00 0.00 0.00 0.00 0.00 0.00 0.00 0.00 0.00
0.13 0.16 0.18 0.28 0.23 0.22 0.21 0.26 0.38 0.47 0.55 0.57 0.38 0.26 0.24 0.18 0.11 0.03 0.02 0.00 0.00 0.00 0.00 0.00 0.00 0.00 0.00 0.00 0.00 0.00 0.00 0.00 0.00 0.00 0.00 0.00 0.00 0.00 0.00 0.00 0.00 0.00 0.00
0.01 0.00 0.00 0.01 0.03 0.06 0.07 0.12 0.14 0.17 0.22 0.39 0.51 0.27 0.15 0.08 0.03 0.01 0.00 0.00 0.00 0.00 0.00 0.00 0.00 0.00 0.00 0.00 0.00 0.00 0.00 0.00 0.00 0.00 0.00 0.00 0.00 0.00 0.00 0.00 0.00 0.00 0.00
0.00 0.00 0.00 0.00 0.00 0.00 0.00 0.00 0.01 0.04 0.04 0.03 0.04 0.04 0.02 0.01 0.00 0.00 0.00 0.00 0.00 0.00 0.00 0.00 0.00 0.00 0.00 0.00 0.00 0.00 0.00 0.00 0.00 0.00 0.00 0.00 0.00 0.00 0.00 0.00 0.00 0.00 0.00
0.00 0.00 0.00 0.00 0.00 0.00 0.00 0.00 0.00 0.00 0.00 0.00 0.00 0.00 0.00 0.00 0.00 0.00 0.00 0.00 0.00 0.00 0.00 0.00 0.00 0.00 0.00 0.00 0.00 0.00 0.00 0.00 0.00 0.00 0.00 0.00 0.00 0.00 0.00 0.00 0.00 0.00 0.00
0.00 0.00 0.00 0.00 0.00 0.00 0.00 0.00 0.00 0.00 0.00 0.00 0.00 0.00 0.00 0.00 0.00 0.00 0.00 0.00 0.00 0.00 0.00 0.00 0.00 0.00 0.00 0.00 0.00 0.00 0.00 0.00 0.00 0.00 0.00 0.00 0.00 0.00 0.00 0.00 0.00 0.00 0.00
0.00 0.00 0.00 0.00 0.00 0.00 0.00 0.00 0.00 0.00 0.00 0.00 0.00 0.00 0.00 0.00 0.00 0.00 0.00 0.00 0.00 0.00 0.00 0.00 0.00 0.00 0.00 0.00 0.00 0.00 0.00 0.00 0.00 0.00 0.00 0.00 0.00 0.00 0.00 0.00 0.00 0.00 0.00
0.00 0.00 0.00 0.00 0.00 0.00 0.00 0.00 0.00 0.00 0.00 0.00 0.00 0.00 0.00 0.00 0.00 0.00 0.00 0.00 0.00 0.00 0.00 0.00 0.00 0.00 0.00 0.00 0.00 0.00 0.00 0.00 0.00 0.00 0.00 0.00 0.00 0.00 0.00 0.00 0.00 0.00 0.00
0.00 0.00 0.00 0.00 0.00 0.00 0.00 0.00 0.00 0.00 0.00 0.00 0.00 0.00 0.00 0.00 0.00 0.00 0.00 0.00 0.00 0.00 0.00 0.00 0.00 0.00 0.00 0.00 0.00 0.00 0.00 0.00 0.00 0.00 0.00 0.00 0.00 0.00 0.00 0.00 0.00 0.00 0.00
0.00 0.00 0.00 0.00 0.00 0.00 0.00 0.00 0.00 0.00 0.00 0.00 0.00 0.00 0.00 0.00 0.00 0.00 0.00 0.00 0.00 0.00 0.00 0.00 0.00 0.00 0.00 0.00 0.00 0.00 0.00 0.00 0.00 0.00 0.00 0.00 0.00 0.00 0.00 0.00 0.00 0.00 0.00
0.00 0.00 0.00 0.00 0.00 0.00 0.00 0.00 0.00 0.00 0.00 0.00 0.00 0.00 0.00 0.00 0.00 0.00 0.00 0.00 0.00 0.00 0.00 0.00 0.00 0.00 0.00 0.00 0.00 0.00 0.00 0.00 0.00 0.00 0.00 0.00 0.00 0.00 0.00 0.00 0.00 0.00 0.00
0.00 0.00 0.00 0.00 0.00 0.00 0.00 0.00 0.00 0.00 0.00 0.00 0.00 0.00 0.00 0.00 0.00 0.00 0.00 0.00 0.00 0.00 0.00 0.00 0.00 0.00 0.00 0.00 0.00 0.00 0.00 0.00 0.00 0.00 0.00 0.00 0.00 0.00 0.00 0.00 0.00 0.00 0.00
0.00 0.00 0.00 0.00 0.00 0.00 0.00 0.00 0.00 0.00 0.00 0.01 0.01 0.01 0.01 0.01 0.01 0.01 0.01 0.00 0.00 0.00 0.00 0.00 0.00 0.01 0.01 0.00 0.00 0.00 0.00 0.00 0.00 0.00 0.00 0.00 0.00 0.00 0.00 0.00 0.00 0.00 0.00
0.00 0.00 0.00 0.00 0.00 0.00 0.00 0.00 0.00 0.00 0.00 0.01 0.01 0.02 0.02 0.02 0.02 0.01 0.01 0.00 0.00 0.00 0.00 0.01 0.00 0.01 0.02 0.03 0.01 0.00 0.00 0.00 0.00 0.00 0.00 0.00 0.00 0.00 0.00 0.00 0.00 0.00 0.00

GFSGL_prec_precacc12_126.txt.gz
Total_Precipitation_Accumulation
0.00 0.00 0.00 0.00 0.00 0.02 0.08 0.13 0.27 0.24 0.14 0.13 0.06 0.09 0.11 0.14 0.13 0.18 0.15 0.11 0.12 0.09 0.02 0.03 0.03 0.02 0.00 0.00 0.00 0.00 0.00 0.00 0.00 0.00 0.00 0.00 0.01 0.00 0.00 0.00 0.00 0.03 0.11
0.00 0.00 0.00 0.00 0.00 0.00 0.05 0.06 0.18 0.31 0.27 0.13 0.18 0.16 0.12 0.15 0.21 0.17 0.23 0.17 0.18 0.17 0.10 0.09 0.05 0.02 0.10 0.07 0.01 0.02 0.02 0.03 0.02 0.01 0.01 0.01 0.03 0.08 0.11 0.13 0.04 0.05 0.08
0.00 0.00 0.01 0.00 0.00 0.01 0.02 0.02 0.07 0.17 0.13 0.13 0.28 0.32 0.30 0.27 0.24 0.28 0.35 0.20 0.20 0.20 0.15 0.17 0.11 0.12 0.21 0.18 0.18 0.16 0.07 0.11 0.20 0.14 0.04 0.05 0.18 0.33 0.48 0.32 0.16 0.21 0.24
0.00 0.00 0.01 0.03 0.03 0.01 0.02 0.03 0.06 0.07 0.06 0.06 0.09 0.14 0.16 0.13 0.15 0.26 0.32 0.27 0.23 0.16 0.44 0.33 0.32 0.38 0.41 0.34 0.29 0.33 0.28 0.23 0.21 0.16 0.22 0.13 0.09 0.29 0.51 0.18 0.19 0.41 0.44
0.06 0.03 0.05 0.12 0.13 0.17 0.11 0.09 0.07 0.03 0.02 0.02 0.04 0.07 0.09 0.11 0.10 0.09 0.12 0.13 0.13 0.15 0.22 0.45 0.37 0.49 0.57 0.42 0.36 0.33 0.31 0.24 0.22 0.23 0.29 0.25 0.22 0.19 0.16 0.05 0.06 0.15 0.24
0.17 0.25 0.39 0.36 0.26 0.19 0.13 0.19 0.16 0.12 0.11 0.11 0.10 0.11 0.14 0.10 0.06 0.09 0.10 0.04 0.03 0.04 0.08 0.13 0.20 0.24 0.08 0.03 0.05 0.07 0.17 0.30 0.35 0.28 0.28 0.29 0.27 0.30 0.19 0.09 0.10 0.21 0.26
0.58 0.28 0.25 0.27 0.23 0.19 0.19 0.30 0.31 0.29 0.26 0.24 0.25 0.32 0.22 0.10 0.06 0.04 0.02 0.00 0.02 0.06 0.09 0.16 0.22 0.18 0.23 0.09 0.05 0.00 0.00 0.00 0.04 0.09 0.17 0.20 0.17 0.18 0.04 0.07 0.12 0.18 0.23
0.52 0.62 0.46 0.38 0.44 0.46 0.35 0.27 0.26 0.23 0.24 0.33 0.27 0.21 0.18 0.12 0.12 0.03 0.01 0.00 0.01 0.09 0.13 0.11 0.21 0.21 0.21 0.10 0.03 0.00 0.00 0.00 0.00 0.00 0.00 0.05 0.00 0.00 0.00 0.01 0.02 0.07 0.10
0.46 0.48 0.48 0.38 0.34 0.34 0.35 0.47 0.49 0.40 0.29 0.27 0.16 0.06 0.05 0.04 0.08 0.04 0.01 0.01 0.02 0.05 0.02 0.01 0.03 0.04 0.03 0.01 0.00 0.00 0.01 0.00 0.00 0.00 0.00 0.00 0.00 0.00 0.00 0.00 0.01 0.06 0.20
0.55 0.56 0.73 0.84 0.54 0.42 0.67 0.86 0.92 0.93 0.68 0.47 0.42 0.32 0.23 0.13 0.13 0.08 0.03 0.01 0.04 0.06 0.02 0.01 0.01 0.01 0.01 0.00 0.01 0.04 0.14 0.05 0.02 0.00 0.00 0.00 0.00 0.00 0.00 0.00 0.00 0.00 0.01
0.75 0.74 0.63 0.77 0.91 0.81 0.83 0.95 1.10 1.31 1.39 1.14 1.01 0.75 0.59 0.42 0.20 0.08 0.03 0.03 0.06 0.14 0.16 0.04 0.01 0.00 0.00 0.00 0.00 0.00 0.03 0.03 0.02 0.01 0.00 0.00 0.00 0.00 0.00 0.00 0.00 0.00 0.00
0.78 0.75 0.79 0.72 0.90 1.23 1.35 1.40 1.35 1.43 1.39 1.11 1.10 1.06 0.87 0.77 0.57 0.33 0.15 0.05 0.04 0.04 0.05 0.04 0.04 0.01 0.00 0.00 0.00 0.00 0.00 0.00 0.00 0.00 0.00 0.00 0.00 0.00 0.00 0.00 0.00 0.00 0.00
0.54 0.48 0.76 1.39 1.08 0.99 0.93 0.84 0.83 0.75 0.56 0.40 0.44 0.52 0.54 0.52 0.45 0.29 0.14 0.07 0.06 0.07 0.06 0.04 0.02 0.01 0.01 0.01 0.01 0.01 0.01 0.01 0.01 0.01 0.00 0.00 0.00 0.00 0.00 0.00 0.00 0.00 0.00
0.48 0.52 0.49 0.64 0.39 0.26 0.20 0.25 0.36 0.46 0.55 0.57 0.39 0.29 0.29 0.24 0.18 0.12 0.08 0.03 0.01 0.00 0.00 0.00 0.00 0.00 0.00 0.00 0.00 0.00 0.00 0.00 0.00 0.00 0.00 0.00 0.00 0.00 0.00 0.00 0.00 0.00 0.00
0.11 0.07 0.04 0.07 0.10 0.07 0.08 0.12 0.14 0.17 0.22 0.40 0.52 0.28 0.17 0.10 0.04 0.02 0.01 0.00 0.00 0.00 0.00 0.00 0.00 0.00 0.00 0.00 0.00 0.00 0.00 0.00 0.00 0.00 0.00 0.00 0.00 0.00 0.00 0.00 0.00 0.00 0.00
0.01 0.00 0.00 0.00 0.00 0.00 0.00 0.00 0.01 0.04 0.04 0.03 0.04 0.05 0.03 0.02 0.00 0.00 0.00 0.00 0.00 0.00 0.00 0.00 0.00 0.00 0.00 0.00 0.00 0.00 0.00 0.00 0.00 0.00 0.00 0.00 0.00 0.00 0.00 0.00 0.00 0.00 0.00
0.00 0.00 0.00 0.00 0.00 0.00 0.00 0.00 0.00 0.00 0.00 0.00 0.00 0.00 0.00 0.00 0.00 0.00 0.00 0.00 0.00 0.00 0.00 0.00 0.00 0.00 0.00 0.00 0.00 0.00 0.00 0.00 0.00 0.00 0.00 0.00 0.00 0.00 0.00 0.00 0.00 0.00 0.00
0.00 0.00 0.00 0.00 0.00 0.00 0.00 0.00 0.00 0.00 0.00 0.00 0.00 0.00 0.00 0.00 0.00 0.00 0.00 0.00 0.00 0.00 0.00 0.00 0.00 0.00 0.00 0.00 0.00 0.00 0.00 0.00 0.00 0.00 0.00 0.00 0.00 0.00 0.00 0.00 0.00 0.00 0.00
0.00 0.00 0.00 0.00 0.00 0.00 0.00 0.00 0.00 0.00 0.00 0.00 0.00 0.00 0.00 0.00 0.00 0.00 0.00 0.00 0.00 0.00 0.00 0.00 0.00 0.00 0.00 0.00 0.00 0.00 0.00 0.00 0.00 0.00 0.00 0.00 0.00 0.00 0.00 0.00 0.00 0.00 0.00
0.00 0.00 0.00 0.00 0.00 0.00 0.00 0.00 0.00 0.00 0.00 0.00 0.00 0.00 0.00 0.00 0.00 0.00 0.00 0.00 0.00 0.00 0.00 0.00 0.00 0.00 0.00 0.00 0.00 0.00 0.00 0.00 0.00 0.00 0.00 0.00 0.00 0.00 0.00 0.00 0.00 0.00 0.00
0.00 0.00 0.00 0.00 0.00 0.00 0.00 0.00 0.00 0.00 0.00 0.00 0.00 0.00 0.00 0.00 0.00 0.00 0.00 0.00 0.00 0.00 0.00 0.00 0.00 0.00 0.00 0.00 0.00 0.00 0.00 0.00 0.00 0.00 0.00 0.00 0.00 0.00 0.00 0.00 0.00 0.00 0.00
0.00 0.00 0.00 0.00 0.00 0.00 0.00 0.00 0.00 0.00 0.00 0.00 0.00 0.00 0.00 0.00 0.00 0.00 0.00 0.00 0.00 0.00 0.00 0.00 0.00 0.00 0.00 0.00 0.00 0.00 0.01 0.01 0.00 0.00 0.00 0.00 0.00 0.00 0.00 0.00 0.00 0.00 0.00
0.00 0.00 0.00 0.00 0.00 0.00 0.00 0.00 0.00 0.00 0.00 0.00 0.00 0.00 0.00 0.00 0.00 0.00 0.00 0.00 0.00 0.00 0.00 0.00 0.00 0.00 0.00 0.00 0.01 0.01 0.02 0.02 0.02 0.00 0.00 0.00 0.00 0.00 0.00 0.00 0.00 0.00 0.00
0.00 0.00 0.00 0.00 0.00 0.00 0.00 0.00 0.00 0.00 0.00 0.00 0.00 0.00 0.00 0.00 0.00 0.00 0.00 0.00 0.00 0.00 0.00 0.00 0.00 0.00 0.00 0.00 0.02 0.03 0.03 0.02 0.01 0.00 0.00 0.00 0.00 0.00 0.00 0.00 0.00 0.00 0.00
0.00 0.00 0.00 0.00 0.00 0.00 0.00 0.00 0.00 0.00 0.00 0.00 0.00 0.00 0.00 0.01 0.01 0.01 0.01 0.00 0.00 0.00 0.00 0.00 0.00 0.01 0.01 0.06 0.07 0.04 0.01 0.00 0.00 0.00 0.00 0.00 0.00 0.00 0.00 0.00 0.00 0.00 0.00
0.00 0.00 0.00 0.00 0.00 0.00 0.00 0.00 0.00 0.00 0.00 0.00 0.00 0.00 0.00 0.01 0.01 0.01 0.01 0.00 0.00 0.00 0.00 0.01 0.00 0.01 0.02 0.03 0.05 0.06 0.04 0.01 0.00 0.00 0.00 0.00 0.00 0.00 0.00 0.00 0.00 0.00 0.00

GFSGL_prec_precacc12_129.txt.gz
Total_Precipitation_Accumulation
0.00 0.00 0.00 0.00 0.00 0.00 0.05 0.12 0.22 0.22 0.14 0.14 0.07 0.14 0.15 0.17 0.15 0.18 0.12 0.08 0.11 0.09 0.02 0.04 0.04 0.02 0.00 0.00 0.00 0.00 0.01 0.02 0.02 0.03 0.01 0.00 0.01 0.02 0.04 0.03 0.02 0.04 0.12
0.00 0.00 0.00 0.00 0.00 0.00 0.05 0.06 0.18 0.30 0.27 0.16 0.23 0.24 0.24 0.20 0.24 0.18 0.30 0.24 0.18 0.14 0.10 0.10 0.11 0.03 0.09 0.04 0.01 0.02 0.02 0.03 0.02 0.02 0.01 0.01 0.03 0.08 0.12 0.14 0.04 0.09 0.12
0.00 0.00 0.01 0.01 0.00 0.01 0.02 0.03 0.08 0.17 0.13 0.13 0.29 0.32 0.32 0.31 0.27 0.29 0.34 0.21 0.22 0.20 0.14 0.16 0.10 0.12 0.13 0.13 0.12 0.10 0.05 0.10 0.17 0.13 0.05 0.05 0.19 0.35 0.51 0.39 0.18 0.25 0.31
0.00 0.00 0.00 0.02 0.03 0.00 0.02 0.04 0.07 0.07 0.06 0.07 0.09 0.14 0.16 0.13 0.15 0.24 0.28 0.27 0.24 0.18 0.42 0.29 0.26 0.39 0.31 0.23 0.19 0.26 0.24 0.18 0.20 0.14 0.20 0.13 0.13 0.31 0.54 0.19 0.21 0.42 0.46
0.01 0.00 0.01 0.05 0.12 0.18 0.14 0.10 0.07 0.03 0.02 0.02 0.02 0.03 0.05 0.05 0.04 0.06 0.12 0.13 0.15 0.15 0.22 0.27 0.19 0.28 0.41 0.31 0.28 0.26 0.24 0.15 0.13 0.15 0.23 0.22 0.20 0.24 0.22 0.10 0.11 0.21 0.33
0.25 0.15 0.21 0.26 0.23 0.19 0.14 0.19 0.15 0.11 0.11 0.10 0.09 0.09 0.08 0.05 0.01 0.03 0.05 0.04 0.04 0.04 0.08 0.11 0.13 0.16 0.07 0.05 0.03 0.05 0.15 0.25 0.28 0.22 0.18 0.21 0.25 0.29 0.21 0.14 0.15 0.28 0.36
0.91 0.32 0.23 0.29 0.24 0.19 0.19 0.31 0.31 0.29 0.26 0.26 0.24 0.29 0.21 0.10 0.09 0.04 0.03 0.00 0.02 0.06 0.12 0.26 0.31 0.28 0.33 0.16 0.05 0.00 0.00 0.01 0.04 0.09 0.16 0.22 0.19 0.18 0.04 0.07 0.16 0.23 0.34
1.67 1.27 0.59 0.41 0.43 0.48 0.41 0.35 0.32 0.29 0.35 0.39 0.34 0.26 0.21 0.13 0.13 0.04 0.02 0.01 0.01 0.10 0.16 0.13 0.22 0.23 0.25 0.14 0.12 0.06 0.00 0.00 0.00 0.00 0.00 0.05 0.00 0.00 0.00 0.01 0.02 0.07 0.13
0.88 1.22 1.11 0.65 0.55 0.48 0.49 0.56 0.52 0.47 0.43 0.30 0.18 0.13 0.07 0.04 0.08 0.04 0.01 0.01 0.02 0.05 0.02 0.00 0.02 0.03 0.03 0.01 0.00 0.00 0.01 0.00 0.00 0.00 0.00 0.00 0.00 0.00 0.00 0.00 0.01 0.06 0.19
0.73 0.63 0.70 0.76 0.75 0.62 0.75 0.85 0.78 0.72 0.53 0.34 0.34 0.30 0.23 0.13 0.15 0.11 0.06 0.02 0.04 0.07 0.04 0.01 0.04 0.02 0.01 0.00 0.01 0.05 0.16 0.12 0.09 0.02 0.00 0.00 0.00 0.00 0.00 0.00 0.00 0.00 0.01
0.88 0.84 0.66 0.58 0.89 0.92 0.85 0.76 0.75 0.80 0.98 0.98 0.93 0.73 0.58 0.46 0.37 0.31 0.15 0.08 0.09 0.16 0.19 0.08 0.02 0.02 0.01 0.00 0.00 0.01 0.04 0.05 0.05 0.03 0.01 0.00 0.00 0.00 0.00 0.00 0.00 0.00 0.00
1.02 0.78 0.86 0.80 0.64 0.70 0.66 0.71 0.96 0.95 1.09 1.08 1.18 1.12 0.93 0.83 0.71 0.52 0.36 0.09 0.06 0.06 0.06 0.05 0.04 0.01 0.00 0.00 0.00 0.01 0.01 0.00 0.00 0.00 0.00 0.00 0.00 0.00 0.01 0.00 0.00 0.00 0.00
0.62 0.61 0.98 1.53 0.86 0.32 0.31 0.39 0.49 0.53 0.49 0.39 0.49 0.62 0.65 0.60 0.55 0.40 0.20 0.09 0.07 0.08 0.06 0.04 0.02 0.02 0.01 0.01 0.01 0.01 0.01 0.01 0.01 0.01 0.00 0.00 0.00 0.00 0.00 0.00 0.00 0.00 0.00
0.98 1.12 1.18 0.96 0.49 0.16 0.07 0.11 0.21 0.27 0.43 0.53 0.38 0.28 0.29 0.25 0.20 0.14 0.11 0.04 0.01 0.00 0.00 0.00 0.00 0.00 0.00 0.00 0.00 0.00 0.00 0.00 0.00 0.00 0.00 0.00 0.00 0.00 0.00 0.00 0.00 0.00 0.00
0.31 0.24 0.16 0.15 0.17 0.06 0.04 0.06 0.10 0.11 0.18 0.36 0.51 0.28 0.17 0.10 0.04 0.02 0.01 0.00 0.00 0.00 0.00 0.00 0.00 0.00 0.00 0.00 0.00 0.00 0.00 0.00 0.00 0.00 0.00 0.00 0.00 0.00 0.00 0.00 0.00 0.00 0.00
0.08 0.02 0.02 0.04 0.03 0.03 0.01 0.00 0.01 0.04 0.04 0.03 0.04 0.05 0.03 0.02 0.00 0.00 0.00 0.00 0.00 0.00 0.00 0.00 0.00 0.00 0.00 0.00 0.00 0.00 0.00 0.00 0.00 0.00 0.00 0.00 0.00 0.00 0.00 0.00 0.00 0.00 0.00
0.00 0.00 0.00 0.00 0.00 0.00 0.00 0.00 0.00 0.00 0.00 0.00 0.00 0.00 0.00 0.00 0.00 0.00 0.00 0.00 0.00 0.00 0.00 0.00 0.00 0.00 0.00 0.00 0.00 0.00 0.00 0.00 0.00 0.00 0.00 0.00 0.00 0.00 0.00 0.00 0.00 0.00 0.00
0.00 0.00 0.00 0.00 0.00 0.00 0.00 0.00 0.00 0.00 0.00 0.00 0.00 0.00 0.00 0.00 0.00 0.00 0.00 0.00 0.00 0.00 0.00 0.00 0.00 0.00 0.00 0.00 0.00 0.00 0.00 0.00 0.00 0.00 0.00 0.00 0.00 0.00 0.00 0.00 0.00 0.00 0.00
0.00 0.00 0.00 0.00 0.00 0.00 0.00 0.00 0.00 0.00 0.00 0.00 0.00 0.00 0.00 0.00 0.00 0.00 0.00 0.00 0.00 0.00 0.00 0.00 0.00 0.00 0.00 0.00 0.00 0.00 0.00 0.00 0.00 0.00 0.00 0.00 0.00 0.00 0.00 0.00 0.00 0.00 0.00
0.00 0.00 0.00 0.00 0.00 0.00 0.00 0.00 0.00 0.00 0.00 0.00 0.00 0.00 0.00 0.00 0.00 0.00 0.00 0.00 0.00 0.00 0.00 0.00 0.00 0.00 0.00 0.00 0.00 0.00 0.00 0.00 0.00 0.00 0.00 0.00 0.00 0.00 0.00 0.00 0.00 0.00 0.00
0.00 0.00 0.00 0.00 0.00 0.00 0.00 0.00 0.00 0.00 0.00 0.00 0.00 0.00 0.00 0.00 0.00 0.00 0.00 0.00 0.00 0.00 0.00 0.00 0.00 0.00 0.00 0.00 0.00 0.00 0.00 0.00 0.00 0.00 0.00 0.00 0.00 0.00 0.00 0.00 0.00 0.00 0.00
0.00 0.00 0.00 0.00 0.00 0.00 0.00 0.00 0.00 0.00 0.00 0.00 0.00 0.00 0.00 0.00 0.00 0.00 0.00 0.00 0.00 0.00 0.00 0.00 0.00 0.00 0.00 0.00 0.00 0.00 0.01 0.02 0.02 0.04 0.03 0.02 0.00 0.00 0.00 0.00 0.00 0.00 0.00
0.00 0.00 0.00 0.00 0.00 0.00 0.00 0.00 0.00 0.00 0.00 0.00 0.00 0.00 0.00 0.00 0.00 0.00 0.00 0.00 0.00 0.00 0.00 0.00 0.00 0.00 0.00 0.00 0.01 0.01 0.02 0.02 0.05 0.05 0.03 0.00 0.00 0.00 0.00 0.00 0.00 0.00 0.00
0.00 0.00 0.00 0.00 0.00 0.00 0.00 0.00 0.00 0.00 0.00 0.00 0.00 0.00 0.00 0.00 0.00 0.00 0.00 0.00 0.00 0.00 0.00 0.00 0.00 0.00 0.00 0.00 0.02 0.03 0.03 0.02 0.04 0.03 0.02 0.01 0.00 0.00 0.00 0.00 0.00 0.00 0.00
0.00 0.00 0.00 0.00 0.00 0.00 0.00 0.00 0.00 0.00 0.00 0.00 0.00 0.00 0.00 0.00 0.00 0.00 0.00 0.00 0.00 0.00 0.00 0.00 0.00 0.01 0.01 0.06 0.07 0.04 0.01 0.00 0.00 0.00 0.00 0.00 0.00 0.00 0.00 0.00 0.00 0.00 0.00
0.00 0.00 0.00 0.00 0.00 0.00 0.00 0.00 0.00 0.00 0.00 0.00 0.00 0.00 0.00 0.00 0.00 0.00 0.00 0.00 0.00 0.00 0.00 0.01 0.00 0.01 0.02 0.03 0.05 0.06 0.04 0.01 0.00 0.00 0.00 0.00 0.01 0.01 0.01 0.00 0.00 0.00 0.00

GFSGL_prec_precacc12_132.txt.gz
Total_Precipitation_Accumulation
0.00 0.00 0.00 0.00 0.00 0.00 0.04 0.09 0.13 0.16 0.12 0.14 0.07 0.16 0.18 0.13 0.13 0.16 0.07 0.08 0.09 0.07 0.03 0.03 0.02 0.01 0.00 0.01 0.05 0.01 0.01 0.03 0.05 0.05 0.05 0.01 0.01 0.02 0.05 0.04 0.02 0.06 0.17
0.00 0.00 0.00 0.00 0.00 0.00 0.00 0.03 0.13 0.25 0.19 0.16 0.23 0.28 0.26 0.23 0.28 0.16 0.19 0.23 0.17 0.14 0.09 0.12 0.12 0.02 0.05 0.02 0.10 0.06 0.01 0.02 0.04 0.07 0.05 0.02 0.02 0.08 0.12 0.14 0.04 0.09 0.15
0.00 0.00 0.01 0.01 0.00 0.01 0.02 0.02 0.08 0.17 0.12 0.13 0.29 0.32 0.32 0.31 0.28 0.22 0.20 0.19 0.20 0.19 0.13 0.16 0.09 0.10 0.10 0.10 0.11 0.11 0.03 0.09 0.14 0.13 0.03 0.04 0.18 0.35 0.55 0.39 0.18 0.25 0.31
0.14 0.03 0.00 0.02 0.02 0.00 0.02 0.05 0.08 0.07 0.06 0.09 0.10 0.14 0.16 0.13 0.15 0.18 0.17 0.19 0.20 0.15 0.31 0.26 0.18 0.34 0.27 0.20 0.15 0.17 0.16 0.09 0.12 0.09 0.11 0.09 0.12 0.31 0.55 0.19 0.21 0.42 0.46
0.29 0.19 0.11 0.05 0.04 0.09 0.10 0.11 0.12 0.08 0.09 0.07 0.04 0.05 0.05 0.04 0.03 0.05 0.09 0.09 0.12 0.12 0.17 0.12 0.11 0.17 0.28 0.23 0.18 0.16 0.18 0.09 0.08 0.11 0.16 0.13 0.12 0.19 0.17 0.10 0.11 0.21 0.31
1.16 0.44 0.25 0.21 0.17 0.10 0.09 0.13 0.15 0.17 0.23 0.18 0.10 0.11 0.09 0.06 0.02 0.03 0.05 0.04 0.03 0.05 0.05 0.06 0.11 0.11 0.11 0.06 0.02 0.05 0.13 0.14 0.17 0.16 0.14 0.14 0.16 0.20 0.18 0.13 0.15 0.27 0.32
2.04 1.04 0.47 0.32 0.24 0.17 0.17 0.27 0.25 0.30 0.33 0.32 0.31 0.33 0.22 0.14 0.20 0.12 0.07 0.02 0.02 0.06 0.12 0.24 0.30 0.29 0.33 0.16 0.05 0.00 0.00 0.01 0.04 0.07 0.11 0.15 0.15 0.17 0.04 0.07 0.14 0.21 0.31
1.96 1.63 0.76 0.53 0.49 0.49 0.41 0.37 0.34 0.35 0.43 0.43 0.34 0.26 0.23 0.15 0.16 0.06 0.04 0.01 0.01 0.10 0.16 0.12 0.18 0.23 0.26 0.14 0.12 0.06 0.00 0.00 0.00 0.00 0.00 0.05 0.00 0.00 0.00 0.01 0.02 0.06 0.13
1.20 2.32 2.06 0.84 0.61 0.52 0.47 0.49 0.47 0.49 0.44 0.26 0.19 0.21 0.16 0.11 0.13 0.05 0.03 0.03 0.03 0.05 0.01 0.00 0.02 0.03 0.03 0.01 0.00 0.00 0.01 0.00 0.00 0.01 0.00 0.00 0.00 0.00 0.00 0.00 0.01 0.05 0.15
1.06 0.99 1.97 1.99 1.03 0.59 0.47 0.64 0.59 0.59 0.55 0.36 0.28 0.20 0.18 0.12 0.16 0.12 0.07 0.02 0.06 0.10 0.07 0.03 0.08 0.04 0.04 0.01 0.01 0.05 0.16 0.12 0.11 0.05 0.01 0.00 0.00 0.00 0.00 0.00 0.00 0.00 0.01
1.02 1.04 1.03 1.17 1.16 0.85 1.18 1.06 0.76 0.70 0.72 0.75 0.70 0.59 0.53 0.43 0.37 0.35 0.19 0.09 0.12 0.19 0.21 0.08 0.02 0.02 0.01 0.00 0.00 0.01 0.04 0.06 0.07 0.04 0.02 0.01 0.00 0.00 0.01 0.00 0.00 0.00 0.00
1.80 1.36 1.40 1.38 0.97 0.63 0.53 0.93 0.89 0.69 0.58 0.66 0.84 0.85 0.82 0.81 0.75 0.58 0.41 0.13 0.07 0.07 0.07 0.05 0.04 0.01 0.00 0.00 0.00 0.01 0.01 0.01 0.01 0.00 0.00 0.01 0.02 0.02 0.02 0.00 0.00 0.00 0.00
0.92 1.12 1.70 2.26 1.64 0.92 0.54 0.36 0.32 0.34 0.29 0.29 0.39 0.52 0.58 0.58 0.56 0.40 0.20 0.09 0.07 0.08 0.06 0.04 0.02 0.02 0.01 0.01 0.01 0.01 0.01 0.01 0.01 0.01 0.01 0.01 0.01 0.01 0.01 0.01 0.00 0.00 0.00
1.41 1.42 1.40 1.18 0.71 0.35 0.18 0.10 0.10 0.05 0.08 0.15 0.18 0.18 0.24 0.24 0.20 0.14 0.11 0.04 0.01 0.00 0.00 0.00 0.00 0.00 0.00 0.00 0.00 0.00 0.00 0.00 0.00 0.00 0.00 0.00 0.00 0.00 0.00 0.00 0.00 0.00 0.00
0.50 0.32 0.20 0.20 0.26 0.20 0.11 0.03 0.02 0.02 0.03 0.07 0.24 0.16 0.13 0.09 0.04 0.02 0.01 0.00 0.00 0.00 0.00 0.00 0.00 0.00 0.00 0.00 0.00 0.00 0.00 0.00 0.00 0.00 0.00 0.00 0.00 0.00 0.00 0.00 0.00 0.00 0.00
0.14 0.07 0.09 0.12 0.08 0.07 0.02 0.00 0.00 0.01 0.01 0.01 0.02 0.03 0.03 0.02 0.00 0.00 0.00 0.00 0.00 0.00 0.00 0.00 0.00 0.00 0.00 0.00 0.00 0.00 0.00 0.00 0.00 0.00 0.00 0.00 0.00 0.00 0.00 0.00 0.00 0.00 0.00
0.00 0.00 0.01 0.01 0.00 0.00 0.00 0.00 0.00 0.00 0.00 0.00 0.00 0.00 0.00 0.00 0.00 0.00 0.00 0.00 0.00 0.00 0.00 0.00 0.00 0.00 0.00 0.00 0.00 0.00 0.00 0.00 0.00 0.00 0.00 0.00 0.00 0.00 0.00 0.00 0.00 0.00 0.00
0.00 0.00 0.00 0.00 0.00 0.00 0.00 0.00 0.00 0.00 0.00 0.00 0.00 0.00 0.00 0.00 0.00 0.00 0.00 0.00 0.00 0.00 0.00 0.00 0.00 0.00 0.00 0.00 0.00 0.00 0.00 0.00 0.00 0.00 0.00 0.00 0.00 0.00 0.00 0.00 0.00 0.00 0.00
0.00 0.00 0.00 0.00 0.00 0.00 0.00 0.00 0.00 0.00 0.00 0.00 0.00 0.00 0.00 0.00 0.00 0.00 0.00 0.00 0.00 0.00 0.00 0.00 0.00 0.00 0.00 0.00 0.00 0.00 0.00 0.00 0.00 0.00 0.00 0.00 0.00 0.00 0.00 0.00 0.00 0.00 0.00
0.00 0.00 0.00 0.00 0.00 0.00 0.00 0.00 0.00 0.00 0.00 0.00 0.00 0.00 0.00 0.00 0.00 0.00 0.00 0.00 0.00 0.00 0.00 0.00 0.00 0.00 0.00 0.00 0.00 0.00 0.00 0.00 0.00 0.00 0.00 0.00 0.00 0.00 0.00 0.00 0.00 0.00 0.00
0.00 0.00 0.00 0.00 0.00 0.00 0.00 0.00 0.00 0.00 0.00 0.00 0.00 0.00 0.00 0.00 0.00 0.00 0.00 0.00 0.00 0.00 0.00 0.00 0.00 0.00 0.00 0.00 0.00 0.00 0.00 0.00 0.00 0.00 0.00 0.00 0.00 0.00 0.00 0.00 0.00 0.00 0.00
0.00 0.00 0.00 0.00 0.00 0.00 0.00 0.00 0.00 0.00 0.00 0.00 0.00 0.00 0.00 0.00 0.00 0.00 0.00 0.00 0.00 0.00 0.00 0.00 0.00 0.00 0.00 0.00 0.00 0.00 0.01 0.02 0.02 0.04 0.03 0.02 0.01 0.00 0.00 0.00 0.00 0.00 0.00
0.00 0.00 0.00 0.00 0.00 0.00 0.00 0.00 0.00 0.00 0.00 0.00 0.00 0.00 0.00 0.00 0.00 0.00 0.00 0.00 0.00 0.00 0.00 0.00 0.00 0.00 0.00 0.00 0.01 0.01 0.02 0.02 0.05 0.05 0.03 0.00 0.00 0.00 0.00 0.00 0.00 0.00 0.00
0.00 0.00 0.00 0.00 0.00 0.00 0.00 0.00 0.00 0.00 0.00 0.00 0.00 0.00 0.00 0.00 0.00 0.00 0.00 0.00 0.00 0.00 0.00 0.00 0.00 0.00 0.00 0.00 0.02 0.03 0.03 0.02 0.04 0.03 0.02 0.01 0.00 0.00 0.00 0.00 0.00 0.00 0.00
0.00 0.00 0.00 0.00 0.00 0.00 0.00 0.00 0.00 0.00 0.00 0.00 0.00 0.00 0.00 0.00 0.00 0.00 0.00 0.00 0.00 0.00 0.00 0.00 0.00 0.00 0.01 0.06 0.07 0.04 0.01 0.00 0.00 0.00 0.00 0.00 0.00 0.00 0.00 0.00 0.01 0.00 0.00
0.00 0.00 0.00 0.00 0.00 0.00 0.00 0.00 0.00 0.00 0.00 0.00 0.00 0.00 0.00 0.00 0.00 0.00 0.00 0.00 0.00 0.00 0.00 0.00 0.00 0.00 0.01 0.03 0.05 0.06 0.04 0.01 0.00 0.00 0.00 0.00 0.01 0.01 0.01 0.01 0.00 0.00 0.00

GFSGL_prec_precacc12_135.txt.gz
Total_Precipitation_Accumulation
0.00 0.00 0.00 0.00 0.00 0.00 0.03 0.04 0.07 0.09 0.05 0.09 0.04 0.08 0.13 0.13 0.10 0.05 0.02 0.08 0.07 0.05 0.03 0.03 0.02 0.01 0.00 0.01 0.09 0.08 0.11 0.10 0.06 0.05 0.07 0.02 0.01 0.02 0.05 0.04 0.02 0.06 0.17
0.02 0.01 0.00 0.00 0.00 0.00 0.00 0.02 0.06 0.19 0.11 0.07 0.17 0.25 0.29 0.24 0.25 0.08 0.13 0.21 0.12 0.09 0.09 0.12 0.12 0.02 0.04 0.01 0.13 0.13 0.06 0.04 0.05 0.10 0.06 0.02 0.01 0.07 0.12 0.14 0.04 0.07 0.15
0.03 0.01 0.01 0.01 0.00 0.01 0.02 0.02 0.06 0.15 0.09 0.09 0.20 0.25 0.29 0.31 0.26 0.20 0.15 0.19 0.16 0.14 0.12 0.15 0.09 0.09 0.09 0.07 0.09 0.12 0.04 0.06 0.06 0.05 0.02 0.03 0.06 0.23 0.52 0.38 0.18 0.24 0.27
0.24 0.10 0.04 0.03 0.02 0.00 0.02 0.05 0.08 0.07 0.05 0.09 0.10 0.11 0.13 0.19 0.15 0.15 0.12 0.25 0.20 0.11 0.22 0.17 0.12 0.24 0.19 0.10 0.08 0.17 0.13 0.08 0.10 0.03 0.01 0.03 0.11 0.18 0.33 0.16 0.13 0.35 0.41
0.50 0.39 0.26 0.16 0.05 0.05 0.06 0.07 0.08 0.06 0.08 0.10 0.10 0.06 0.10 0.04 0.02 0.02 0.05 0.10 0.16 0.09 0.10 0.06 0.08 0.10 0.11 0.07 0.05 0.05 0.09 0.05 0.04 0.03 0.07 0.05 0.09 0.18 0.13 0.08 0.10 0.20 0.23
1.21 0.58 0.42 0.31 0.18 0.08 0.07 0.06 0.07 0.12 0.19 0.19 0.12 0.11 0.11 0.04 0.05 0.02 0.06 0.08 0.09 0.07 0.02 0.03 0.06 0.05 0.15 0.10 0.03 0.01 0.07 0.08 0.11 0.10 0.08 0.07 0.10 0.14 0.12 0.11 0.15 0.24 0.23
2.10 1.29 0.64 0.45 0.33 0.21 0.20 0.24 0.15 0.21 0.30 0.32 0.32 0.31 0.17 0.10 0.20 0.15 0.09 0.04 0.03 0.04 0.07 0.18 0.20 0.24 0.30 0.16 0.05 0.00 0.00 0.01 0.02 0.02 0.06 0.07 0.06 0.05 0.01 0.03 0.09 0.15 0.22
1.94 1.82 1.15 0.73 0.53 0.46 0.38 0.32 0.33 0.41 0.49 0.48 0.39 0.26 0.19 0.13 0.23 0.12 0.06 0.03 0.03 0.09 0.13 0.11 0.07 0.13 0.23 0.14 0.12 0.06 0.00 0.00 0.00 0.00 0.00 0.00 0.00 0.00 0.00 0.00 0.01 0.03 0.09
1.10 2.30 2.12 0.87 0.60 0.48 0.42 0.43 0.45 0.49 0.47 0.31 0.24 0.25 0.20 0.12 0.18 0.15 0.13 0.10 0.07 0.06 0.01 0.00 0.01 0.01 0.02 0.01 0.00 0.00 0.01 0.00 0.00 0.01 0.01 0.00 0.00 0.01 0.00 0.00 0.00 0.02 0.06
0.86 0.90 1.95 1.96 1.02 0.59 0.44 0.40 0.37 0.36 0.32 0.25 0.22 0.18 0.22 0.19 0.23 0.22 0.17 0.08 0.07 0.10 0.07 0.03 0.10 0.04 0.03 0.02 0.01 0.04 0.16 0.13 0.12 0.08 0.06 0.01 0.00 0.01 0.00 0.00 0.00 0.00 0.00
0.87 0.92 0.92 1.10 1.32 1.08 1.00 0.82 0.55 0.40 0.33 0.28 0.31 0.40 0.46 0.46 0.40 0.36 0.19 0.08 0.09 0.17 0.22 0.09 0.03 0.03 0.01 0.00 0.00 0.01 0.04 0.06 0.08 0.05 0.03 0.02 0.01 0.01 0.02 0.01 0.00 0.00 0.00
2.05 1.55 1.43 1.30 1.01 0.98 0.88 1.16 1.25 0.73 0.51 0.48 0.42 0.42 0.56 0.73 0.78 0.61 0.45 0.20 0.19 0.31 0.22 0.09 0.05 0.02 0.00 0.00 0.00 0.01 0.01 0.01 0.01 0.00 0.01 0.02 0.04 0.03 0.03 0.00 0.00 0.00 0.00
1.11 1.62 2.44 2.53 1.92 1.11 0.90 0.73 0.82 0.95 0.62 0.62 0.69 0.75 0.85 0.76 0.64 0.47 0.28 0.16 0.14 0.23 0.10 0.04 0.02 0.02 0.01 0.01 0.01 0.01 0.00 0.01 0.01 0.01 0.01 0.01 0.01 0.02 0.02 0.01 0.00 0.00 0.00
1.45 1.42 1.60 1.72 1.36 1.00 0.62 0.52 0.44 0.46 0.40 0.43 0.51 0.45 0.43 0.40 0.34 0.25 0.13 0.06 0.02 0.00 0.00 0.00 0.00 0.00 0.00 0.00 0.00 0.00 0.00 0.00 0.00 0.00 0.00 0.00 0.00 0.00 0.00 0.00 0.00 0.00 0.00
0.52 0.40 0.32 0.37 0.49 0.45 0.35 0.26 0.20 0.21 0.20 0.19 0.16 0.10 0.09 0.06 0.03 0.03 0.01 0.00 0.00 0.00 0.00 0.00 0.00 0.00 0.00 0.00 0.00 0.00 0.00 0.00 0.00 0.00 0.00 0.00 0.00 0.00 0.00 0.00 0.00 0.00 0.00
0.14 0.08 0.15 0.22 0.16 0.14 0.09 0.08 0.09 0.07 0.03 0.03 0.04 0.02 0.01 0.01 0.00 0.00 0.00 0.00 0.00 0.00 0.00 0.00 0.00 0.00 0.00 0.00 0.00 0.00 0.00 0.00 0.00 0.00 0.00 0.00 0.00 0.00 0.00 0.00 0.00 0.00 0.00
0.02 0.01 0.05 0.07 0.02 0.01 0.02 0.02 0.03 0.02 0.01 0.01 0.00 0.00 0.00 0.00 0.00 0.00 0.00 0.00 0.00 0.00 0.00 0.00 0.00 0.00 0.00 0.00 0.00 0.00 0.00 0.00 0.00 0.00 0.00 0.00 0.00 0.00 0.00 0.00 0.00 0.00 0.00
0.06 0.06 0.02 0.01 0.00 0.00 0.00 0.00 0.00 0.00 0.00 0.00 0.00 0.00 0.00 0.00 0.00 0.00 0.00 0.00 0.00 0.00 0.00 0.00 0.00 0.00 0.00 0.00 0.00 0.00 0.00 0.00 0.00 0.00 0.00 0.00 0.00 0.00 0.00 0.00 0.00 0.00 0.00
0.00 0.00 0.00 0.00 0.00 0.00 0.00 0.00 0.00 0.00 0.00 0.00 0.00 0.00 0.00 0.00 0.00 0.00 0.00 0.00 0.00 0.00 0.00 0.00 0.00 0.00 0.00 0.00 0.00 0.00 0.00 0.00 0.00 0.00 0.00 0.00 0.00 0.00 0.00 0.00 0.00 0.00 0.00
0.00 0.00 0.00 0.00 0.00 0.00 0.00 0.00 0.00 0.00 0.00 0.00 0.00 0.00 0.00 0.00 0.00 0.00 0.00 0.00 0.00 0.00 0.00 0.00 0.00 0.00 0.00 0.00 0.00 0.00 0.00 0.00 0.00 0.00 0.00 0.00 0.00 0.00 0.00 0.00 0.00 0.00 0.00
0.00 0.00 0.00 0.00 0.00 0.00 0.00 0.00 0.00 0.00 0.00 0.00 0.00 0.00 0.00 0.00 0.00 0.00 0.00 0.00 0.00 0.00 0.00 0.00 0.00 0.00 0.00 0.00 0.00 0.00 0.00 0.00 0.00 0.00 0.00 0.00 0.00 0.00 0.00 0.00 0.00 0.00 0.00
0.00 0.00 0.00 0.00 0.00 0.00 0.00 0.00 0.00 0.00 0.00 0.00 0.00 0.00 0.00 0.00 0.00 0.00 0.00 0.00 0.00 0.00 0.00 0.00 0.00 0.00 0.00 0.00 0.00 0.00 0.01 0.02 0.02 0.04 0.03 0.02 0.01 0.00 0.00 0.00 0.00 0.00 0.00
0.00 0.00 0.00 0.00 0.00 0.00 0.00 0.00 0.00 0.00 0.00 0.00 0.00 0.00 0.00 0.00 0.00 0.00 0.00 0.00 0.00 0.00 0.00 0.00 0.00 0.00 0.00 0.00 0.01 0.01 0.02 0.02 0.05 0.05 0.03 0.00 0.00 0.00 0.00 0.00 0.00 0.00 0.00
0.00 0.00 0.00 0.00 0.00 0.00 0.00 0.00 0.00 0.00 0.00 0.00 0.00 0.00 0.00 0.00 0.00 0.00 0.00 0.00 0.00 0.00 0.00 0.00 0.00 0.00 0.00 0.00 0.02 0.03 0.03 0.02 0.04 0.03 0.02 0.01 0.00 0.00 0.00 0.00 0.00 0.00 0.00
0.00 0.00 0.00 0.00 0.00 0.00 0.00 0.00 0.00 0.00 0.00 0.00 0.00 0.00 0.00 0.00 0.00 0.00 0.00 0.00 0.00 0.00 0.00 0.00 0.00 0.00 0.00 0.05 0.07 0.04 0.01 0.00 0.00 0.00 0.00 0.00 0.00 0.00 0.00 0.00 0.01 0.00 0.00
0.00 0.00 0.00 0.00 0.00 0.00 0.00 0.00 0.00 0.00 0.00 0.00 0.00 0.00 0.00 0.00 0.00 0.00 0.00 0.00 0.00 0.00 0.00 0.00 0.00 0.00 0.00 0.01 0.05 0.06 0.04 0.01 0.00 0.00 0.00 0.00 0.01 0.01 0.01 0.01 0.00 0.00 0.00

GFSGL_prec_precacc12_138.txt.gz
Total_Precipitation_Accumulation
0.00 0.00 0.00 0.00 0.00 0.00 0.00 0.00 0.00 0.01 0.00 0.01 0.01 0.08 0.10 0.09 0.07 0.02 0.01 0.02 0.01 0.01 0.03 0.01 0.00 0.00 0.00 0.01 0.10 0.09 0.12 0.10 0.05 0.05 0.07 0.02 0.00 0.02 0.04 0.03 0.02 0.03 0.10
0.05 0.06 0.00 0.00 0.00 0.00 0.00 0.00 0.00 0.02 0.02 0.04 0.08 0.15 0.21 0.15 0.15 0.05 0.10 0.17 0.09 0.04 0.07 0.06 0.09 0.01 0.01 0.00 0.12 0.13 0.06 0.03 0.05 0.10 0.06 0.01 0.00 0.00 0.00 0.01 0.00 0.03 0.07
0.05 0.08 0.02 0.00 0.00 0.00 0.00 0.00 0.01 0.02 0.01 0.02 0.01 0.01 0.04 0.09 0.07 0.05 0.10 0.13 0.10 0.06 0.09 0.04 0.09 0.08 0.00 0.03 0.05 0.11 0.04 0.04 0.08 0.08 0.07 0.02 0.01 0.02 0.07 0.06 0.01 0.04 0.07
0.29 0.16 0.12 0.04 0.00 0.00 0.00 0.01 0.02 0.00 0.00 0.03 0.04 0.02 0.01 0.08 0.03 0.04 0.03 0.17 0.14 0.07 0.13 0.22 0.19 0.23 0.09 0.02 0.02 0.11 0.09 0.06 0.10 0.03 0.00 0.00 0.04 0.02 0.04 0.01 0.02 0.01 0.02
0.50 0.40 0.27 0.18 0.08 0.04 0.03 0.05 0.06 0.05 0.07 0.09 0.09 0.05 0.09 0.02 0.00 0.00 0.01 0.09 0.20 0.15 0.19 0.19 0.14 0.08 0.05 0.02 0.01 0.02 0.03 0.01 0.02 0.03 0.03 0.01 0.02 0.07 0.08 0.06 0.05 0.06 0.09
1.14 0.52 0.37 0.29 0.24 0.18 0.10 0.04 0.06 0.08 0.14 0.13 0.08 0.09 0.08 0.02 0.05 0.00 0.01 0.06 0.11 0.11 0.06 0.02 0.04 0.01 0.13 0.10 0.03 0.01 0.00 0.01 0.04 0.06 0.06 0.02 0.03 0.02 0.03 0.04 0.05 0.07 0.12
1.70 1.17 0.56 0.42 0.36 0.24 0.23 0.24 0.11 0.16 0.21 0.21 0.22 0.19 0.08 0.08 0.19 0.18 0.14 0.07 0.03 0.01 0.03 0.11 0.14 0.13 0.13 0.09 0.01 0.00 0.00 0.01 0.01 0.00 0.02 0.02 0.02 0.00 0.00 0.00 0.03 0.05 0.11
1.60 1.45 0.96 0.65 0.57 0.50 0.42 0.34 0.29 0.35 0.39 0.37 0.28 0.17 0.15 0.09 0.20 0.18 0.13 0.06 0.02 0.03 0.04 0.04 0.03 0.04 0.06 0.05 0.09 0.05 0.00 0.00 0.00 0.00 0.00 0.00 0.00 0.00 0.00 0.00 0.00 0.00 0.04
0.94 2.05 1.84 0.76 0.62 0.56 0.49 0.44 0.37 0.37 0.39 0.27 0.23 0.26 0.23 0.15 0.22 0.21 0.17 0.12 0.11 0.11 0.09 0.04 0.02 0.01 0.00 0.00 0.00 0.00 0.00 0.01 0.02 0.08 0.08 0.09 0.07 0.06 0.05 0.01 0.01 0.02 0.04
0.68 0.72 1.69 1.69 0.96 0.62 0.46 0.41 0.33 0.33 0.28 0.22 0.20 0.16 0.17 0.15 0.20 0.26 0.23 0.16 0.17 0.15 0.10 0.06 0.11 0.04 0.04 0.02 0.00 0.01 0.04 0.12 0.16 0.16 0.18 0.12 0.06 0.07 0.04 0.01 0.01 0.00 0.00
0.51 0.49 0.57 0.83 1.14 1.06 1.11 0.86 0.45 0.33 0.28 0.24 0.18 0.13 0.12 0.14 0.26 0.34 0.21 0.11 0.08 0.07 0.08 0.06 0.03 0.04 0.02 0.03 0.02 0.01 0.02 0.03 0.06 0.04 0.04 0.05 0.07 0.05 0.04 0.01 0.00 0.00 0.00
1.72 1.28 1.19 1.05 0.79 0.85 0.82 1.20 1.27 0.66 0.44 0.44 0.38 0.26 0.20 0.20 0.34 0.38 0.38 0.22 0.21 0.35 0.34 0.21 0.12 0.08 0.03 0.01 0.00 0.00 0.00 0.00 0.00 0.00 0.01 0.03 0.04 0.04 0.03 0.00 0.00 0.00 0.00
0.86 1.45 2.31 2.13 1.67 1.00 0.87 0.78 0.84 0.96 0.67 0.68 0.71 0.75 0.75 0.55 0.45 0.39 0.29 0.24 0.20 0.35 0.26 0.15 0.08 0.02 0.00 0.00 0.00 0.00 0.00 0.00 0.00 0.00 0.00 0.01 0.01 0.02 0.02 0.01 0.00 0.00 0.00
1.09 1.06 1.34 1.62 1.59 1.37 0.80 0.79 0.64 0.74 0.74 0.73 0.83 0.94 0.86 0.85 0.75 0.60 0.40 0.30 0.28 0.13 0.03 0.01 0.00 0.00 0.00 0.00 0.00 0.00 0.00 0.00 0.00 0.00 0.00 0.00 0.00 0.00 0.00 0.00 0.00 0.00 0.00
0.43 0.35 0.33 0.47 0.77 0.93 0.84 0.73 0.67 0.60 0.70 0.80 0.67 0.61 0.56 0.51 0.40 0.29 0.19 0.07 0.05 0.03 0.00 0.00 0.00 0.00 0.00 0.00 0.00 0.00 0.00 0.00 0.00 0.00 0.00 0.00 0.00 0.00 0.00 0.00 0.00 0.00 0.00
0.13 0.09 0.16 0.25 0.25 0.31 0.32 0.42 0.47 0.46 0.43 0.38 0.36 0.22 0.12 0.09 0.04 0.01 0.00 0.00 0.00 0.00 0.00 0.00 0.00 0.00 0.00 0.00 0.00 0.00 0.00 0.00 0.00 0.00 0.00 0.00 0.00 0.00 0.00 0.00 0.00 0.00 0.00
0.02 0.06 0.23 0.13 0.03 0.06 0.11 0.12 0.15 0.19 0.16 0.16 0.09 0.06 0.03 0.00 0.00 0.00 0.00 0.00 0.00 0.00 0.00 0.00 0.00 0.00 0.00 0.00 0.00 0.00 0.00 0.00 0.00 0.00 0.00 0.00 0.00 0.00 0.00 0.00 0.00 0.00 0.00
0.17 0.23 0.27 0.14 0.01 0.02 0.06 0.05 0.03 0.02 0.01 0.00 0.00 0.00 0.00 0.00 0.00 0.00 0.00 0.00 0.00 0.00 0.00 0.00 0.00 0.00 0.00 0.00 0.00 0.00 0.00 0.00 0.00 0.00 0.00 0.00 0.00 0.00 0.00 0.00 0.00 0.00 0.00
0.02 0.01 0.01 0.01 0.00 0.00 0.00 0.00 0.00 0.00 0.00 0.00 0.00 0.00 0.00 0.00 0.00 0.00 0.00 0.00 0.00 0.00 0.00 0.00 0.00 0.00 0.00 0.00 0.00 0.00 0.00 0.00 0.00 0.00 0.00 0.00 0.00 0.00 0.00 0.00 0.00 0.00 0.00
0.00 0.00 0.00 0.00 0.00 0.00 0.00 0.00 0.00 0.00 0.00 0.00 0.00 0.00 0.00 0.00 0.00 0.00 0.00 0.00 0.00 0.00 0.00 0.00 0.00 0.00 0.00 0.00 0.00 0.00 0.00 0.00 0.00 0.00 0.00 0.00 0.00 0.00 0.00 0.00 0.00 0.00 0.00
0.00 0.00 0.00 0.00 0.00 0.00 0.00 0.00 0.00 0.00 0.00 0.00 0.00 0.00 0.00 0.00 0.00 0.00 0.00 0.00 0.00 0.00 0.00 0.00 0.00 0.00 0.00 0.00 0.00 0.00 0.00 0.00 0.00 0.00 0.00 0.00 0.00 0.00 0.00 0.00 0.00 0.00 0.00
0.00 0.00 0.00 0.00 0.00 0.00 0.00 0.00 0.00 0.00 0.00 0.00 0.00 0.00 0.00 0.00 0.00 0.00 0.00 0.00 0.00 0.00 0.00 0.00 0.00 0.00 0.00 0.00 0.00 0.00 0.00 0.01 0.02 0.04 0.03 0.02 0.01 0.00 0.00 0.00 0.00 0.00 0.00
0.00 0.00 0.00 0.00 0.00 0.00 0.00 0.00 0.00 0.00 0.00 0.00 0.00 0.00 0.00 0.00 0.00 0.00 0.00 0.00 0.00 0.00 0.00 0.00 0.00 0.00 0.00 0.00 0.00 0.00 0.00 0.00 0.03 0.05 0.03 0.00 0.00 0.00 0.00 0.00 0.00 0.00 0.00
0.00 0.00 0.00 0.00 0.00 0.00 0.00 0.00 0.00 0.00 0.00 0.00 0.00 0.00 0.00 0.00 0.00 0.00 0.00 0.00 0.00 0.00 0.00 0.00 0.00 0.00 0.00 0.00 0.00 0.00 0.00 0.00 0.02 0.03 0.02 0.01 0.00 0.00 0.00 0.00 0.00 0.00 0.00
0.00 0.00 0.00 0.00 0.00 0.00 0.00 0.00 0.00 0.00 0.00 0.00 0.00 0.00 0.00 0.00 0.00 0.00 0.00 0.00 0.00 0.00 0.00 0.00 0.00 0.00 0.00 0.00 0.00 0.00 0.00 0.00 0.00 0.00 0.00 0.00 0.00 0.00 0.00 0.00 0.01 0.00 0.00
0.00 0.00 0.00 0.00 0.00 0.00 0.00 0.00 0.00 0.00 0.00 0.00 0.00 0.00 0.00 0.00 0.00 0.00 0.00 0.00 0.00 0.00 0.00 0.00 0.00 0.00 0.00 0.00 0.00 0.00 0.00 0.00 0.00 0.00 0.00 0.00 0.01 0.01 0.01 0.01 0.00 0.00 0.00